<?xml version="1.0" encoding="utf-8"?>
<gpx xmlns:xsi="http://www.w3.org/2001/XMLSchema-instance" xmlns:xsd="http://www.w3.org/2001/XMLSchema" version="1.1" creator="Shapelink.com" xmlns="http://www.topografix.com/GPX/1/1" xmlns:gpxtpx="http://www.garmin.com/xmlschemas/TrackPointExtension/v1">
  <metadata>
    <name>Løping 10.00 km, 2014-04-03</name>
    <desc></desc>
    <author><name>Mikael Blom</name></author> 
    <time>2014-04-03T18:40:49Z</time>
  </metadata>
  <trk>
    <name>Løping 10.00 km, 2014-04-03</name>
    <trkseg>
      <trkpt lat="59.9602256" lon="17.7167519">
        <ele>50.6066</ele>
        <time>2014-04-03T18:40:49Z</time>
      </trkpt>
      <trkpt lat="59.9602074" lon="17.7167124">
        <ele>50.126</ele>
        <time>2014-04-03T18:40:50Z</time>
      </trkpt>
      <trkpt lat="59.9601877" lon="17.7166634">
        <ele>50.126</ele>
        <time>2014-04-03T18:40:51Z</time>
      </trkpt>
      <trkpt lat="59.9601651" lon="17.71661">
        <ele>50.6066</ele>
        <time>2014-04-03T18:40:52Z</time>
      </trkpt>
      <trkpt lat="59.9601466" lon="17.7165633">
        <ele>50.6066</ele>
        <time>2014-04-03T18:40:53Z</time>
      </trkpt>
      <trkpt lat="59.9601256" lon="17.716533">
        <ele>51.0872</ele>
        <time>2014-04-03T18:40:54Z</time>
      </trkpt>
      <trkpt lat="59.9600953" lon="17.7165048">
        <ele>51.0872</ele>
        <time>2014-04-03T18:40:55Z</time>
      </trkpt>
      <trkpt lat="59.9600639" lon="17.7164691">
        <ele>52.0486</ele>
        <time>2014-04-03T18:40:56Z</time>
      </trkpt>
      <trkpt lat="59.9600344" lon="17.7164289">
        <ele>51.5679</ele>
        <time>2014-04-03T18:40:57Z</time>
      </trkpt>
      <trkpt lat="59.9600158" lon="17.7163736">
        <ele>52.0486</ele>
        <time>2014-04-03T18:40:58Z</time>
      </trkpt>
      <trkpt lat="59.9599935" lon="17.7163328">
        <ele>51.5679</ele>
        <time>2014-04-03T18:40:59Z</time>
      </trkpt>
      <trkpt lat="59.9599588" lon="17.7163069">
        <ele>51.5679</ele>
        <time>2014-04-03T18:41:00Z</time>
      </trkpt>
      <trkpt lat="59.9599285" lon="17.7162799">
        <ele>51.5679</ele>
        <time>2014-04-03T18:41:01Z</time>
      </trkpt>
      <trkpt lat="59.9598956" lon="17.7162614">
        <ele>51.0872</ele>
        <time>2014-04-03T18:41:02Z</time>
      </trkpt>
      <trkpt lat="59.9598583" lon="17.7162442">
        <ele>50.6066</ele>
        <time>2014-04-03T18:41:03Z</time>
      </trkpt>
      <trkpt lat="59.9598298" lon="17.7161996">
        <ele>49.6453</ele>
        <time>2014-04-03T18:41:04Z</time>
      </trkpt>
      <trkpt lat="59.9598089" lon="17.7161519">
        <ele>49.6453</ele>
        <time>2014-04-03T18:41:05Z</time>
      </trkpt>
      <trkpt lat="59.9597812" lon="17.7161209">
        <ele>49.6453</ele>
        <time>2014-04-03T18:41:06Z</time>
      </trkpt>
      <trkpt lat="59.9597572" lon="17.7160822">
        <ele>48.684</ele>
        <time>2014-04-03T18:41:07Z</time>
      </trkpt>
      <trkpt lat="59.9597381" lon="17.7160246">
        <ele>48.2034</ele>
        <time>2014-04-03T18:41:08Z</time>
      </trkpt>
      <trkpt lat="59.9597195" lon="17.7159704">
        <ele>48.2034</ele>
        <time>2014-04-03T18:41:09Z</time>
      </trkpt>
      <trkpt lat="59.9596998" lon="17.7159304">
        <ele>47.7225</ele>
        <time>2014-04-03T18:41:10Z</time>
      </trkpt>
      <trkpt lat="59.9596845" lon="17.7158878">
        <ele>47.2418</ele>
        <time>2014-04-03T18:41:11Z</time>
      </trkpt>
      <trkpt lat="59.9596661" lon="17.7158444">
        <ele>47.2418</ele>
        <time>2014-04-03T18:41:12Z</time>
      </trkpt>
      <trkpt lat="59.9596526" lon="17.7157952">
        <ele>47.7225</ele>
        <time>2014-04-03T18:41:13Z</time>
      </trkpt>
      <trkpt lat="59.959635" lon="17.7157427">
        <ele>47.2418</ele>
        <time>2014-04-03T18:41:14Z</time>
      </trkpt>
      <trkpt lat="59.959618" lon="17.7156899">
        <ele>47.2418</ele>
        <time>2014-04-03T18:41:15Z</time>
      </trkpt>
      <trkpt lat="59.9596096" lon="17.7156329">
        <ele>47.2418</ele>
        <time>2014-04-03T18:41:16Z</time>
      </trkpt>
      <trkpt lat="59.9596018" lon="17.7155702">
        <ele>47.2418</ele>
        <time>2014-04-03T18:41:17Z</time>
      </trkpt>
      <trkpt lat="59.9596011" lon="17.7155072">
        <ele>47.7225</ele>
        <time>2014-04-03T18:41:18Z</time>
      </trkpt>
      <trkpt lat="59.9596014" lon="17.7154445">
        <ele>48.2034</ele>
        <time>2014-04-03T18:41:19Z</time>
      </trkpt>
      <trkpt lat="59.9596156" lon="17.7153931">
        <ele>48.684</ele>
        <time>2014-04-03T18:41:20Z</time>
      </trkpt>
      <trkpt lat="59.9596329" lon="17.7153404">
        <ele>48.684</ele>
        <time>2014-04-03T18:41:21Z</time>
      </trkpt>
      <trkpt lat="59.9596521" lon="17.7152807">
        <ele>48.684</ele>
        <time>2014-04-03T18:41:22Z</time>
      </trkpt>
      <trkpt lat="59.959678" lon="17.7152202">
        <ele>50.126</ele>
        <time>2014-04-03T18:41:23Z</time>
      </trkpt>
      <trkpt lat="59.9596956" lon="17.7151636">
        <ele>50.126</ele>
        <time>2014-04-03T18:41:24Z</time>
      </trkpt>
      <trkpt lat="59.9597169" lon="17.7151145">
        <ele>51.0872</ele>
        <time>2014-04-03T18:41:25Z</time>
      </trkpt>
      <trkpt lat="59.9597313" lon="17.7150638">
        <ele>51.0872</ele>
        <time>2014-04-03T18:41:26Z</time>
      </trkpt>
      <trkpt lat="59.9597464" lon="17.7150242">
        <ele>51.0872</ele>
        <time>2014-04-03T18:41:27Z</time>
      </trkpt>
      <trkpt lat="59.9597644" lon="17.7149845">
        <ele>51.0872</ele>
        <time>2014-04-03T18:41:28Z</time>
      </trkpt>
      <trkpt lat="59.9597862" lon="17.7149607">
        <ele>50.126</ele>
        <time>2014-04-03T18:41:29Z</time>
      </trkpt>
      <trkpt lat="59.9598101" lon="17.7149322">
        <ele>51.0872</ele>
        <time>2014-04-03T18:41:30Z</time>
      </trkpt>
      <trkpt lat="59.9598358" lon="17.7149068">
        <ele>51.0872</ele>
        <time>2014-04-03T18:41:31Z</time>
      </trkpt>
      <trkpt lat="59.9598686" lon="17.7148862">
        <ele>51.0872</ele>
        <time>2014-04-03T18:41:32Z</time>
      </trkpt>
      <trkpt lat="59.9598991" lon="17.7148587">
        <ele>51.0872</ele>
        <time>2014-04-03T18:41:33Z</time>
      </trkpt>
      <trkpt lat="59.9599316" lon="17.7148275">
        <ele>51.5679</ele>
        <time>2014-04-03T18:41:34Z</time>
      </trkpt>
      <trkpt lat="59.9599477" lon="17.7147893">
        <ele>50.6066</ele>
        <time>2014-04-03T18:41:35Z</time>
      </trkpt>
      <trkpt lat="59.9599689" lon="17.7147442">
        <ele>50.126</ele>
        <time>2014-04-03T18:41:36Z</time>
      </trkpt>
      <trkpt lat="59.9599836" lon="17.7147011">
        <ele>49.6453</ele>
        <time>2014-04-03T18:41:37Z</time>
      </trkpt>
      <trkpt lat="59.9599979" lon="17.7146582">
        <ele>49.1646</ele>
        <time>2014-04-03T18:41:38Z</time>
      </trkpt>
      <trkpt lat="59.9600185" lon="17.7146168">
        <ele>49.1646</ele>
        <time>2014-04-03T18:41:39Z</time>
      </trkpt>
      <trkpt lat="59.9600378" lon="17.7145768">
        <ele>49.6453</ele>
        <time>2014-04-03T18:41:40Z</time>
      </trkpt>
      <trkpt lat="59.960056" lon="17.7145318">
        <ele>50.126</ele>
        <time>2014-04-03T18:41:41Z</time>
      </trkpt>
      <trkpt lat="59.9600784" lon="17.714501">
        <ele>49.6453</ele>
        <time>2014-04-03T18:41:42Z</time>
      </trkpt>
      <trkpt lat="59.9601022" lon="17.7144707">
        <ele>50.6066</ele>
        <time>2014-04-03T18:41:43Z</time>
      </trkpt>
      <trkpt lat="59.9601181" lon="17.7144272">
        <ele>51.0872</ele>
        <time>2014-04-03T18:41:44Z</time>
      </trkpt>
      <trkpt lat="59.9601317" lon="17.7143817">
        <ele>51.0872</ele>
        <time>2014-04-03T18:41:45Z</time>
      </trkpt>
      <trkpt lat="59.9601497" lon="17.7143453">
        <ele>50.126</ele>
        <time>2014-04-03T18:41:46Z</time>
      </trkpt>
      <trkpt lat="59.9601706" lon="17.7143143">
        <ele>49.6453</ele>
        <time>2014-04-03T18:41:47Z</time>
      </trkpt>
      <trkpt lat="59.9601902" lon="17.7142918">
        <ele>49.6453</ele>
        <time>2014-04-03T18:41:48Z</time>
      </trkpt>
      <trkpt lat="59.9602447" lon="17.7142337">
        <ele>50.126</ele>
        <time>2014-04-03T18:41:50Z</time>
      </trkpt>
      <trkpt lat="59.9602685" lon="17.7142055">
        <ele>49.6453</ele>
        <time>2014-04-03T18:41:51Z</time>
      </trkpt>
      <trkpt lat="59.9602889" lon="17.7141688">
        <ele>49.6453</ele>
        <time>2014-04-03T18:41:52Z</time>
      </trkpt>
      <trkpt lat="59.9603077" lon="17.7141271">
        <ele>49.6453</ele>
        <time>2014-04-03T18:41:53Z</time>
      </trkpt>
      <trkpt lat="59.9603275" lon="17.714094">
        <ele>49.6453</ele>
        <time>2014-04-03T18:41:54Z</time>
      </trkpt>
      <trkpt lat="59.9603517" lon="17.7140655">
        <ele>49.6453</ele>
        <time>2014-04-03T18:41:55Z</time>
      </trkpt>
      <trkpt lat="59.9603808" lon="17.714035">
        <ele>49.6453</ele>
        <time>2014-04-03T18:41:56Z</time>
      </trkpt>
      <trkpt lat="59.9604075" lon="17.7140009">
        <ele>49.1646</ele>
        <time>2014-04-03T18:41:57Z</time>
      </trkpt>
      <trkpt lat="59.96043" lon="17.7139666">
        <ele>49.1646</ele>
        <time>2014-04-03T18:41:58Z</time>
      </trkpt>
      <trkpt lat="59.9604508" lon="17.7139318">
        <ele>49.1646</ele>
        <time>2014-04-03T18:41:59Z</time>
      </trkpt>
      <trkpt lat="59.9604721" lon="17.7138984">
        <ele>48.684</ele>
        <time>2014-04-03T18:42:00Z</time>
      </trkpt>
      <trkpt lat="59.9604937" lon="17.7138593">
        <ele>48.684</ele>
        <time>2014-04-03T18:42:01Z</time>
      </trkpt>
      <trkpt lat="59.9605183" lon="17.7138198">
        <ele>48.684</ele>
        <time>2014-04-03T18:42:02Z</time>
      </trkpt>
      <trkpt lat="59.9605415" lon="17.713782">
        <ele>48.2034</ele>
        <time>2014-04-03T18:42:03Z</time>
      </trkpt>
      <trkpt lat="59.9605616" lon="17.7137489">
        <ele>48.2034</ele>
        <time>2014-04-03T18:42:04Z</time>
      </trkpt>
      <trkpt lat="59.9605799" lon="17.7137128">
        <ele>47.7225</ele>
        <time>2014-04-03T18:42:05Z</time>
      </trkpt>
      <trkpt lat="59.9605969" lon="17.7136717">
        <ele>47.7225</ele>
        <time>2014-04-03T18:42:06Z</time>
      </trkpt>
      <trkpt lat="59.9606068" lon="17.713632">
        <ele>46.2806</ele>
        <time>2014-04-03T18:42:07Z</time>
      </trkpt>
      <trkpt lat="59.9606072" lon="17.7135837">
        <ele>45.7999</ele>
        <time>2014-04-03T18:42:08Z</time>
      </trkpt>
      <trkpt lat="59.9606051" lon="17.7135326">
        <ele>45.3192</ele>
        <time>2014-04-03T18:42:09Z</time>
      </trkpt>
      <trkpt lat="59.9605932" lon="17.7134921">
        <ele>44.358</ele>
        <time>2014-04-03T18:42:10Z</time>
      </trkpt>
      <trkpt lat="59.9605741" lon="17.7134527">
        <ele>43.8773</ele>
        <time>2014-04-03T18:42:11Z</time>
      </trkpt>
      <trkpt lat="59.9605409" lon="17.7134191">
        <ele>43.8773</ele>
        <time>2014-04-03T18:42:12Z</time>
      </trkpt>
      <trkpt lat="59.960512" lon="17.7133881">
        <ele>43.3966</ele>
        <time>2014-04-03T18:42:13Z</time>
      </trkpt>
      <trkpt lat="59.9604857" lon="17.7133502">
        <ele>43.3966</ele>
        <time>2014-04-03T18:42:14Z</time>
      </trkpt>
      <trkpt lat="59.9604596" lon="17.7133092">
        <ele>42.916</ele>
        <time>2014-04-03T18:42:15Z</time>
      </trkpt>
      <trkpt lat="59.9604367" lon="17.7132694">
        <ele>42.4354</ele>
        <time>2014-04-03T18:42:16Z</time>
      </trkpt>
      <trkpt lat="59.9604142" lon="17.7132324">
        <ele>41.474</ele>
        <time>2014-04-03T18:42:17Z</time>
      </trkpt>
      <trkpt lat="59.9604028" lon="17.7131809">
        <ele>41.9547</ele>
        <time>2014-04-03T18:42:18Z</time>
      </trkpt>
      <trkpt lat="59.9603891" lon="17.713133">
        <ele>42.4354</ele>
        <time>2014-04-03T18:42:19Z</time>
      </trkpt>
      <trkpt lat="59.9603773" lon="17.7130767">
        <ele>42.4354</ele>
        <time>2014-04-03T18:42:20Z</time>
      </trkpt>
      <trkpt lat="59.9603963" lon="17.7130155">
        <ele>43.3966</ele>
        <time>2014-04-03T18:42:21Z</time>
      </trkpt>
      <trkpt lat="59.9604151" lon="17.71296">
        <ele>44.358</ele>
        <time>2014-04-03T18:42:22Z</time>
      </trkpt>
      <trkpt lat="59.9604238" lon="17.7129084">
        <ele>44.8386</ele>
        <time>2014-04-03T18:42:23Z</time>
      </trkpt>
      <trkpt lat="59.9604108" lon="17.7128462">
        <ele>45.7999</ele>
        <time>2014-04-03T18:42:24Z</time>
      </trkpt>
      <trkpt lat="59.9603987" lon="17.7127726">
        <ele>46.2806</ele>
        <time>2014-04-03T18:42:25Z</time>
      </trkpt>
      <trkpt lat="59.9603845" lon="17.7126975">
        <ele>47.7225</ele>
        <time>2014-04-03T18:42:26Z</time>
      </trkpt>
      <trkpt lat="59.9603784" lon="17.7126282">
        <ele>48.2034</ele>
        <time>2014-04-03T18:42:27Z</time>
      </trkpt>
      <trkpt lat="59.9603794" lon="17.7125592">
        <ele>48.2034</ele>
        <time>2014-04-03T18:42:28Z</time>
      </trkpt>
      <trkpt lat="59.9603757" lon="17.7124965">
        <ele>48.684</ele>
        <time>2014-04-03T18:42:29Z</time>
      </trkpt>
      <trkpt lat="59.960374" lon="17.7124301">
        <ele>49.1646</ele>
        <time>2014-04-03T18:42:30Z</time>
      </trkpt>
      <trkpt lat="59.9603759" lon="17.7123514">
        <ele>49.6453</ele>
        <time>2014-04-03T18:42:31Z</time>
      </trkpt>
      <trkpt lat="59.9603766" lon="17.7122734">
        <ele>50.126</ele>
        <time>2014-04-03T18:42:32Z</time>
      </trkpt>
      <trkpt lat="59.9603774" lon="17.7122102">
        <ele>50.6066</ele>
        <time>2014-04-03T18:42:33Z</time>
      </trkpt>
      <trkpt lat="59.9603871" lon="17.71215">
        <ele>49.6453</ele>
        <time>2014-04-03T18:42:34Z</time>
      </trkpt>
      <trkpt lat="59.9603968" lon="17.7120814">
        <ele>49.6453</ele>
        <time>2014-04-03T18:42:35Z</time>
      </trkpt>
      <trkpt lat="59.9603978" lon="17.7120334">
        <ele>48.684</ele>
        <time>2014-04-03T18:42:36Z</time>
      </trkpt>
      <trkpt lat="59.9604027" lon="17.7119805">
        <ele>47.7225</ele>
        <time>2014-04-03T18:42:37Z</time>
      </trkpt>
      <trkpt lat="59.9604125" lon="17.7119298">
        <ele>47.2418</ele>
        <time>2014-04-03T18:42:38Z</time>
      </trkpt>
      <trkpt lat="59.960417" lon="17.7118892">
        <ele>46.2806</ele>
        <time>2014-04-03T18:42:39Z</time>
      </trkpt>
      <trkpt lat="59.9604207" lon="17.7118357">
        <ele>45.3192</ele>
        <time>2014-04-03T18:42:40Z</time>
      </trkpt>
      <trkpt lat="59.9604219" lon="17.7117837">
        <ele>44.358</ele>
        <time>2014-04-03T18:42:41Z</time>
      </trkpt>
      <trkpt lat="59.9604265" lon="17.7117459">
        <ele>42.4354</ele>
        <time>2014-04-03T18:42:42Z</time>
      </trkpt>
      <trkpt lat="59.9604378" lon="17.7117024">
        <ele>41.474</ele>
        <time>2014-04-03T18:42:43Z</time>
      </trkpt>
      <trkpt lat="59.9604529" lon="17.7116585">
        <ele>40.5128</ele>
        <time>2014-04-03T18:42:44Z</time>
      </trkpt>
      <trkpt lat="59.9604707" lon="17.7116169">
        <ele>40.0321</ele>
        <time>2014-04-03T18:42:45Z</time>
      </trkpt>
      <trkpt lat="59.9604901" lon="17.7115719">
        <ele>39.5513</ele>
        <time>2014-04-03T18:42:46Z</time>
      </trkpt>
      <trkpt lat="59.9605119" lon="17.7115237">
        <ele>39.0707</ele>
        <time>2014-04-03T18:42:47Z</time>
      </trkpt>
      <trkpt lat="59.9605339" lon="17.7114852">
        <ele>39.0707</ele>
        <time>2014-04-03T18:42:48Z</time>
      </trkpt>
      <trkpt lat="59.9605582" lon="17.7114583">
        <ele>39.0707</ele>
        <time>2014-04-03T18:42:49Z</time>
      </trkpt>
      <trkpt lat="59.9605788" lon="17.7114402">
        <ele>39.0707</ele>
        <time>2014-04-03T18:42:50Z</time>
      </trkpt>
      <trkpt lat="59.9606025" lon="17.7114357">
        <ele>38.5901</ele>
        <time>2014-04-03T18:42:51Z</time>
      </trkpt>
      <trkpt lat="59.9606244" lon="17.7114389">
        <ele>38.5901</ele>
        <time>2014-04-03T18:42:52Z</time>
      </trkpt>
      <trkpt lat="59.9606405" lon="17.7114411">
        <ele>38.1094</ele>
        <time>2014-04-03T18:42:53Z</time>
      </trkpt>
      <trkpt lat="59.9606653" lon="17.7114499">
        <ele>38.1094</ele>
        <time>2014-04-03T18:42:54Z</time>
      </trkpt>
      <trkpt lat="59.9606919" lon="17.7114583">
        <ele>38.1094</ele>
        <time>2014-04-03T18:42:55Z</time>
      </trkpt>
      <trkpt lat="59.9607161" lon="17.7114698">
        <ele>38.1094</ele>
        <time>2014-04-03T18:42:56Z</time>
      </trkpt>
      <trkpt lat="59.9607446" lon="17.7114822">
        <ele>38.5901</ele>
        <time>2014-04-03T18:42:57Z</time>
      </trkpt>
      <trkpt lat="59.9607771" lon="17.7114974">
        <ele>39.5513</ele>
        <time>2014-04-03T18:42:58Z</time>
      </trkpt>
      <trkpt lat="59.9608024" lon="17.7115158">
        <ele>39.0707</ele>
        <time>2014-04-03T18:42:59Z</time>
      </trkpt>
      <trkpt lat="59.9608322" lon="17.7115393">
        <ele>39.0707</ele>
        <time>2014-04-03T18:43:00Z</time>
      </trkpt>
      <trkpt lat="59.9608591" lon="17.7115627">
        <ele>39.5513</ele>
        <time>2014-04-03T18:43:01Z</time>
      </trkpt>
      <trkpt lat="59.9608863" lon="17.7115855">
        <ele>40.0321</ele>
        <time>2014-04-03T18:43:02Z</time>
      </trkpt>
      <trkpt lat="59.9609129" lon="17.7116102">
        <ele>40.0321</ele>
        <time>2014-04-03T18:43:03Z</time>
      </trkpt>
      <trkpt lat="59.9609397" lon="17.7116361">
        <ele>40.0321</ele>
        <time>2014-04-03T18:43:04Z</time>
      </trkpt>
      <trkpt lat="59.9609703" lon="17.7116608">
        <ele>39.5513</ele>
        <time>2014-04-03T18:43:05Z</time>
      </trkpt>
      <trkpt lat="59.9609979" lon="17.7116827">
        <ele>40.0321</ele>
        <time>2014-04-03T18:43:06Z</time>
      </trkpt>
      <trkpt lat="59.9610262" lon="17.7117107">
        <ele>40.5128</ele>
        <time>2014-04-03T18:43:07Z</time>
      </trkpt>
      <trkpt lat="59.9610544" lon="17.7117401">
        <ele>40.9934</ele>
        <time>2014-04-03T18:43:08Z</time>
      </trkpt>
      <trkpt lat="59.9610808" lon="17.7117683">
        <ele>40.9934</ele>
        <time>2014-04-03T18:43:09Z</time>
      </trkpt>
      <trkpt lat="59.9611051" lon="17.7118079">
        <ele>40.5128</ele>
        <time>2014-04-03T18:43:10Z</time>
      </trkpt>
      <trkpt lat="59.9611274" lon="17.711848">
        <ele>40.5128</ele>
        <time>2014-04-03T18:43:11Z</time>
      </trkpt>
      <trkpt lat="59.9611496" lon="17.7118851">
        <ele>40.5128</ele>
        <time>2014-04-03T18:43:12Z</time>
      </trkpt>
      <trkpt lat="59.9611733" lon="17.7119252">
        <ele>40.0321</ele>
        <time>2014-04-03T18:43:13Z</time>
      </trkpt>
      <trkpt lat="59.961193" lon="17.7119645">
        <ele>40.5128</ele>
        <time>2014-04-03T18:43:14Z</time>
      </trkpt>
      <trkpt lat="59.9612124" lon="17.7120039">
        <ele>40.5128</ele>
        <time>2014-04-03T18:43:15Z</time>
      </trkpt>
      <trkpt lat="59.9612381" lon="17.7120376">
        <ele>40.5128</ele>
        <time>2014-04-03T18:43:16Z</time>
      </trkpt>
      <trkpt lat="59.9612616" lon="17.7120681">
        <ele>40.9934</ele>
        <time>2014-04-03T18:43:17Z</time>
      </trkpt>
      <trkpt lat="59.9612857" lon="17.7121058">
        <ele>41.474</ele>
        <time>2014-04-03T18:43:18Z</time>
      </trkpt>
      <trkpt lat="59.9613082" lon="17.7121432">
        <ele>41.474</ele>
        <time>2014-04-03T18:43:19Z</time>
      </trkpt>
      <trkpt lat="59.9613243" lon="17.7121778">
        <ele>41.9547</ele>
        <time>2014-04-03T18:43:20Z</time>
      </trkpt>
      <trkpt lat="59.9613411" lon="17.712213">
        <ele>41.474</ele>
        <time>2014-04-03T18:43:21Z</time>
      </trkpt>
      <trkpt lat="59.9613621" lon="17.7122459">
        <ele>41.474</ele>
        <time>2014-04-03T18:43:22Z</time>
      </trkpt>
      <trkpt lat="59.9613828" lon="17.7122794">
        <ele>40.9934</ele>
        <time>2014-04-03T18:43:23Z</time>
      </trkpt>
      <trkpt lat="59.9614009" lon="17.7123098">
        <ele>40.9934</ele>
        <time>2014-04-03T18:43:24Z</time>
      </trkpt>
      <trkpt lat="59.9614184" lon="17.7123344">
        <ele>40.9934</ele>
        <time>2014-04-03T18:43:25Z</time>
      </trkpt>
      <trkpt lat="59.9614393" lon="17.7123651">
        <ele>41.9547</ele>
        <time>2014-04-03T18:43:26Z</time>
      </trkpt>
      <trkpt lat="59.9614625" lon="17.7123976">
        <ele>42.4354</ele>
        <time>2014-04-03T18:43:27Z</time>
      </trkpt>
      <trkpt lat="59.9614844" lon="17.7124318">
        <ele>42.916</ele>
        <time>2014-04-03T18:43:28Z</time>
      </trkpt>
      <trkpt lat="59.9615071" lon="17.7124673">
        <ele>42.916</ele>
        <time>2014-04-03T18:43:29Z</time>
      </trkpt>
      <trkpt lat="59.9615273" lon="17.7124972">
        <ele>42.4354</ele>
        <time>2014-04-03T18:43:30Z</time>
      </trkpt>
      <trkpt lat="59.9615526" lon="17.7125256">
        <ele>41.9547</ele>
        <time>2014-04-03T18:43:31Z</time>
      </trkpt>
      <trkpt lat="59.9615787" lon="17.7125539">
        <ele>42.916</ele>
        <time>2014-04-03T18:43:32Z</time>
      </trkpt>
      <trkpt lat="59.9616022" lon="17.7125799">
        <ele>42.4354</ele>
        <time>2014-04-03T18:43:33Z</time>
      </trkpt>
      <trkpt lat="59.9616277" lon="17.7126085">
        <ele>42.4354</ele>
        <time>2014-04-03T18:43:34Z</time>
      </trkpt>
      <trkpt lat="59.9616488" lon="17.7126404">
        <ele>43.3966</ele>
        <time>2014-04-03T18:43:35Z</time>
      </trkpt>
      <trkpt lat="59.961666" lon="17.712667">
        <ele>43.3966</ele>
        <time>2014-04-03T18:43:36Z</time>
      </trkpt>
      <trkpt lat="59.9616869" lon="17.7126952">
        <ele>43.3966</ele>
        <time>2014-04-03T18:43:37Z</time>
      </trkpt>
      <trkpt lat="59.9617113" lon="17.7127215">
        <ele>44.358</ele>
        <time>2014-04-03T18:43:38Z</time>
      </trkpt>
      <trkpt lat="59.9617343" lon="17.7127444">
        <ele>43.8773</ele>
        <time>2014-04-03T18:43:39Z</time>
      </trkpt>
      <trkpt lat="59.9617567" lon="17.7127742">
        <ele>44.358</ele>
        <time>2014-04-03T18:43:40Z</time>
      </trkpt>
      <trkpt lat="59.9617781" lon="17.7128074">
        <ele>45.3192</ele>
        <time>2014-04-03T18:43:41Z</time>
      </trkpt>
      <trkpt lat="59.9618004" lon="17.71284">
        <ele>45.7999</ele>
        <time>2014-04-03T18:43:42Z</time>
      </trkpt>
      <trkpt lat="59.9618194" lon="17.7128678">
        <ele>46.2806</ele>
        <time>2014-04-03T18:43:43Z</time>
      </trkpt>
      <trkpt lat="59.9618367" lon="17.7128948">
        <ele>45.7999</ele>
        <time>2014-04-03T18:43:44Z</time>
      </trkpt>
      <trkpt lat="59.9618547" lon="17.7129279">
        <ele>46.2806</ele>
        <time>2014-04-03T18:43:45Z</time>
      </trkpt>
      <trkpt lat="59.9618733" lon="17.7129616">
        <ele>47.2418</ele>
        <time>2014-04-03T18:43:46Z</time>
      </trkpt>
      <trkpt lat="59.9618937" lon="17.7129959">
        <ele>47.7225</ele>
        <time>2014-04-03T18:43:47Z</time>
      </trkpt>
      <trkpt lat="59.9619163" lon="17.713029">
        <ele>47.7225</ele>
        <time>2014-04-03T18:43:48Z</time>
      </trkpt>
      <trkpt lat="59.9619429" lon="17.7130637">
        <ele>47.7225</ele>
        <time>2014-04-03T18:43:49Z</time>
      </trkpt>
      <trkpt lat="59.9619697" lon="17.7130999">
        <ele>48.2034</ele>
        <time>2014-04-03T18:43:50Z</time>
      </trkpt>
      <trkpt lat="59.961993" lon="17.7131315">
        <ele>48.2034</ele>
        <time>2014-04-03T18:43:51Z</time>
      </trkpt>
      <trkpt lat="59.9620151" lon="17.7131663">
        <ele>48.2034</ele>
        <time>2014-04-03T18:43:52Z</time>
      </trkpt>
      <trkpt lat="59.9620339" lon="17.7132032">
        <ele>49.1646</ele>
        <time>2014-04-03T18:43:53Z</time>
      </trkpt>
      <trkpt lat="59.9620534" lon="17.7132347">
        <ele>49.1646</ele>
        <time>2014-04-03T18:43:54Z</time>
      </trkpt>
      <trkpt lat="59.9620774" lon="17.7132648">
        <ele>49.6453</ele>
        <time>2014-04-03T18:43:55Z</time>
      </trkpt>
      <trkpt lat="59.9621042" lon="17.7132948">
        <ele>50.126</ele>
        <time>2014-04-03T18:43:56Z</time>
      </trkpt>
      <trkpt lat="59.9621283" lon="17.7133213">
        <ele>49.6453</ele>
        <time>2014-04-03T18:43:57Z</time>
      </trkpt>
      <trkpt lat="59.9621467" lon="17.7133518">
        <ele>49.6453</ele>
        <time>2014-04-03T18:43:58Z</time>
      </trkpt>
      <trkpt lat="59.9621634" lon="17.7133823">
        <ele>49.1646</ele>
        <time>2014-04-03T18:43:59Z</time>
      </trkpt>
      <trkpt lat="59.9621866" lon="17.7134107">
        <ele>49.1646</ele>
        <time>2014-04-03T18:44:00Z</time>
      </trkpt>
      <trkpt lat="59.9622085" lon="17.7134398">
        <ele>49.1646</ele>
        <time>2014-04-03T18:44:01Z</time>
      </trkpt>
      <trkpt lat="59.9622261" lon="17.7134626">
        <ele>49.1646</ele>
        <time>2014-04-03T18:44:02Z</time>
      </trkpt>
      <trkpt lat="59.9622457" lon="17.7134833">
        <ele>49.1646</ele>
        <time>2014-04-03T18:44:03Z</time>
      </trkpt>
      <trkpt lat="59.9622686" lon="17.7135064">
        <ele>48.684</ele>
        <time>2014-04-03T18:44:04Z</time>
      </trkpt>
      <trkpt lat="59.9622976" lon="17.71353">
        <ele>48.2034</ele>
        <time>2014-04-03T18:44:05Z</time>
      </trkpt>
      <trkpt lat="59.9623261" lon="17.7135526">
        <ele>47.7225</ele>
        <time>2014-04-03T18:44:06Z</time>
      </trkpt>
      <trkpt lat="59.962349" lon="17.713556">
        <ele>47.2418</ele>
        <time>2014-04-03T18:44:07Z</time>
      </trkpt>
      <trkpt lat="59.9623706" lon="17.7135449">
        <ele>46.7612</ele>
        <time>2014-04-03T18:44:08Z</time>
      </trkpt>
      <trkpt lat="59.9623914" lon="17.7135221">
        <ele>46.2806</ele>
        <time>2014-04-03T18:44:09Z</time>
      </trkpt>
      <trkpt lat="59.9624126" lon="17.7134927">
        <ele>45.7999</ele>
        <time>2014-04-03T18:44:10Z</time>
      </trkpt>
      <trkpt lat="59.9624338" lon="17.713463">
        <ele>46.7612</ele>
        <time>2014-04-03T18:44:11Z</time>
      </trkpt>
      <trkpt lat="59.9624544" lon="17.7134361">
        <ele>46.7612</ele>
        <time>2014-04-03T18:44:12Z</time>
      </trkpt>
      <trkpt lat="59.9624793" lon="17.7133994">
        <ele>46.7612</ele>
        <time>2014-04-03T18:44:13Z</time>
      </trkpt>
      <trkpt lat="59.9625053" lon="17.7133699">
        <ele>46.7612</ele>
        <time>2014-04-03T18:44:14Z</time>
      </trkpt>
      <trkpt lat="59.9625275" lon="17.7133456">
        <ele>46.7612</ele>
        <time>2014-04-03T18:44:15Z</time>
      </trkpt>
      <trkpt lat="59.9625507" lon="17.7133217">
        <ele>46.7612</ele>
        <time>2014-04-03T18:44:16Z</time>
      </trkpt>
      <trkpt lat="59.9625781" lon="17.7132925">
        <ele>46.7612</ele>
        <time>2014-04-03T18:44:17Z</time>
      </trkpt>
      <trkpt lat="59.9626007" lon="17.7132606">
        <ele>46.7612</ele>
        <time>2014-04-03T18:44:18Z</time>
      </trkpt>
      <trkpt lat="59.9626206" lon="17.7132331">
        <ele>46.2806</ele>
        <time>2014-04-03T18:44:19Z</time>
      </trkpt>
      <trkpt lat="59.9626443" lon="17.7131969">
        <ele>46.2806</ele>
        <time>2014-04-03T18:44:20Z</time>
      </trkpt>
      <trkpt lat="59.9626757" lon="17.7131596">
        <ele>47.2418</ele>
        <time>2014-04-03T18:44:21Z</time>
      </trkpt>
      <trkpt lat="59.9627037" lon="17.7131295">
        <ele>48.2034</ele>
        <time>2014-04-03T18:44:22Z</time>
      </trkpt>
      <trkpt lat="59.962719" lon="17.7130958">
        <ele>48.2034</ele>
        <time>2014-04-03T18:44:23Z</time>
      </trkpt>
      <trkpt lat="59.9627354" lon="17.7130647">
        <ele>48.2034</ele>
        <time>2014-04-03T18:44:24Z</time>
      </trkpt>
      <trkpt lat="59.9627541" lon="17.713032">
        <ele>48.2034</ele>
        <time>2014-04-03T18:44:25Z</time>
      </trkpt>
      <trkpt lat="59.962773" lon="17.7129981">
        <ele>47.7225</ele>
        <time>2014-04-03T18:44:26Z</time>
      </trkpt>
      <trkpt lat="59.9627938" lon="17.7129554">
        <ele>47.7225</ele>
        <time>2014-04-03T18:44:27Z</time>
      </trkpt>
      <trkpt lat="59.9628172" lon="17.7129089">
        <ele>47.2418</ele>
        <time>2014-04-03T18:44:28Z</time>
      </trkpt>
      <trkpt lat="59.9628405" lon="17.7128677">
        <ele>47.2418</ele>
        <time>2014-04-03T18:44:29Z</time>
      </trkpt>
      <trkpt lat="59.9628565" lon="17.7128213">
        <ele>47.2418</ele>
        <time>2014-04-03T18:44:30Z</time>
      </trkpt>
      <trkpt lat="59.9628719" lon="17.7127851">
        <ele>46.7612</ele>
        <time>2014-04-03T18:44:31Z</time>
      </trkpt>
      <trkpt lat="59.9628927" lon="17.7127592">
        <ele>46.7612</ele>
        <time>2014-04-03T18:44:32Z</time>
      </trkpt>
      <trkpt lat="59.9629161" lon="17.7127359">
        <ele>46.2806</ele>
        <time>2014-04-03T18:44:33Z</time>
      </trkpt>
      <trkpt lat="59.9629441" lon="17.7127074">
        <ele>46.7612</ele>
        <time>2014-04-03T18:44:34Z</time>
      </trkpt>
      <trkpt lat="59.9629725" lon="17.7126835">
        <ele>46.2806</ele>
        <time>2014-04-03T18:44:35Z</time>
      </trkpt>
      <trkpt lat="59.9629941" lon="17.7126536">
        <ele>46.7612</ele>
        <time>2014-04-03T18:44:36Z</time>
      </trkpt>
      <trkpt lat="59.9630176" lon="17.7126337">
        <ele>46.7612</ele>
        <time>2014-04-03T18:44:37Z</time>
      </trkpt>
      <trkpt lat="59.96304" lon="17.7126125">
        <ele>46.2806</ele>
        <time>2014-04-03T18:44:38Z</time>
      </trkpt>
      <trkpt lat="59.9630653" lon="17.7125829">
        <ele>46.2806</ele>
        <time>2014-04-03T18:44:39Z</time>
      </trkpt>
      <trkpt lat="59.9630928" lon="17.7125595">
        <ele>46.2806</ele>
        <time>2014-04-03T18:44:40Z</time>
      </trkpt>
      <trkpt lat="59.9631184" lon="17.7125312">
        <ele>45.3192</ele>
        <time>2014-04-03T18:44:41Z</time>
      </trkpt>
      <trkpt lat="59.963139" lon="17.7124981">
        <ele>45.3192</ele>
        <time>2014-04-03T18:44:42Z</time>
      </trkpt>
      <trkpt lat="59.9631596" lon="17.7124664">
        <ele>44.8386</ele>
        <time>2014-04-03T18:44:43Z</time>
      </trkpt>
      <trkpt lat="59.9631885" lon="17.7124427">
        <ele>44.358</ele>
        <time>2014-04-03T18:44:44Z</time>
      </trkpt>
      <trkpt lat="59.9632201" lon="17.7124179">
        <ele>44.358</ele>
        <time>2014-04-03T18:44:45Z</time>
      </trkpt>
      <trkpt lat="59.9632506" lon="17.7124008">
        <ele>44.358</ele>
        <time>2014-04-03T18:44:46Z</time>
      </trkpt>
      <trkpt lat="59.9632797" lon="17.7123958">
        <ele>43.3966</ele>
        <time>2014-04-03T18:44:47Z</time>
      </trkpt>
      <trkpt lat="59.9633098" lon="17.712394">
        <ele>42.916</ele>
        <time>2014-04-03T18:44:48Z</time>
      </trkpt>
      <trkpt lat="59.9633386" lon="17.7124017">
        <ele>41.9547</ele>
        <time>2014-04-03T18:44:49Z</time>
      </trkpt>
      <trkpt lat="59.9633687" lon="17.7124189">
        <ele>40.9934</ele>
        <time>2014-04-03T18:44:50Z</time>
      </trkpt>
      <trkpt lat="59.9633972" lon="17.7124442">
        <ele>40.5128</ele>
        <time>2014-04-03T18:44:51Z</time>
      </trkpt>
      <trkpt lat="59.9634253" lon="17.7124793">
        <ele>39.5513</ele>
        <time>2014-04-03T18:44:52Z</time>
      </trkpt>
      <trkpt lat="59.9634533" lon="17.7125126">
        <ele>39.0707</ele>
        <time>2014-04-03T18:44:53Z</time>
      </trkpt>
      <trkpt lat="59.9634798" lon="17.7125384">
        <ele>39.0707</ele>
        <time>2014-04-03T18:44:54Z</time>
      </trkpt>
      <trkpt lat="59.9635066" lon="17.7125661">
        <ele>38.1094</ele>
        <time>2014-04-03T18:44:55Z</time>
      </trkpt>
      <trkpt lat="59.9635351" lon="17.7125929">
        <ele>37.6287</ele>
        <time>2014-04-03T18:44:56Z</time>
      </trkpt>
      <trkpt lat="59.9635651" lon="17.7126094">
        <ele>37.6287</ele>
        <time>2014-04-03T18:44:57Z</time>
      </trkpt>
      <trkpt lat="59.9635953" lon="17.7126184">
        <ele>37.1481</ele>
        <time>2014-04-03T18:44:58Z</time>
      </trkpt>
      <trkpt lat="59.9636226" lon="17.7126167">
        <ele>36.1868</ele>
        <time>2014-04-03T18:44:59Z</time>
      </trkpt>
      <trkpt lat="59.9636481" lon="17.7126031">
        <ele>36.1868</ele>
        <time>2014-04-03T18:45:00Z</time>
      </trkpt>
      <trkpt lat="59.9636686" lon="17.7125697">
        <ele>35.2255</ele>
        <time>2014-04-03T18:45:01Z</time>
      </trkpt>
      <trkpt lat="59.9636926" lon="17.7125276">
        <ele>35.7061</ele>
        <time>2014-04-03T18:45:02Z</time>
      </trkpt>
      <trkpt lat="59.9637054" lon="17.7124907">
        <ele>36.1868</ele>
        <time>2014-04-03T18:45:03Z</time>
      </trkpt>
      <trkpt lat="59.9636982" lon="17.7124474">
        <ele>35.7061</ele>
        <time>2014-04-03T18:45:04Z</time>
      </trkpt>
      <trkpt lat="59.9636763" lon="17.7123953">
        <ele>36.1868</ele>
        <time>2014-04-03T18:45:05Z</time>
      </trkpt>
      <trkpt lat="59.9636502" lon="17.7123431">
        <ele>35.2255</ele>
        <time>2014-04-03T18:45:06Z</time>
      </trkpt>
      <trkpt lat="59.9636372" lon="17.7122879">
        <ele>35.7061</ele>
        <time>2014-04-03T18:45:07Z</time>
      </trkpt>
      <trkpt lat="59.9636206" lon="17.7122297">
        <ele>35.7061</ele>
        <time>2014-04-03T18:45:08Z</time>
      </trkpt>
      <trkpt lat="59.9635973" lon="17.7121801">
        <ele>34.7449</ele>
        <time>2014-04-03T18:45:09Z</time>
      </trkpt>
      <trkpt lat="59.9635772" lon="17.7121151">
        <ele>34.7449</ele>
        <time>2014-04-03T18:45:10Z</time>
      </trkpt>
      <trkpt lat="59.9635704" lon="17.7120557">
        <ele>34.2642</ele>
        <time>2014-04-03T18:45:11Z</time>
      </trkpt>
      <trkpt lat="59.9635781" lon="17.7119925">
        <ele>34.7449</ele>
        <time>2014-04-03T18:45:12Z</time>
      </trkpt>
      <trkpt lat="59.9635854" lon="17.7119302">
        <ele>34.7449</ele>
        <time>2014-04-03T18:45:13Z</time>
      </trkpt>
      <trkpt lat="59.9635849" lon="17.7118709">
        <ele>34.7449</ele>
        <time>2014-04-03T18:45:14Z</time>
      </trkpt>
      <trkpt lat="59.9635808" lon="17.7118105">
        <ele>35.2255</ele>
        <time>2014-04-03T18:45:15Z</time>
      </trkpt>
      <trkpt lat="59.9635656" lon="17.711761">
        <ele>35.7061</ele>
        <time>2014-04-03T18:45:16Z</time>
      </trkpt>
      <trkpt lat="59.9635605" lon="17.7117283">
        <ele>34.2642</ele>
        <time>2014-04-03T18:45:17Z</time>
      </trkpt>
      <trkpt lat="59.9635621" lon="17.711691">
        <ele>33.7834</ele>
        <time>2014-04-03T18:45:18Z</time>
      </trkpt>
      <trkpt lat="59.9635701" lon="17.7116373">
        <ele>32.8223</ele>
        <time>2014-04-03T18:45:19Z</time>
      </trkpt>
      <trkpt lat="59.9635791" lon="17.7115786">
        <ele>32.8223</ele>
        <time>2014-04-03T18:45:20Z</time>
      </trkpt>
      <trkpt lat="59.9635903" lon="17.7115132">
        <ele>32.3416</ele>
        <time>2014-04-03T18:45:21Z</time>
      </trkpt>
      <trkpt lat="59.9635855" lon="17.7114331">
        <ele>32.3416</ele>
        <time>2014-04-03T18:45:22Z</time>
      </trkpt>
      <trkpt lat="59.9635762" lon="17.7113666">
        <ele>32.8223</ele>
        <time>2014-04-03T18:45:23Z</time>
      </trkpt>
      <trkpt lat="59.9635653" lon="17.7113207">
        <ele>32.8223</ele>
        <time>2014-04-03T18:45:24Z</time>
      </trkpt>
      <trkpt lat="59.9635548" lon="17.7112852">
        <ele>32.8223</ele>
        <time>2014-04-03T18:45:25Z</time>
      </trkpt>
      <trkpt lat="59.9635429" lon="17.7112641">
        <ele>32.8223</ele>
        <time>2014-04-03T18:45:26Z</time>
      </trkpt>
      <trkpt lat="59.9635243" lon="17.7112397">
        <ele>33.3029</ele>
        <time>2014-04-03T18:45:27Z</time>
      </trkpt>
      <trkpt lat="59.9635012" lon="17.7112036">
        <ele>33.3029</ele>
        <time>2014-04-03T18:45:28Z</time>
      </trkpt>
      <trkpt lat="59.96347" lon="17.7111674">
        <ele>32.8223</ele>
        <time>2014-04-03T18:45:29Z</time>
      </trkpt>
      <trkpt lat="59.9634414" lon="17.7111342">
        <ele>32.8223</ele>
        <time>2014-04-03T18:45:30Z</time>
      </trkpt>
      <trkpt lat="59.963416" lon="17.7110974">
        <ele>32.3416</ele>
        <time>2014-04-03T18:45:31Z</time>
      </trkpt>
      <trkpt lat="59.9633916" lon="17.7110534">
        <ele>32.3416</ele>
        <time>2014-04-03T18:45:32Z</time>
      </trkpt>
      <trkpt lat="59.9633642" lon="17.7109968">
        <ele>32.8223</ele>
        <time>2014-04-03T18:45:33Z</time>
      </trkpt>
      <trkpt lat="59.9633451" lon="17.7109307">
        <ele>32.3416</ele>
        <time>2014-04-03T18:45:34Z</time>
      </trkpt>
      <trkpt lat="59.9633365" lon="17.7108559">
        <ele>32.8223</ele>
        <time>2014-04-03T18:45:35Z</time>
      </trkpt>
      <trkpt lat="59.9633273" lon="17.7107857">
        <ele>32.3416</ele>
        <time>2014-04-03T18:45:36Z</time>
      </trkpt>
      <trkpt lat="59.963334" lon="17.7107297">
        <ele>32.8223</ele>
        <time>2014-04-03T18:45:37Z</time>
      </trkpt>
      <trkpt lat="59.9633423" lon="17.7106779">
        <ele>32.8223</ele>
        <time>2014-04-03T18:45:38Z</time>
      </trkpt>
      <trkpt lat="59.9633621" lon="17.7106238">
        <ele>33.3029</ele>
        <time>2014-04-03T18:45:39Z</time>
      </trkpt>
      <trkpt lat="59.9633864" lon="17.7105779">
        <ele>33.7834</ele>
        <time>2014-04-03T18:45:40Z</time>
      </trkpt>
      <trkpt lat="59.9634118" lon="17.7105422">
        <ele>33.7834</ele>
        <time>2014-04-03T18:45:41Z</time>
      </trkpt>
      <trkpt lat="59.9634396" lon="17.7105104">
        <ele>33.7834</ele>
        <time>2014-04-03T18:45:42Z</time>
      </trkpt>
      <trkpt lat="59.9634578" lon="17.7104757">
        <ele>33.7834</ele>
        <time>2014-04-03T18:45:43Z</time>
      </trkpt>
      <trkpt lat="59.9634745" lon="17.7104375">
        <ele>34.2642</ele>
        <time>2014-04-03T18:45:44Z</time>
      </trkpt>
      <trkpt lat="59.9634953" lon="17.7104053">
        <ele>34.2642</ele>
        <time>2014-04-03T18:45:45Z</time>
      </trkpt>
      <trkpt lat="59.9635202" lon="17.710371">
        <ele>34.7449</ele>
        <time>2014-04-03T18:45:46Z</time>
      </trkpt>
      <trkpt lat="59.963547" lon="17.710331">
        <ele>35.7061</ele>
        <time>2014-04-03T18:45:47Z</time>
      </trkpt>
      <trkpt lat="59.9635735" lon="17.7102878">
        <ele>36.6675</ele>
        <time>2014-04-03T18:45:48Z</time>
      </trkpt>
      <trkpt lat="59.9635999" lon="17.7102489">
        <ele>37.1481</ele>
        <time>2014-04-03T18:45:49Z</time>
      </trkpt>
      <trkpt lat="59.9636242" lon="17.7102091">
        <ele>37.6287</ele>
        <time>2014-04-03T18:45:50Z</time>
      </trkpt>
      <trkpt lat="59.9636506" lon="17.7101718">
        <ele>37.6287</ele>
        <time>2014-04-03T18:45:51Z</time>
      </trkpt>
      <trkpt lat="59.9636812" lon="17.7101448">
        <ele>37.6287</ele>
        <time>2014-04-03T18:45:52Z</time>
      </trkpt>
      <trkpt lat="59.9637138" lon="17.7101308">
        <ele>38.1094</ele>
        <time>2014-04-03T18:45:53Z</time>
      </trkpt>
      <trkpt lat="59.9637461" lon="17.7101283">
        <ele>38.1094</ele>
        <time>2014-04-03T18:45:54Z</time>
      </trkpt>
      <trkpt lat="59.9637755" lon="17.7101463">
        <ele>38.1094</ele>
        <time>2014-04-03T18:45:55Z</time>
      </trkpt>
      <trkpt lat="59.963801" lon="17.710186">
        <ele>38.5901</ele>
        <time>2014-04-03T18:45:56Z</time>
      </trkpt>
      <trkpt lat="59.9638248" lon="17.7102334">
        <ele>38.5901</ele>
        <time>2014-04-03T18:45:57Z</time>
      </trkpt>
      <trkpt lat="59.9638473" lon="17.7102792">
        <ele>38.1094</ele>
        <time>2014-04-03T18:45:58Z</time>
      </trkpt>
      <trkpt lat="59.9638675" lon="17.7103293">
        <ele>37.6287</ele>
        <time>2014-04-03T18:45:59Z</time>
      </trkpt>
      <trkpt lat="59.9638858" lon="17.7103758">
        <ele>37.6287</ele>
        <time>2014-04-03T18:46:00Z</time>
      </trkpt>
      <trkpt lat="59.9639024" lon="17.7104213">
        <ele>37.6287</ele>
        <time>2014-04-03T18:46:01Z</time>
      </trkpt>
      <trkpt lat="59.96392" lon="17.7104665">
        <ele>37.1481</ele>
        <time>2014-04-03T18:46:02Z</time>
      </trkpt>
      <trkpt lat="59.9639366" lon="17.7105127">
        <ele>37.1481</ele>
        <time>2014-04-03T18:46:03Z</time>
      </trkpt>
      <trkpt lat="59.9639519" lon="17.7105592">
        <ele>37.1481</ele>
        <time>2014-04-03T18:46:04Z</time>
      </trkpt>
      <trkpt lat="59.9639687" lon="17.7106041">
        <ele>36.6675</ele>
        <time>2014-04-03T18:46:05Z</time>
      </trkpt>
      <trkpt lat="59.9639862" lon="17.7106502">
        <ele>36.6675</ele>
        <time>2014-04-03T18:46:06Z</time>
      </trkpt>
      <trkpt lat="59.9640035" lon="17.7106968">
        <ele>37.1481</ele>
        <time>2014-04-03T18:46:07Z</time>
      </trkpt>
      <trkpt lat="59.9640201" lon="17.7107394">
        <ele>37.1481</ele>
        <time>2014-04-03T18:46:08Z</time>
      </trkpt>
      <trkpt lat="59.9640374" lon="17.7107854">
        <ele>37.1481</ele>
        <time>2014-04-03T18:46:09Z</time>
      </trkpt>
      <trkpt lat="59.9640566" lon="17.7108283">
        <ele>36.6675</ele>
        <time>2014-04-03T18:46:10Z</time>
      </trkpt>
      <trkpt lat="59.9640763" lon="17.7108731">
        <ele>36.6675</ele>
        <time>2014-04-03T18:46:11Z</time>
      </trkpt>
      <trkpt lat="59.9640923" lon="17.7109228">
        <ele>36.6675</ele>
        <time>2014-04-03T18:46:12Z</time>
      </trkpt>
      <trkpt lat="59.9641095" lon="17.7109658">
        <ele>36.6675</ele>
        <time>2014-04-03T18:46:13Z</time>
      </trkpt>
      <trkpt lat="59.9641282" lon="17.7109979">
        <ele>36.6675</ele>
        <time>2014-04-03T18:46:14Z</time>
      </trkpt>
      <trkpt lat="59.9641519" lon="17.7110254">
        <ele>36.6675</ele>
        <time>2014-04-03T18:46:15Z</time>
      </trkpt>
      <trkpt lat="59.9641768" lon="17.7110544">
        <ele>36.1868</ele>
        <time>2014-04-03T18:46:16Z</time>
      </trkpt>
      <trkpt lat="59.9642034" lon="17.7110761">
        <ele>36.6675</ele>
        <time>2014-04-03T18:46:17Z</time>
      </trkpt>
      <trkpt lat="59.9642296" lon="17.7110927">
        <ele>36.6675</ele>
        <time>2014-04-03T18:46:18Z</time>
      </trkpt>
      <trkpt lat="59.9642561" lon="17.7111155">
        <ele>37.1481</ele>
        <time>2014-04-03T18:46:19Z</time>
      </trkpt>
      <trkpt lat="59.9642825" lon="17.7111374">
        <ele>37.6287</ele>
        <time>2014-04-03T18:46:20Z</time>
      </trkpt>
      <trkpt lat="59.9643115" lon="17.711157">
        <ele>37.6287</ele>
        <time>2014-04-03T18:46:21Z</time>
      </trkpt>
      <trkpt lat="59.9643395" lon="17.7111817">
        <ele>38.1094</ele>
        <time>2014-04-03T18:46:22Z</time>
      </trkpt>
      <trkpt lat="59.9643634" lon="17.7112109">
        <ele>38.5901</ele>
        <time>2014-04-03T18:46:23Z</time>
      </trkpt>
      <trkpt lat="59.9643871" lon="17.7112424">
        <ele>38.5901</ele>
        <time>2014-04-03T18:46:24Z</time>
      </trkpt>
      <trkpt lat="59.964411" lon="17.7112736">
        <ele>39.0707</ele>
        <time>2014-04-03T18:46:25Z</time>
      </trkpt>
      <trkpt lat="59.9644347" lon="17.7113015">
        <ele>39.5513</ele>
        <time>2014-04-03T18:46:26Z</time>
      </trkpt>
      <trkpt lat="59.9644596" lon="17.7113288">
        <ele>39.5513</ele>
        <time>2014-04-03T18:46:27Z</time>
      </trkpt>
      <trkpt lat="59.964483" lon="17.711359">
        <ele>39.5513</ele>
        <time>2014-04-03T18:46:28Z</time>
      </trkpt>
      <trkpt lat="59.9645077" lon="17.711389">
        <ele>39.5513</ele>
        <time>2014-04-03T18:46:29Z</time>
      </trkpt>
      <trkpt lat="59.9645338" lon="17.7114166">
        <ele>40.0321</ele>
        <time>2014-04-03T18:46:30Z</time>
      </trkpt>
      <trkpt lat="59.9645592" lon="17.7114454">
        <ele>40.0321</ele>
        <time>2014-04-03T18:46:31Z</time>
      </trkpt>
      <trkpt lat="59.9645816" lon="17.7114761">
        <ele>39.5513</ele>
        <time>2014-04-03T18:46:32Z</time>
      </trkpt>
      <trkpt lat="59.9646053" lon="17.711506">
        <ele>39.5513</ele>
        <time>2014-04-03T18:46:33Z</time>
      </trkpt>
      <trkpt lat="59.9646313" lon="17.7115289">
        <ele>39.5513</ele>
        <time>2014-04-03T18:46:34Z</time>
      </trkpt>
      <trkpt lat="59.9646598" lon="17.711547">
        <ele>39.5513</ele>
        <time>2014-04-03T18:46:35Z</time>
      </trkpt>
      <trkpt lat="59.9646865" lon="17.7115677">
        <ele>39.5513</ele>
        <time>2014-04-03T18:46:36Z</time>
      </trkpt>
      <trkpt lat="59.9647088" lon="17.7115878">
        <ele>39.0707</ele>
        <time>2014-04-03T18:46:37Z</time>
      </trkpt>
      <trkpt lat="59.9647329" lon="17.7116069">
        <ele>39.0707</ele>
        <time>2014-04-03T18:46:38Z</time>
      </trkpt>
      <trkpt lat="59.9647566" lon="17.7116293">
        <ele>38.5901</ele>
        <time>2014-04-03T18:46:39Z</time>
      </trkpt>
      <trkpt lat="59.9647812" lon="17.7116515">
        <ele>38.1094</ele>
        <time>2014-04-03T18:46:40Z</time>
      </trkpt>
      <trkpt lat="59.9648036" lon="17.7116751">
        <ele>37.6287</ele>
        <time>2014-04-03T18:46:41Z</time>
      </trkpt>
      <trkpt lat="59.9648274" lon="17.7116953">
        <ele>37.1481</ele>
        <time>2014-04-03T18:46:42Z</time>
      </trkpt>
      <trkpt lat="59.9648539" lon="17.7117148">
        <ele>37.6287</ele>
        <time>2014-04-03T18:46:43Z</time>
      </trkpt>
      <trkpt lat="59.9648782" lon="17.7117377">
        <ele>37.1481</ele>
        <time>2014-04-03T18:46:44Z</time>
      </trkpt>
      <trkpt lat="59.9649033" lon="17.7117602">
        <ele>37.1481</ele>
        <time>2014-04-03T18:46:45Z</time>
      </trkpt>
      <trkpt lat="59.964929" lon="17.7117863">
        <ele>36.6675</ele>
        <time>2014-04-03T18:46:46Z</time>
      </trkpt>
      <trkpt lat="59.9649541" lon="17.7118107">
        <ele>36.6675</ele>
        <time>2014-04-03T18:46:47Z</time>
      </trkpt>
      <trkpt lat="59.9649809" lon="17.7118315">
        <ele>36.6675</ele>
        <time>2014-04-03T18:46:48Z</time>
      </trkpt>
      <trkpt lat="59.9650062" lon="17.7118567">
        <ele>36.1868</ele>
        <time>2014-04-03T18:46:49Z</time>
      </trkpt>
      <trkpt lat="59.96503" lon="17.7118801">
        <ele>36.1868</ele>
        <time>2014-04-03T18:46:50Z</time>
      </trkpt>
      <trkpt lat="59.965055" lon="17.7119002">
        <ele>35.7061</ele>
        <time>2014-04-03T18:46:51Z</time>
      </trkpt>
      <trkpt lat="59.9650788" lon="17.7119184">
        <ele>35.7061</ele>
        <time>2014-04-03T18:46:52Z</time>
      </trkpt>
      <trkpt lat="59.9651056" lon="17.7119364">
        <ele>35.2255</ele>
        <time>2014-04-03T18:46:53Z</time>
      </trkpt>
      <trkpt lat="59.9651328" lon="17.7119579">
        <ele>34.7449</ele>
        <time>2014-04-03T18:46:54Z</time>
      </trkpt>
      <trkpt lat="59.9651597" lon="17.7119783">
        <ele>34.7449</ele>
        <time>2014-04-03T18:46:55Z</time>
      </trkpt>
      <trkpt lat="59.965186" lon="17.7119993">
        <ele>34.7449</ele>
        <time>2014-04-03T18:46:56Z</time>
      </trkpt>
      <trkpt lat="59.965212" lon="17.7120211">
        <ele>34.2642</ele>
        <time>2014-04-03T18:46:57Z</time>
      </trkpt>
      <trkpt lat="59.9652368" lon="17.7120453">
        <ele>34.2642</ele>
        <time>2014-04-03T18:46:58Z</time>
      </trkpt>
      <trkpt lat="59.965262" lon="17.7120719">
        <ele>34.2642</ele>
        <time>2014-04-03T18:46:59Z</time>
      </trkpt>
      <trkpt lat="59.9652876" lon="17.7120938">
        <ele>34.2642</ele>
        <time>2014-04-03T18:47:00Z</time>
      </trkpt>
      <trkpt lat="59.965312" lon="17.7121158">
        <ele>34.2642</ele>
        <time>2014-04-03T18:47:01Z</time>
      </trkpt>
      <trkpt lat="59.9653372" lon="17.7121373">
        <ele>34.2642</ele>
        <time>2014-04-03T18:47:02Z</time>
      </trkpt>
      <trkpt lat="59.9653631" lon="17.7121567">
        <ele>34.2642</ele>
        <time>2014-04-03T18:47:03Z</time>
      </trkpt>
      <trkpt lat="59.9653883" lon="17.7121773">
        <ele>34.2642</ele>
        <time>2014-04-03T18:47:04Z</time>
      </trkpt>
      <trkpt lat="59.9654114" lon="17.7121995">
        <ele>34.7449</ele>
        <time>2014-04-03T18:47:05Z</time>
      </trkpt>
      <trkpt lat="59.9654352" lon="17.7122235">
        <ele>34.7449</ele>
        <time>2014-04-03T18:47:06Z</time>
      </trkpt>
      <trkpt lat="59.96546" lon="17.7122479">
        <ele>35.2255</ele>
        <time>2014-04-03T18:47:07Z</time>
      </trkpt>
      <trkpt lat="59.9654869" lon="17.7122727">
        <ele>36.1868</ele>
        <time>2014-04-03T18:47:08Z</time>
      </trkpt>
      <trkpt lat="59.965513" lon="17.7122961">
        <ele>35.7061</ele>
        <time>2014-04-03T18:47:09Z</time>
      </trkpt>
      <trkpt lat="59.9655403" lon="17.7123143">
        <ele>36.1868</ele>
        <time>2014-04-03T18:47:10Z</time>
      </trkpt>
      <trkpt lat="59.965565" lon="17.7123333">
        <ele>36.6675</ele>
        <time>2014-04-03T18:47:11Z</time>
      </trkpt>
      <trkpt lat="59.9655884" lon="17.7123514">
        <ele>36.6675</ele>
        <time>2014-04-03T18:47:12Z</time>
      </trkpt>
      <trkpt lat="59.9656153" lon="17.7123721">
        <ele>37.1481</ele>
        <time>2014-04-03T18:47:13Z</time>
      </trkpt>
      <trkpt lat="59.9656409" lon="17.712396">
        <ele>37.1481</ele>
        <time>2014-04-03T18:47:14Z</time>
      </trkpt>
      <trkpt lat="59.9656668" lon="17.7124203">
        <ele>37.1481</ele>
        <time>2014-04-03T18:47:15Z</time>
      </trkpt>
      <trkpt lat="59.9656916" lon="17.7124473">
        <ele>37.1481</ele>
        <time>2014-04-03T18:47:16Z</time>
      </trkpt>
      <trkpt lat="59.965718" lon="17.7124702">
        <ele>37.1481</ele>
        <time>2014-04-03T18:47:17Z</time>
      </trkpt>
      <trkpt lat="59.9657451" lon="17.7124911">
        <ele>37.1481</ele>
        <time>2014-04-03T18:47:18Z</time>
      </trkpt>
      <trkpt lat="59.9657707" lon="17.7125129">
        <ele>37.1481</ele>
        <time>2014-04-03T18:47:19Z</time>
      </trkpt>
      <trkpt lat="59.9657957" lon="17.7125338">
        <ele>37.1481</ele>
        <time>2014-04-03T18:47:20Z</time>
      </trkpt>
      <trkpt lat="59.9658227" lon="17.7125602">
        <ele>37.1481</ele>
        <time>2014-04-03T18:47:21Z</time>
      </trkpt>
      <trkpt lat="59.9658496" lon="17.7125859">
        <ele>37.1481</ele>
        <time>2014-04-03T18:47:22Z</time>
      </trkpt>
      <trkpt lat="59.9658785" lon="17.7126065">
        <ele>37.6287</ele>
        <time>2014-04-03T18:47:23Z</time>
      </trkpt>
      <trkpt lat="59.9659044" lon="17.7126261">
        <ele>37.1481</ele>
        <time>2014-04-03T18:47:24Z</time>
      </trkpt>
      <trkpt lat="59.9659277" lon="17.7126494">
        <ele>37.6287</ele>
        <time>2014-04-03T18:47:25Z</time>
      </trkpt>
      <trkpt lat="59.9659521" lon="17.7126737">
        <ele>37.6287</ele>
        <time>2014-04-03T18:47:26Z</time>
      </trkpt>
      <trkpt lat="59.9659775" lon="17.7126938">
        <ele>37.1481</ele>
        <time>2014-04-03T18:47:27Z</time>
      </trkpt>
      <trkpt lat="59.9660064" lon="17.7127077">
        <ele>37.1481</ele>
        <time>2014-04-03T18:47:28Z</time>
      </trkpt>
      <trkpt lat="59.9660354" lon="17.7127079">
        <ele>37.1481</ele>
        <time>2014-04-03T18:47:29Z</time>
      </trkpt>
      <trkpt lat="59.9660615" lon="17.7126921">
        <ele>36.6675</ele>
        <time>2014-04-03T18:47:30Z</time>
      </trkpt>
      <trkpt lat="59.9660874" lon="17.7126673">
        <ele>36.6675</ele>
        <time>2014-04-03T18:47:31Z</time>
      </trkpt>
      <trkpt lat="59.9661092" lon="17.7126365">
        <ele>36.6675</ele>
        <time>2014-04-03T18:47:32Z</time>
      </trkpt>
      <trkpt lat="59.9661339" lon="17.7125981">
        <ele>36.1868</ele>
        <time>2014-04-03T18:47:33Z</time>
      </trkpt>
      <trkpt lat="59.9661564" lon="17.7125616">
        <ele>35.7061</ele>
        <time>2014-04-03T18:47:34Z</time>
      </trkpt>
      <trkpt lat="59.9661764" lon="17.7125214">
        <ele>35.7061</ele>
        <time>2014-04-03T18:47:35Z</time>
      </trkpt>
      <trkpt lat="59.9661982" lon="17.7124792">
        <ele>35.2255</ele>
        <time>2014-04-03T18:47:36Z</time>
      </trkpt>
      <trkpt lat="59.9662118" lon="17.7124355">
        <ele>34.7449</ele>
        <time>2014-04-03T18:47:37Z</time>
      </trkpt>
      <trkpt lat="59.9662292" lon="17.7123861">
        <ele>34.7449</ele>
        <time>2014-04-03T18:47:38Z</time>
      </trkpt>
      <trkpt lat="59.966249" lon="17.7123287">
        <ele>34.7449</ele>
        <time>2014-04-03T18:47:39Z</time>
      </trkpt>
      <trkpt lat="59.9662711" lon="17.7122733">
        <ele>35.2255</ele>
        <time>2014-04-03T18:47:40Z</time>
      </trkpt>
      <trkpt lat="59.9662961" lon="17.7122158">
        <ele>35.2255</ele>
        <time>2014-04-03T18:47:41Z</time>
      </trkpt>
      <trkpt lat="59.966324" lon="17.7121602">
        <ele>35.7061</ele>
        <time>2014-04-03T18:47:42Z</time>
      </trkpt>
      <trkpt lat="59.9663515" lon="17.7121173">
        <ele>35.7061</ele>
        <time>2014-04-03T18:47:43Z</time>
      </trkpt>
      <trkpt lat="59.9663784" lon="17.7120857">
        <ele>36.1868</ele>
        <time>2014-04-03T18:47:44Z</time>
      </trkpt>
      <trkpt lat="59.9664054" lon="17.7120568">
        <ele>35.7061</ele>
        <time>2014-04-03T18:47:45Z</time>
      </trkpt>
      <trkpt lat="59.9664329" lon="17.7120276">
        <ele>35.7061</ele>
        <time>2014-04-03T18:47:46Z</time>
      </trkpt>
      <trkpt lat="59.9664594" lon="17.7119915">
        <ele>35.7061</ele>
        <time>2014-04-03T18:47:47Z</time>
      </trkpt>
      <trkpt lat="59.9664858" lon="17.7119543">
        <ele>36.1868</ele>
        <time>2014-04-03T18:47:48Z</time>
      </trkpt>
      <trkpt lat="59.9665078" lon="17.7119183">
        <ele>36.1868</ele>
        <time>2014-04-03T18:47:49Z</time>
      </trkpt>
      <trkpt lat="59.9665313" lon="17.7118769">
        <ele>37.1481</ele>
        <time>2014-04-03T18:47:50Z</time>
      </trkpt>
      <trkpt lat="59.9665562" lon="17.7118339">
        <ele>37.1481</ele>
        <time>2014-04-03T18:47:51Z</time>
      </trkpt>
      <trkpt lat="59.9665811" lon="17.7117894">
        <ele>37.1481</ele>
        <time>2014-04-03T18:47:52Z</time>
      </trkpt>
      <trkpt lat="59.9666043" lon="17.7117439">
        <ele>37.6287</ele>
        <time>2014-04-03T18:47:53Z</time>
      </trkpt>
      <trkpt lat="59.9666282" lon="17.7117086">
        <ele>37.6287</ele>
        <time>2014-04-03T18:47:54Z</time>
      </trkpt>
      <trkpt lat="59.9666539" lon="17.7116717">
        <ele>38.1094</ele>
        <time>2014-04-03T18:47:55Z</time>
      </trkpt>
      <trkpt lat="59.966679" lon="17.711646">
        <ele>38.1094</ele>
        <time>2014-04-03T18:47:56Z</time>
      </trkpt>
      <trkpt lat="59.9667084" lon="17.7116413">
        <ele>38.1094</ele>
        <time>2014-04-03T18:47:57Z</time>
      </trkpt>
      <trkpt lat="59.9667395" lon="17.7116668">
        <ele>38.5901</ele>
        <time>2014-04-03T18:47:58Z</time>
      </trkpt>
      <trkpt lat="59.9667648" lon="17.7117014">
        <ele>38.5901</ele>
        <time>2014-04-03T18:47:59Z</time>
      </trkpt>
      <trkpt lat="59.9667861" lon="17.7117474">
        <ele>38.5901</ele>
        <time>2014-04-03T18:48:00Z</time>
      </trkpt>
      <trkpt lat="59.9668022" lon="17.7118001">
        <ele>39.0707</ele>
        <time>2014-04-03T18:48:01Z</time>
      </trkpt>
      <trkpt lat="59.9668144" lon="17.7118556">
        <ele>38.5901</ele>
        <time>2014-04-03T18:48:02Z</time>
      </trkpt>
      <trkpt lat="59.9668302" lon="17.7119097">
        <ele>38.5901</ele>
        <time>2014-04-03T18:48:03Z</time>
      </trkpt>
      <trkpt lat="59.9668447" lon="17.7119626">
        <ele>38.1094</ele>
        <time>2014-04-03T18:48:04Z</time>
      </trkpt>
      <trkpt lat="59.9668593" lon="17.7120085">
        <ele>39.0707</ele>
        <time>2014-04-03T18:48:05Z</time>
      </trkpt>
      <trkpt lat="59.9668758" lon="17.7120546">
        <ele>39.5513</ele>
        <time>2014-04-03T18:48:06Z</time>
      </trkpt>
      <trkpt lat="59.9668911" lon="17.7121019">
        <ele>39.5513</ele>
        <time>2014-04-03T18:48:07Z</time>
      </trkpt>
      <trkpt lat="59.9669042" lon="17.7121577">
        <ele>39.5513</ele>
        <time>2014-04-03T18:48:08Z</time>
      </trkpt>
      <trkpt lat="59.9669175" lon="17.71221">
        <ele>39.5513</ele>
        <time>2014-04-03T18:48:09Z</time>
      </trkpt>
      <trkpt lat="59.9669296" lon="17.7122563">
        <ele>39.0707</ele>
        <time>2014-04-03T18:48:10Z</time>
      </trkpt>
      <trkpt lat="59.9669358" lon="17.712309">
        <ele>39.0707</ele>
        <time>2014-04-03T18:48:11Z</time>
      </trkpt>
      <trkpt lat="59.9669442" lon="17.7123635">
        <ele>38.1094</ele>
        <time>2014-04-03T18:48:12Z</time>
      </trkpt>
      <trkpt lat="59.9669603" lon="17.7124199">
        <ele>37.6287</ele>
        <time>2014-04-03T18:48:13Z</time>
      </trkpt>
      <trkpt lat="59.9669804" lon="17.7124736">
        <ele>37.6287</ele>
        <time>2014-04-03T18:48:14Z</time>
      </trkpt>
      <trkpt lat="59.9669949" lon="17.712525">
        <ele>37.1481</ele>
        <time>2014-04-03T18:48:15Z</time>
      </trkpt>
      <trkpt lat="59.9670047" lon="17.7125779">
        <ele>36.6675</ele>
        <time>2014-04-03T18:48:16Z</time>
      </trkpt>
      <trkpt lat="59.9670126" lon="17.7126313">
        <ele>36.6675</ele>
        <time>2014-04-03T18:48:17Z</time>
      </trkpt>
      <trkpt lat="59.9670208" lon="17.7126815">
        <ele>36.6675</ele>
        <time>2014-04-03T18:48:18Z</time>
      </trkpt>
      <trkpt lat="59.9670311" lon="17.7127348">
        <ele>36.1868</ele>
        <time>2014-04-03T18:48:19Z</time>
      </trkpt>
      <trkpt lat="59.9670405" lon="17.7127909">
        <ele>36.1868</ele>
        <time>2014-04-03T18:48:20Z</time>
      </trkpt>
      <trkpt lat="59.9670477" lon="17.7128483">
        <ele>35.7061</ele>
        <time>2014-04-03T18:48:21Z</time>
      </trkpt>
      <trkpt lat="59.9670538" lon="17.7129085">
        <ele>35.2255</ele>
        <time>2014-04-03T18:48:22Z</time>
      </trkpt>
      <trkpt lat="59.9670648" lon="17.7129633">
        <ele>35.7061</ele>
        <time>2014-04-03T18:48:23Z</time>
      </trkpt>
      <trkpt lat="59.9670758" lon="17.7130166">
        <ele>35.7061</ele>
        <time>2014-04-03T18:48:24Z</time>
      </trkpt>
      <trkpt lat="59.9670854" lon="17.713073">
        <ele>34.7449</ele>
        <time>2014-04-03T18:48:25Z</time>
      </trkpt>
      <trkpt lat="59.9670953" lon="17.7131244">
        <ele>35.2255</ele>
        <time>2014-04-03T18:48:26Z</time>
      </trkpt>
      <trkpt lat="59.9671047" lon="17.7131773">
        <ele>34.7449</ele>
        <time>2014-04-03T18:48:27Z</time>
      </trkpt>
      <trkpt lat="59.967115" lon="17.7132312">
        <ele>35.2255</ele>
        <time>2014-04-03T18:48:28Z</time>
      </trkpt>
      <trkpt lat="59.9671263" lon="17.7132854">
        <ele>35.2255</ele>
        <time>2014-04-03T18:48:29Z</time>
      </trkpt>
      <trkpt lat="59.9671385" lon="17.7133417">
        <ele>35.2255</ele>
        <time>2014-04-03T18:48:30Z</time>
      </trkpt>
      <trkpt lat="59.9671502" lon="17.7133956">
        <ele>35.2255</ele>
        <time>2014-04-03T18:48:31Z</time>
      </trkpt>
      <trkpt lat="59.9671618" lon="17.7134493">
        <ele>35.7061</ele>
        <time>2014-04-03T18:48:32Z</time>
      </trkpt>
      <trkpt lat="59.967176" lon="17.7135066">
        <ele>35.7061</ele>
        <time>2014-04-03T18:48:33Z</time>
      </trkpt>
      <trkpt lat="59.9671855" lon="17.7135596">
        <ele>35.7061</ele>
        <time>2014-04-03T18:48:34Z</time>
      </trkpt>
      <trkpt lat="59.9671944" lon="17.7136093">
        <ele>35.7061</ele>
        <time>2014-04-03T18:48:35Z</time>
      </trkpt>
      <trkpt lat="59.9672037" lon="17.7136626">
        <ele>35.7061</ele>
        <time>2014-04-03T18:48:36Z</time>
      </trkpt>
      <trkpt lat="59.9672092" lon="17.7137174">
        <ele>36.1868</ele>
        <time>2014-04-03T18:48:37Z</time>
      </trkpt>
      <trkpt lat="59.9672123" lon="17.7137708">
        <ele>36.1868</ele>
        <time>2014-04-03T18:48:38Z</time>
      </trkpt>
      <trkpt lat="59.9672182" lon="17.7138236">
        <ele>36.6675</ele>
        <time>2014-04-03T18:48:39Z</time>
      </trkpt>
      <trkpt lat="59.9672279" lon="17.7138734">
        <ele>36.6675</ele>
        <time>2014-04-03T18:48:40Z</time>
      </trkpt>
      <trkpt lat="59.9672421" lon="17.7139267">
        <ele>37.1481</ele>
        <time>2014-04-03T18:48:41Z</time>
      </trkpt>
      <trkpt lat="59.9672529" lon="17.7139818">
        <ele>37.6287</ele>
        <time>2014-04-03T18:48:42Z</time>
      </trkpt>
      <trkpt lat="59.9672617" lon="17.7140358">
        <ele>38.1094</ele>
        <time>2014-04-03T18:48:43Z</time>
      </trkpt>
      <trkpt lat="59.9672756" lon="17.714093">
        <ele>37.6287</ele>
        <time>2014-04-03T18:48:44Z</time>
      </trkpt>
      <trkpt lat="59.9672855" lon="17.714146">
        <ele>37.6287</ele>
        <time>2014-04-03T18:48:45Z</time>
      </trkpt>
      <trkpt lat="59.9672943" lon="17.7142016">
        <ele>37.6287</ele>
        <time>2014-04-03T18:48:46Z</time>
      </trkpt>
      <trkpt lat="59.9673021" lon="17.7142583">
        <ele>38.1094</ele>
        <time>2014-04-03T18:48:47Z</time>
      </trkpt>
      <trkpt lat="59.9673109" lon="17.7143095">
        <ele>38.1094</ele>
        <time>2014-04-03T18:48:48Z</time>
      </trkpt>
      <trkpt lat="59.9673214" lon="17.7143684">
        <ele>39.0707</ele>
        <time>2014-04-03T18:48:49Z</time>
      </trkpt>
      <trkpt lat="59.9673322" lon="17.7144293">
        <ele>39.0707</ele>
        <time>2014-04-03T18:48:50Z</time>
      </trkpt>
      <trkpt lat="59.9673404" lon="17.7144847">
        <ele>39.0707</ele>
        <time>2014-04-03T18:48:51Z</time>
      </trkpt>
      <trkpt lat="59.967348" lon="17.7145389">
        <ele>40.0321</ele>
        <time>2014-04-03T18:48:52Z</time>
      </trkpt>
      <trkpt lat="59.9673565" lon="17.7145929">
        <ele>39.5513</ele>
        <time>2014-04-03T18:48:53Z</time>
      </trkpt>
      <trkpt lat="59.9673642" lon="17.7146443">
        <ele>39.0707</ele>
        <time>2014-04-03T18:48:54Z</time>
      </trkpt>
      <trkpt lat="59.9673728" lon="17.7146976">
        <ele>39.0707</ele>
        <time>2014-04-03T18:48:55Z</time>
      </trkpt>
      <trkpt lat="59.9673785" lon="17.7147494">
        <ele>39.0707</ele>
        <time>2014-04-03T18:48:56Z</time>
      </trkpt>
      <trkpt lat="59.9673869" lon="17.7148004">
        <ele>38.5901</ele>
        <time>2014-04-03T18:48:57Z</time>
      </trkpt>
      <trkpt lat="59.9673943" lon="17.7148567">
        <ele>38.1094</ele>
        <time>2014-04-03T18:48:58Z</time>
      </trkpt>
      <trkpt lat="59.9674032" lon="17.7149146">
        <ele>37.6287</ele>
        <time>2014-04-03T18:48:59Z</time>
      </trkpt>
      <trkpt lat="59.9674129" lon="17.7149719">
        <ele>37.6287</ele>
        <time>2014-04-03T18:49:00Z</time>
      </trkpt>
      <trkpt lat="59.9674182" lon="17.7150265">
        <ele>37.1481</ele>
        <time>2014-04-03T18:49:01Z</time>
      </trkpt>
      <trkpt lat="59.9674257" lon="17.7150866">
        <ele>36.6675</ele>
        <time>2014-04-03T18:49:02Z</time>
      </trkpt>
      <trkpt lat="59.9674353" lon="17.7151513">
        <ele>37.1481</ele>
        <time>2014-04-03T18:49:03Z</time>
      </trkpt>
      <trkpt lat="59.9674338" lon="17.7152016">
        <ele>35.2255</ele>
        <time>2014-04-03T18:49:04Z</time>
      </trkpt>
      <trkpt lat="59.9674371" lon="17.7152554">
        <ele>35.2255</ele>
        <time>2014-04-03T18:49:05Z</time>
      </trkpt>
      <trkpt lat="59.9674347" lon="17.7153098">
        <ele>34.7449</ele>
        <time>2014-04-03T18:49:06Z</time>
      </trkpt>
      <trkpt lat="59.9674335" lon="17.7153576">
        <ele>34.7449</ele>
        <time>2014-04-03T18:49:07Z</time>
      </trkpt>
      <trkpt lat="59.967432" lon="17.7154058">
        <ele>35.2255</ele>
        <time>2014-04-03T18:49:08Z</time>
      </trkpt>
      <trkpt lat="59.9674335" lon="17.7154518">
        <ele>35.2255</ele>
        <time>2014-04-03T18:49:09Z</time>
      </trkpt>
      <trkpt lat="59.967443" lon="17.7154995">
        <ele>35.2255</ele>
        <time>2014-04-03T18:49:10Z</time>
      </trkpt>
      <trkpt lat="59.9674703" lon="17.7155353">
        <ele>37.6287</ele>
        <time>2014-04-03T18:49:11Z</time>
      </trkpt>
      <trkpt lat="59.9674913" lon="17.7155783">
        <ele>38.5901</ele>
        <time>2014-04-03T18:49:12Z</time>
      </trkpt>
      <trkpt lat="59.9675024" lon="17.7156357">
        <ele>38.1094</ele>
        <time>2014-04-03T18:49:13Z</time>
      </trkpt>
      <trkpt lat="59.9675128" lon="17.7156833">
        <ele>37.6287</ele>
        <time>2014-04-03T18:49:14Z</time>
      </trkpt>
      <trkpt lat="59.9675249" lon="17.7157273">
        <ele>37.1481</ele>
        <time>2014-04-03T18:49:15Z</time>
      </trkpt>
      <trkpt lat="59.9675371" lon="17.7157787">
        <ele>37.1481</ele>
        <time>2014-04-03T18:49:16Z</time>
      </trkpt>
      <trkpt lat="59.9675466" lon="17.7158262">
        <ele>36.6675</ele>
        <time>2014-04-03T18:49:17Z</time>
      </trkpt>
      <trkpt lat="59.9675586" lon="17.7158718">
        <ele>36.6675</ele>
        <time>2014-04-03T18:49:18Z</time>
      </trkpt>
      <trkpt lat="59.9675709" lon="17.7159205">
        <ele>36.6675</ele>
        <time>2014-04-03T18:49:19Z</time>
      </trkpt>
      <trkpt lat="59.967585" lon="17.7159681">
        <ele>36.6675</ele>
        <time>2014-04-03T18:49:20Z</time>
      </trkpt>
      <trkpt lat="59.9676015" lon="17.7160119">
        <ele>37.1481</ele>
        <time>2014-04-03T18:49:21Z</time>
      </trkpt>
      <trkpt lat="59.9676165" lon="17.7160599">
        <ele>37.6287</ele>
        <time>2014-04-03T18:49:22Z</time>
      </trkpt>
      <trkpt lat="59.9676289" lon="17.7161112">
        <ele>37.6287</ele>
        <time>2014-04-03T18:49:23Z</time>
      </trkpt>
      <trkpt lat="59.9676448" lon="17.7161589">
        <ele>37.1481</ele>
        <time>2014-04-03T18:49:24Z</time>
      </trkpt>
      <trkpt lat="59.9676635" lon="17.716205">
        <ele>38.1094</ele>
        <time>2014-04-03T18:49:25Z</time>
      </trkpt>
      <trkpt lat="59.9676816" lon="17.7162529">
        <ele>38.5901</ele>
        <time>2014-04-03T18:49:26Z</time>
      </trkpt>
      <trkpt lat="59.9676984" lon="17.7163013">
        <ele>38.5901</ele>
        <time>2014-04-03T18:49:27Z</time>
      </trkpt>
      <trkpt lat="59.9677145" lon="17.71635">
        <ele>38.5901</ele>
        <time>2014-04-03T18:49:28Z</time>
      </trkpt>
      <trkpt lat="59.9677337" lon="17.7163934">
        <ele>39.0707</ele>
        <time>2014-04-03T18:49:29Z</time>
      </trkpt>
      <trkpt lat="59.9677527" lon="17.7164382">
        <ele>40.0321</ele>
        <time>2014-04-03T18:49:30Z</time>
      </trkpt>
      <trkpt lat="59.9677722" lon="17.7164826">
        <ele>40.0321</ele>
        <time>2014-04-03T18:49:31Z</time>
      </trkpt>
      <trkpt lat="59.9677901" lon="17.7165226">
        <ele>40.0321</ele>
        <time>2014-04-03T18:49:32Z</time>
      </trkpt>
      <trkpt lat="59.9678097" lon="17.7165599">
        <ele>39.5513</ele>
        <time>2014-04-03T18:49:33Z</time>
      </trkpt>
      <trkpt lat="59.9678306" lon="17.7165969">
        <ele>40.0321</ele>
        <time>2014-04-03T18:49:34Z</time>
      </trkpt>
      <trkpt lat="59.9678499" lon="17.7166308">
        <ele>40.0321</ele>
        <time>2014-04-03T18:49:35Z</time>
      </trkpt>
      <trkpt lat="59.967865" lon="17.7166685">
        <ele>40.5128</ele>
        <time>2014-04-03T18:49:36Z</time>
      </trkpt>
      <trkpt lat="59.9678833" lon="17.7167054">
        <ele>40.5128</ele>
        <time>2014-04-03T18:49:37Z</time>
      </trkpt>
      <trkpt lat="59.9679085" lon="17.7167354">
        <ele>40.5128</ele>
        <time>2014-04-03T18:49:38Z</time>
      </trkpt>
      <trkpt lat="59.967933" lon="17.7167627">
        <ele>40.0321</ele>
        <time>2014-04-03T18:49:39Z</time>
      </trkpt>
      <trkpt lat="59.9679547" lon="17.7167972">
        <ele>40.5128</ele>
        <time>2014-04-03T18:49:40Z</time>
      </trkpt>
      <trkpt lat="59.9679776" lon="17.7168328">
        <ele>40.0321</ele>
        <time>2014-04-03T18:49:41Z</time>
      </trkpt>
      <trkpt lat="59.9680009" lon="17.7168617">
        <ele>40.0321</ele>
        <time>2014-04-03T18:49:42Z</time>
      </trkpt>
      <trkpt lat="59.968024" lon="17.7168923">
        <ele>40.0321</ele>
        <time>2014-04-03T18:49:43Z</time>
      </trkpt>
      <trkpt lat="59.9680457" lon="17.7169251">
        <ele>39.5513</ele>
        <time>2014-04-03T18:49:44Z</time>
      </trkpt>
      <trkpt lat="59.9680652" lon="17.7169613">
        <ele>39.5513</ele>
        <time>2014-04-03T18:49:45Z</time>
      </trkpt>
      <trkpt lat="59.9680861" lon="17.7169927">
        <ele>39.5513</ele>
        <time>2014-04-03T18:49:46Z</time>
      </trkpt>
      <trkpt lat="59.9681097" lon="17.7170255">
        <ele>39.0707</ele>
        <time>2014-04-03T18:49:47Z</time>
      </trkpt>
      <trkpt lat="59.9681319" lon="17.7170593">
        <ele>39.0707</ele>
        <time>2014-04-03T18:49:48Z</time>
      </trkpt>
      <trkpt lat="59.9681556" lon="17.7170896">
        <ele>38.5901</ele>
        <time>2014-04-03T18:49:49Z</time>
      </trkpt>
      <trkpt lat="59.968179" lon="17.7171167">
        <ele>38.5901</ele>
        <time>2014-04-03T18:49:50Z</time>
      </trkpt>
      <trkpt lat="59.9682028" lon="17.7171395">
        <ele>38.1094</ele>
        <time>2014-04-03T18:49:51Z</time>
      </trkpt>
      <trkpt lat="59.9682271" lon="17.7171633">
        <ele>37.1481</ele>
        <time>2014-04-03T18:49:52Z</time>
      </trkpt>
      <trkpt lat="59.9682512" lon="17.7171857">
        <ele>37.1481</ele>
        <time>2014-04-03T18:49:53Z</time>
      </trkpt>
      <trkpt lat="59.9682723" lon="17.7172142">
        <ele>37.1481</ele>
        <time>2014-04-03T18:49:54Z</time>
      </trkpt>
      <trkpt lat="59.9682945" lon="17.7172379">
        <ele>37.1481</ele>
        <time>2014-04-03T18:49:55Z</time>
      </trkpt>
      <trkpt lat="59.968321" lon="17.7172545">
        <ele>36.6675</ele>
        <time>2014-04-03T18:49:56Z</time>
      </trkpt>
      <trkpt lat="59.9683479" lon="17.7172736">
        <ele>36.1868</ele>
        <time>2014-04-03T18:49:57Z</time>
      </trkpt>
      <trkpt lat="59.9683722" lon="17.7172913">
        <ele>35.2255</ele>
        <time>2014-04-03T18:49:58Z</time>
      </trkpt>
      <trkpt lat="59.9683983" lon="17.7173099">
        <ele>34.7449</ele>
        <time>2014-04-03T18:49:59Z</time>
      </trkpt>
      <trkpt lat="59.9684227" lon="17.7173278">
        <ele>34.2642</ele>
        <time>2014-04-03T18:50:00Z</time>
      </trkpt>
      <trkpt lat="59.9684488" lon="17.7173429">
        <ele>34.2642</ele>
        <time>2014-04-03T18:50:01Z</time>
      </trkpt>
      <trkpt lat="59.9684728" lon="17.7173545">
        <ele>33.3029</ele>
        <time>2014-04-03T18:50:02Z</time>
      </trkpt>
      <trkpt lat="59.968495" lon="17.7173591">
        <ele>32.8223</ele>
        <time>2014-04-03T18:50:03Z</time>
      </trkpt>
      <trkpt lat="59.9685185" lon="17.7173726">
        <ele>32.3416</ele>
        <time>2014-04-03T18:50:04Z</time>
      </trkpt>
      <trkpt lat="59.9685437" lon="17.7173841">
        <ele>32.3416</ele>
        <time>2014-04-03T18:50:05Z</time>
      </trkpt>
      <trkpt lat="59.96857" lon="17.7173983">
        <ele>32.3416</ele>
        <time>2014-04-03T18:50:06Z</time>
      </trkpt>
      <trkpt lat="59.9685967" lon="17.7174165">
        <ele>32.3416</ele>
        <time>2014-04-03T18:50:07Z</time>
      </trkpt>
      <trkpt lat="59.9686234" lon="17.7174273">
        <ele>32.3416</ele>
        <time>2014-04-03T18:50:08Z</time>
      </trkpt>
      <trkpt lat="59.9686459" lon="17.7174384">
        <ele>31.8607</ele>
        <time>2014-04-03T18:50:09Z</time>
      </trkpt>
      <trkpt lat="59.9686663" lon="17.7174483">
        <ele>30.8995</ele>
        <time>2014-04-03T18:50:10Z</time>
      </trkpt>
      <trkpt lat="59.9686902" lon="17.7174472">
        <ele>30.8995</ele>
        <time>2014-04-03T18:50:11Z</time>
      </trkpt>
      <trkpt lat="59.9687132" lon="17.7174534">
        <ele>30.4188</ele>
        <time>2014-04-03T18:50:12Z</time>
      </trkpt>
      <trkpt lat="59.9687376" lon="17.7174638">
        <ele>30.4188</ele>
        <time>2014-04-03T18:50:13Z</time>
      </trkpt>
      <trkpt lat="59.9687632" lon="17.7174731">
        <ele>30.4188</ele>
        <time>2014-04-03T18:50:14Z</time>
      </trkpt>
      <trkpt lat="59.9687871" lon="17.7174825">
        <ele>29.9381</ele>
        <time>2014-04-03T18:50:15Z</time>
      </trkpt>
      <trkpt lat="59.9688152" lon="17.7174894">
        <ele>29.9381</ele>
        <time>2014-04-03T18:50:16Z</time>
      </trkpt>
      <trkpt lat="59.9688424" lon="17.7174916">
        <ele>29.9381</ele>
        <time>2014-04-03T18:50:17Z</time>
      </trkpt>
      <trkpt lat="59.9688675" lon="17.7174825">
        <ele>29.9381</ele>
        <time>2014-04-03T18:50:18Z</time>
      </trkpt>
      <trkpt lat="59.9688955" lon="17.7174659">
        <ele>29.9381</ele>
        <time>2014-04-03T18:50:19Z</time>
      </trkpt>
      <trkpt lat="59.9689215" lon="17.7174483">
        <ele>29.9381</ele>
        <time>2014-04-03T18:50:20Z</time>
      </trkpt>
      <trkpt lat="59.9689474" lon="17.7174315">
        <ele>29.9381</ele>
        <time>2014-04-03T18:50:21Z</time>
      </trkpt>
      <trkpt lat="59.9689749" lon="17.7174145">
        <ele>29.9381</ele>
        <time>2014-04-03T18:50:22Z</time>
      </trkpt>
      <trkpt lat="59.9690028" lon="17.7173989">
        <ele>29.9381</ele>
        <time>2014-04-03T18:50:23Z</time>
      </trkpt>
      <trkpt lat="59.9690302" lon="17.7173845">
        <ele>30.4188</ele>
        <time>2014-04-03T18:50:24Z</time>
      </trkpt>
      <trkpt lat="59.9690551" lon="17.7173729">
        <ele>30.8995</ele>
        <time>2014-04-03T18:50:25Z</time>
      </trkpt>
      <trkpt lat="59.9690824" lon="17.7173669">
        <ele>30.8995</ele>
        <time>2014-04-03T18:50:26Z</time>
      </trkpt>
      <trkpt lat="59.9691094" lon="17.7173658">
        <ele>30.8995</ele>
        <time>2014-04-03T18:50:27Z</time>
      </trkpt>
      <trkpt lat="59.9691343" lon="17.7173668">
        <ele>30.8995</ele>
        <time>2014-04-03T18:50:28Z</time>
      </trkpt>
      <trkpt lat="59.9691626" lon="17.7173736">
        <ele>31.3801</ele>
        <time>2014-04-03T18:50:29Z</time>
      </trkpt>
      <trkpt lat="59.9691885" lon="17.7173798">
        <ele>31.8607</ele>
        <time>2014-04-03T18:50:30Z</time>
      </trkpt>
      <trkpt lat="59.9692147" lon="17.7173871">
        <ele>32.3416</ele>
        <time>2014-04-03T18:50:31Z</time>
      </trkpt>
      <trkpt lat="59.969244" lon="17.7174011">
        <ele>32.3416</ele>
        <time>2014-04-03T18:50:32Z</time>
      </trkpt>
      <trkpt lat="59.9692705" lon="17.7174243">
        <ele>32.8223</ele>
        <time>2014-04-03T18:50:33Z</time>
      </trkpt>
      <trkpt lat="59.969299" lon="17.7174497">
        <ele>33.3029</ele>
        <time>2014-04-03T18:50:34Z</time>
      </trkpt>
      <trkpt lat="59.969326" lon="17.7174754">
        <ele>33.3029</ele>
        <time>2014-04-03T18:50:35Z</time>
      </trkpt>
      <trkpt lat="59.9693513" lon="17.7174943">
        <ele>33.3029</ele>
        <time>2014-04-03T18:50:36Z</time>
      </trkpt>
      <trkpt lat="59.9693776" lon="17.7175149">
        <ele>33.3029</ele>
        <time>2014-04-03T18:50:37Z</time>
      </trkpt>
      <trkpt lat="59.9694043" lon="17.7175269">
        <ele>33.3029</ele>
        <time>2014-04-03T18:50:38Z</time>
      </trkpt>
      <trkpt lat="59.9694323" lon="17.7175357">
        <ele>33.3029</ele>
        <time>2014-04-03T18:50:39Z</time>
      </trkpt>
      <trkpt lat="59.9694595" lon="17.7175496">
        <ele>33.3029</ele>
        <time>2014-04-03T18:50:40Z</time>
      </trkpt>
      <trkpt lat="59.9694834" lon="17.7175641">
        <ele>33.3029</ele>
        <time>2014-04-03T18:50:41Z</time>
      </trkpt>
      <trkpt lat="59.9695092" lon="17.7175768">
        <ele>33.7834</ele>
        <time>2014-04-03T18:50:42Z</time>
      </trkpt>
      <trkpt lat="59.9695364" lon="17.7175922">
        <ele>33.7834</ele>
        <time>2014-04-03T18:50:43Z</time>
      </trkpt>
      <trkpt lat="59.9695627" lon="17.7176073">
        <ele>33.7834</ele>
        <time>2014-04-03T18:50:44Z</time>
      </trkpt>
      <trkpt lat="59.9695921" lon="17.7176274">
        <ele>34.2642</ele>
        <time>2014-04-03T18:50:45Z</time>
      </trkpt>
      <trkpt lat="59.96962" lon="17.7176454">
        <ele>33.7834</ele>
        <time>2014-04-03T18:50:46Z</time>
      </trkpt>
      <trkpt lat="59.9696467" lon="17.7176606">
        <ele>33.7834</ele>
        <time>2014-04-03T18:50:47Z</time>
      </trkpt>
      <trkpt lat="59.9696745" lon="17.717674">
        <ele>33.7834</ele>
        <time>2014-04-03T18:50:48Z</time>
      </trkpt>
      <trkpt lat="59.9697026" lon="17.7176848">
        <ele>33.7834</ele>
        <time>2014-04-03T18:50:49Z</time>
      </trkpt>
      <trkpt lat="59.969728" lon="17.7177005">
        <ele>33.7834</ele>
        <time>2014-04-03T18:50:50Z</time>
      </trkpt>
      <trkpt lat="59.9697524" lon="17.717717">
        <ele>33.3029</ele>
        <time>2014-04-03T18:50:51Z</time>
      </trkpt>
      <trkpt lat="59.9697797" lon="17.7177351">
        <ele>33.3029</ele>
        <time>2014-04-03T18:50:52Z</time>
      </trkpt>
      <trkpt lat="59.9698046" lon="17.7177532">
        <ele>33.3029</ele>
        <time>2014-04-03T18:50:53Z</time>
      </trkpt>
      <trkpt lat="59.9698298" lon="17.71777">
        <ele>33.7834</ele>
        <time>2014-04-03T18:50:54Z</time>
      </trkpt>
      <trkpt lat="59.9698572" lon="17.7177874">
        <ele>33.7834</ele>
        <time>2014-04-03T18:50:55Z</time>
      </trkpt>
      <trkpt lat="59.9698824" lon="17.7178047">
        <ele>33.3029</ele>
        <time>2014-04-03T18:50:56Z</time>
      </trkpt>
      <trkpt lat="59.9699091" lon="17.7178263">
        <ele>33.3029</ele>
        <time>2014-04-03T18:50:57Z</time>
      </trkpt>
      <trkpt lat="59.9699357" lon="17.7178465">
        <ele>32.8223</ele>
        <time>2014-04-03T18:50:58Z</time>
      </trkpt>
      <trkpt lat="59.9699615" lon="17.7178682">
        <ele>32.8223</ele>
        <time>2014-04-03T18:50:59Z</time>
      </trkpt>
      <trkpt lat="59.9699864" lon="17.7178899">
        <ele>32.8223</ele>
        <time>2014-04-03T18:51:00Z</time>
      </trkpt>
      <trkpt lat="59.9700123" lon="17.717909">
        <ele>32.8223</ele>
        <time>2014-04-03T18:51:01Z</time>
      </trkpt>
      <trkpt lat="59.9700382" lon="17.7179308">
        <ele>32.8223</ele>
        <time>2014-04-03T18:51:02Z</time>
      </trkpt>
      <trkpt lat="59.9700634" lon="17.7179496">
        <ele>32.8223</ele>
        <time>2014-04-03T18:51:03Z</time>
      </trkpt>
      <trkpt lat="59.9700872" lon="17.7179724">
        <ele>32.8223</ele>
        <time>2014-04-03T18:51:04Z</time>
      </trkpt>
      <trkpt lat="59.9701113" lon="17.7179926">
        <ele>32.8223</ele>
        <time>2014-04-03T18:51:05Z</time>
      </trkpt>
      <trkpt lat="59.9701371" lon="17.7180107">
        <ele>32.8223</ele>
        <time>2014-04-03T18:51:06Z</time>
      </trkpt>
      <trkpt lat="59.9701636" lon="17.7180321">
        <ele>32.3416</ele>
        <time>2014-04-03T18:51:07Z</time>
      </trkpt>
      <trkpt lat="59.9701894" lon="17.718052">
        <ele>32.3416</ele>
        <time>2014-04-03T18:51:08Z</time>
      </trkpt>
      <trkpt lat="59.9702137" lon="17.7180797">
        <ele>31.8607</ele>
        <time>2014-04-03T18:51:09Z</time>
      </trkpt>
      <trkpt lat="59.9702382" lon="17.7181091">
        <ele>31.3801</ele>
        <time>2014-04-03T18:51:10Z</time>
      </trkpt>
      <trkpt lat="59.9702628" lon="17.7181325">
        <ele>31.3801</ele>
        <time>2014-04-03T18:51:11Z</time>
      </trkpt>
      <trkpt lat="59.9702832" lon="17.7181571">
        <ele>30.8995</ele>
        <time>2014-04-03T18:51:12Z</time>
      </trkpt>
      <trkpt lat="59.9703046" lon="17.7181812">
        <ele>30.8995</ele>
        <time>2014-04-03T18:51:13Z</time>
      </trkpt>
      <trkpt lat="59.9703269" lon="17.7182087">
        <ele>30.4188</ele>
        <time>2014-04-03T18:51:14Z</time>
      </trkpt>
      <trkpt lat="59.9703494" lon="17.7182352">
        <ele>30.4188</ele>
        <time>2014-04-03T18:51:15Z</time>
      </trkpt>
      <trkpt lat="59.9703735" lon="17.7182589">
        <ele>30.4188</ele>
        <time>2014-04-03T18:51:16Z</time>
      </trkpt>
      <trkpt lat="59.9703966" lon="17.7182823">
        <ele>29.9381</ele>
        <time>2014-04-03T18:51:17Z</time>
      </trkpt>
      <trkpt lat="59.9704193" lon="17.7183094">
        <ele>29.9381</ele>
        <time>2014-04-03T18:51:18Z</time>
      </trkpt>
      <trkpt lat="59.9704429" lon="17.7183366">
        <ele>29.9381</ele>
        <time>2014-04-03T18:51:19Z</time>
      </trkpt>
      <trkpt lat="59.970468" lon="17.7183615">
        <ele>29.4575</ele>
        <time>2014-04-03T18:51:20Z</time>
      </trkpt>
      <trkpt lat="59.9704935" lon="17.7183827">
        <ele>29.4575</ele>
        <time>2014-04-03T18:51:21Z</time>
      </trkpt>
      <trkpt lat="59.970518" lon="17.7183997">
        <ele>29.4575</ele>
        <time>2014-04-03T18:51:22Z</time>
      </trkpt>
      <trkpt lat="59.9705425" lon="17.7184188">
        <ele>29.4575</ele>
        <time>2014-04-03T18:51:23Z</time>
      </trkpt>
      <trkpt lat="59.9705648" lon="17.7184417">
        <ele>29.4575</ele>
        <time>2014-04-03T18:51:24Z</time>
      </trkpt>
      <trkpt lat="59.9705912" lon="17.7184644">
        <ele>29.4575</ele>
        <time>2014-04-03T18:51:25Z</time>
      </trkpt>
      <trkpt lat="59.9706182" lon="17.7184876">
        <ele>28.9769</ele>
        <time>2014-04-03T18:51:26Z</time>
      </trkpt>
      <trkpt lat="59.9706436" lon="17.7185094">
        <ele>29.4575</ele>
        <time>2014-04-03T18:51:27Z</time>
      </trkpt>
      <trkpt lat="59.9706669" lon="17.718535">
        <ele>29.4575</ele>
        <time>2014-04-03T18:51:28Z</time>
      </trkpt>
      <trkpt lat="59.9706883" lon="17.7185613">
        <ele>29.9381</ele>
        <time>2014-04-03T18:51:29Z</time>
      </trkpt>
      <trkpt lat="59.9707125" lon="17.7185852">
        <ele>29.9381</ele>
        <time>2014-04-03T18:51:30Z</time>
      </trkpt>
      <trkpt lat="59.9707378" lon="17.7186092">
        <ele>29.9381</ele>
        <time>2014-04-03T18:51:31Z</time>
      </trkpt>
      <trkpt lat="59.9707644" lon="17.7186349">
        <ele>29.9381</ele>
        <time>2014-04-03T18:51:32Z</time>
      </trkpt>
      <trkpt lat="59.9707908" lon="17.7186623">
        <ele>30.4188</ele>
        <time>2014-04-03T18:51:33Z</time>
      </trkpt>
      <trkpt lat="59.9708188" lon="17.7186853">
        <ele>30.8995</ele>
        <time>2014-04-03T18:51:34Z</time>
      </trkpt>
      <trkpt lat="59.9708463" lon="17.7187059">
        <ele>30.8995</ele>
        <time>2014-04-03T18:51:35Z</time>
      </trkpt>
      <trkpt lat="59.9708712" lon="17.7187261">
        <ele>30.8995</ele>
        <time>2014-04-03T18:51:36Z</time>
      </trkpt>
      <trkpt lat="59.9708963" lon="17.7187451">
        <ele>30.8995</ele>
        <time>2014-04-03T18:51:37Z</time>
      </trkpt>
      <trkpt lat="59.9709225" lon="17.718765">
        <ele>31.3801</ele>
        <time>2014-04-03T18:51:38Z</time>
      </trkpt>
      <trkpt lat="59.9709518" lon="17.7187852">
        <ele>32.3416</ele>
        <time>2014-04-03T18:51:39Z</time>
      </trkpt>
      <trkpt lat="59.9709787" lon="17.7188065">
        <ele>32.8223</ele>
        <time>2014-04-03T18:51:40Z</time>
      </trkpt>
      <trkpt lat="59.9710047" lon="17.7188282">
        <ele>33.3029</ele>
        <time>2014-04-03T18:51:41Z</time>
      </trkpt>
      <trkpt lat="59.9710323" lon="17.7188494">
        <ele>33.7834</ele>
        <time>2014-04-03T18:51:42Z</time>
      </trkpt>
      <trkpt lat="59.9710566" lon="17.718869">
        <ele>34.2642</ele>
        <time>2014-04-03T18:51:43Z</time>
      </trkpt>
      <trkpt lat="59.9710815" lon="17.7188896">
        <ele>34.2642</ele>
        <time>2014-04-03T18:51:44Z</time>
      </trkpt>
      <trkpt lat="59.9711053" lon="17.7189085">
        <ele>34.2642</ele>
        <time>2014-04-03T18:51:45Z</time>
      </trkpt>
      <trkpt lat="59.9711302" lon="17.7189281">
        <ele>34.7449</ele>
        <time>2014-04-03T18:51:46Z</time>
      </trkpt>
      <trkpt lat="59.9711539" lon="17.7189489">
        <ele>34.7449</ele>
        <time>2014-04-03T18:51:47Z</time>
      </trkpt>
      <trkpt lat="59.9711795" lon="17.7189675">
        <ele>34.7449</ele>
        <time>2014-04-03T18:51:48Z</time>
      </trkpt>
      <trkpt lat="59.9712048" lon="17.7189893">
        <ele>34.7449</ele>
        <time>2014-04-03T18:51:49Z</time>
      </trkpt>
      <trkpt lat="59.9712291" lon="17.7190098">
        <ele>34.7449</ele>
        <time>2014-04-03T18:51:50Z</time>
      </trkpt>
      <trkpt lat="59.9712541" lon="17.7190319">
        <ele>34.2642</ele>
        <time>2014-04-03T18:51:51Z</time>
      </trkpt>
      <trkpt lat="59.9712792" lon="17.7190544">
        <ele>34.7449</ele>
        <time>2014-04-03T18:51:52Z</time>
      </trkpt>
      <trkpt lat="59.9713042" lon="17.7190773">
        <ele>34.7449</ele>
        <time>2014-04-03T18:51:53Z</time>
      </trkpt>
      <trkpt lat="59.9713286" lon="17.7191017">
        <ele>34.7449</ele>
        <time>2014-04-03T18:51:54Z</time>
      </trkpt>
      <trkpt lat="59.9713523" lon="17.7191228">
        <ele>34.7449</ele>
        <time>2014-04-03T18:51:55Z</time>
      </trkpt>
      <trkpt lat="59.9713798" lon="17.7191457">
        <ele>34.7449</ele>
        <time>2014-04-03T18:51:56Z</time>
      </trkpt>
      <trkpt lat="59.9714059" lon="17.7191695">
        <ele>34.7449</ele>
        <time>2014-04-03T18:51:57Z</time>
      </trkpt>
      <trkpt lat="59.9714312" lon="17.7191892">
        <ele>34.7449</ele>
        <time>2014-04-03T18:51:58Z</time>
      </trkpt>
      <trkpt lat="59.9714554" lon="17.7192121">
        <ele>35.2255</ele>
        <time>2014-04-03T18:51:59Z</time>
      </trkpt>
      <trkpt lat="59.9714782" lon="17.7192326">
        <ele>35.2255</ele>
        <time>2014-04-03T18:52:00Z</time>
      </trkpt>
      <trkpt lat="59.971503" lon="17.7192529">
        <ele>35.2255</ele>
        <time>2014-04-03T18:52:01Z</time>
      </trkpt>
      <trkpt lat="59.9715315" lon="17.7192791">
        <ele>35.7061</ele>
        <time>2014-04-03T18:52:02Z</time>
      </trkpt>
      <trkpt lat="59.9715579" lon="17.7193071">
        <ele>35.7061</ele>
        <time>2014-04-03T18:52:03Z</time>
      </trkpt>
      <trkpt lat="59.9715819" lon="17.7193296">
        <ele>35.7061</ele>
        <time>2014-04-03T18:52:04Z</time>
      </trkpt>
      <trkpt lat="59.9716077" lon="17.7193514">
        <ele>35.7061</ele>
        <time>2014-04-03T18:52:05Z</time>
      </trkpt>
      <trkpt lat="59.9716337" lon="17.7193791">
        <ele>35.7061</ele>
        <time>2014-04-03T18:52:06Z</time>
      </trkpt>
      <trkpt lat="59.9716583" lon="17.7194017">
        <ele>36.1868</ele>
        <time>2014-04-03T18:52:07Z</time>
      </trkpt>
      <trkpt lat="59.9716838" lon="17.7194228">
        <ele>36.1868</ele>
        <time>2014-04-03T18:52:08Z</time>
      </trkpt>
      <trkpt lat="59.9717094" lon="17.7194452">
        <ele>36.1868</ele>
        <time>2014-04-03T18:52:09Z</time>
      </trkpt>
      <trkpt lat="59.9717326" lon="17.7194653">
        <ele>36.1868</ele>
        <time>2014-04-03T18:52:10Z</time>
      </trkpt>
      <trkpt lat="59.9717559" lon="17.7194848">
        <ele>36.1868</ele>
        <time>2014-04-03T18:52:11Z</time>
      </trkpt>
      <trkpt lat="59.9717778" lon="17.7195058">
        <ele>36.1868</ele>
        <time>2014-04-03T18:52:12Z</time>
      </trkpt>
      <trkpt lat="59.9718011" lon="17.7195262">
        <ele>35.7061</ele>
        <time>2014-04-03T18:52:13Z</time>
      </trkpt>
      <trkpt lat="59.9718248" lon="17.7195503">
        <ele>35.7061</ele>
        <time>2014-04-03T18:52:14Z</time>
      </trkpt>
      <trkpt lat="59.9718457" lon="17.7195715">
        <ele>35.2255</ele>
        <time>2014-04-03T18:52:15Z</time>
      </trkpt>
      <trkpt lat="59.9718685" lon="17.7195911">
        <ele>35.7061</ele>
        <time>2014-04-03T18:52:16Z</time>
      </trkpt>
      <trkpt lat="59.9718906" lon="17.7196149">
        <ele>35.2255</ele>
        <time>2014-04-03T18:52:17Z</time>
      </trkpt>
      <trkpt lat="59.9719124" lon="17.7196362">
        <ele>35.2255</ele>
        <time>2014-04-03T18:52:18Z</time>
      </trkpt>
      <trkpt lat="59.9719352" lon="17.71966">
        <ele>35.2255</ele>
        <time>2014-04-03T18:52:19Z</time>
      </trkpt>
      <trkpt lat="59.971958" lon="17.7196838">
        <ele>35.2255</ele>
        <time>2014-04-03T18:52:20Z</time>
      </trkpt>
      <trkpt lat="59.9719835" lon="17.7197067">
        <ele>35.7061</ele>
        <time>2014-04-03T18:52:21Z</time>
      </trkpt>
      <trkpt lat="59.9720108" lon="17.7197294">
        <ele>35.7061</ele>
        <time>2014-04-03T18:52:22Z</time>
      </trkpt>
      <trkpt lat="59.9720372" lon="17.7197526">
        <ele>35.7061</ele>
        <time>2014-04-03T18:52:23Z</time>
      </trkpt>
      <trkpt lat="59.972063" lon="17.719776">
        <ele>35.7061</ele>
        <time>2014-04-03T18:52:24Z</time>
      </trkpt>
      <trkpt lat="59.9720875" lon="17.7197985">
        <ele>36.1868</ele>
        <time>2014-04-03T18:52:25Z</time>
      </trkpt>
      <trkpt lat="59.972113" lon="17.7198238">
        <ele>36.1868</ele>
        <time>2014-04-03T18:52:26Z</time>
      </trkpt>
      <trkpt lat="59.9721378" lon="17.7198461">
        <ele>36.6675</ele>
        <time>2014-04-03T18:52:27Z</time>
      </trkpt>
      <trkpt lat="59.9721618" lon="17.7198669">
        <ele>36.6675</ele>
        <time>2014-04-03T18:52:28Z</time>
      </trkpt>
      <trkpt lat="59.9721874" lon="17.7198863">
        <ele>36.6675</ele>
        <time>2014-04-03T18:52:29Z</time>
      </trkpt>
      <trkpt lat="59.9722153" lon="17.7199094">
        <ele>36.6675</ele>
        <time>2014-04-03T18:52:30Z</time>
      </trkpt>
      <trkpt lat="59.9722408" lon="17.7199367">
        <ele>36.6675</ele>
        <time>2014-04-03T18:52:31Z</time>
      </trkpt>
      <trkpt lat="59.9722672" lon="17.7199593">
        <ele>36.6675</ele>
        <time>2014-04-03T18:52:32Z</time>
      </trkpt>
      <trkpt lat="59.9722937" lon="17.7199818">
        <ele>36.6675</ele>
        <time>2014-04-03T18:52:33Z</time>
      </trkpt>
      <trkpt lat="59.9723176" lon="17.7200021">
        <ele>36.6675</ele>
        <time>2014-04-03T18:52:34Z</time>
      </trkpt>
      <trkpt lat="59.9723433" lon="17.7200248">
        <ele>36.6675</ele>
        <time>2014-04-03T18:52:35Z</time>
      </trkpt>
      <trkpt lat="59.9723687" lon="17.7200477">
        <ele>36.6675</ele>
        <time>2014-04-03T18:52:36Z</time>
      </trkpt>
      <trkpt lat="59.9723935" lon="17.7200692">
        <ele>36.6675</ele>
        <time>2014-04-03T18:52:37Z</time>
      </trkpt>
      <trkpt lat="59.9724175" lon="17.7200911">
        <ele>37.1481</ele>
        <time>2014-04-03T18:52:38Z</time>
      </trkpt>
      <trkpt lat="59.9724402" lon="17.7201112">
        <ele>37.1481</ele>
        <time>2014-04-03T18:52:39Z</time>
      </trkpt>
      <trkpt lat="59.9724644" lon="17.7201329">
        <ele>37.1481</ele>
        <time>2014-04-03T18:52:40Z</time>
      </trkpt>
      <trkpt lat="59.972489" lon="17.7201532">
        <ele>37.1481</ele>
        <time>2014-04-03T18:52:41Z</time>
      </trkpt>
      <trkpt lat="59.9725128" lon="17.7201708">
        <ele>37.6287</ele>
        <time>2014-04-03T18:52:42Z</time>
      </trkpt>
      <trkpt lat="59.9725364" lon="17.72019">
        <ele>37.1481</ele>
        <time>2014-04-03T18:52:43Z</time>
      </trkpt>
      <trkpt lat="59.9725607" lon="17.7202097">
        <ele>37.6287</ele>
        <time>2014-04-03T18:52:44Z</time>
      </trkpt>
      <trkpt lat="59.9725853" lon="17.720231">
        <ele>37.6287</ele>
        <time>2014-04-03T18:52:45Z</time>
      </trkpt>
      <trkpt lat="59.9726099" lon="17.7202536">
        <ele>37.6287</ele>
        <time>2014-04-03T18:52:46Z</time>
      </trkpt>
      <trkpt lat="59.9726346" lon="17.7202775">
        <ele>38.1094</ele>
        <time>2014-04-03T18:52:47Z</time>
      </trkpt>
      <trkpt lat="59.9726583" lon="17.7202992">
        <ele>38.1094</ele>
        <time>2014-04-03T18:52:48Z</time>
      </trkpt>
      <trkpt lat="59.9726861" lon="17.7203242">
        <ele>38.1094</ele>
        <time>2014-04-03T18:52:49Z</time>
      </trkpt>
      <trkpt lat="59.9727151" lon="17.7203567">
        <ele>38.5901</ele>
        <time>2014-04-03T18:52:50Z</time>
      </trkpt>
      <trkpt lat="59.9727396" lon="17.720382">
        <ele>38.5901</ele>
        <time>2014-04-03T18:52:51Z</time>
      </trkpt>
      <trkpt lat="59.9727631" lon="17.7204049">
        <ele>38.5901</ele>
        <time>2014-04-03T18:52:52Z</time>
      </trkpt>
      <trkpt lat="59.9727863" lon="17.7204258">
        <ele>38.5901</ele>
        <time>2014-04-03T18:52:53Z</time>
      </trkpt>
      <trkpt lat="59.9728102" lon="17.7204485">
        <ele>38.5901</ele>
        <time>2014-04-03T18:52:54Z</time>
      </trkpt>
      <trkpt lat="59.9728343" lon="17.7204757">
        <ele>38.5901</ele>
        <time>2014-04-03T18:52:55Z</time>
      </trkpt>
      <trkpt lat="59.9728572" lon="17.7205034">
        <ele>38.5901</ele>
        <time>2014-04-03T18:52:56Z</time>
      </trkpt>
      <trkpt lat="59.972882" lon="17.7205325">
        <ele>38.5901</ele>
        <time>2014-04-03T18:52:57Z</time>
      </trkpt>
      <trkpt lat="59.972908" lon="17.7205594">
        <ele>39.0707</ele>
        <time>2014-04-03T18:52:58Z</time>
      </trkpt>
      <trkpt lat="59.9729334" lon="17.7205861">
        <ele>39.0707</ele>
        <time>2014-04-03T18:52:59Z</time>
      </trkpt>
      <trkpt lat="59.9729593" lon="17.7206153">
        <ele>39.5513</ele>
        <time>2014-04-03T18:53:00Z</time>
      </trkpt>
      <trkpt lat="59.9729861" lon="17.7206442">
        <ele>40.0321</ele>
        <time>2014-04-03T18:53:01Z</time>
      </trkpt>
      <trkpt lat="59.9730099" lon="17.7206716">
        <ele>40.0321</ele>
        <time>2014-04-03T18:53:02Z</time>
      </trkpt>
      <trkpt lat="59.9730338" lon="17.7207008">
        <ele>40.5128</ele>
        <time>2014-04-03T18:53:03Z</time>
      </trkpt>
      <trkpt lat="59.9730576" lon="17.7207332">
        <ele>40.5128</ele>
        <time>2014-04-03T18:53:04Z</time>
      </trkpt>
      <trkpt lat="59.9730801" lon="17.7207645">
        <ele>40.5128</ele>
        <time>2014-04-03T18:53:05Z</time>
      </trkpt>
      <trkpt lat="59.9731024" lon="17.7208014">
        <ele>40.9934</ele>
        <time>2014-04-03T18:53:06Z</time>
      </trkpt>
      <trkpt lat="59.9731225" lon="17.7208396">
        <ele>40.9934</ele>
        <time>2014-04-03T18:53:07Z</time>
      </trkpt>
      <trkpt lat="59.9731457" lon="17.7208739">
        <ele>40.9934</ele>
        <time>2014-04-03T18:53:08Z</time>
      </trkpt>
      <trkpt lat="59.9731675" lon="17.7209117">
        <ele>40.9934</ele>
        <time>2014-04-03T18:53:09Z</time>
      </trkpt>
      <trkpt lat="59.9731894" lon="17.7209504">
        <ele>41.474</ele>
        <time>2014-04-03T18:53:10Z</time>
      </trkpt>
      <trkpt lat="59.9732115" lon="17.7209893">
        <ele>41.474</ele>
        <time>2014-04-03T18:53:11Z</time>
      </trkpt>
      <trkpt lat="59.9732312" lon="17.721025">
        <ele>41.9547</ele>
        <time>2014-04-03T18:53:12Z</time>
      </trkpt>
      <trkpt lat="59.9732484" lon="17.7210622">
        <ele>41.9547</ele>
        <time>2014-04-03T18:53:13Z</time>
      </trkpt>
      <trkpt lat="59.9732674" lon="17.721098">
        <ele>41.9547</ele>
        <time>2014-04-03T18:53:14Z</time>
      </trkpt>
      <trkpt lat="59.9732902" lon="17.721135">
        <ele>41.9547</ele>
        <time>2014-04-03T18:53:15Z</time>
      </trkpt>
      <trkpt lat="59.9733142" lon="17.7211725">
        <ele>41.9547</ele>
        <time>2014-04-03T18:53:16Z</time>
      </trkpt>
      <trkpt lat="59.973336" lon="17.72121">
        <ele>41.9547</ele>
        <time>2014-04-03T18:53:17Z</time>
      </trkpt>
      <trkpt lat="59.9733541" lon="17.72125">
        <ele>41.474</ele>
        <time>2014-04-03T18:53:18Z</time>
      </trkpt>
      <trkpt lat="59.9733704" lon="17.7212878">
        <ele>41.474</ele>
        <time>2014-04-03T18:53:19Z</time>
      </trkpt>
      <trkpt lat="59.9733887" lon="17.7213275">
        <ele>40.9934</ele>
        <time>2014-04-03T18:53:20Z</time>
      </trkpt>
      <trkpt lat="59.9734079" lon="17.7213659">
        <ele>40.5128</ele>
        <time>2014-04-03T18:53:21Z</time>
      </trkpt>
      <trkpt lat="59.9734255" lon="17.7214036">
        <ele>40.5128</ele>
        <time>2014-04-03T18:53:22Z</time>
      </trkpt>
      <trkpt lat="59.9734415" lon="17.7214415">
        <ele>40.0321</ele>
        <time>2014-04-03T18:53:23Z</time>
      </trkpt>
      <trkpt lat="59.9734572" lon="17.7214808">
        <ele>40.5128</ele>
        <time>2014-04-03T18:53:24Z</time>
      </trkpt>
      <trkpt lat="59.9734757" lon="17.7215208">
        <ele>40.0321</ele>
        <time>2014-04-03T18:53:25Z</time>
      </trkpt>
      <trkpt lat="59.9734949" lon="17.7215605">
        <ele>40.0321</ele>
        <time>2014-04-03T18:53:26Z</time>
      </trkpt>
      <trkpt lat="59.9735121" lon="17.721604">
        <ele>40.5128</ele>
        <time>2014-04-03T18:53:27Z</time>
      </trkpt>
      <trkpt lat="59.973528" lon="17.7216457">
        <ele>40.5128</ele>
        <time>2014-04-03T18:53:28Z</time>
      </trkpt>
      <trkpt lat="59.9735449" lon="17.721688">
        <ele>40.0321</ele>
        <time>2014-04-03T18:53:29Z</time>
      </trkpt>
      <trkpt lat="59.9735623" lon="17.7217312">
        <ele>40.0321</ele>
        <time>2014-04-03T18:53:30Z</time>
      </trkpt>
      <trkpt lat="59.9735793" lon="17.7217747">
        <ele>40.0321</ele>
        <time>2014-04-03T18:53:31Z</time>
      </trkpt>
      <trkpt lat="59.9735984" lon="17.7218179">
        <ele>39.5513</ele>
        <time>2014-04-03T18:53:32Z</time>
      </trkpt>
      <trkpt lat="59.9736175" lon="17.721859">
        <ele>39.5513</ele>
        <time>2014-04-03T18:53:33Z</time>
      </trkpt>
      <trkpt lat="59.9736348" lon="17.7219026">
        <ele>39.5513</ele>
        <time>2014-04-03T18:53:34Z</time>
      </trkpt>
      <trkpt lat="59.9736508" lon="17.7219457">
        <ele>39.5513</ele>
        <time>2014-04-03T18:53:35Z</time>
      </trkpt>
      <trkpt lat="59.9736679" lon="17.7219907">
        <ele>39.0707</ele>
        <time>2014-04-03T18:53:36Z</time>
      </trkpt>
      <trkpt lat="59.973686" lon="17.7220347">
        <ele>39.0707</ele>
        <time>2014-04-03T18:53:37Z</time>
      </trkpt>
      <trkpt lat="59.9737016" lon="17.7220766">
        <ele>38.5901</ele>
        <time>2014-04-03T18:53:38Z</time>
      </trkpt>
      <trkpt lat="59.9737174" lon="17.7221212">
        <ele>38.1094</ele>
        <time>2014-04-03T18:53:39Z</time>
      </trkpt>
      <trkpt lat="59.9737316" lon="17.7221655">
        <ele>37.6287</ele>
        <time>2014-04-03T18:53:40Z</time>
      </trkpt>
      <trkpt lat="59.9737449" lon="17.7222126">
        <ele>37.6287</ele>
        <time>2014-04-03T18:53:41Z</time>
      </trkpt>
      <trkpt lat="59.973757" lon="17.7222589">
        <ele>37.1481</ele>
        <time>2014-04-03T18:53:42Z</time>
      </trkpt>
      <trkpt lat="59.9737695" lon="17.7223048">
        <ele>37.1481</ele>
        <time>2014-04-03T18:53:43Z</time>
      </trkpt>
      <trkpt lat="59.9737823" lon="17.7223486">
        <ele>36.6675</ele>
        <time>2014-04-03T18:53:44Z</time>
      </trkpt>
      <trkpt lat="59.9737979" lon="17.7223942">
        <ele>37.1481</ele>
        <time>2014-04-03T18:53:45Z</time>
      </trkpt>
      <trkpt lat="59.9738104" lon="17.7224434">
        <ele>37.1481</ele>
        <time>2014-04-03T18:53:46Z</time>
      </trkpt>
      <trkpt lat="59.9738216" lon="17.7224918">
        <ele>37.1481</ele>
        <time>2014-04-03T18:53:47Z</time>
      </trkpt>
      <trkpt lat="59.9738342" lon="17.7225409">
        <ele>37.1481</ele>
        <time>2014-04-03T18:53:48Z</time>
      </trkpt>
      <trkpt lat="59.9738466" lon="17.7225889">
        <ele>37.1481</ele>
        <time>2014-04-03T18:53:49Z</time>
      </trkpt>
      <trkpt lat="59.9738602" lon="17.7226328">
        <ele>36.6675</ele>
        <time>2014-04-03T18:53:50Z</time>
      </trkpt>
      <trkpt lat="59.9738751" lon="17.7226745">
        <ele>36.6675</ele>
        <time>2014-04-03T18:53:51Z</time>
      </trkpt>
      <trkpt lat="59.9738886" lon="17.7227205">
        <ele>36.6675</ele>
        <time>2014-04-03T18:53:52Z</time>
      </trkpt>
      <trkpt lat="59.9739008" lon="17.7227675">
        <ele>36.1868</ele>
        <time>2014-04-03T18:53:53Z</time>
      </trkpt>
      <trkpt lat="59.9739123" lon="17.7228141">
        <ele>36.1868</ele>
        <time>2014-04-03T18:53:54Z</time>
      </trkpt>
      <trkpt lat="59.973922" lon="17.7228635">
        <ele>35.7061</ele>
        <time>2014-04-03T18:53:55Z</time>
      </trkpt>
      <trkpt lat="59.9739331" lon="17.7229101">
        <ele>35.7061</ele>
        <time>2014-04-03T18:53:56Z</time>
      </trkpt>
      <trkpt lat="59.9739441" lon="17.7229552">
        <ele>35.2255</ele>
        <time>2014-04-03T18:53:57Z</time>
      </trkpt>
      <trkpt lat="59.9739571" lon="17.7230034">
        <ele>35.2255</ele>
        <time>2014-04-03T18:53:58Z</time>
      </trkpt>
      <trkpt lat="59.973969" lon="17.7230515">
        <ele>34.7449</ele>
        <time>2014-04-03T18:53:59Z</time>
      </trkpt>
      <trkpt lat="59.9739806" lon="17.7231026">
        <ele>34.2642</ele>
        <time>2014-04-03T18:54:00Z</time>
      </trkpt>
      <trkpt lat="59.9739918" lon="17.7231547">
        <ele>34.2642</ele>
        <time>2014-04-03T18:54:01Z</time>
      </trkpt>
      <trkpt lat="59.9740001" lon="17.7232028">
        <ele>33.3029</ele>
        <time>2014-04-03T18:54:02Z</time>
      </trkpt>
      <trkpt lat="59.9740087" lon="17.7232526">
        <ele>32.8223</ele>
        <time>2014-04-03T18:54:03Z</time>
      </trkpt>
      <trkpt lat="59.9740155" lon="17.7233038">
        <ele>32.8223</ele>
        <time>2014-04-03T18:54:04Z</time>
      </trkpt>
      <trkpt lat="59.9740227" lon="17.7233548">
        <ele>32.8223</ele>
        <time>2014-04-03T18:54:05Z</time>
      </trkpt>
      <trkpt lat="59.9740315" lon="17.7234049">
        <ele>32.8223</ele>
        <time>2014-04-03T18:54:06Z</time>
      </trkpt>
      <trkpt lat="59.9740387" lon="17.7234533">
        <ele>32.8223</ele>
        <time>2014-04-03T18:54:07Z</time>
      </trkpt>
      <trkpt lat="59.9740457" lon="17.7235032">
        <ele>32.3416</ele>
        <time>2014-04-03T18:54:08Z</time>
      </trkpt>
      <trkpt lat="59.9740541" lon="17.7235496">
        <ele>32.8223</ele>
        <time>2014-04-03T18:54:09Z</time>
      </trkpt>
      <trkpt lat="59.9740611" lon="17.7235984">
        <ele>32.8223</ele>
        <time>2014-04-03T18:54:10Z</time>
      </trkpt>
      <trkpt lat="59.9740668" lon="17.7236468">
        <ele>33.3029</ele>
        <time>2014-04-03T18:54:11Z</time>
      </trkpt>
      <trkpt lat="59.9740728" lon="17.7236945">
        <ele>33.3029</ele>
        <time>2014-04-03T18:54:12Z</time>
      </trkpt>
      <trkpt lat="59.9740802" lon="17.7237503">
        <ele>33.3029</ele>
        <time>2014-04-03T18:54:13Z</time>
      </trkpt>
      <trkpt lat="59.9740873" lon="17.7238046">
        <ele>33.7834</ele>
        <time>2014-04-03T18:54:14Z</time>
      </trkpt>
      <trkpt lat="59.9740891" lon="17.7238585">
        <ele>33.7834</ele>
        <time>2014-04-03T18:54:15Z</time>
      </trkpt>
      <trkpt lat="59.9740875" lon="17.7239091">
        <ele>33.3029</ele>
        <time>2014-04-03T18:54:16Z</time>
      </trkpt>
      <trkpt lat="59.9740936" lon="17.7239606">
        <ele>33.7834</ele>
        <time>2014-04-03T18:54:17Z</time>
      </trkpt>
      <trkpt lat="59.9741014" lon="17.7240117">
        <ele>33.3029</ele>
        <time>2014-04-03T18:54:18Z</time>
      </trkpt>
      <trkpt lat="59.9741075" lon="17.7240632">
        <ele>33.7834</ele>
        <time>2014-04-03T18:54:19Z</time>
      </trkpt>
      <trkpt lat="59.9741124" lon="17.7241145">
        <ele>33.7834</ele>
        <time>2014-04-03T18:54:20Z</time>
      </trkpt>
      <trkpt lat="59.9741148" lon="17.724162">
        <ele>33.7834</ele>
        <time>2014-04-03T18:54:21Z</time>
      </trkpt>
      <trkpt lat="59.9741175" lon="17.7242113">
        <ele>33.3029</ele>
        <time>2014-04-03T18:54:22Z</time>
      </trkpt>
      <trkpt lat="59.9741191" lon="17.7242586">
        <ele>33.3029</ele>
        <time>2014-04-03T18:54:23Z</time>
      </trkpt>
      <trkpt lat="59.9741212" lon="17.7243103">
        <ele>32.8223</ele>
        <time>2014-04-03T18:54:24Z</time>
      </trkpt>
      <trkpt lat="59.9741213" lon="17.7243611">
        <ele>32.8223</ele>
        <time>2014-04-03T18:54:25Z</time>
      </trkpt>
      <trkpt lat="59.9741225" lon="17.7244092">
        <ele>32.3416</ele>
        <time>2014-04-03T18:54:26Z</time>
      </trkpt>
      <trkpt lat="59.9741289" lon="17.7244577">
        <ele>31.8607</ele>
        <time>2014-04-03T18:54:27Z</time>
      </trkpt>
      <trkpt lat="59.9741393" lon="17.7245072">
        <ele>31.8607</ele>
        <time>2014-04-03T18:54:28Z</time>
      </trkpt>
      <trkpt lat="59.9741498" lon="17.7245605">
        <ele>31.8607</ele>
        <time>2014-04-03T18:54:29Z</time>
      </trkpt>
      <trkpt lat="59.9741579" lon="17.7246117">
        <ele>31.3801</ele>
        <time>2014-04-03T18:54:30Z</time>
      </trkpt>
      <trkpt lat="59.974166" lon="17.7246664">
        <ele>31.8607</ele>
        <time>2014-04-03T18:54:31Z</time>
      </trkpt>
      <trkpt lat="59.9741718" lon="17.7247164">
        <ele>31.3801</ele>
        <time>2014-04-03T18:54:32Z</time>
      </trkpt>
      <trkpt lat="59.9741819" lon="17.7247649">
        <ele>31.3801</ele>
        <time>2014-04-03T18:54:33Z</time>
      </trkpt>
      <trkpt lat="59.9741931" lon="17.7248143">
        <ele>30.8995</ele>
        <time>2014-04-03T18:54:34Z</time>
      </trkpt>
      <trkpt lat="59.9742049" lon="17.724864">
        <ele>30.8995</ele>
        <time>2014-04-03T18:54:35Z</time>
      </trkpt>
      <trkpt lat="59.9742143" lon="17.724912">
        <ele>30.8995</ele>
        <time>2014-04-03T18:54:36Z</time>
      </trkpt>
      <trkpt lat="59.9742175" lon="17.7249605">
        <ele>30.8995</ele>
        <time>2014-04-03T18:54:37Z</time>
      </trkpt>
      <trkpt lat="59.9742275" lon="17.7250213">
        <ele>31.3801</ele>
        <time>2014-04-03T18:54:38Z</time>
      </trkpt>
      <trkpt lat="59.9742393" lon="17.7250783">
        <ele>31.8607</ele>
        <time>2014-04-03T18:54:39Z</time>
      </trkpt>
      <trkpt lat="59.9742489" lon="17.7251272">
        <ele>31.8607</ele>
        <time>2014-04-03T18:54:40Z</time>
      </trkpt>
      <trkpt lat="59.9742548" lon="17.7251751">
        <ele>31.3801</ele>
        <time>2014-04-03T18:54:41Z</time>
      </trkpt>
      <trkpt lat="59.9742645" lon="17.7252245">
        <ele>31.8607</ele>
        <time>2014-04-03T18:54:42Z</time>
      </trkpt>
      <trkpt lat="59.9742679" lon="17.7252687">
        <ele>31.3801</ele>
        <time>2014-04-03T18:54:43Z</time>
      </trkpt>
      <trkpt lat="59.9742728" lon="17.725313">
        <ele>31.3801</ele>
        <time>2014-04-03T18:54:44Z</time>
      </trkpt>
      <trkpt lat="59.9742859" lon="17.7253696">
        <ele>31.8607</ele>
        <time>2014-04-03T18:54:45Z</time>
      </trkpt>
      <trkpt lat="59.9742936" lon="17.7254244">
        <ele>31.3801</ele>
        <time>2014-04-03T18:54:46Z</time>
      </trkpt>
      <trkpt lat="59.9743014" lon="17.7254759">
        <ele>32.3416</ele>
        <time>2014-04-03T18:54:47Z</time>
      </trkpt>
      <trkpt lat="59.974307" lon="17.7255279">
        <ele>31.8607</ele>
        <time>2014-04-03T18:54:48Z</time>
      </trkpt>
      <trkpt lat="59.9743121" lon="17.7255768">
        <ele>31.8607</ele>
        <time>2014-04-03T18:54:49Z</time>
      </trkpt>
      <trkpt lat="59.9743131" lon="17.7256234">
        <ele>31.8607</ele>
        <time>2014-04-03T18:54:50Z</time>
      </trkpt>
      <trkpt lat="59.9743122" lon="17.7256711">
        <ele>31.8607</ele>
        <time>2014-04-03T18:54:51Z</time>
      </trkpt>
      <trkpt lat="59.9743124" lon="17.7257176">
        <ele>31.8607</ele>
        <time>2014-04-03T18:54:52Z</time>
      </trkpt>
      <trkpt lat="59.9743123" lon="17.7257672">
        <ele>31.3801</ele>
        <time>2014-04-03T18:54:53Z</time>
      </trkpt>
      <trkpt lat="59.9743138" lon="17.7258109">
        <ele>31.8607</ele>
        <time>2014-04-03T18:54:54Z</time>
      </trkpt>
      <trkpt lat="59.9743186" lon="17.7258566">
        <ele>31.3801</ele>
        <time>2014-04-03T18:54:55Z</time>
      </trkpt>
      <trkpt lat="59.9743231" lon="17.7259074">
        <ele>30.8995</ele>
        <time>2014-04-03T18:54:56Z</time>
      </trkpt>
      <trkpt lat="59.9743289" lon="17.7259507">
        <ele>30.8995</ele>
        <time>2014-04-03T18:54:57Z</time>
      </trkpt>
      <trkpt lat="59.9743298" lon="17.7259924">
        <ele>29.9381</ele>
        <time>2014-04-03T18:54:58Z</time>
      </trkpt>
      <trkpt lat="59.9743321" lon="17.7260373">
        <ele>29.4575</ele>
        <time>2014-04-03T18:54:59Z</time>
      </trkpt>
      <trkpt lat="59.9743367" lon="17.7260851">
        <ele>28.9769</ele>
        <time>2014-04-03T18:55:00Z</time>
      </trkpt>
      <trkpt lat="59.9743346" lon="17.7261356">
        <ele>28.0155</ele>
        <time>2014-04-03T18:55:01Z</time>
      </trkpt>
      <trkpt lat="59.9743283" lon="17.7261824">
        <ele>27.5349</ele>
        <time>2014-04-03T18:55:02Z</time>
      </trkpt>
      <trkpt lat="59.9743272" lon="17.726231">
        <ele>27.0543</ele>
        <time>2014-04-03T18:55:03Z</time>
      </trkpt>
      <trkpt lat="59.9743277" lon="17.7262796">
        <ele>26.0929</ele>
        <time>2014-04-03T18:55:04Z</time>
      </trkpt>
      <trkpt lat="59.9743304" lon="17.7263269">
        <ele>26.0929</ele>
        <time>2014-04-03T18:55:05Z</time>
      </trkpt>
      <trkpt lat="59.9743341" lon="17.7263694">
        <ele>25.1317</ele>
        <time>2014-04-03T18:55:06Z</time>
      </trkpt>
      <trkpt lat="59.9743365" lon="17.7264148">
        <ele>24.651</ele>
        <time>2014-04-03T18:55:07Z</time>
      </trkpt>
      <trkpt lat="59.9743331" lon="17.7264588">
        <ele>23.209</ele>
        <time>2014-04-03T18:55:08Z</time>
      </trkpt>
      <trkpt lat="59.9743298" lon="17.7265095">
        <ele>22.2476</ele>
        <time>2014-04-03T18:55:09Z</time>
      </trkpt>
      <trkpt lat="59.9743328" lon="17.7265554">
        <ele>21.767</ele>
        <time>2014-04-03T18:55:10Z</time>
      </trkpt>
      <trkpt lat="59.9743337" lon="17.7265998">
        <ele>20.8057</ele>
        <time>2014-04-03T18:55:11Z</time>
      </trkpt>
      <trkpt lat="59.9743324" lon="17.7266513">
        <ele>20.325</ele>
        <time>2014-04-03T18:55:12Z</time>
      </trkpt>
      <trkpt lat="59.9743377" lon="17.7267027">
        <ele>19.8444</ele>
        <time>2014-04-03T18:55:13Z</time>
      </trkpt>
      <trkpt lat="59.9743459" lon="17.7267554">
        <ele>19.3638</ele>
        <time>2014-04-03T18:55:14Z</time>
      </trkpt>
      <trkpt lat="59.9743537" lon="17.7268117">
        <ele>18.8831</ele>
        <time>2014-04-03T18:55:15Z</time>
      </trkpt>
      <trkpt lat="59.9743632" lon="17.7268709">
        <ele>18.8831</ele>
        <time>2014-04-03T18:55:16Z</time>
      </trkpt>
      <trkpt lat="59.9743743" lon="17.7269314">
        <ele>18.8831</ele>
        <time>2014-04-03T18:55:17Z</time>
      </trkpt>
      <trkpt lat="59.9743781" lon="17.7269854">
        <ele>18.4023</ele>
        <time>2014-04-03T18:55:18Z</time>
      </trkpt>
      <trkpt lat="59.9743789" lon="17.7270401">
        <ele>18.4023</ele>
        <time>2014-04-03T18:55:19Z</time>
      </trkpt>
      <trkpt lat="59.9743833" lon="17.7270918">
        <ele>18.8831</ele>
        <time>2014-04-03T18:55:20Z</time>
      </trkpt>
      <trkpt lat="59.974388" lon="17.7271433">
        <ele>19.3638</ele>
        <time>2014-04-03T18:55:21Z</time>
      </trkpt>
      <trkpt lat="59.9743965" lon="17.7271945">
        <ele>19.3638</ele>
        <time>2014-04-03T18:55:22Z</time>
      </trkpt>
      <trkpt lat="59.974406" lon="17.7272415">
        <ele>19.8444</ele>
        <time>2014-04-03T18:55:23Z</time>
      </trkpt>
      <trkpt lat="59.9744144" lon="17.7272969">
        <ele>20.325</ele>
        <time>2014-04-03T18:55:24Z</time>
      </trkpt>
      <trkpt lat="59.9744209" lon="17.7273549">
        <ele>20.325</ele>
        <time>2014-04-03T18:55:25Z</time>
      </trkpt>
      <trkpt lat="59.9744227" lon="17.7274072">
        <ele>20.325</ele>
        <time>2014-04-03T18:55:26Z</time>
      </trkpt>
      <trkpt lat="59.9744264" lon="17.7274613">
        <ele>20.325</ele>
        <time>2014-04-03T18:55:27Z</time>
      </trkpt>
      <trkpt lat="59.9744329" lon="17.7275191">
        <ele>20.8057</ele>
        <time>2014-04-03T18:55:28Z</time>
      </trkpt>
      <trkpt lat="59.9744387" lon="17.727574">
        <ele>21.2864</ele>
        <time>2014-04-03T18:55:29Z</time>
      </trkpt>
      <trkpt lat="59.9744378" lon="17.7276255">
        <ele>21.2864</ele>
        <time>2014-04-03T18:55:30Z</time>
      </trkpt>
      <trkpt lat="59.9744354" lon="17.7276727">
        <ele>21.2864</ele>
        <time>2014-04-03T18:55:31Z</time>
      </trkpt>
      <trkpt lat="59.9744419" lon="17.727711">
        <ele>21.767</ele>
        <time>2014-04-03T18:55:32Z</time>
      </trkpt>
      <trkpt lat="59.9744511" lon="17.7277313">
        <ele>22.2476</ele>
        <time>2014-04-03T18:55:33Z</time>
      </trkpt>
      <trkpt lat="59.9744604" lon="17.7277324">
        <ele>22.2476</ele>
        <time>2014-04-03T18:55:34Z</time>
      </trkpt>
      <trkpt lat="59.9744772" lon="17.7277153">
        <ele>21.767</ele>
        <time>2014-04-03T18:55:35Z</time>
      </trkpt>
      <trkpt lat="59.9744957" lon="17.7276918">
        <ele>21.767</ele>
        <time>2014-04-03T18:55:36Z</time>
      </trkpt>
      <trkpt lat="59.9745162" lon="17.7276657">
        <ele>21.767</ele>
        <time>2014-04-03T18:55:37Z</time>
      </trkpt>
      <trkpt lat="59.9745402" lon="17.7276445">
        <ele>21.767</ele>
        <time>2014-04-03T18:55:38Z</time>
      </trkpt>
      <trkpt lat="59.974564" lon="17.7276275">
        <ele>21.767</ele>
        <time>2014-04-03T18:55:39Z</time>
      </trkpt>
      <trkpt lat="59.974587" lon="17.7276003">
        <ele>21.767</ele>
        <time>2014-04-03T18:55:40Z</time>
      </trkpt>
      <trkpt lat="59.9746089" lon="17.7275702">
        <ele>21.767</ele>
        <time>2014-04-03T18:55:41Z</time>
      </trkpt>
      <trkpt lat="59.9746299" lon="17.727541">
        <ele>21.767</ele>
        <time>2014-04-03T18:55:42Z</time>
      </trkpt>
      <trkpt lat="59.9746521" lon="17.7275135">
        <ele>22.2476</ele>
        <time>2014-04-03T18:55:43Z</time>
      </trkpt>
      <trkpt lat="59.9746755" lon="17.7274883">
        <ele>22.2476</ele>
        <time>2014-04-03T18:55:44Z</time>
      </trkpt>
      <trkpt lat="59.9747042" lon="17.7274577">
        <ele>22.7283</ele>
        <time>2014-04-03T18:55:45Z</time>
      </trkpt>
      <trkpt lat="59.9747293" lon="17.7274218">
        <ele>22.7283</ele>
        <time>2014-04-03T18:55:46Z</time>
      </trkpt>
      <trkpt lat="59.9747485" lon="17.7273943">
        <ele>23.209</ele>
        <time>2014-04-03T18:55:47Z</time>
      </trkpt>
      <trkpt lat="59.9747716" lon="17.7273716">
        <ele>23.6896</ele>
        <time>2014-04-03T18:55:48Z</time>
      </trkpt>
      <trkpt lat="59.9747941" lon="17.7273506">
        <ele>23.6896</ele>
        <time>2014-04-03T18:55:49Z</time>
      </trkpt>
      <trkpt lat="59.9748143" lon="17.7273219">
        <ele>24.1703</ele>
        <time>2014-04-03T18:55:50Z</time>
      </trkpt>
      <trkpt lat="59.9748345" lon="17.7272914">
        <ele>24.1703</ele>
        <time>2014-04-03T18:55:51Z</time>
      </trkpt>
      <trkpt lat="59.9748587" lon="17.7272687">
        <ele>24.1703</ele>
        <time>2014-04-03T18:55:52Z</time>
      </trkpt>
      <trkpt lat="59.9748884" lon="17.7272492">
        <ele>24.1703</ele>
        <time>2014-04-03T18:55:53Z</time>
      </trkpt>
      <trkpt lat="59.9749177" lon="17.7272294">
        <ele>24.1703</ele>
        <time>2014-04-03T18:55:54Z</time>
      </trkpt>
      <trkpt lat="59.9749427" lon="17.7272022">
        <ele>24.651</ele>
        <time>2014-04-03T18:55:55Z</time>
      </trkpt>
      <trkpt lat="59.9749651" lon="17.7271774">
        <ele>25.1317</ele>
        <time>2014-04-03T18:55:56Z</time>
      </trkpt>
      <trkpt lat="59.9749873" lon="17.727154">
        <ele>24.651</ele>
        <time>2014-04-03T18:55:57Z</time>
      </trkpt>
      <trkpt lat="59.9750157" lon="17.7271312">
        <ele>25.1317</ele>
        <time>2014-04-03T18:55:58Z</time>
      </trkpt>
      <trkpt lat="59.9750443" lon="17.7271111">
        <ele>25.6123</ele>
        <time>2014-04-03T18:55:59Z</time>
      </trkpt>
      <trkpt lat="59.9750691" lon="17.7270882">
        <ele>26.0929</ele>
        <time>2014-04-03T18:56:00Z</time>
      </trkpt>
      <trkpt lat="59.9750884" lon="17.7270614">
        <ele>26.0929</ele>
        <time>2014-04-03T18:56:01Z</time>
      </trkpt>
      <trkpt lat="59.9751089" lon="17.7270312">
        <ele>26.5736</ele>
        <time>2014-04-03T18:56:02Z</time>
      </trkpt>
      <trkpt lat="59.9751287" lon="17.7269993">
        <ele>26.0929</ele>
        <time>2014-04-03T18:56:03Z</time>
      </trkpt>
      <trkpt lat="59.9751542" lon="17.7269716">
        <ele>26.0929</ele>
        <time>2014-04-03T18:56:04Z</time>
      </trkpt>
      <trkpt lat="59.9751795" lon="17.7269428">
        <ele>26.0929</ele>
        <time>2014-04-03T18:56:05Z</time>
      </trkpt>
      <trkpt lat="59.9752064" lon="17.7269146">
        <ele>26.0929</ele>
        <time>2014-04-03T18:56:06Z</time>
      </trkpt>
      <trkpt lat="59.9752354" lon="17.7268863">
        <ele>26.0929</ele>
        <time>2014-04-03T18:56:07Z</time>
      </trkpt>
      <trkpt lat="59.9752592" lon="17.7268615">
        <ele>26.5736</ele>
        <time>2014-04-03T18:56:08Z</time>
      </trkpt>
      <trkpt lat="59.9752823" lon="17.7268341">
        <ele>27.0543</ele>
        <time>2014-04-03T18:56:09Z</time>
      </trkpt>
      <trkpt lat="59.9753082" lon="17.7268067">
        <ele>27.5349</ele>
        <time>2014-04-03T18:56:10Z</time>
      </trkpt>
      <trkpt lat="59.975328" lon="17.7267827">
        <ele>27.5349</ele>
        <time>2014-04-03T18:56:11Z</time>
      </trkpt>
      <trkpt lat="59.9753525" lon="17.7267572">
        <ele>27.5349</ele>
        <time>2014-04-03T18:56:12Z</time>
      </trkpt>
      <trkpt lat="59.9753788" lon="17.7267333">
        <ele>27.5349</ele>
        <time>2014-04-03T18:56:13Z</time>
      </trkpt>
      <trkpt lat="59.9754059" lon="17.726708">
        <ele>27.5349</ele>
        <time>2014-04-03T18:56:14Z</time>
      </trkpt>
      <trkpt lat="59.9754346" lon="17.7266843">
        <ele>27.5349</ele>
        <time>2014-04-03T18:56:15Z</time>
      </trkpt>
      <trkpt lat="59.975457" lon="17.726662">
        <ele>27.5349</ele>
        <time>2014-04-03T18:56:16Z</time>
      </trkpt>
      <trkpt lat="59.9754783" lon="17.7266403">
        <ele>27.5349</ele>
        <time>2014-04-03T18:56:17Z</time>
      </trkpt>
      <trkpt lat="59.9755061" lon="17.7266165">
        <ele>27.5349</ele>
        <time>2014-04-03T18:56:18Z</time>
      </trkpt>
      <trkpt lat="59.9755359" lon="17.7265932">
        <ele>27.5349</ele>
        <time>2014-04-03T18:56:19Z</time>
      </trkpt>
      <trkpt lat="59.9755611" lon="17.7265722">
        <ele>27.5349</ele>
        <time>2014-04-03T18:56:20Z</time>
      </trkpt>
      <trkpt lat="59.9755849" lon="17.7265501">
        <ele>27.5349</ele>
        <time>2014-04-03T18:56:21Z</time>
      </trkpt>
      <trkpt lat="59.975612" lon="17.7265268">
        <ele>27.5349</ele>
        <time>2014-04-03T18:56:22Z</time>
      </trkpt>
      <trkpt lat="59.9756374" lon="17.7265031">
        <ele>27.5349</ele>
        <time>2014-04-03T18:56:23Z</time>
      </trkpt>
      <trkpt lat="59.9756637" lon="17.7264813">
        <ele>27.5349</ele>
        <time>2014-04-03T18:56:24Z</time>
      </trkpt>
      <trkpt lat="59.9756906" lon="17.726459">
        <ele>27.5349</ele>
        <time>2014-04-03T18:56:25Z</time>
      </trkpt>
      <trkpt lat="59.9757161" lon="17.7264331">
        <ele>27.5349</ele>
        <time>2014-04-03T18:56:26Z</time>
      </trkpt>
      <trkpt lat="59.9757436" lon="17.7264099">
        <ele>27.5349</ele>
        <time>2014-04-03T18:56:27Z</time>
      </trkpt>
      <trkpt lat="59.9757719" lon="17.7263878">
        <ele>27.5349</ele>
        <time>2014-04-03T18:56:28Z</time>
      </trkpt>
      <trkpt lat="59.9757988" lon="17.7263645">
        <ele>27.5349</ele>
        <time>2014-04-03T18:56:29Z</time>
      </trkpt>
      <trkpt lat="59.9758218" lon="17.7263429">
        <ele>27.5349</ele>
        <time>2014-04-03T18:56:30Z</time>
      </trkpt>
      <trkpt lat="59.9758429" lon="17.7263211">
        <ele>27.5349</ele>
        <time>2014-04-03T18:56:31Z</time>
      </trkpt>
      <trkpt lat="59.9758683" lon="17.7262999">
        <ele>27.5349</ele>
        <time>2014-04-03T18:56:32Z</time>
      </trkpt>
      <trkpt lat="59.9758922" lon="17.7262816">
        <ele>27.0543</ele>
        <time>2014-04-03T18:56:33Z</time>
      </trkpt>
      <trkpt lat="59.9759131" lon="17.7262635">
        <ele>27.0543</ele>
        <time>2014-04-03T18:56:34Z</time>
      </trkpt>
      <trkpt lat="59.9759353" lon="17.7262435">
        <ele>27.0543</ele>
        <time>2014-04-03T18:56:35Z</time>
      </trkpt>
      <trkpt lat="59.9759596" lon="17.7262191">
        <ele>26.5736</ele>
        <time>2014-04-03T18:56:36Z</time>
      </trkpt>
      <trkpt lat="59.975983" lon="17.7261952">
        <ele>26.5736</ele>
        <time>2014-04-03T18:56:37Z</time>
      </trkpt>
      <trkpt lat="59.9760088" lon="17.7261714">
        <ele>27.0543</ele>
        <time>2014-04-03T18:56:38Z</time>
      </trkpt>
      <trkpt lat="59.9760331" lon="17.7261461">
        <ele>26.5736</ele>
        <time>2014-04-03T18:56:39Z</time>
      </trkpt>
      <trkpt lat="59.9760583" lon="17.7261212">
        <ele>27.0543</ele>
        <time>2014-04-03T18:56:40Z</time>
      </trkpt>
      <trkpt lat="59.976083" lon="17.7261">
        <ele>27.0543</ele>
        <time>2014-04-03T18:56:41Z</time>
      </trkpt>
      <trkpt lat="59.9761088" lon="17.7260758">
        <ele>27.5349</ele>
        <time>2014-04-03T18:56:42Z</time>
      </trkpt>
      <trkpt lat="59.9761345" lon="17.7260532">
        <ele>27.5349</ele>
        <time>2014-04-03T18:56:43Z</time>
      </trkpt>
      <trkpt lat="59.9761578" lon="17.7260286">
        <ele>27.5349</ele>
        <time>2014-04-03T18:56:44Z</time>
      </trkpt>
      <trkpt lat="59.9761823" lon="17.7260022">
        <ele>28.0155</ele>
        <time>2014-04-03T18:56:45Z</time>
      </trkpt>
      <trkpt lat="59.9762097" lon="17.7259782">
        <ele>28.0155</ele>
        <time>2014-04-03T18:56:46Z</time>
      </trkpt>
      <trkpt lat="59.9762342" lon="17.7259533">
        <ele>28.4962</ele>
        <time>2014-04-03T18:56:47Z</time>
      </trkpt>
      <trkpt lat="59.9762583" lon="17.7259262">
        <ele>28.9769</ele>
        <time>2014-04-03T18:56:48Z</time>
      </trkpt>
      <trkpt lat="59.9762838" lon="17.7259001">
        <ele>29.4575</ele>
        <time>2014-04-03T18:56:49Z</time>
      </trkpt>
      <trkpt lat="59.9763059" lon="17.7258741">
        <ele>29.4575</ele>
        <time>2014-04-03T18:56:50Z</time>
      </trkpt>
      <trkpt lat="59.9763321" lon="17.7258476">
        <ele>29.9381</ele>
        <time>2014-04-03T18:56:51Z</time>
      </trkpt>
      <trkpt lat="59.9763582" lon="17.7258187">
        <ele>29.9381</ele>
        <time>2014-04-03T18:56:52Z</time>
      </trkpt>
      <trkpt lat="59.9763838" lon="17.7257854">
        <ele>29.9381</ele>
        <time>2014-04-03T18:56:53Z</time>
      </trkpt>
      <trkpt lat="59.9764117" lon="17.7257565">
        <ele>30.4188</ele>
        <time>2014-04-03T18:56:54Z</time>
      </trkpt>
      <trkpt lat="59.9764357" lon="17.7257308">
        <ele>30.4188</ele>
        <time>2014-04-03T18:56:55Z</time>
      </trkpt>
      <trkpt lat="59.9764593" lon="17.7257028">
        <ele>30.4188</ele>
        <time>2014-04-03T18:56:56Z</time>
      </trkpt>
      <trkpt lat="59.9764864" lon="17.7256768">
        <ele>30.8995</ele>
        <time>2014-04-03T18:56:57Z</time>
      </trkpt>
      <trkpt lat="59.9765164" lon="17.7256504">
        <ele>30.8995</ele>
        <time>2014-04-03T18:56:58Z</time>
      </trkpt>
      <trkpt lat="59.9765435" lon="17.7256202">
        <ele>30.8995</ele>
        <time>2014-04-03T18:56:59Z</time>
      </trkpt>
      <trkpt lat="59.9765689" lon="17.7255918">
        <ele>31.3801</ele>
        <time>2014-04-03T18:57:00Z</time>
      </trkpt>
      <trkpt lat="59.9765935" lon="17.725565">
        <ele>31.3801</ele>
        <time>2014-04-03T18:57:01Z</time>
      </trkpt>
      <trkpt lat="59.9766206" lon="17.7255396">
        <ele>31.3801</ele>
        <time>2014-04-03T18:57:02Z</time>
      </trkpt>
      <trkpt lat="59.9766486" lon="17.7255121">
        <ele>31.3801</ele>
        <time>2014-04-03T18:57:03Z</time>
      </trkpt>
      <trkpt lat="59.9766724" lon="17.7254852">
        <ele>31.8607</ele>
        <time>2014-04-03T18:57:04Z</time>
      </trkpt>
      <trkpt lat="59.9766976" lon="17.7254619">
        <ele>32.3416</ele>
        <time>2014-04-03T18:57:05Z</time>
      </trkpt>
      <trkpt lat="59.9767195" lon="17.7254478">
        <ele>31.3801</ele>
        <time>2014-04-03T18:57:06Z</time>
      </trkpt>
      <trkpt lat="59.9767434" lon="17.7254203">
        <ele>32.3416</ele>
        <time>2014-04-03T18:57:07Z</time>
      </trkpt>
      <trkpt lat="59.9767646" lon="17.7253997">
        <ele>31.8607</ele>
        <time>2014-04-03T18:57:08Z</time>
      </trkpt>
      <trkpt lat="59.9767852" lon="17.725379">
        <ele>31.8607</ele>
        <time>2014-04-03T18:57:09Z</time>
      </trkpt>
      <trkpt lat="59.9768095" lon="17.7253502">
        <ele>32.3416</ele>
        <time>2014-04-03T18:57:10Z</time>
      </trkpt>
      <trkpt lat="59.9768376" lon="17.725324">
        <ele>32.3416</ele>
        <time>2014-04-03T18:57:11Z</time>
      </trkpt>
      <trkpt lat="59.976863" lon="17.7253006">
        <ele>32.3416</ele>
        <time>2014-04-03T18:57:12Z</time>
      </trkpt>
      <trkpt lat="59.9768866" lon="17.7252738">
        <ele>32.3416</ele>
        <time>2014-04-03T18:57:13Z</time>
      </trkpt>
      <trkpt lat="59.9769121" lon="17.7252492">
        <ele>32.8223</ele>
        <time>2014-04-03T18:57:14Z</time>
      </trkpt>
      <trkpt lat="59.976935" lon="17.7252292">
        <ele>32.3416</ele>
        <time>2014-04-03T18:57:15Z</time>
      </trkpt>
      <trkpt lat="59.9769594" lon="17.7252059">
        <ele>32.3416</ele>
        <time>2014-04-03T18:57:16Z</time>
      </trkpt>
      <trkpt lat="59.9769866" lon="17.7251773">
        <ele>32.3416</ele>
        <time>2014-04-03T18:57:17Z</time>
      </trkpt>
      <trkpt lat="59.9770112" lon="17.7251504">
        <ele>32.3416</ele>
        <time>2014-04-03T18:57:18Z</time>
      </trkpt>
      <trkpt lat="59.977037" lon="17.7251285">
        <ele>31.8607</ele>
        <time>2014-04-03T18:57:19Z</time>
      </trkpt>
      <trkpt lat="59.9770609" lon="17.7251049">
        <ele>31.8607</ele>
        <time>2014-04-03T18:57:20Z</time>
      </trkpt>
      <trkpt lat="59.9770843" lon="17.725076">
        <ele>31.8607</ele>
        <time>2014-04-03T18:57:21Z</time>
      </trkpt>
      <trkpt lat="59.9771122" lon="17.7250468">
        <ele>32.3416</ele>
        <time>2014-04-03T18:57:22Z</time>
      </trkpt>
      <trkpt lat="59.9771396" lon="17.7250214">
        <ele>32.3416</ele>
        <time>2014-04-03T18:57:23Z</time>
      </trkpt>
      <trkpt lat="59.9771643" lon="17.7249992">
        <ele>32.3416</ele>
        <time>2014-04-03T18:57:24Z</time>
      </trkpt>
      <trkpt lat="59.9771893" lon="17.7249728">
        <ele>32.8223</ele>
        <time>2014-04-03T18:57:25Z</time>
      </trkpt>
      <trkpt lat="59.9772131" lon="17.7249556">
        <ele>32.3416</ele>
        <time>2014-04-03T18:57:26Z</time>
      </trkpt>
      <trkpt lat="59.977243" lon="17.7249335">
        <ele>33.3029</ele>
        <time>2014-04-03T18:57:27Z</time>
      </trkpt>
      <trkpt lat="59.9772727" lon="17.7249132">
        <ele>33.7834</ele>
        <time>2014-04-03T18:57:28Z</time>
      </trkpt>
      <trkpt lat="59.9773" lon="17.7249078">
        <ele>33.7834</ele>
        <time>2014-04-03T18:57:29Z</time>
      </trkpt>
      <trkpt lat="59.97733" lon="17.7249028">
        <ele>33.7834</ele>
        <time>2014-04-03T18:57:30Z</time>
      </trkpt>
      <trkpt lat="59.9773566" lon="17.724904">
        <ele>33.7834</ele>
        <time>2014-04-03T18:57:31Z</time>
      </trkpt>
      <trkpt lat="59.977384" lon="17.7249133">
        <ele>34.2642</ele>
        <time>2014-04-03T18:57:32Z</time>
      </trkpt>
      <trkpt lat="59.9774112" lon="17.7249263">
        <ele>34.2642</ele>
        <time>2014-04-03T18:57:33Z</time>
      </trkpt>
      <trkpt lat="59.977435" lon="17.7249396">
        <ele>33.7834</ele>
        <time>2014-04-03T18:57:34Z</time>
      </trkpt>
      <trkpt lat="59.9774601" lon="17.7249426">
        <ele>33.7834</ele>
        <time>2014-04-03T18:57:35Z</time>
      </trkpt>
      <trkpt lat="59.9774909" lon="17.7249397">
        <ele>33.7834</ele>
        <time>2014-04-03T18:57:36Z</time>
      </trkpt>
      <trkpt lat="59.9775228" lon="17.7249439">
        <ele>34.2642</ele>
        <time>2014-04-03T18:57:37Z</time>
      </trkpt>
      <trkpt lat="59.9775515" lon="17.7249576">
        <ele>34.2642</ele>
        <time>2014-04-03T18:57:38Z</time>
      </trkpt>
      <trkpt lat="59.9775806" lon="17.7249695">
        <ele>33.7834</ele>
        <time>2014-04-03T18:57:39Z</time>
      </trkpt>
      <trkpt lat="59.9776103" lon="17.7249806">
        <ele>34.2642</ele>
        <time>2014-04-03T18:57:40Z</time>
      </trkpt>
      <trkpt lat="59.9776369" lon="17.7249923">
        <ele>33.7834</ele>
        <time>2014-04-03T18:57:41Z</time>
      </trkpt>
      <trkpt lat="59.9776614" lon="17.7250039">
        <ele>33.7834</ele>
        <time>2014-04-03T18:57:42Z</time>
      </trkpt>
      <trkpt lat="59.9776844" lon="17.7250149">
        <ele>33.3029</ele>
        <time>2014-04-03T18:57:43Z</time>
      </trkpt>
      <trkpt lat="59.9777068" lon="17.7250256">
        <ele>33.3029</ele>
        <time>2014-04-03T18:57:44Z</time>
      </trkpt>
      <trkpt lat="59.9777295" lon="17.7250344">
        <ele>33.3029</ele>
        <time>2014-04-03T18:57:45Z</time>
      </trkpt>
      <trkpt lat="59.9777535" lon="17.7250434">
        <ele>33.3029</ele>
        <time>2014-04-03T18:57:46Z</time>
      </trkpt>
      <trkpt lat="59.9777725" lon="17.7250562">
        <ele>32.8223</ele>
        <time>2014-04-03T18:57:47Z</time>
      </trkpt>
      <trkpt lat="59.9777938" lon="17.725064">
        <ele>32.8223</ele>
        <time>2014-04-03T18:57:48Z</time>
      </trkpt>
      <trkpt lat="59.9778175" lon="17.7250717">
        <ele>32.3416</ele>
        <time>2014-04-03T18:57:49Z</time>
      </trkpt>
      <trkpt lat="59.9778409" lon="17.7250777">
        <ele>31.8607</ele>
        <time>2014-04-03T18:57:50Z</time>
      </trkpt>
      <trkpt lat="59.9778654" lon="17.725086">
        <ele>31.3801</ele>
        <time>2014-04-03T18:57:51Z</time>
      </trkpt>
      <trkpt lat="59.9778881" lon="17.7250969">
        <ele>30.8995</ele>
        <time>2014-04-03T18:57:52Z</time>
      </trkpt>
      <trkpt lat="59.9779115" lon="17.7251049">
        <ele>30.8995</ele>
        <time>2014-04-03T18:57:53Z</time>
      </trkpt>
      <trkpt lat="59.9779366" lon="17.7251189">
        <ele>30.4188</ele>
        <time>2014-04-03T18:57:54Z</time>
      </trkpt>
      <trkpt lat="59.97796" lon="17.7251322">
        <ele>29.4575</ele>
        <time>2014-04-03T18:57:55Z</time>
      </trkpt>
      <trkpt lat="59.9779874" lon="17.7251381">
        <ele>29.4575</ele>
        <time>2014-04-03T18:57:56Z</time>
      </trkpt>
      <trkpt lat="59.9780136" lon="17.7251484">
        <ele>28.4962</ele>
        <time>2014-04-03T18:57:57Z</time>
      </trkpt>
      <trkpt lat="59.9780394" lon="17.7251557">
        <ele>28.4962</ele>
        <time>2014-04-03T18:57:58Z</time>
      </trkpt>
      <trkpt lat="59.9780654" lon="17.725165">
        <ele>28.0155</ele>
        <time>2014-04-03T18:57:59Z</time>
      </trkpt>
      <trkpt lat="59.9780906" lon="17.7251796">
        <ele>27.0543</ele>
        <time>2014-04-03T18:58:00Z</time>
      </trkpt>
      <trkpt lat="59.9781172" lon="17.725191">
        <ele>26.5736</ele>
        <time>2014-04-03T18:58:01Z</time>
      </trkpt>
      <trkpt lat="59.9781451" lon="17.7252024">
        <ele>26.0929</ele>
        <time>2014-04-03T18:58:02Z</time>
      </trkpt>
      <trkpt lat="59.9781678" lon="17.7252173">
        <ele>25.6123</ele>
        <time>2014-04-03T18:58:03Z</time>
      </trkpt>
      <trkpt lat="59.9781915" lon="17.7252328">
        <ele>25.6123</ele>
        <time>2014-04-03T18:58:04Z</time>
      </trkpt>
      <trkpt lat="59.9782129" lon="17.7252567">
        <ele>25.1317</ele>
        <time>2014-04-03T18:58:05Z</time>
      </trkpt>
      <trkpt lat="59.9782321" lon="17.725282">
        <ele>25.1317</ele>
        <time>2014-04-03T18:58:06Z</time>
      </trkpt>
      <trkpt lat="59.9782544" lon="17.7253064">
        <ele>25.1317</ele>
        <time>2014-04-03T18:58:07Z</time>
      </trkpt>
      <trkpt lat="59.9782754" lon="17.7253316">
        <ele>24.651</ele>
        <time>2014-04-03T18:58:08Z</time>
      </trkpt>
      <trkpt lat="59.9782979" lon="17.725351">
        <ele>24.651</ele>
        <time>2014-04-03T18:58:09Z</time>
      </trkpt>
      <trkpt lat="59.9783223" lon="17.7253697">
        <ele>24.1703</ele>
        <time>2014-04-03T18:58:10Z</time>
      </trkpt>
      <trkpt lat="59.978347" lon="17.7253878">
        <ele>24.1703</ele>
        <time>2014-04-03T18:58:11Z</time>
      </trkpt>
      <trkpt lat="59.9783704" lon="17.7254069">
        <ele>23.6896</ele>
        <time>2014-04-03T18:58:12Z</time>
      </trkpt>
      <trkpt lat="59.9783953" lon="17.7254313">
        <ele>24.1703</ele>
        <time>2014-04-03T18:58:13Z</time>
      </trkpt>
      <trkpt lat="59.9784181" lon="17.7254573">
        <ele>23.6896</ele>
        <time>2014-04-03T18:58:14Z</time>
      </trkpt>
      <trkpt lat="59.9784414" lon="17.7254802">
        <ele>23.6896</ele>
        <time>2014-04-03T18:58:15Z</time>
      </trkpt>
      <trkpt lat="59.9784645" lon="17.7254995">
        <ele>23.209</ele>
        <time>2014-04-03T18:58:16Z</time>
      </trkpt>
      <trkpt lat="59.9784893" lon="17.7255147">
        <ele>22.7283</ele>
        <time>2014-04-03T18:58:17Z</time>
      </trkpt>
      <trkpt lat="59.9785154" lon="17.7255342">
        <ele>22.7283</ele>
        <time>2014-04-03T18:58:18Z</time>
      </trkpt>
      <trkpt lat="59.978538" lon="17.725553">
        <ele>22.7283</ele>
        <time>2014-04-03T18:58:19Z</time>
      </trkpt>
      <trkpt lat="59.978563" lon="17.7255652">
        <ele>22.7283</ele>
        <time>2014-04-03T18:58:20Z</time>
      </trkpt>
      <trkpt lat="59.9785874" lon="17.7255813">
        <ele>22.2476</ele>
        <time>2014-04-03T18:58:21Z</time>
      </trkpt>
      <trkpt lat="59.9786108" lon="17.7255974">
        <ele>21.767</ele>
        <time>2014-04-03T18:58:22Z</time>
      </trkpt>
      <trkpt lat="59.978635" lon="17.7256141">
        <ele>21.767</ele>
        <time>2014-04-03T18:58:23Z</time>
      </trkpt>
      <trkpt lat="59.9786567" lon="17.7256349">
        <ele>21.2864</ele>
        <time>2014-04-03T18:58:24Z</time>
      </trkpt>
      <trkpt lat="59.9786803" lon="17.7256504">
        <ele>21.2864</ele>
        <time>2014-04-03T18:58:25Z</time>
      </trkpt>
      <trkpt lat="59.9787038" lon="17.725668">
        <ele>21.2864</ele>
        <time>2014-04-03T18:58:26Z</time>
      </trkpt>
      <trkpt lat="59.9787258" lon="17.7256869">
        <ele>21.2864</ele>
        <time>2014-04-03T18:58:27Z</time>
      </trkpt>
      <trkpt lat="59.9787495" lon="17.7257037">
        <ele>21.767</ele>
        <time>2014-04-03T18:58:28Z</time>
      </trkpt>
      <trkpt lat="59.9787734" lon="17.7257172">
        <ele>21.2864</ele>
        <time>2014-04-03T18:58:29Z</time>
      </trkpt>
      <trkpt lat="59.9787988" lon="17.7257271">
        <ele>21.2864</ele>
        <time>2014-04-03T18:58:30Z</time>
      </trkpt>
      <trkpt lat="59.978824" lon="17.7257436">
        <ele>21.2864</ele>
        <time>2014-04-03T18:58:31Z</time>
      </trkpt>
      <trkpt lat="59.9788485" lon="17.7257586">
        <ele>21.2864</ele>
        <time>2014-04-03T18:58:32Z</time>
      </trkpt>
      <trkpt lat="59.9788737" lon="17.7257774">
        <ele>21.767</ele>
        <time>2014-04-03T18:58:33Z</time>
      </trkpt>
      <trkpt lat="59.9788946" lon="17.725805">
        <ele>21.767</ele>
        <time>2014-04-03T18:58:34Z</time>
      </trkpt>
      <trkpt lat="59.9789149" lon="17.7258281">
        <ele>22.2476</ele>
        <time>2014-04-03T18:58:35Z</time>
      </trkpt>
      <trkpt lat="59.9789383" lon="17.7258581">
        <ele>22.2476</ele>
        <time>2014-04-03T18:58:36Z</time>
      </trkpt>
      <trkpt lat="59.9789618" lon="17.7258917">
        <ele>22.7283</ele>
        <time>2014-04-03T18:58:37Z</time>
      </trkpt>
      <trkpt lat="59.9789843" lon="17.7259231">
        <ele>22.7283</ele>
        <time>2014-04-03T18:58:38Z</time>
      </trkpt>
      <trkpt lat="59.9790066" lon="17.7259561">
        <ele>23.209</ele>
        <time>2014-04-03T18:58:39Z</time>
      </trkpt>
      <trkpt lat="59.9790286" lon="17.725991">
        <ele>23.209</ele>
        <time>2014-04-03T18:58:40Z</time>
      </trkpt>
      <trkpt lat="59.9790507" lon="17.726028">
        <ele>23.209</ele>
        <time>2014-04-03T18:58:41Z</time>
      </trkpt>
      <trkpt lat="59.979077" lon="17.7260601">
        <ele>23.209</ele>
        <time>2014-04-03T18:58:42Z</time>
      </trkpt>
      <trkpt lat="59.9791018" lon="17.7260916">
        <ele>23.209</ele>
        <time>2014-04-03T18:58:43Z</time>
      </trkpt>
      <trkpt lat="59.9791209" lon="17.7261233">
        <ele>22.7283</ele>
        <time>2014-04-03T18:58:44Z</time>
      </trkpt>
      <trkpt lat="59.9791397" lon="17.7261507">
        <ele>23.209</ele>
        <time>2014-04-03T18:58:45Z</time>
      </trkpt>
      <trkpt lat="59.9791625" lon="17.7261793">
        <ele>23.6896</ele>
        <time>2014-04-03T18:58:46Z</time>
      </trkpt>
      <trkpt lat="59.9791853" lon="17.7262061">
        <ele>23.209</ele>
        <time>2014-04-03T18:58:47Z</time>
      </trkpt>
      <trkpt lat="59.9792094" lon="17.7262295">
        <ele>23.209</ele>
        <time>2014-04-03T18:58:48Z</time>
      </trkpt>
      <trkpt lat="59.9792298" lon="17.7262554">
        <ele>23.209</ele>
        <time>2014-04-03T18:58:49Z</time>
      </trkpt>
      <trkpt lat="59.9792551" lon="17.7262795">
        <ele>22.7283</ele>
        <time>2014-04-03T18:58:50Z</time>
      </trkpt>
      <trkpt lat="59.9792806" lon="17.7263013">
        <ele>23.209</ele>
        <time>2014-04-03T18:58:51Z</time>
      </trkpt>
      <trkpt lat="59.9793001" lon="17.7263236">
        <ele>23.209</ele>
        <time>2014-04-03T18:58:52Z</time>
      </trkpt>
      <trkpt lat="59.9793223" lon="17.726346">
        <ele>22.7283</ele>
        <time>2014-04-03T18:58:53Z</time>
      </trkpt>
      <trkpt lat="59.9793463" lon="17.7263647">
        <ele>22.2476</ele>
        <time>2014-04-03T18:58:54Z</time>
      </trkpt>
      <trkpt lat="59.9793731" lon="17.7263774">
        <ele>22.2476</ele>
        <time>2014-04-03T18:58:55Z</time>
      </trkpt>
      <trkpt lat="59.9793985" lon="17.7263923">
        <ele>21.767</ele>
        <time>2014-04-03T18:58:56Z</time>
      </trkpt>
      <trkpt lat="59.9794243" lon="17.7264049">
        <ele>21.767</ele>
        <time>2014-04-03T18:58:57Z</time>
      </trkpt>
      <trkpt lat="59.97945" lon="17.7264109">
        <ele>21.767</ele>
        <time>2014-04-03T18:58:58Z</time>
      </trkpt>
      <trkpt lat="59.9794756" lon="17.7264163">
        <ele>21.767</ele>
        <time>2014-04-03T18:58:59Z</time>
      </trkpt>
      <trkpt lat="59.9794986" lon="17.7264327">
        <ele>21.2864</ele>
        <time>2014-04-03T18:59:00Z</time>
      </trkpt>
      <trkpt lat="59.9795198" lon="17.7264562">
        <ele>21.2864</ele>
        <time>2014-04-03T18:59:01Z</time>
      </trkpt>
      <trkpt lat="59.9795396" lon="17.7264777">
        <ele>21.2864</ele>
        <time>2014-04-03T18:59:02Z</time>
      </trkpt>
      <trkpt lat="59.9795608" lon="17.7265002">
        <ele>21.2864</ele>
        <time>2014-04-03T18:59:03Z</time>
      </trkpt>
      <trkpt lat="59.9795801" lon="17.7265294">
        <ele>20.8057</ele>
        <time>2014-04-03T18:59:04Z</time>
      </trkpt>
      <trkpt lat="59.9796008" lon="17.7265653">
        <ele>21.2864</ele>
        <time>2014-04-03T18:59:05Z</time>
      </trkpt>
      <trkpt lat="59.9796188" lon="17.7266004">
        <ele>20.8057</ele>
        <time>2014-04-03T18:59:06Z</time>
      </trkpt>
      <trkpt lat="59.9796371" lon="17.7266339">
        <ele>20.8057</ele>
        <time>2014-04-03T18:59:07Z</time>
      </trkpt>
      <trkpt lat="59.9796541" lon="17.726665">
        <ele>20.8057</ele>
        <time>2014-04-03T18:59:08Z</time>
      </trkpt>
      <trkpt lat="59.9796695" lon="17.7266991">
        <ele>20.8057</ele>
        <time>2014-04-03T18:59:09Z</time>
      </trkpt>
      <trkpt lat="59.979687" lon="17.7267375">
        <ele>20.8057</ele>
        <time>2014-04-03T18:59:10Z</time>
      </trkpt>
      <trkpt lat="59.9797022" lon="17.7267703">
        <ele>20.325</ele>
        <time>2014-04-03T18:59:11Z</time>
      </trkpt>
      <trkpt lat="59.9797192" lon="17.7268058">
        <ele>20.325</ele>
        <time>2014-04-03T18:59:12Z</time>
      </trkpt>
      <trkpt lat="59.97974" lon="17.7268411">
        <ele>20.8057</ele>
        <time>2014-04-03T18:59:13Z</time>
      </trkpt>
      <trkpt lat="59.9797612" lon="17.7268683">
        <ele>20.8057</ele>
        <time>2014-04-03T18:59:14Z</time>
      </trkpt>
      <trkpt lat="59.9797828" lon="17.7268993">
        <ele>21.2864</ele>
        <time>2014-04-03T18:59:15Z</time>
      </trkpt>
      <trkpt lat="59.9798005" lon="17.7269345">
        <ele>21.2864</ele>
        <time>2014-04-03T18:59:16Z</time>
      </trkpt>
      <trkpt lat="59.9798208" lon="17.726968">
        <ele>21.2864</ele>
        <time>2014-04-03T18:59:17Z</time>
      </trkpt>
      <trkpt lat="59.9798378" lon="17.7270076">
        <ele>21.2864</ele>
        <time>2014-04-03T18:59:18Z</time>
      </trkpt>
      <trkpt lat="59.9798543" lon="17.7270443">
        <ele>21.2864</ele>
        <time>2014-04-03T18:59:19Z</time>
      </trkpt>
      <trkpt lat="59.9798745" lon="17.7270785">
        <ele>21.2864</ele>
        <time>2014-04-03T18:59:20Z</time>
      </trkpt>
      <trkpt lat="59.979894" lon="17.727117">
        <ele>21.767</ele>
        <time>2014-04-03T18:59:21Z</time>
      </trkpt>
      <trkpt lat="59.9799124" lon="17.7271537">
        <ele>21.767</ele>
        <time>2014-04-03T18:59:22Z</time>
      </trkpt>
      <trkpt lat="59.9799318" lon="17.7271897">
        <ele>22.2476</ele>
        <time>2014-04-03T18:59:23Z</time>
      </trkpt>
      <trkpt lat="59.9799504" lon="17.7272239">
        <ele>22.7283</ele>
        <time>2014-04-03T18:59:24Z</time>
      </trkpt>
      <trkpt lat="59.9799711" lon="17.7272545">
        <ele>22.7283</ele>
        <time>2014-04-03T18:59:25Z</time>
      </trkpt>
      <trkpt lat="59.9799924" lon="17.7272914">
        <ele>22.7283</ele>
        <time>2014-04-03T18:59:26Z</time>
      </trkpt>
      <trkpt lat="59.9800135" lon="17.7273269">
        <ele>22.7283</ele>
        <time>2014-04-03T18:59:27Z</time>
      </trkpt>
      <trkpt lat="59.9800328" lon="17.727365">
        <ele>22.7283</ele>
        <time>2014-04-03T18:59:28Z</time>
      </trkpt>
      <trkpt lat="59.9800503" lon="17.7274033">
        <ele>22.7283</ele>
        <time>2014-04-03T18:59:29Z</time>
      </trkpt>
      <trkpt lat="59.9800688" lon="17.7274409">
        <ele>23.209</ele>
        <time>2014-04-03T18:59:30Z</time>
      </trkpt>
      <trkpt lat="59.9800875" lon="17.7274815">
        <ele>23.6896</ele>
        <time>2014-04-03T18:59:31Z</time>
      </trkpt>
      <trkpt lat="59.9801047" lon="17.7275188">
        <ele>23.6896</ele>
        <time>2014-04-03T18:59:32Z</time>
      </trkpt>
      <trkpt lat="59.9801239" lon="17.7275535">
        <ele>24.1703</ele>
        <time>2014-04-03T18:59:33Z</time>
      </trkpt>
      <trkpt lat="59.980141" lon="17.7275883">
        <ele>24.651</ele>
        <time>2014-04-03T18:59:34Z</time>
      </trkpt>
      <trkpt lat="59.9801601" lon="17.727622">
        <ele>24.651</ele>
        <time>2014-04-03T18:59:35Z</time>
      </trkpt>
      <trkpt lat="59.9801812" lon="17.727658">
        <ele>24.651</ele>
        <time>2014-04-03T18:59:36Z</time>
      </trkpt>
      <trkpt lat="59.9802014" lon="17.7276939">
        <ele>25.1317</ele>
        <time>2014-04-03T18:59:37Z</time>
      </trkpt>
      <trkpt lat="59.9802213" lon="17.72773">
        <ele>25.1317</ele>
        <time>2014-04-03T18:59:38Z</time>
      </trkpt>
      <trkpt lat="59.9802409" lon="17.7277633">
        <ele>25.6123</ele>
        <time>2014-04-03T18:59:39Z</time>
      </trkpt>
      <trkpt lat="59.9802611" lon="17.7277984">
        <ele>25.6123</ele>
        <time>2014-04-03T18:59:40Z</time>
      </trkpt>
      <trkpt lat="59.9802815" lon="17.7278342">
        <ele>25.6123</ele>
        <time>2014-04-03T18:59:41Z</time>
      </trkpt>
      <trkpt lat="59.9803016" lon="17.7278658">
        <ele>26.0929</ele>
        <time>2014-04-03T18:59:42Z</time>
      </trkpt>
      <trkpt lat="59.9803216" lon="17.7279009">
        <ele>26.5736</ele>
        <time>2014-04-03T18:59:43Z</time>
      </trkpt>
      <trkpt lat="59.980341" lon="17.7279372">
        <ele>27.0543</ele>
        <time>2014-04-03T18:59:44Z</time>
      </trkpt>
      <trkpt lat="59.9803615" lon="17.7279732">
        <ele>27.5349</ele>
        <time>2014-04-03T18:59:45Z</time>
      </trkpt>
      <trkpt lat="59.9803811" lon="17.728009">
        <ele>28.4962</ele>
        <time>2014-04-03T18:59:46Z</time>
      </trkpt>
      <trkpt lat="59.980399" lon="17.7280425">
        <ele>28.4962</ele>
        <time>2014-04-03T18:59:47Z</time>
      </trkpt>
      <trkpt lat="59.9804202" lon="17.7280753">
        <ele>28.9769</ele>
        <time>2014-04-03T18:59:48Z</time>
      </trkpt>
      <trkpt lat="59.9804404" lon="17.7281071">
        <ele>29.4575</ele>
        <time>2014-04-03T18:59:49Z</time>
      </trkpt>
      <trkpt lat="59.9804633" lon="17.7281378">
        <ele>29.9381</ele>
        <time>2014-04-03T18:59:50Z</time>
      </trkpt>
      <trkpt lat="59.9804834" lon="17.7281694">
        <ele>29.9381</ele>
        <time>2014-04-03T18:59:51Z</time>
      </trkpt>
      <trkpt lat="59.9805044" lon="17.7282">
        <ele>30.4188</ele>
        <time>2014-04-03T18:59:52Z</time>
      </trkpt>
      <trkpt lat="59.9805253" lon="17.7282343">
        <ele>30.4188</ele>
        <time>2014-04-03T18:59:53Z</time>
      </trkpt>
      <trkpt lat="59.9805436" lon="17.7282732">
        <ele>30.4188</ele>
        <time>2014-04-03T18:59:54Z</time>
      </trkpt>
      <trkpt lat="59.98056" lon="17.7283166">
        <ele>30.8995</ele>
        <time>2014-04-03T18:59:55Z</time>
      </trkpt>
      <trkpt lat="59.9805735" lon="17.7283614">
        <ele>30.8995</ele>
        <time>2014-04-03T18:59:56Z</time>
      </trkpt>
      <trkpt lat="59.980591" lon="17.7283989">
        <ele>30.8995</ele>
        <time>2014-04-03T18:59:57Z</time>
      </trkpt>
      <trkpt lat="59.9806082" lon="17.7284373">
        <ele>30.8995</ele>
        <time>2014-04-03T18:59:58Z</time>
      </trkpt>
      <trkpt lat="59.9806248" lon="17.7284755">
        <ele>31.3801</ele>
        <time>2014-04-03T18:59:59Z</time>
      </trkpt>
      <trkpt lat="59.9806424" lon="17.7285139">
        <ele>31.3801</ele>
        <time>2014-04-03T19:00:00Z</time>
      </trkpt>
      <trkpt lat="59.9806601" lon="17.7285518">
        <ele>31.3801</ele>
        <time>2014-04-03T19:00:01Z</time>
      </trkpt>
      <trkpt lat="59.9806805" lon="17.728587">
        <ele>31.8607</ele>
        <time>2014-04-03T19:00:02Z</time>
      </trkpt>
      <trkpt lat="59.9806994" lon="17.728619">
        <ele>32.3416</ele>
        <time>2014-04-03T19:00:03Z</time>
      </trkpt>
      <trkpt lat="59.9807175" lon="17.7286471">
        <ele>32.3416</ele>
        <time>2014-04-03T19:00:04Z</time>
      </trkpt>
      <trkpt lat="59.9807393" lon="17.728681">
        <ele>32.8223</ele>
        <time>2014-04-03T19:00:05Z</time>
      </trkpt>
      <trkpt lat="59.9807568" lon="17.7287211">
        <ele>32.8223</ele>
        <time>2014-04-03T19:00:06Z</time>
      </trkpt>
      <trkpt lat="59.980774" lon="17.7287574">
        <ele>32.8223</ele>
        <time>2014-04-03T19:00:07Z</time>
      </trkpt>
      <trkpt lat="59.9807909" lon="17.72879">
        <ele>32.8223</ele>
        <time>2014-04-03T19:00:08Z</time>
      </trkpt>
      <trkpt lat="59.9808056" lon="17.7288211">
        <ele>33.3029</ele>
        <time>2014-04-03T19:00:09Z</time>
      </trkpt>
      <trkpt lat="59.9808211" lon="17.7288502">
        <ele>33.3029</ele>
        <time>2014-04-03T19:00:10Z</time>
      </trkpt>
      <trkpt lat="59.9808387" lon="17.7288789">
        <ele>33.3029</ele>
        <time>2014-04-03T19:00:11Z</time>
      </trkpt>
      <trkpt lat="59.9808593" lon="17.7289087">
        <ele>32.8223</ele>
        <time>2014-04-03T19:00:12Z</time>
      </trkpt>
      <trkpt lat="59.9808768" lon="17.7289321">
        <ele>32.3416</ele>
        <time>2014-04-03T19:00:13Z</time>
      </trkpt>
      <trkpt lat="59.9808936" lon="17.728953">
        <ele>32.3416</ele>
        <time>2014-04-03T19:00:14Z</time>
      </trkpt>
      <trkpt lat="59.9809084" lon="17.7289754">
        <ele>31.8607</ele>
        <time>2014-04-03T19:00:15Z</time>
      </trkpt>
      <trkpt lat="59.98092" lon="17.7289904">
        <ele>31.3801</ele>
        <time>2014-04-03T19:00:16Z</time>
      </trkpt>
      <trkpt lat="59.9809307" lon="17.7289965">
        <ele>30.8995</ele>
        <time>2014-04-03T19:00:17Z</time>
      </trkpt>
      <trkpt lat="59.9809475" lon="17.7290001">
        <ele>30.8995</ele>
        <time>2014-04-03T19:00:18Z</time>
      </trkpt>
      <trkpt lat="59.9809678" lon="17.7290022">
        <ele>30.8995</ele>
        <time>2014-04-03T19:00:19Z</time>
      </trkpt>
      <trkpt lat="59.9809893" lon="17.7290019">
        <ele>30.8995</ele>
        <time>2014-04-03T19:00:20Z</time>
      </trkpt>
      <trkpt lat="59.98101" lon="17.7289945">
        <ele>30.8995</ele>
        <time>2014-04-03T19:00:21Z</time>
      </trkpt>
      <trkpt lat="59.9810315" lon="17.7289844">
        <ele>30.4188</ele>
        <time>2014-04-03T19:00:22Z</time>
      </trkpt>
      <trkpt lat="59.9810561" lon="17.7289786">
        <ele>29.9381</ele>
        <time>2014-04-03T19:00:23Z</time>
      </trkpt>
      <trkpt lat="59.9810785" lon="17.7289712">
        <ele>29.9381</ele>
        <time>2014-04-03T19:00:24Z</time>
      </trkpt>
      <trkpt lat="59.9811022" lon="17.7289573">
        <ele>29.4575</ele>
        <time>2014-04-03T19:00:25Z</time>
      </trkpt>
      <trkpt lat="59.9811247" lon="17.7289378">
        <ele>28.9769</ele>
        <time>2014-04-03T19:00:26Z</time>
      </trkpt>
      <trkpt lat="59.9811416" lon="17.7289154">
        <ele>28.4962</ele>
        <time>2014-04-03T19:00:27Z</time>
      </trkpt>
      <trkpt lat="59.981163" lon="17.7288977">
        <ele>28.0155</ele>
        <time>2014-04-03T19:00:28Z</time>
      </trkpt>
      <trkpt lat="59.9811882" lon="17.7288787">
        <ele>27.5349</ele>
        <time>2014-04-03T19:00:29Z</time>
      </trkpt>
      <trkpt lat="59.9812121" lon="17.7288532">
        <ele>27.5349</ele>
        <time>2014-04-03T19:00:30Z</time>
      </trkpt>
      <trkpt lat="59.9812318" lon="17.7288237">
        <ele>27.0543</ele>
        <time>2014-04-03T19:00:31Z</time>
      </trkpt>
      <trkpt lat="59.981248" lon="17.7287982">
        <ele>26.5736</ele>
        <time>2014-04-03T19:00:32Z</time>
      </trkpt>
      <trkpt lat="59.9812639" lon="17.7287732">
        <ele>26.5736</ele>
        <time>2014-04-03T19:00:33Z</time>
      </trkpt>
      <trkpt lat="59.9812821" lon="17.7287475">
        <ele>26.5736</ele>
        <time>2014-04-03T19:00:34Z</time>
      </trkpt>
      <trkpt lat="59.9813012" lon="17.7287251">
        <ele>26.0929</ele>
        <time>2014-04-03T19:00:35Z</time>
      </trkpt>
      <trkpt lat="59.9813206" lon="17.7286982">
        <ele>26.0929</ele>
        <time>2014-04-03T19:00:36Z</time>
      </trkpt>
      <trkpt lat="59.9813376" lon="17.7286693">
        <ele>25.6123</ele>
        <time>2014-04-03T19:00:37Z</time>
      </trkpt>
      <trkpt lat="59.9813553" lon="17.7286433">
        <ele>25.6123</ele>
        <time>2014-04-03T19:00:38Z</time>
      </trkpt>
      <trkpt lat="59.9813728" lon="17.7286154">
        <ele>25.1317</ele>
        <time>2014-04-03T19:00:39Z</time>
      </trkpt>
      <trkpt lat="59.9813899" lon="17.7285859">
        <ele>25.1317</ele>
        <time>2014-04-03T19:00:40Z</time>
      </trkpt>
      <trkpt lat="59.9814101" lon="17.7285562">
        <ele>25.1317</ele>
        <time>2014-04-03T19:00:41Z</time>
      </trkpt>
      <trkpt lat="59.9814318" lon="17.7285263">
        <ele>25.1317</ele>
        <time>2014-04-03T19:00:42Z</time>
      </trkpt>
      <trkpt lat="59.9814501" lon="17.728498">
        <ele>24.651</ele>
        <time>2014-04-03T19:00:43Z</time>
      </trkpt>
      <trkpt lat="59.9814702" lon="17.7284699">
        <ele>24.651</ele>
        <time>2014-04-03T19:00:44Z</time>
      </trkpt>
      <trkpt lat="59.9814935" lon="17.7284464">
        <ele>24.651</ele>
        <time>2014-04-03T19:00:45Z</time>
      </trkpt>
      <trkpt lat="59.9815159" lon="17.7284237">
        <ele>24.1703</ele>
        <time>2014-04-03T19:00:46Z</time>
      </trkpt>
      <trkpt lat="59.9815389" lon="17.7284006">
        <ele>24.1703</ele>
        <time>2014-04-03T19:00:47Z</time>
      </trkpt>
      <trkpt lat="59.9815646" lon="17.7283816">
        <ele>24.651</ele>
        <time>2014-04-03T19:00:48Z</time>
      </trkpt>
      <trkpt lat="59.9815884" lon="17.7283663">
        <ele>24.1703</ele>
        <time>2014-04-03T19:00:49Z</time>
      </trkpt>
      <trkpt lat="59.9816138" lon="17.7283533">
        <ele>24.1703</ele>
        <time>2014-04-03T19:00:50Z</time>
      </trkpt>
      <trkpt lat="59.981641" lon="17.7283373">
        <ele>24.1703</ele>
        <time>2014-04-03T19:00:51Z</time>
      </trkpt>
      <trkpt lat="59.9816655" lon="17.7283207">
        <ele>24.1703</ele>
        <time>2014-04-03T19:00:52Z</time>
      </trkpt>
      <trkpt lat="59.9816918" lon="17.7282978">
        <ele>24.651</ele>
        <time>2014-04-03T19:00:53Z</time>
      </trkpt>
      <trkpt lat="59.9817187" lon="17.7282698">
        <ele>24.651</ele>
        <time>2014-04-03T19:00:54Z</time>
      </trkpt>
      <trkpt lat="59.9817432" lon="17.7282475">
        <ele>25.1317</ele>
        <time>2014-04-03T19:00:55Z</time>
      </trkpt>
      <trkpt lat="59.9817692" lon="17.728228">
        <ele>25.1317</ele>
        <time>2014-04-03T19:00:56Z</time>
      </trkpt>
      <trkpt lat="59.9817937" lon="17.7282032">
        <ele>25.1317</ele>
        <time>2014-04-03T19:00:57Z</time>
      </trkpt>
      <trkpt lat="59.9818176" lon="17.728177">
        <ele>25.1317</ele>
        <time>2014-04-03T19:00:58Z</time>
      </trkpt>
      <trkpt lat="59.9818412" lon="17.7281507">
        <ele>25.1317</ele>
        <time>2014-04-03T19:00:59Z</time>
      </trkpt>
      <trkpt lat="59.9818619" lon="17.7281222">
        <ele>25.1317</ele>
        <time>2014-04-03T19:01:00Z</time>
      </trkpt>
      <trkpt lat="59.9818849" lon="17.7280917">
        <ele>25.1317</ele>
        <time>2014-04-03T19:01:01Z</time>
      </trkpt>
      <trkpt lat="59.9819072" lon="17.7280599">
        <ele>25.6123</ele>
        <time>2014-04-03T19:01:02Z</time>
      </trkpt>
      <trkpt lat="59.9819281" lon="17.7280286">
        <ele>25.6123</ele>
        <time>2014-04-03T19:01:03Z</time>
      </trkpt>
      <trkpt lat="59.9819497" lon="17.727998">
        <ele>25.6123</ele>
        <time>2014-04-03T19:01:04Z</time>
      </trkpt>
      <trkpt lat="59.9819705" lon="17.7279658">
        <ele>25.6123</ele>
        <time>2014-04-03T19:01:05Z</time>
      </trkpt>
      <trkpt lat="59.9819924" lon="17.7279326">
        <ele>26.0929</ele>
        <time>2014-04-03T19:01:06Z</time>
      </trkpt>
      <trkpt lat="59.9820139" lon="17.7278979">
        <ele>26.0929</ele>
        <time>2014-04-03T19:01:07Z</time>
      </trkpt>
      <trkpt lat="59.9820347" lon="17.7278615">
        <ele>26.0929</ele>
        <time>2014-04-03T19:01:08Z</time>
      </trkpt>
      <trkpt lat="59.9820569" lon="17.7278264">
        <ele>26.5736</ele>
        <time>2014-04-03T19:01:09Z</time>
      </trkpt>
      <trkpt lat="59.9820768" lon="17.7277932">
        <ele>26.5736</ele>
        <time>2014-04-03T19:01:10Z</time>
      </trkpt>
      <trkpt lat="59.9820985" lon="17.7277561">
        <ele>27.0543</ele>
        <time>2014-04-03T19:01:11Z</time>
      </trkpt>
      <trkpt lat="59.9821191" lon="17.7277183">
        <ele>27.0543</ele>
        <time>2014-04-03T19:01:12Z</time>
      </trkpt>
      <trkpt lat="59.9821377" lon="17.7276821">
        <ele>27.0543</ele>
        <time>2014-04-03T19:01:13Z</time>
      </trkpt>
      <trkpt lat="59.9821587" lon="17.7276466">
        <ele>27.5349</ele>
        <time>2014-04-03T19:01:14Z</time>
      </trkpt>
      <trkpt lat="59.9821787" lon="17.7276074">
        <ele>27.5349</ele>
        <time>2014-04-03T19:01:15Z</time>
      </trkpt>
      <trkpt lat="59.9821969" lon="17.7275645">
        <ele>27.5349</ele>
        <time>2014-04-03T19:01:16Z</time>
      </trkpt>
      <trkpt lat="59.982214" lon="17.7275236">
        <ele>27.5349</ele>
        <time>2014-04-03T19:01:17Z</time>
      </trkpt>
      <trkpt lat="59.98223" lon="17.7274846">
        <ele>27.5349</ele>
        <time>2014-04-03T19:01:18Z</time>
      </trkpt>
      <trkpt lat="59.9822477" lon="17.7274432">
        <ele>28.0155</ele>
        <time>2014-04-03T19:01:19Z</time>
      </trkpt>
      <trkpt lat="59.9822637" lon="17.7274018">
        <ele>27.5349</ele>
        <time>2014-04-03T19:01:20Z</time>
      </trkpt>
      <trkpt lat="59.9822777" lon="17.7273606">
        <ele>27.5349</ele>
        <time>2014-04-03T19:01:21Z</time>
      </trkpt>
      <trkpt lat="59.9822929" lon="17.7273184">
        <ele>27.5349</ele>
        <time>2014-04-03T19:01:22Z</time>
      </trkpt>
      <trkpt lat="59.9823073" lon="17.7272764">
        <ele>28.0155</ele>
        <time>2014-04-03T19:01:23Z</time>
      </trkpt>
      <trkpt lat="59.9823234" lon="17.7272334">
        <ele>28.0155</ele>
        <time>2014-04-03T19:01:24Z</time>
      </trkpt>
      <trkpt lat="59.9823394" lon="17.7271929">
        <ele>28.0155</ele>
        <time>2014-04-03T19:01:25Z</time>
      </trkpt>
      <trkpt lat="59.9823548" lon="17.727155">
        <ele>28.0155</ele>
        <time>2014-04-03T19:01:26Z</time>
      </trkpt>
      <trkpt lat="59.9823736" lon="17.7271203">
        <ele>28.0155</ele>
        <time>2014-04-03T19:01:27Z</time>
      </trkpt>
      <trkpt lat="59.9823938" lon="17.7270866">
        <ele>28.0155</ele>
        <time>2014-04-03T19:01:28Z</time>
      </trkpt>
      <trkpt lat="59.9824154" lon="17.7270547">
        <ele>28.0155</ele>
        <time>2014-04-03T19:01:29Z</time>
      </trkpt>
      <trkpt lat="59.9824386" lon="17.7270271">
        <ele>27.5349</ele>
        <time>2014-04-03T19:01:30Z</time>
      </trkpt>
      <trkpt lat="59.982461" lon="17.7270017">
        <ele>28.0155</ele>
        <time>2014-04-03T19:01:31Z</time>
      </trkpt>
      <trkpt lat="59.9824807" lon="17.7269665">
        <ele>28.4962</ele>
        <time>2014-04-03T19:01:32Z</time>
      </trkpt>
      <trkpt lat="59.9825026" lon="17.7269397">
        <ele>28.9769</ele>
        <time>2014-04-03T19:01:33Z</time>
      </trkpt>
      <trkpt lat="59.9825249" lon="17.7269134">
        <ele>29.4575</ele>
        <time>2014-04-03T19:01:34Z</time>
      </trkpt>
      <trkpt lat="59.9825492" lon="17.7268863">
        <ele>29.9381</ele>
        <time>2014-04-03T19:01:35Z</time>
      </trkpt>
      <trkpt lat="59.9825746" lon="17.7268587">
        <ele>29.9381</ele>
        <time>2014-04-03T19:01:36Z</time>
      </trkpt>
      <trkpt lat="59.9825972" lon="17.7268304">
        <ele>29.9381</ele>
        <time>2014-04-03T19:01:37Z</time>
      </trkpt>
      <trkpt lat="59.9826192" lon="17.7267981">
        <ele>29.9381</ele>
        <time>2014-04-03T19:01:38Z</time>
      </trkpt>
      <trkpt lat="59.9826438" lon="17.7267682">
        <ele>29.9381</ele>
        <time>2014-04-03T19:01:39Z</time>
      </trkpt>
      <trkpt lat="59.9826657" lon="17.7267414">
        <ele>29.4575</ele>
        <time>2014-04-03T19:01:40Z</time>
      </trkpt>
      <trkpt lat="59.9826868" lon="17.7267157">
        <ele>29.4575</ele>
        <time>2014-04-03T19:01:41Z</time>
      </trkpt>
      <trkpt lat="59.9827112" lon="17.7266908">
        <ele>29.4575</ele>
        <time>2014-04-03T19:01:42Z</time>
      </trkpt>
      <trkpt lat="59.9827355" lon="17.7266708">
        <ele>29.9381</ele>
        <time>2014-04-03T19:01:43Z</time>
      </trkpt>
      <trkpt lat="59.9827609" lon="17.7266502">
        <ele>29.4575</ele>
        <time>2014-04-03T19:01:44Z</time>
      </trkpt>
      <trkpt lat="59.9827866" lon="17.7266273">
        <ele>29.9381</ele>
        <time>2014-04-03T19:01:45Z</time>
      </trkpt>
      <trkpt lat="59.9828139" lon="17.7266204">
        <ele>29.9381</ele>
        <time>2014-04-03T19:01:46Z</time>
      </trkpt>
      <trkpt lat="59.9828388" lon="17.7266134">
        <ele>29.9381</ele>
        <time>2014-04-03T19:01:47Z</time>
      </trkpt>
      <trkpt lat="59.9828662" lon="17.7266071">
        <ele>30.4188</ele>
        <time>2014-04-03T19:01:48Z</time>
      </trkpt>
      <trkpt lat="59.9828957" lon="17.7266069">
        <ele>30.4188</ele>
        <time>2014-04-03T19:01:49Z</time>
      </trkpt>
      <trkpt lat="59.9829235" lon="17.7266083">
        <ele>30.4188</ele>
        <time>2014-04-03T19:01:50Z</time>
      </trkpt>
      <trkpt lat="59.9829522" lon="17.726606">
        <ele>30.4188</ele>
        <time>2014-04-03T19:01:51Z</time>
      </trkpt>
      <trkpt lat="59.9829812" lon="17.7266014">
        <ele>30.4188</ele>
        <time>2014-04-03T19:01:52Z</time>
      </trkpt>
      <trkpt lat="59.9830122" lon="17.7265989">
        <ele>30.4188</ele>
        <time>2014-04-03T19:01:53Z</time>
      </trkpt>
      <trkpt lat="59.9830423" lon="17.7266002">
        <ele>30.8995</ele>
        <time>2014-04-03T19:01:54Z</time>
      </trkpt>
      <trkpt lat="59.9830678" lon="17.7265969">
        <ele>30.8995</ele>
        <time>2014-04-03T19:01:55Z</time>
      </trkpt>
      <trkpt lat="59.9830935" lon="17.7265914">
        <ele>30.8995</ele>
        <time>2014-04-03T19:01:56Z</time>
      </trkpt>
      <trkpt lat="59.9831189" lon="17.7265911">
        <ele>30.8995</ele>
        <time>2014-04-03T19:01:57Z</time>
      </trkpt>
      <trkpt lat="59.9831447" lon="17.7265905">
        <ele>30.4188</ele>
        <time>2014-04-03T19:01:58Z</time>
      </trkpt>
      <trkpt lat="59.9831734" lon="17.7265911">
        <ele>30.4188</ele>
        <time>2014-04-03T19:01:59Z</time>
      </trkpt>
      <trkpt lat="59.9832004" lon="17.7265885">
        <ele>30.4188</ele>
        <time>2014-04-03T19:02:00Z</time>
      </trkpt>
      <trkpt lat="59.9832267" lon="17.7265859">
        <ele>30.4188</ele>
        <time>2014-04-03T19:02:01Z</time>
      </trkpt>
      <trkpt lat="59.9832542" lon="17.7265857">
        <ele>30.4188</ele>
        <time>2014-04-03T19:02:02Z</time>
      </trkpt>
      <trkpt lat="59.98328" lon="17.7265853">
        <ele>30.4188</ele>
        <time>2014-04-03T19:02:03Z</time>
      </trkpt>
      <trkpt lat="59.9833064" lon="17.7265886">
        <ele>30.8995</ele>
        <time>2014-04-03T19:02:04Z</time>
      </trkpt>
      <trkpt lat="59.9833329" lon="17.7265922">
        <ele>30.8995</ele>
        <time>2014-04-03T19:02:05Z</time>
      </trkpt>
      <trkpt lat="59.9833582" lon="17.7265921">
        <ele>30.8995</ele>
        <time>2014-04-03T19:02:06Z</time>
      </trkpt>
      <trkpt lat="59.9833861" lon="17.726596">
        <ele>30.8995</ele>
        <time>2014-04-03T19:02:07Z</time>
      </trkpt>
      <trkpt lat="59.9834123" lon="17.7265977">
        <ele>30.8995</ele>
        <time>2014-04-03T19:02:08Z</time>
      </trkpt>
      <trkpt lat="59.9834394" lon="17.7265987">
        <ele>30.8995</ele>
        <time>2014-04-03T19:02:09Z</time>
      </trkpt>
      <trkpt lat="59.9834669" lon="17.7266004">
        <ele>30.8995</ele>
        <time>2014-04-03T19:02:10Z</time>
      </trkpt>
      <trkpt lat="59.9834938" lon="17.7266028">
        <ele>30.4188</ele>
        <time>2014-04-03T19:02:11Z</time>
      </trkpt>
      <trkpt lat="59.9835229" lon="17.7266086">
        <ele>30.4188</ele>
        <time>2014-04-03T19:02:12Z</time>
      </trkpt>
      <trkpt lat="59.9835493" lon="17.7266121">
        <ele>30.4188</ele>
        <time>2014-04-03T19:02:13Z</time>
      </trkpt>
      <trkpt lat="59.9835762" lon="17.7266155">
        <ele>29.9381</ele>
        <time>2014-04-03T19:02:14Z</time>
      </trkpt>
      <trkpt lat="59.9836033" lon="17.7266149">
        <ele>29.9381</ele>
        <time>2014-04-03T19:02:15Z</time>
      </trkpt>
      <trkpt lat="59.9836288" lon="17.7266116">
        <ele>30.4188</ele>
        <time>2014-04-03T19:02:16Z</time>
      </trkpt>
      <trkpt lat="59.9836544" lon="17.7266152">
        <ele>30.4188</ele>
        <time>2014-04-03T19:02:17Z</time>
      </trkpt>
      <trkpt lat="59.9836791" lon="17.7266157">
        <ele>30.8995</ele>
        <time>2014-04-03T19:02:18Z</time>
      </trkpt>
      <trkpt lat="59.9837037" lon="17.726616">
        <ele>30.8995</ele>
        <time>2014-04-03T19:02:19Z</time>
      </trkpt>
      <trkpt lat="59.98373" lon="17.7266133">
        <ele>30.8995</ele>
        <time>2014-04-03T19:02:20Z</time>
      </trkpt>
      <trkpt lat="59.9837575" lon="17.726603">
        <ele>30.8995</ele>
        <time>2014-04-03T19:02:21Z</time>
      </trkpt>
      <trkpt lat="59.9837836" lon="17.7265976">
        <ele>30.8995</ele>
        <time>2014-04-03T19:02:22Z</time>
      </trkpt>
      <trkpt lat="59.9838094" lon="17.726593">
        <ele>30.8995</ele>
        <time>2014-04-03T19:02:23Z</time>
      </trkpt>
      <trkpt lat="59.9838337" lon="17.7265976">
        <ele>30.4188</ele>
        <time>2014-04-03T19:02:24Z</time>
      </trkpt>
      <trkpt lat="59.9838586" lon="17.7266034">
        <ele>30.4188</ele>
        <time>2014-04-03T19:02:25Z</time>
      </trkpt>
      <trkpt lat="59.9838871" lon="17.7266004">
        <ele>30.8995</ele>
        <time>2014-04-03T19:02:26Z</time>
      </trkpt>
      <trkpt lat="59.9839148" lon="17.7266004">
        <ele>30.8995</ele>
        <time>2014-04-03T19:02:27Z</time>
      </trkpt>
      <trkpt lat="59.9839406" lon="17.7266019">
        <ele>30.8995</ele>
        <time>2014-04-03T19:02:28Z</time>
      </trkpt>
      <trkpt lat="59.9839704" lon="17.7266045">
        <ele>30.8995</ele>
        <time>2014-04-03T19:02:29Z</time>
      </trkpt>
      <trkpt lat="59.9839995" lon="17.7266061">
        <ele>31.3801</ele>
        <time>2014-04-03T19:02:30Z</time>
      </trkpt>
      <trkpt lat="59.984024" lon="17.7266097">
        <ele>31.3801</ele>
        <time>2014-04-03T19:02:31Z</time>
      </trkpt>
      <trkpt lat="59.9840504" lon="17.7266186">
        <ele>31.3801</ele>
        <time>2014-04-03T19:02:32Z</time>
      </trkpt>
      <trkpt lat="59.9840767" lon="17.7266223">
        <ele>31.8607</ele>
        <time>2014-04-03T19:02:33Z</time>
      </trkpt>
      <trkpt lat="59.9841023" lon="17.7266175">
        <ele>31.8607</ele>
        <time>2014-04-03T19:02:34Z</time>
      </trkpt>
      <trkpt lat="59.9841286" lon="17.726614">
        <ele>32.3416</ele>
        <time>2014-04-03T19:02:35Z</time>
      </trkpt>
      <trkpt lat="59.9841538" lon="17.7266155">
        <ele>32.8223</ele>
        <time>2014-04-03T19:02:36Z</time>
      </trkpt>
      <trkpt lat="59.9841813" lon="17.72662">
        <ele>32.8223</ele>
        <time>2014-04-03T19:02:37Z</time>
      </trkpt>
      <trkpt lat="59.9842068" lon="17.7266212">
        <ele>32.8223</ele>
        <time>2014-04-03T19:02:38Z</time>
      </trkpt>
      <trkpt lat="59.9842317" lon="17.7266193">
        <ele>33.3029</ele>
        <time>2014-04-03T19:02:39Z</time>
      </trkpt>
      <trkpt lat="59.9842584" lon="17.7266204">
        <ele>33.3029</ele>
        <time>2014-04-03T19:02:40Z</time>
      </trkpt>
      <trkpt lat="59.9842846" lon="17.7266215">
        <ele>32.8223</ele>
        <time>2014-04-03T19:02:41Z</time>
      </trkpt>
      <trkpt lat="59.984311" lon="17.7266207">
        <ele>33.3029</ele>
        <time>2014-04-03T19:02:42Z</time>
      </trkpt>
      <trkpt lat="59.9843358" lon="17.7266214">
        <ele>32.8223</ele>
        <time>2014-04-03T19:02:43Z</time>
      </trkpt>
      <trkpt lat="59.9843606" lon="17.7266166">
        <ele>32.8223</ele>
        <time>2014-04-03T19:02:44Z</time>
      </trkpt>
      <trkpt lat="59.9843867" lon="17.7266111">
        <ele>33.3029</ele>
        <time>2014-04-03T19:02:45Z</time>
      </trkpt>
      <trkpt lat="59.9844128" lon="17.726603">
        <ele>32.8223</ele>
        <time>2014-04-03T19:02:46Z</time>
      </trkpt>
      <trkpt lat="59.9844406" lon="17.7265973">
        <ele>32.8223</ele>
        <time>2014-04-03T19:02:47Z</time>
      </trkpt>
      <trkpt lat="59.9844685" lon="17.7265988">
        <ele>33.3029</ele>
        <time>2014-04-03T19:02:48Z</time>
      </trkpt>
      <trkpt lat="59.9844939" lon="17.7265974">
        <ele>33.3029</ele>
        <time>2014-04-03T19:02:49Z</time>
      </trkpt>
      <trkpt lat="59.9845216" lon="17.7265962">
        <ele>33.3029</ele>
        <time>2014-04-03T19:02:50Z</time>
      </trkpt>
      <trkpt lat="59.9845482" lon="17.7265945">
        <ele>32.8223</ele>
        <time>2014-04-03T19:02:51Z</time>
      </trkpt>
      <trkpt lat="59.9845751" lon="17.7265912">
        <ele>32.8223</ele>
        <time>2014-04-03T19:02:52Z</time>
      </trkpt>
      <trkpt lat="59.984601" lon="17.7265927">
        <ele>32.8223</ele>
        <time>2014-04-03T19:02:53Z</time>
      </trkpt>
      <trkpt lat="59.9846255" lon="17.7265909">
        <ele>32.8223</ele>
        <time>2014-04-03T19:02:54Z</time>
      </trkpt>
      <trkpt lat="59.9846513" lon="17.7265919">
        <ele>32.8223</ele>
        <time>2014-04-03T19:02:55Z</time>
      </trkpt>
      <trkpt lat="59.9846771" lon="17.7265955">
        <ele>32.3416</ele>
        <time>2014-04-03T19:02:56Z</time>
      </trkpt>
      <trkpt lat="59.9847022" lon="17.7265929">
        <ele>32.3416</ele>
        <time>2014-04-03T19:02:57Z</time>
      </trkpt>
      <trkpt lat="59.9847295" lon="17.7265934">
        <ele>32.8223</ele>
        <time>2014-04-03T19:02:58Z</time>
      </trkpt>
      <trkpt lat="59.9847553" lon="17.7265935">
        <ele>32.3416</ele>
        <time>2014-04-03T19:02:59Z</time>
      </trkpt>
      <trkpt lat="59.9847826" lon="17.726592">
        <ele>32.8223</ele>
        <time>2014-04-03T19:03:00Z</time>
      </trkpt>
      <trkpt lat="59.9848083" lon="17.7265926">
        <ele>32.3416</ele>
        <time>2014-04-03T19:03:01Z</time>
      </trkpt>
      <trkpt lat="59.9848334" lon="17.7265934">
        <ele>32.3416</ele>
        <time>2014-04-03T19:03:02Z</time>
      </trkpt>
      <trkpt lat="59.9848616" lon="17.7265931">
        <ele>32.8223</ele>
        <time>2014-04-03T19:03:03Z</time>
      </trkpt>
      <trkpt lat="59.9848901" lon="17.726602">
        <ele>32.8223</ele>
        <time>2014-04-03T19:03:04Z</time>
      </trkpt>
      <trkpt lat="59.984915" lon="17.7266066">
        <ele>32.8223</ele>
        <time>2014-04-03T19:03:05Z</time>
      </trkpt>
      <trkpt lat="59.9849387" lon="17.7266069">
        <ele>32.8223</ele>
        <time>2014-04-03T19:03:06Z</time>
      </trkpt>
      <trkpt lat="59.9849636" lon="17.7266069">
        <ele>32.8223</ele>
        <time>2014-04-03T19:03:07Z</time>
      </trkpt>
      <trkpt lat="59.9849867" lon="17.726604">
        <ele>32.8223</ele>
        <time>2014-04-03T19:03:08Z</time>
      </trkpt>
      <trkpt lat="59.9850101" lon="17.7265999">
        <ele>32.8223</ele>
        <time>2014-04-03T19:03:09Z</time>
      </trkpt>
      <trkpt lat="59.9850361" lon="17.7266023">
        <ele>32.3416</ele>
        <time>2014-04-03T19:03:10Z</time>
      </trkpt>
      <trkpt lat="59.9850644" lon="17.7266031">
        <ele>31.8607</ele>
        <time>2014-04-03T19:03:11Z</time>
      </trkpt>
      <trkpt lat="59.9850926" lon="17.7266025">
        <ele>31.8607</ele>
        <time>2014-04-03T19:03:12Z</time>
      </trkpt>
      <trkpt lat="59.985119" lon="17.7266023">
        <ele>31.8607</ele>
        <time>2014-04-03T19:03:13Z</time>
      </trkpt>
      <trkpt lat="59.9851432" lon="17.7266025">
        <ele>31.8607</ele>
        <time>2014-04-03T19:03:14Z</time>
      </trkpt>
      <trkpt lat="59.9851708" lon="17.7266029">
        <ele>31.8607</ele>
        <time>2014-04-03T19:03:15Z</time>
      </trkpt>
      <trkpt lat="59.9851957" lon="17.7266046">
        <ele>31.3801</ele>
        <time>2014-04-03T19:03:16Z</time>
      </trkpt>
      <trkpt lat="59.9852237" lon="17.7266038">
        <ele>31.3801</ele>
        <time>2014-04-03T19:03:17Z</time>
      </trkpt>
      <trkpt lat="59.9852501" lon="17.7266025">
        <ele>30.8995</ele>
        <time>2014-04-03T19:03:18Z</time>
      </trkpt>
      <trkpt lat="59.985276" lon="17.7265982">
        <ele>30.8995</ele>
        <time>2014-04-03T19:03:19Z</time>
      </trkpt>
      <trkpt lat="59.9853025" lon="17.7265962">
        <ele>30.8995</ele>
        <time>2014-04-03T19:03:20Z</time>
      </trkpt>
      <trkpt lat="59.9853281" lon="17.7265957">
        <ele>30.8995</ele>
        <time>2014-04-03T19:03:21Z</time>
      </trkpt>
      <trkpt lat="59.9853556" lon="17.7265947">
        <ele>30.8995</ele>
        <time>2014-04-03T19:03:22Z</time>
      </trkpt>
      <trkpt lat="59.9853827" lon="17.7265951">
        <ele>30.8995</ele>
        <time>2014-04-03T19:03:23Z</time>
      </trkpt>
      <trkpt lat="59.985409" lon="17.7265948">
        <ele>30.8995</ele>
        <time>2014-04-03T19:03:24Z</time>
      </trkpt>
      <trkpt lat="59.9854355" lon="17.7265972">
        <ele>30.4188</ele>
        <time>2014-04-03T19:03:25Z</time>
      </trkpt>
      <trkpt lat="59.9854619" lon="17.7265953">
        <ele>30.4188</ele>
        <time>2014-04-03T19:03:26Z</time>
      </trkpt>
      <trkpt lat="59.9854895" lon="17.7265912">
        <ele>30.4188</ele>
        <time>2014-04-03T19:03:27Z</time>
      </trkpt>
      <trkpt lat="59.9855161" lon="17.7265881">
        <ele>29.9381</ele>
        <time>2014-04-03T19:03:28Z</time>
      </trkpt>
      <trkpt lat="59.9855432" lon="17.7265831">
        <ele>30.4188</ele>
        <time>2014-04-03T19:03:29Z</time>
      </trkpt>
      <trkpt lat="59.9855701" lon="17.7265831">
        <ele>29.9381</ele>
        <time>2014-04-03T19:03:30Z</time>
      </trkpt>
      <trkpt lat="59.9855999" lon="17.7265854">
        <ele>29.9381</ele>
        <time>2014-04-03T19:03:31Z</time>
      </trkpt>
      <trkpt lat="59.9856312" lon="17.726594">
        <ele>29.4575</ele>
        <time>2014-04-03T19:03:32Z</time>
      </trkpt>
      <trkpt lat="59.9856628" lon="17.7266005">
        <ele>28.9769</ele>
        <time>2014-04-03T19:03:33Z</time>
      </trkpt>
      <trkpt lat="59.985693" lon="17.7266038">
        <ele>28.4962</ele>
        <time>2014-04-03T19:03:34Z</time>
      </trkpt>
      <trkpt lat="59.9857216" lon="17.7266028">
        <ele>28.4962</ele>
        <time>2014-04-03T19:03:35Z</time>
      </trkpt>
      <trkpt lat="59.985749" lon="17.7266007">
        <ele>28.4962</ele>
        <time>2014-04-03T19:03:36Z</time>
      </trkpt>
      <trkpt lat="59.9857773" lon="17.7265999">
        <ele>28.4962</ele>
        <time>2014-04-03T19:03:37Z</time>
      </trkpt>
      <trkpt lat="59.9858044" lon="17.7265953">
        <ele>28.0155</ele>
        <time>2014-04-03T19:03:38Z</time>
      </trkpt>
      <trkpt lat="59.9858338" lon="17.7265878">
        <ele>28.0155</ele>
        <time>2014-04-03T19:03:39Z</time>
      </trkpt>
      <trkpt lat="59.9858603" lon="17.7265842">
        <ele>28.0155</ele>
        <time>2014-04-03T19:03:40Z</time>
      </trkpt>
      <trkpt lat="59.9858855" lon="17.7265836">
        <ele>28.0155</ele>
        <time>2014-04-03T19:03:41Z</time>
      </trkpt>
      <trkpt lat="59.9859137" lon="17.7265859">
        <ele>28.0155</ele>
        <time>2014-04-03T19:03:42Z</time>
      </trkpt>
      <trkpt lat="59.9859415" lon="17.7265885">
        <ele>28.0155</ele>
        <time>2014-04-03T19:03:43Z</time>
      </trkpt>
      <trkpt lat="59.9859675" lon="17.7265895">
        <ele>27.5349</ele>
        <time>2014-04-03T19:03:44Z</time>
      </trkpt>
      <trkpt lat="59.9859929" lon="17.7265905">
        <ele>27.5349</ele>
        <time>2014-04-03T19:03:45Z</time>
      </trkpt>
      <trkpt lat="59.9860188" lon="17.7265917">
        <ele>27.5349</ele>
        <time>2014-04-03T19:03:46Z</time>
      </trkpt>
      <trkpt lat="59.986045" lon="17.7265948">
        <ele>27.5349</ele>
        <time>2014-04-03T19:03:47Z</time>
      </trkpt>
      <trkpt lat="59.9860701" lon="17.7265941">
        <ele>27.5349</ele>
        <time>2014-04-03T19:03:48Z</time>
      </trkpt>
      <trkpt lat="59.9860968" lon="17.7265941">
        <ele>28.0155</ele>
        <time>2014-04-03T19:03:49Z</time>
      </trkpt>
      <trkpt lat="59.986123" lon="17.7265934">
        <ele>28.0155</ele>
        <time>2014-04-03T19:03:50Z</time>
      </trkpt>
      <trkpt lat="59.9861499" lon="17.7265921">
        <ele>28.0155</ele>
        <time>2014-04-03T19:03:51Z</time>
      </trkpt>
      <trkpt lat="59.9861772" lon="17.726593">
        <ele>28.0155</ele>
        <time>2014-04-03T19:03:52Z</time>
      </trkpt>
      <trkpt lat="59.9862031" lon="17.726594">
        <ele>28.0155</ele>
        <time>2014-04-03T19:03:53Z</time>
      </trkpt>
      <trkpt lat="59.9862308" lon="17.7265973">
        <ele>27.5349</ele>
        <time>2014-04-03T19:03:54Z</time>
      </trkpt>
      <trkpt lat="59.9862579" lon="17.7266012">
        <ele>27.5349</ele>
        <time>2014-04-03T19:03:55Z</time>
      </trkpt>
      <trkpt lat="59.9862854" lon="17.7266012">
        <ele>27.5349</ele>
        <time>2014-04-03T19:03:56Z</time>
      </trkpt>
      <trkpt lat="59.9863099" lon="17.726602">
        <ele>27.5349</ele>
        <time>2014-04-03T19:03:57Z</time>
      </trkpt>
      <trkpt lat="59.9863356" lon="17.7265973">
        <ele>27.5349</ele>
        <time>2014-04-03T19:03:58Z</time>
      </trkpt>
      <trkpt lat="59.9863621" lon="17.7265967">
        <ele>27.5349</ele>
        <time>2014-04-03T19:03:59Z</time>
      </trkpt>
      <trkpt lat="59.9863881" lon="17.7265952">
        <ele>27.5349</ele>
        <time>2014-04-03T19:04:00Z</time>
      </trkpt>
      <trkpt lat="59.9864151" lon="17.7265927">
        <ele>27.5349</ele>
        <time>2014-04-03T19:04:01Z</time>
      </trkpt>
      <trkpt lat="59.986442" lon="17.7265903">
        <ele>27.5349</ele>
        <time>2014-04-03T19:04:02Z</time>
      </trkpt>
      <trkpt lat="59.9864694" lon="17.7265854">
        <ele>27.5349</ele>
        <time>2014-04-03T19:04:03Z</time>
      </trkpt>
      <trkpt lat="59.9864963" lon="17.7265855">
        <ele>27.5349</ele>
        <time>2014-04-03T19:04:04Z</time>
      </trkpt>
      <trkpt lat="59.9865227" lon="17.7265829">
        <ele>27.5349</ele>
        <time>2014-04-03T19:04:05Z</time>
      </trkpt>
      <trkpt lat="59.9865494" lon="17.7265802">
        <ele>27.5349</ele>
        <time>2014-04-03T19:04:06Z</time>
      </trkpt>
      <trkpt lat="59.9865767" lon="17.726579">
        <ele>27.5349</ele>
        <time>2014-04-03T19:04:07Z</time>
      </trkpt>
      <trkpt lat="59.9866017" lon="17.7265755">
        <ele>27.5349</ele>
        <time>2014-04-03T19:04:08Z</time>
      </trkpt>
      <trkpt lat="59.9866296" lon="17.7265694">
        <ele>27.5349</ele>
        <time>2014-04-03T19:04:09Z</time>
      </trkpt>
      <trkpt lat="59.986656" lon="17.726563">
        <ele>27.5349</ele>
        <time>2014-04-03T19:04:10Z</time>
      </trkpt>
      <trkpt lat="59.9866832" lon="17.7265599">
        <ele>27.5349</ele>
        <time>2014-04-03T19:04:11Z</time>
      </trkpt>
      <trkpt lat="59.9867113" lon="17.7265615">
        <ele>27.5349</ele>
        <time>2014-04-03T19:04:12Z</time>
      </trkpt>
      <trkpt lat="59.9867394" lon="17.7265596">
        <ele>27.5349</ele>
        <time>2014-04-03T19:04:13Z</time>
      </trkpt>
      <trkpt lat="59.9867682" lon="17.7265553">
        <ele>27.5349</ele>
        <time>2014-04-03T19:04:14Z</time>
      </trkpt>
      <trkpt lat="59.9867969" lon="17.7265505">
        <ele>27.5349</ele>
        <time>2014-04-03T19:04:15Z</time>
      </trkpt>
      <trkpt lat="59.9868232" lon="17.7265466">
        <ele>27.5349</ele>
        <time>2014-04-03T19:04:16Z</time>
      </trkpt>
      <trkpt lat="59.9868507" lon="17.7265444">
        <ele>27.5349</ele>
        <time>2014-04-03T19:04:17Z</time>
      </trkpt>
      <trkpt lat="59.9868766" lon="17.726545">
        <ele>27.0543</ele>
        <time>2014-04-03T19:04:18Z</time>
      </trkpt>
      <trkpt lat="59.986902" lon="17.7265476">
        <ele>27.0543</ele>
        <time>2014-04-03T19:04:19Z</time>
      </trkpt>
      <trkpt lat="59.9869274" lon="17.726553">
        <ele>27.5349</ele>
        <time>2014-04-03T19:04:20Z</time>
      </trkpt>
      <trkpt lat="59.9869503" lon="17.7265574">
        <ele>27.0543</ele>
        <time>2014-04-03T19:04:21Z</time>
      </trkpt>
      <trkpt lat="59.9869764" lon="17.7265584">
        <ele>27.0543</ele>
        <time>2014-04-03T19:04:22Z</time>
      </trkpt>
      <trkpt lat="59.9870024" lon="17.7265613">
        <ele>27.0543</ele>
        <time>2014-04-03T19:04:23Z</time>
      </trkpt>
      <trkpt lat="59.9870275" lon="17.7265625">
        <ele>27.0543</ele>
        <time>2014-04-03T19:04:24Z</time>
      </trkpt>
      <trkpt lat="59.9870531" lon="17.726565">
        <ele>27.0543</ele>
        <time>2014-04-03T19:04:25Z</time>
      </trkpt>
      <trkpt lat="59.9870783" lon="17.7265677">
        <ele>27.0543</ele>
        <time>2014-04-03T19:04:26Z</time>
      </trkpt>
      <trkpt lat="59.9871046" lon="17.726567">
        <ele>27.0543</ele>
        <time>2014-04-03T19:04:27Z</time>
      </trkpt>
      <trkpt lat="59.9871315" lon="17.7265713">
        <ele>27.0543</ele>
        <time>2014-04-03T19:04:28Z</time>
      </trkpt>
      <trkpt lat="59.9871603" lon="17.7265715">
        <ele>27.0543</ele>
        <time>2014-04-03T19:04:29Z</time>
      </trkpt>
      <trkpt lat="59.9871889" lon="17.7265715">
        <ele>27.0543</ele>
        <time>2014-04-03T19:04:30Z</time>
      </trkpt>
      <trkpt lat="59.9872158" lon="17.7265765">
        <ele>26.5736</ele>
        <time>2014-04-03T19:04:31Z</time>
      </trkpt>
      <trkpt lat="59.9872418" lon="17.7265755">
        <ele>27.0543</ele>
        <time>2014-04-03T19:04:32Z</time>
      </trkpt>
      <trkpt lat="59.9872683" lon="17.7265762">
        <ele>27.0543</ele>
        <time>2014-04-03T19:04:33Z</time>
      </trkpt>
      <trkpt lat="59.987295" lon="17.726578">
        <ele>27.0543</ele>
        <time>2014-04-03T19:04:34Z</time>
      </trkpt>
      <trkpt lat="59.9873245" lon="17.7265772">
        <ele>27.0543</ele>
        <time>2014-04-03T19:04:35Z</time>
      </trkpt>
      <trkpt lat="59.9873543" lon="17.7265824">
        <ele>27.0543</ele>
        <time>2014-04-03T19:04:36Z</time>
      </trkpt>
      <trkpt lat="59.9873811" lon="17.7265869">
        <ele>27.0543</ele>
        <time>2014-04-03T19:04:37Z</time>
      </trkpt>
      <trkpt lat="59.987411" lon="17.7265859">
        <ele>26.5736</ele>
        <time>2014-04-03T19:04:38Z</time>
      </trkpt>
      <trkpt lat="59.9874413" lon="17.7265899">
        <ele>26.5736</ele>
        <time>2014-04-03T19:04:39Z</time>
      </trkpt>
      <trkpt lat="59.987469" lon="17.7265971">
        <ele>26.5736</ele>
        <time>2014-04-03T19:04:40Z</time>
      </trkpt>
      <trkpt lat="59.9874953" lon="17.7266046">
        <ele>26.5736</ele>
        <time>2014-04-03T19:04:41Z</time>
      </trkpt>
      <trkpt lat="59.9875221" lon="17.726603">
        <ele>26.5736</ele>
        <time>2014-04-03T19:04:42Z</time>
      </trkpt>
      <trkpt lat="59.987547" lon="17.7265971">
        <ele>26.5736</ele>
        <time>2014-04-03T19:04:43Z</time>
      </trkpt>
      <trkpt lat="59.9875753" lon="17.7265953">
        <ele>26.5736</ele>
        <time>2014-04-03T19:04:44Z</time>
      </trkpt>
      <trkpt lat="59.9876035" lon="17.7265937">
        <ele>26.5736</ele>
        <time>2014-04-03T19:04:45Z</time>
      </trkpt>
      <trkpt lat="59.9876288" lon="17.7265885">
        <ele>27.0543</ele>
        <time>2014-04-03T19:04:46Z</time>
      </trkpt>
      <trkpt lat="59.987655" lon="17.7265842">
        <ele>27.5349</ele>
        <time>2014-04-03T19:04:47Z</time>
      </trkpt>
      <trkpt lat="59.9876801" lon="17.7265805">
        <ele>28.0155</ele>
        <time>2014-04-03T19:04:48Z</time>
      </trkpt>
      <trkpt lat="59.9877047" lon="17.7265729">
        <ele>28.0155</ele>
        <time>2014-04-03T19:04:49Z</time>
      </trkpt>
      <trkpt lat="59.9877314" lon="17.7265708">
        <ele>28.4962</ele>
        <time>2014-04-03T19:04:50Z</time>
      </trkpt>
      <trkpt lat="59.9877573" lon="17.7265705">
        <ele>28.0155</ele>
        <time>2014-04-03T19:04:51Z</time>
      </trkpt>
      <trkpt lat="59.9877867" lon="17.726571">
        <ele>28.4962</ele>
        <time>2014-04-03T19:04:52Z</time>
      </trkpt>
      <trkpt lat="59.9878135" lon="17.7265688">
        <ele>28.4962</ele>
        <time>2014-04-03T19:04:53Z</time>
      </trkpt>
      <trkpt lat="59.9878406" lon="17.7265647">
        <ele>28.4962</ele>
        <time>2014-04-03T19:04:54Z</time>
      </trkpt>
      <trkpt lat="59.98787" lon="17.7265679">
        <ele>28.4962</ele>
        <time>2014-04-03T19:04:55Z</time>
      </trkpt>
      <trkpt lat="59.9878978" lon="17.7265663">
        <ele>28.4962</ele>
        <time>2014-04-03T19:04:56Z</time>
      </trkpt>
      <trkpt lat="59.9879247" lon="17.7265636">
        <ele>28.9769</ele>
        <time>2014-04-03T19:04:57Z</time>
      </trkpt>
      <trkpt lat="59.9879513" lon="17.7265589">
        <ele>28.9769</ele>
        <time>2014-04-03T19:04:58Z</time>
      </trkpt>
      <trkpt lat="59.9879773" lon="17.7265541">
        <ele>28.9769</ele>
        <time>2014-04-03T19:04:59Z</time>
      </trkpt>
      <trkpt lat="59.988006" lon="17.7265565">
        <ele>28.9769</ele>
        <time>2014-04-03T19:05:00Z</time>
      </trkpt>
      <trkpt lat="59.9880343" lon="17.7265582">
        <ele>28.9769</ele>
        <time>2014-04-03T19:05:01Z</time>
      </trkpt>
      <trkpt lat="59.9880619" lon="17.7265562">
        <ele>28.9769</ele>
        <time>2014-04-03T19:05:02Z</time>
      </trkpt>
      <trkpt lat="59.9880883" lon="17.7265553">
        <ele>28.9769</ele>
        <time>2014-04-03T19:05:03Z</time>
      </trkpt>
      <trkpt lat="59.9881131" lon="17.7265508">
        <ele>29.4575</ele>
        <time>2014-04-03T19:05:04Z</time>
      </trkpt>
      <trkpt lat="59.9881402" lon="17.7265449">
        <ele>29.9381</ele>
        <time>2014-04-03T19:05:05Z</time>
      </trkpt>
      <trkpt lat="59.9881674" lon="17.7265336">
        <ele>29.4575</ele>
        <time>2014-04-03T19:05:06Z</time>
      </trkpt>
      <trkpt lat="59.9881948" lon="17.7265246">
        <ele>29.4575</ele>
        <time>2014-04-03T19:05:07Z</time>
      </trkpt>
      <trkpt lat="59.9882224" lon="17.7265247">
        <ele>29.4575</ele>
        <time>2014-04-03T19:05:08Z</time>
      </trkpt>
      <trkpt lat="59.9882483" lon="17.7265288">
        <ele>29.4575</ele>
        <time>2014-04-03T19:05:09Z</time>
      </trkpt>
      <trkpt lat="59.9882766" lon="17.7265294">
        <ele>29.4575</ele>
        <time>2014-04-03T19:05:10Z</time>
      </trkpt>
      <trkpt lat="59.9883036" lon="17.7265274">
        <ele>28.9769</ele>
        <time>2014-04-03T19:05:11Z</time>
      </trkpt>
      <trkpt lat="59.9883321" lon="17.7265275">
        <ele>28.9769</ele>
        <time>2014-04-03T19:05:12Z</time>
      </trkpt>
      <trkpt lat="59.9883582" lon="17.726529">
        <ele>28.9769</ele>
        <time>2014-04-03T19:05:13Z</time>
      </trkpt>
      <trkpt lat="59.9883831" lon="17.7265235">
        <ele>28.9769</ele>
        <time>2014-04-03T19:05:14Z</time>
      </trkpt>
      <trkpt lat="59.988411" lon="17.7265185">
        <ele>29.4575</ele>
        <time>2014-04-03T19:05:15Z</time>
      </trkpt>
      <trkpt lat="59.9884369" lon="17.7265163">
        <ele>29.4575</ele>
        <time>2014-04-03T19:05:16Z</time>
      </trkpt>
      <trkpt lat="59.9884654" lon="17.7265114">
        <ele>29.9381</ele>
        <time>2014-04-03T19:05:17Z</time>
      </trkpt>
      <trkpt lat="59.9884942" lon="17.7265166">
        <ele>29.4575</ele>
        <time>2014-04-03T19:05:18Z</time>
      </trkpt>
      <trkpt lat="59.9885216" lon="17.7265216">
        <ele>29.4575</ele>
        <time>2014-04-03T19:05:19Z</time>
      </trkpt>
      <trkpt lat="59.9885494" lon="17.7265247">
        <ele>29.9381</ele>
        <time>2014-04-03T19:05:20Z</time>
      </trkpt>
      <trkpt lat="59.9885765" lon="17.7265259">
        <ele>29.4575</ele>
        <time>2014-04-03T19:05:21Z</time>
      </trkpt>
      <trkpt lat="59.9886043" lon="17.7265264">
        <ele>29.4575</ele>
        <time>2014-04-03T19:05:22Z</time>
      </trkpt>
      <trkpt lat="59.9886313" lon="17.7265279">
        <ele>29.4575</ele>
        <time>2014-04-03T19:05:23Z</time>
      </trkpt>
      <trkpt lat="59.9886548" lon="17.726528">
        <ele>29.4575</ele>
        <time>2014-04-03T19:05:24Z</time>
      </trkpt>
      <trkpt lat="59.9886798" lon="17.7265243">
        <ele>29.4575</ele>
        <time>2014-04-03T19:05:25Z</time>
      </trkpt>
      <trkpt lat="59.9887033" lon="17.7265225">
        <ele>29.4575</ele>
        <time>2014-04-03T19:05:26Z</time>
      </trkpt>
      <trkpt lat="59.9887264" lon="17.7265206">
        <ele>29.9381</ele>
        <time>2014-04-03T19:05:27Z</time>
      </trkpt>
      <trkpt lat="59.9887501" lon="17.7265168">
        <ele>30.4188</ele>
        <time>2014-04-03T19:05:28Z</time>
      </trkpt>
      <trkpt lat="59.9887736" lon="17.7265158">
        <ele>29.9381</ele>
        <time>2014-04-03T19:05:29Z</time>
      </trkpt>
      <trkpt lat="59.9887995" lon="17.7265123">
        <ele>29.9381</ele>
        <time>2014-04-03T19:05:30Z</time>
      </trkpt>
      <trkpt lat="59.9888268" lon="17.7265144">
        <ele>29.4575</ele>
        <time>2014-04-03T19:05:31Z</time>
      </trkpt>
      <trkpt lat="59.9888533" lon="17.7265183">
        <ele>29.4575</ele>
        <time>2014-04-03T19:05:32Z</time>
      </trkpt>
      <trkpt lat="59.9888786" lon="17.7265165">
        <ele>29.4575</ele>
        <time>2014-04-03T19:05:33Z</time>
      </trkpt>
      <trkpt lat="59.9889048" lon="17.7265211">
        <ele>28.9769</ele>
        <time>2014-04-03T19:05:34Z</time>
      </trkpt>
      <trkpt lat="59.9889307" lon="17.7265252">
        <ele>28.4962</ele>
        <time>2014-04-03T19:05:35Z</time>
      </trkpt>
      <trkpt lat="59.9889565" lon="17.7265235">
        <ele>28.9769</ele>
        <time>2014-04-03T19:05:36Z</time>
      </trkpt>
      <trkpt lat="59.9889799" lon="17.7265258">
        <ele>28.4962</ele>
        <time>2014-04-03T19:05:37Z</time>
      </trkpt>
      <trkpt lat="59.9890031" lon="17.7265344">
        <ele>28.4962</ele>
        <time>2014-04-03T19:05:38Z</time>
      </trkpt>
      <trkpt lat="59.989029" lon="17.7265496">
        <ele>28.9769</ele>
        <time>2014-04-03T19:05:39Z</time>
      </trkpt>
      <trkpt lat="59.9890542" lon="17.7265591">
        <ele>28.4962</ele>
        <time>2014-04-03T19:05:40Z</time>
      </trkpt>
      <trkpt lat="59.989079" lon="17.726561">
        <ele>28.4962</ele>
        <time>2014-04-03T19:05:41Z</time>
      </trkpt>
      <trkpt lat="59.9891054" lon="17.7265653">
        <ele>28.4962</ele>
        <time>2014-04-03T19:05:42Z</time>
      </trkpt>
      <trkpt lat="59.9891298" lon="17.7265673">
        <ele>28.9769</ele>
        <time>2014-04-03T19:05:43Z</time>
      </trkpt>
      <trkpt lat="59.9891568" lon="17.7265673">
        <ele>28.9769</ele>
        <time>2014-04-03T19:05:44Z</time>
      </trkpt>
      <trkpt lat="59.9891844" lon="17.7265658">
        <ele>28.9769</ele>
        <time>2014-04-03T19:05:45Z</time>
      </trkpt>
      <trkpt lat="59.9892104" lon="17.7265671">
        <ele>28.9769</ele>
        <time>2014-04-03T19:05:46Z</time>
      </trkpt>
      <trkpt lat="59.9892391" lon="17.7265718">
        <ele>28.9769</ele>
        <time>2014-04-03T19:05:47Z</time>
      </trkpt>
      <trkpt lat="59.9892667" lon="17.7265694">
        <ele>28.9769</ele>
        <time>2014-04-03T19:05:48Z</time>
      </trkpt>
      <trkpt lat="59.9892962" lon="17.7265665">
        <ele>28.9769</ele>
        <time>2014-04-03T19:05:49Z</time>
      </trkpt>
      <trkpt lat="59.9893242" lon="17.7265667">
        <ele>28.9769</ele>
        <time>2014-04-03T19:05:50Z</time>
      </trkpt>
      <trkpt lat="59.9893517" lon="17.7265651">
        <ele>28.4962</ele>
        <time>2014-04-03T19:05:51Z</time>
      </trkpt>
      <trkpt lat="59.9893808" lon="17.7265684">
        <ele>28.4962</ele>
        <time>2014-04-03T19:05:52Z</time>
      </trkpt>
      <trkpt lat="59.9894074" lon="17.7265673">
        <ele>28.4962</ele>
        <time>2014-04-03T19:05:53Z</time>
      </trkpt>
      <trkpt lat="59.9894331" lon="17.7265739">
        <ele>28.0155</ele>
        <time>2014-04-03T19:05:54Z</time>
      </trkpt>
      <trkpt lat="59.9894574" lon="17.7265823">
        <ele>28.0155</ele>
        <time>2014-04-03T19:05:55Z</time>
      </trkpt>
      <trkpt lat="59.9894795" lon="17.7265893">
        <ele>28.0155</ele>
        <time>2014-04-03T19:05:56Z</time>
      </trkpt>
      <trkpt lat="59.9895007" lon="17.7266002">
        <ele>27.5349</ele>
        <time>2014-04-03T19:05:57Z</time>
      </trkpt>
      <trkpt lat="59.9895256" lon="17.7265993">
        <ele>27.0543</ele>
        <time>2014-04-03T19:05:58Z</time>
      </trkpt>
      <trkpt lat="59.9895504" lon="17.7265857">
        <ele>27.5349</ele>
        <time>2014-04-03T19:05:59Z</time>
      </trkpt>
      <trkpt lat="59.9895722" lon="17.7265735">
        <ele>26.5736</ele>
        <time>2014-04-03T19:06:00Z</time>
      </trkpt>
      <trkpt lat="59.9896001" lon="17.7265517">
        <ele>26.5736</ele>
        <time>2014-04-03T19:06:01Z</time>
      </trkpt>
      <trkpt lat="59.9896261" lon="17.7265347">
        <ele>26.5736</ele>
        <time>2014-04-03T19:06:02Z</time>
      </trkpt>
      <trkpt lat="59.9896547" lon="17.7265256">
        <ele>26.5736</ele>
        <time>2014-04-03T19:06:03Z</time>
      </trkpt>
      <trkpt lat="59.9896796" lon="17.7265346">
        <ele>26.0929</ele>
        <time>2014-04-03T19:06:04Z</time>
      </trkpt>
      <trkpt lat="59.9896988" lon="17.7265727">
        <ele>26.5736</ele>
        <time>2014-04-03T19:06:05Z</time>
      </trkpt>
      <trkpt lat="59.9897002" lon="17.7266238">
        <ele>26.0929</ele>
        <time>2014-04-03T19:06:06Z</time>
      </trkpt>
      <trkpt lat="59.9896919" lon="17.726674">
        <ele>26.0929</ele>
        <time>2014-04-03T19:06:07Z</time>
      </trkpt>
      <trkpt lat="59.9896874" lon="17.7267274">
        <ele>26.5736</ele>
        <time>2014-04-03T19:06:08Z</time>
      </trkpt>
      <trkpt lat="59.9896797" lon="17.7267827">
        <ele>26.5736</ele>
        <time>2014-04-03T19:06:09Z</time>
      </trkpt>
      <trkpt lat="59.9896728" lon="17.7268352">
        <ele>27.0543</ele>
        <time>2014-04-03T19:06:10Z</time>
      </trkpt>
      <trkpt lat="59.9896659" lon="17.7268889">
        <ele>27.0543</ele>
        <time>2014-04-03T19:06:11Z</time>
      </trkpt>
      <trkpt lat="59.9896629" lon="17.7269449">
        <ele>27.0543</ele>
        <time>2014-04-03T19:06:12Z</time>
      </trkpt>
      <trkpt lat="59.9896542" lon="17.7270013">
        <ele>27.0543</ele>
        <time>2014-04-03T19:06:13Z</time>
      </trkpt>
      <trkpt lat="59.9896429" lon="17.7270589">
        <ele>27.5349</ele>
        <time>2014-04-03T19:06:14Z</time>
      </trkpt>
      <trkpt lat="59.989633" lon="17.7271146">
        <ele>28.0155</ele>
        <time>2014-04-03T19:06:15Z</time>
      </trkpt>
      <trkpt lat="59.9896201" lon="17.727165">
        <ele>30.8995</ele>
        <time>2014-04-03T19:06:44Z</time>
      </trkpt>
      <trkpt lat="59.9896168" lon="17.7271734">
        <ele>30.4188</ele>
        <time>2014-04-03T19:06:45Z</time>
      </trkpt>
      <trkpt lat="59.9896129" lon="17.7271928">
        <ele>30.8995</ele>
        <time>2014-04-03T19:06:46Z</time>
      </trkpt>
      <trkpt lat="59.9896054" lon="17.7272283">
        <ele>31.8607</ele>
        <time>2014-04-03T19:06:47Z</time>
      </trkpt>
      <trkpt lat="59.9895956" lon="17.7272754">
        <ele>31.8607</ele>
        <time>2014-04-03T19:06:48Z</time>
      </trkpt>
      <trkpt lat="59.9895905" lon="17.727329">
        <ele>31.3801</ele>
        <time>2014-04-03T19:06:49Z</time>
      </trkpt>
      <trkpt lat="59.989591" lon="17.7273863">
        <ele>32.3416</ele>
        <time>2014-04-03T19:06:50Z</time>
      </trkpt>
      <trkpt lat="59.9895864" lon="17.727451">
        <ele>32.3416</ele>
        <time>2014-04-03T19:06:51Z</time>
      </trkpt>
      <trkpt lat="59.9895822" lon="17.7275168">
        <ele>32.8223</ele>
        <time>2014-04-03T19:06:52Z</time>
      </trkpt>
      <trkpt lat="59.9895834" lon="17.7275778">
        <ele>33.3029</ele>
        <time>2014-04-03T19:06:53Z</time>
      </trkpt>
      <trkpt lat="59.9895781" lon="17.7276336">
        <ele>32.8223</ele>
        <time>2014-04-03T19:06:54Z</time>
      </trkpt>
      <trkpt lat="59.9895787" lon="17.7276883">
        <ele>33.3029</ele>
        <time>2014-04-03T19:06:55Z</time>
      </trkpt>
      <trkpt lat="59.9895782" lon="17.72775">
        <ele>34.2642</ele>
        <time>2014-04-03T19:06:56Z</time>
      </trkpt>
      <trkpt lat="59.9895719" lon="17.727812">
        <ele>33.7834</ele>
        <time>2014-04-03T19:06:57Z</time>
      </trkpt>
      <trkpt lat="59.9895636" lon="17.7278727">
        <ele>33.7834</ele>
        <time>2014-04-03T19:06:58Z</time>
      </trkpt>
      <trkpt lat="59.9895577" lon="17.7279317">
        <ele>33.3029</ele>
        <time>2014-04-03T19:06:59Z</time>
      </trkpt>
      <trkpt lat="59.9895538" lon="17.7279901">
        <ele>32.8223</ele>
        <time>2014-04-03T19:07:00Z</time>
      </trkpt>
      <trkpt lat="59.9895517" lon="17.7280467">
        <ele>33.3029</ele>
        <time>2014-04-03T19:07:01Z</time>
      </trkpt>
      <trkpt lat="59.9895568" lon="17.7281048">
        <ele>34.7449</ele>
        <time>2014-04-03T19:07:02Z</time>
      </trkpt>
      <trkpt lat="59.9895588" lon="17.7281599">
        <ele>34.7449</ele>
        <time>2014-04-03T19:07:03Z</time>
      </trkpt>
      <trkpt lat="59.9895592" lon="17.7282198">
        <ele>35.7061</ele>
        <time>2014-04-03T19:07:04Z</time>
      </trkpt>
      <trkpt lat="59.9895575" lon="17.728285">
        <ele>35.7061</ele>
        <time>2014-04-03T19:07:05Z</time>
      </trkpt>
      <trkpt lat="59.9895568" lon="17.7283519">
        <ele>37.1481</ele>
        <time>2014-04-03T19:07:06Z</time>
      </trkpt>
      <trkpt lat="59.9895542" lon="17.7284212">
        <ele>37.1481</ele>
        <time>2014-04-03T19:07:07Z</time>
      </trkpt>
      <trkpt lat="59.9895551" lon="17.7284857">
        <ele>37.6287</ele>
        <time>2014-04-03T19:07:08Z</time>
      </trkpt>
      <trkpt lat="59.9895574" lon="17.7285456">
        <ele>38.1094</ele>
        <time>2014-04-03T19:07:09Z</time>
      </trkpt>
      <trkpt lat="59.9895585" lon="17.728602">
        <ele>39.0707</ele>
        <time>2014-04-03T19:07:10Z</time>
      </trkpt>
      <trkpt lat="59.9895511" lon="17.7286546">
        <ele>39.5513</ele>
        <time>2014-04-03T19:07:11Z</time>
      </trkpt>
      <trkpt lat="59.9895407" lon="17.728709">
        <ele>40.0321</ele>
        <time>2014-04-03T19:07:12Z</time>
      </trkpt>
      <trkpt lat="59.9895257" lon="17.7287604">
        <ele>40.0321</ele>
        <time>2014-04-03T19:07:13Z</time>
      </trkpt>
      <trkpt lat="59.9895122" lon="17.7288138">
        <ele>40.5128</ele>
        <time>2014-04-03T19:07:14Z</time>
      </trkpt>
      <trkpt lat="59.989494" lon="17.7288709">
        <ele>40.0321</ele>
        <time>2014-04-03T19:07:15Z</time>
      </trkpt>
      <trkpt lat="59.9894733" lon="17.7289246">
        <ele>40.0321</ele>
        <time>2014-04-03T19:07:16Z</time>
      </trkpt>
      <trkpt lat="59.9894554" lon="17.7289718">
        <ele>40.5128</ele>
        <time>2014-04-03T19:07:17Z</time>
      </trkpt>
      <trkpt lat="59.9894325" lon="17.7290154">
        <ele>40.9934</ele>
        <time>2014-04-03T19:07:18Z</time>
      </trkpt>
      <trkpt lat="59.9894045" lon="17.7290538">
        <ele>41.474</ele>
        <time>2014-04-03T19:07:19Z</time>
      </trkpt>
      <trkpt lat="59.989374" lon="17.7290768">
        <ele>41.474</ele>
        <time>2014-04-03T19:07:20Z</time>
      </trkpt>
      <trkpt lat="59.9893481" lon="17.7291086">
        <ele>41.9547</ele>
        <time>2014-04-03T19:07:21Z</time>
      </trkpt>
      <trkpt lat="59.9893243" lon="17.7291288">
        <ele>41.9547</ele>
        <time>2014-04-03T19:07:22Z</time>
      </trkpt>
      <trkpt lat="59.9893035" lon="17.7291509">
        <ele>42.4354</ele>
        <time>2014-04-03T19:07:23Z</time>
      </trkpt>
      <trkpt lat="59.9892807" lon="17.7291872">
        <ele>42.916</ele>
        <time>2014-04-03T19:07:24Z</time>
      </trkpt>
      <trkpt lat="59.9892574" lon="17.7292381">
        <ele>43.8773</ele>
        <time>2014-04-03T19:07:25Z</time>
      </trkpt>
      <trkpt lat="59.9892361" lon="17.7292793">
        <ele>44.358</ele>
        <time>2014-04-03T19:07:26Z</time>
      </trkpt>
      <trkpt lat="59.989208" lon="17.7293092">
        <ele>44.358</ele>
        <time>2014-04-03T19:07:27Z</time>
      </trkpt>
      <trkpt lat="59.9891786" lon="17.7293426">
        <ele>44.358</ele>
        <time>2014-04-03T19:07:28Z</time>
      </trkpt>
      <trkpt lat="59.9891536" lon="17.7293811">
        <ele>45.3192</ele>
        <time>2014-04-03T19:07:29Z</time>
      </trkpt>
      <trkpt lat="59.9891231" lon="17.729413">
        <ele>44.358</ele>
        <time>2014-04-03T19:07:30Z</time>
      </trkpt>
      <trkpt lat="59.9890961" lon="17.729438">
        <ele>44.358</ele>
        <time>2014-04-03T19:07:31Z</time>
      </trkpt>
      <trkpt lat="59.9890725" lon="17.7294635">
        <ele>43.8773</ele>
        <time>2014-04-03T19:07:32Z</time>
      </trkpt>
      <trkpt lat="59.98905" lon="17.7294898">
        <ele>43.8773</ele>
        <time>2014-04-03T19:07:33Z</time>
      </trkpt>
      <trkpt lat="59.9890249" lon="17.7295125">
        <ele>42.916</ele>
        <time>2014-04-03T19:07:34Z</time>
      </trkpt>
      <trkpt lat="59.9890051" lon="17.7295375">
        <ele>42.916</ele>
        <time>2014-04-03T19:07:35Z</time>
      </trkpt>
      <trkpt lat="59.9889823" lon="17.7295619">
        <ele>42.4354</ele>
        <time>2014-04-03T19:07:36Z</time>
      </trkpt>
      <trkpt lat="59.9889543" lon="17.7295883">
        <ele>42.4354</ele>
        <time>2014-04-03T19:07:37Z</time>
      </trkpt>
      <trkpt lat="59.9889259" lon="17.7296252">
        <ele>42.4354</ele>
        <time>2014-04-03T19:07:38Z</time>
      </trkpt>
      <trkpt lat="59.9889011" lon="17.7296561">
        <ele>42.4354</ele>
        <time>2014-04-03T19:07:39Z</time>
      </trkpt>
      <trkpt lat="59.9888757" lon="17.7296841">
        <ele>41.9547</ele>
        <time>2014-04-03T19:07:40Z</time>
      </trkpt>
      <trkpt lat="59.9888485" lon="17.7297147">
        <ele>41.9547</ele>
        <time>2014-04-03T19:07:41Z</time>
      </trkpt>
      <trkpt lat="59.9888255" lon="17.7297549">
        <ele>42.4354</ele>
        <time>2014-04-03T19:07:42Z</time>
      </trkpt>
      <trkpt lat="59.9888062" lon="17.7297881">
        <ele>42.916</ele>
        <time>2014-04-03T19:07:43Z</time>
      </trkpt>
      <trkpt lat="59.9887912" lon="17.7298255">
        <ele>44.358</ele>
        <time>2014-04-03T19:07:44Z</time>
      </trkpt>
      <trkpt lat="59.9887739" lon="17.7298601">
        <ele>44.8386</ele>
        <time>2014-04-03T19:07:45Z</time>
      </trkpt>
      <trkpt lat="59.988755" lon="17.7298887">
        <ele>44.8386</ele>
        <time>2014-04-03T19:07:46Z</time>
      </trkpt>
      <trkpt lat="59.9887395" lon="17.7299322">
        <ele>47.7225</ele>
        <time>2014-04-03T19:07:47Z</time>
      </trkpt>
      <trkpt lat="59.9887192" lon="17.7299641">
        <ele>48.684</ele>
        <time>2014-04-03T19:07:48Z</time>
      </trkpt>
      <trkpt lat="59.988703" lon="17.7299944">
        <ele>50.126</ele>
        <time>2014-04-03T19:07:49Z</time>
      </trkpt>
      <trkpt lat="59.9886875" lon="17.7300185">
        <ele>52.0486</ele>
        <time>2014-04-03T19:07:50Z</time>
      </trkpt>
      <trkpt lat="59.9886663" lon="17.7300488">
        <ele>53.0098</ele>
        <time>2014-04-03T19:07:51Z</time>
      </trkpt>
      <trkpt lat="59.9886399" lon="17.7300862">
        <ele>53.4905</ele>
        <time>2014-04-03T19:07:52Z</time>
      </trkpt>
      <trkpt lat="59.9886145" lon="17.7301079">
        <ele>53.4905</ele>
        <time>2014-04-03T19:07:53Z</time>
      </trkpt>
      <trkpt lat="59.9885927" lon="17.7301291">
        <ele>53.4905</ele>
        <time>2014-04-03T19:07:54Z</time>
      </trkpt>
      <trkpt lat="59.9885653" lon="17.7301515">
        <ele>53.4905</ele>
        <time>2014-04-03T19:07:55Z</time>
      </trkpt>
      <trkpt lat="59.988538" lon="17.7301776">
        <ele>53.9712</ele>
        <time>2014-04-03T19:07:56Z</time>
      </trkpt>
      <trkpt lat="59.9885098" lon="17.7302112">
        <ele>53.4905</ele>
        <time>2014-04-03T19:07:57Z</time>
      </trkpt>
      <trkpt lat="59.9884773" lon="17.7302383">
        <ele>52.5292</ele>
        <time>2014-04-03T19:07:58Z</time>
      </trkpt>
      <trkpt lat="59.9884493" lon="17.7302678">
        <ele>53.0098</ele>
        <time>2014-04-03T19:07:59Z</time>
      </trkpt>
      <trkpt lat="59.9884146" lon="17.7302881">
        <ele>53.0098</ele>
        <time>2014-04-03T19:08:00Z</time>
      </trkpt>
      <trkpt lat="59.9883888" lon="17.7303214">
        <ele>53.4905</ele>
        <time>2014-04-03T19:08:01Z</time>
      </trkpt>
      <trkpt lat="59.9883675" lon="17.7303466">
        <ele>53.0098</ele>
        <time>2014-04-03T19:08:02Z</time>
      </trkpt>
      <trkpt lat="59.9883495" lon="17.7303704">
        <ele>52.5292</ele>
        <time>2014-04-03T19:08:03Z</time>
      </trkpt>
      <trkpt lat="59.9883281" lon="17.7303926">
        <ele>51.5679</ele>
        <time>2014-04-03T19:08:04Z</time>
      </trkpt>
      <trkpt lat="59.9883074" lon="17.7304319">
        <ele>51.0872</ele>
        <time>2014-04-03T19:08:05Z</time>
      </trkpt>
      <trkpt lat="59.9882882" lon="17.7304688">
        <ele>50.6066</ele>
        <time>2014-04-03T19:08:06Z</time>
      </trkpt>
      <trkpt lat="59.9882674" lon="17.7304967">
        <ele>50.126</ele>
        <time>2014-04-03T19:08:07Z</time>
      </trkpt>
      <trkpt lat="59.9882489" lon="17.7305212">
        <ele>49.6453</ele>
        <time>2014-04-03T19:08:08Z</time>
      </trkpt>
      <trkpt lat="59.9882333" lon="17.7305553">
        <ele>49.1646</ele>
        <time>2014-04-03T19:08:09Z</time>
      </trkpt>
      <trkpt lat="59.9882117" lon="17.7305904">
        <ele>48.684</ele>
        <time>2014-04-03T19:08:10Z</time>
      </trkpt>
      <trkpt lat="59.9881915" lon="17.7306251">
        <ele>48.2034</ele>
        <time>2014-04-03T19:08:11Z</time>
      </trkpt>
      <trkpt lat="59.9881717" lon="17.7306555">
        <ele>47.2418</ele>
        <time>2014-04-03T19:08:12Z</time>
      </trkpt>
      <trkpt lat="59.9881524" lon="17.7306869">
        <ele>46.2806</ele>
        <time>2014-04-03T19:08:13Z</time>
      </trkpt>
      <trkpt lat="59.9881359" lon="17.7307242">
        <ele>45.3192</ele>
        <time>2014-04-03T19:08:14Z</time>
      </trkpt>
      <trkpt lat="59.9881245" lon="17.7307676">
        <ele>45.3192</ele>
        <time>2014-04-03T19:08:15Z</time>
      </trkpt>
      <trkpt lat="59.9881081" lon="17.7308004">
        <ele>43.3966</ele>
        <time>2014-04-03T19:08:16Z</time>
      </trkpt>
      <trkpt lat="59.9880924" lon="17.7308289">
        <ele>42.4354</ele>
        <time>2014-04-03T19:08:17Z</time>
      </trkpt>
      <trkpt lat="59.9880769" lon="17.7308595">
        <ele>41.9547</ele>
        <time>2014-04-03T19:08:18Z</time>
      </trkpt>
      <trkpt lat="59.9880644" lon="17.7308963">
        <ele>42.916</ele>
        <time>2014-04-03T19:08:19Z</time>
      </trkpt>
      <trkpt lat="59.9880477" lon="17.7309271">
        <ele>43.3966</ele>
        <time>2014-04-03T19:08:20Z</time>
      </trkpt>
      <trkpt lat="59.9880243" lon="17.7309558">
        <ele>42.4354</ele>
        <time>2014-04-03T19:08:21Z</time>
      </trkpt>
      <trkpt lat="59.9880023" lon="17.7309948">
        <ele>41.9547</ele>
        <time>2014-04-03T19:08:22Z</time>
      </trkpt>
      <trkpt lat="59.9879832" lon="17.731037">
        <ele>42.916</ele>
        <time>2014-04-03T19:08:23Z</time>
      </trkpt>
      <trkpt lat="59.9879599" lon="17.7310685">
        <ele>42.4354</ele>
        <time>2014-04-03T19:08:24Z</time>
      </trkpt>
      <trkpt lat="59.9879356" lon="17.7311117">
        <ele>42.4354</ele>
        <time>2014-04-03T19:08:25Z</time>
      </trkpt>
      <trkpt lat="59.9879164" lon="17.731145">
        <ele>42.4354</ele>
        <time>2014-04-03T19:08:26Z</time>
      </trkpt>
      <trkpt lat="59.9878971" lon="17.7311828">
        <ele>41.9547</ele>
        <time>2014-04-03T19:08:27Z</time>
      </trkpt>
      <trkpt lat="59.9878767" lon="17.7312179">
        <ele>41.474</ele>
        <time>2014-04-03T19:08:28Z</time>
      </trkpt>
      <trkpt lat="59.987854" lon="17.7312552">
        <ele>41.474</ele>
        <time>2014-04-03T19:08:29Z</time>
      </trkpt>
      <trkpt lat="59.9878309" lon="17.7313001">
        <ele>42.4354</ele>
        <time>2014-04-03T19:08:30Z</time>
      </trkpt>
      <trkpt lat="59.987807" lon="17.7313369">
        <ele>42.4354</ele>
        <time>2014-04-03T19:08:31Z</time>
      </trkpt>
      <trkpt lat="59.9877877" lon="17.7313749">
        <ele>42.4354</ele>
        <time>2014-04-03T19:08:32Z</time>
      </trkpt>
      <trkpt lat="59.9877692" lon="17.7314054">
        <ele>42.4354</ele>
        <time>2014-04-03T19:08:33Z</time>
      </trkpt>
      <trkpt lat="59.9877503" lon="17.7314381">
        <ele>41.9547</ele>
        <time>2014-04-03T19:08:34Z</time>
      </trkpt>
      <trkpt lat="59.9877297" lon="17.7314712">
        <ele>41.474</ele>
        <time>2014-04-03T19:08:35Z</time>
      </trkpt>
      <trkpt lat="59.9877099" lon="17.7315137">
        <ele>41.474</ele>
        <time>2014-04-03T19:08:36Z</time>
      </trkpt>
      <trkpt lat="59.9876892" lon="17.731554">
        <ele>41.9547</ele>
        <time>2014-04-03T19:08:37Z</time>
      </trkpt>
      <trkpt lat="59.987667" lon="17.7315798">
        <ele>40.5128</ele>
        <time>2014-04-03T19:08:38Z</time>
      </trkpt>
      <trkpt lat="59.9876568" lon="17.7316303">
        <ele>43.8773</ele>
        <time>2014-04-03T19:08:39Z</time>
      </trkpt>
      <trkpt lat="59.9876391" lon="17.7316598">
        <ele>43.3966</ele>
        <time>2014-04-03T19:08:40Z</time>
      </trkpt>
      <trkpt lat="59.9876189" lon="17.7316826">
        <ele>42.4354</ele>
        <time>2014-04-03T19:08:41Z</time>
      </trkpt>
      <trkpt lat="59.9875985" lon="17.7316898">
        <ele>41.474</ele>
        <time>2014-04-03T19:08:42Z</time>
      </trkpt>
      <trkpt lat="59.9875801" lon="17.7317069">
        <ele>41.474</ele>
        <time>2014-04-03T19:08:43Z</time>
      </trkpt>
      <trkpt lat="59.9875604" lon="17.7317331">
        <ele>41.474</ele>
        <time>2014-04-03T19:08:44Z</time>
      </trkpt>
      <trkpt lat="59.98754" lon="17.7317552">
        <ele>40.9934</ele>
        <time>2014-04-03T19:08:45Z</time>
      </trkpt>
      <trkpt lat="59.9875164" lon="17.731782">
        <ele>40.9934</ele>
        <time>2014-04-03T19:08:46Z</time>
      </trkpt>
      <trkpt lat="59.9874926" lon="17.7318142">
        <ele>40.5128</ele>
        <time>2014-04-03T19:08:47Z</time>
      </trkpt>
      <trkpt lat="59.9874754" lon="17.7318572">
        <ele>41.474</ele>
        <time>2014-04-03T19:08:48Z</time>
      </trkpt>
      <trkpt lat="59.9874548" lon="17.7318975">
        <ele>41.9547</ele>
        <time>2014-04-03T19:08:49Z</time>
      </trkpt>
      <trkpt lat="59.9874283" lon="17.731935">
        <ele>40.9934</ele>
        <time>2014-04-03T19:08:50Z</time>
      </trkpt>
      <trkpt lat="59.9874101" lon="17.7319722">
        <ele>40.9934</ele>
        <time>2014-04-03T19:08:51Z</time>
      </trkpt>
      <trkpt lat="59.987389" lon="17.7320127">
        <ele>40.5128</ele>
        <time>2014-04-03T19:08:52Z</time>
      </trkpt>
      <trkpt lat="59.9873682" lon="17.7320664">
        <ele>40.0321</ele>
        <time>2014-04-03T19:08:53Z</time>
      </trkpt>
      <trkpt lat="59.9873494" lon="17.7321238">
        <ele>40.0321</ele>
        <time>2014-04-03T19:08:54Z</time>
      </trkpt>
      <trkpt lat="59.987338" lon="17.7321892">
        <ele>41.474</ele>
        <time>2014-04-03T19:08:55Z</time>
      </trkpt>
      <trkpt lat="59.9873253" lon="17.732239">
        <ele>41.474</ele>
        <time>2014-04-03T19:08:56Z</time>
      </trkpt>
      <trkpt lat="59.9873092" lon="17.7322803">
        <ele>40.5128</ele>
        <time>2014-04-03T19:08:57Z</time>
      </trkpt>
      <trkpt lat="59.9872905" lon="17.7323218">
        <ele>39.5513</ele>
        <time>2014-04-03T19:08:58Z</time>
      </trkpt>
      <trkpt lat="59.9872755" lon="17.7323603">
        <ele>39.0707</ele>
        <time>2014-04-03T19:08:59Z</time>
      </trkpt>
      <trkpt lat="59.9872665" lon="17.7324029">
        <ele>39.5513</ele>
        <time>2014-04-03T19:09:00Z</time>
      </trkpt>
      <trkpt lat="59.9872556" lon="17.7324517">
        <ele>39.0707</ele>
        <time>2014-04-03T19:09:01Z</time>
      </trkpt>
      <trkpt lat="59.9872413" lon="17.7324999">
        <ele>38.1094</ele>
        <time>2014-04-03T19:09:02Z</time>
      </trkpt>
      <trkpt lat="59.9872315" lon="17.7325434">
        <ele>38.1094</ele>
        <time>2014-04-03T19:09:03Z</time>
      </trkpt>
      <trkpt lat="59.9872272" lon="17.7325927">
        <ele>39.0707</ele>
        <time>2014-04-03T19:09:04Z</time>
      </trkpt>
      <trkpt lat="59.9872225" lon="17.7326369">
        <ele>38.5901</ele>
        <time>2014-04-03T19:09:05Z</time>
      </trkpt>
      <trkpt lat="59.9872181" lon="17.7326894">
        <ele>38.5901</ele>
        <time>2014-04-03T19:09:06Z</time>
      </trkpt>
      <trkpt lat="59.9872097" lon="17.7327374">
        <ele>39.0707</ele>
        <time>2014-04-03T19:09:07Z</time>
      </trkpt>
      <trkpt lat="59.987203" lon="17.7327802">
        <ele>39.5513</ele>
        <time>2014-04-03T19:09:08Z</time>
      </trkpt>
      <trkpt lat="59.9871963" lon="17.7328215">
        <ele>39.5513</ele>
        <time>2014-04-03T19:09:09Z</time>
      </trkpt>
      <trkpt lat="59.9871854" lon="17.7328668">
        <ele>38.5901</ele>
        <time>2014-04-03T19:09:10Z</time>
      </trkpt>
      <trkpt lat="59.9871784" lon="17.7329113">
        <ele>38.5901</ele>
        <time>2014-04-03T19:09:11Z</time>
      </trkpt>
      <trkpt lat="59.9871728" lon="17.732952">
        <ele>38.1094</ele>
        <time>2014-04-03T19:09:12Z</time>
      </trkpt>
      <trkpt lat="59.9871662" lon="17.7329938">
        <ele>38.1094</ele>
        <time>2014-04-03T19:09:13Z</time>
      </trkpt>
      <trkpt lat="59.9871548" lon="17.7330388">
        <ele>38.1094</ele>
        <time>2014-04-03T19:09:14Z</time>
      </trkpt>
      <trkpt lat="59.9871424" lon="17.7330911">
        <ele>38.5901</ele>
        <time>2014-04-03T19:09:15Z</time>
      </trkpt>
      <trkpt lat="59.9871288" lon="17.7331434">
        <ele>39.0707</ele>
        <time>2014-04-03T19:09:16Z</time>
      </trkpt>
      <trkpt lat="59.9871155" lon="17.7331929">
        <ele>39.0707</ele>
        <time>2014-04-03T19:09:17Z</time>
      </trkpt>
      <trkpt lat="59.9871062" lon="17.7332422">
        <ele>39.5513</ele>
        <time>2014-04-03T19:09:18Z</time>
      </trkpt>
      <trkpt lat="59.9870973" lon="17.733294">
        <ele>40.0321</ele>
        <time>2014-04-03T19:09:19Z</time>
      </trkpt>
      <trkpt lat="59.9870842" lon="17.7333402">
        <ele>39.5513</ele>
        <time>2014-04-03T19:09:20Z</time>
      </trkpt>
      <trkpt lat="59.9870695" lon="17.7333844">
        <ele>38.5901</ele>
        <time>2014-04-03T19:09:21Z</time>
      </trkpt>
      <trkpt lat="59.9870559" lon="17.7334338">
        <ele>39.0707</ele>
        <time>2014-04-03T19:09:22Z</time>
      </trkpt>
      <trkpt lat="59.9870443" lon="17.7334771">
        <ele>38.5901</ele>
        <time>2014-04-03T19:09:23Z</time>
      </trkpt>
      <trkpt lat="59.9870284" lon="17.7335187">
        <ele>38.1094</ele>
        <time>2014-04-03T19:09:24Z</time>
      </trkpt>
      <trkpt lat="59.9870137" lon="17.7335666">
        <ele>37.6287</ele>
        <time>2014-04-03T19:09:25Z</time>
      </trkpt>
      <trkpt lat="59.9869978" lon="17.7336184">
        <ele>37.6287</ele>
        <time>2014-04-03T19:09:26Z</time>
      </trkpt>
      <trkpt lat="59.9869834" lon="17.7336679">
        <ele>37.6287</ele>
        <time>2014-04-03T19:09:27Z</time>
      </trkpt>
      <trkpt lat="59.9869682" lon="17.7337133">
        <ele>36.6675</ele>
        <time>2014-04-03T19:09:28Z</time>
      </trkpt>
      <trkpt lat="59.9869482" lon="17.7337552">
        <ele>34.7449</ele>
        <time>2014-04-03T19:09:29Z</time>
      </trkpt>
      <trkpt lat="59.986929" lon="17.7337997">
        <ele>33.7834</ele>
        <time>2014-04-03T19:09:30Z</time>
      </trkpt>
      <trkpt lat="59.9869129" lon="17.7338488">
        <ele>32.8223</ele>
        <time>2014-04-03T19:09:31Z</time>
      </trkpt>
      <trkpt lat="59.9868979" lon="17.7338981">
        <ele>32.8223</ele>
        <time>2014-04-03T19:09:32Z</time>
      </trkpt>
      <trkpt lat="59.9868854" lon="17.7339513">
        <ele>34.2642</ele>
        <time>2014-04-03T19:09:33Z</time>
      </trkpt>
      <trkpt lat="59.9868745" lon="17.7340052">
        <ele>35.2255</ele>
        <time>2014-04-03T19:09:34Z</time>
      </trkpt>
      <trkpt lat="59.9868621" lon="17.7340669">
        <ele>36.1868</ele>
        <time>2014-04-03T19:09:35Z</time>
      </trkpt>
      <trkpt lat="59.9868518" lon="17.7341312">
        <ele>38.1094</ele>
        <time>2014-04-03T19:09:36Z</time>
      </trkpt>
      <trkpt lat="59.9868408" lon="17.734184">
        <ele>37.6287</ele>
        <time>2014-04-03T19:09:37Z</time>
      </trkpt>
      <trkpt lat="59.9868277" lon="17.7342351">
        <ele>37.1481</ele>
        <time>2014-04-03T19:09:38Z</time>
      </trkpt>
      <trkpt lat="59.9868145" lon="17.734279">
        <ele>36.6675</ele>
        <time>2014-04-03T19:09:39Z</time>
      </trkpt>
      <trkpt lat="59.9868" lon="17.7343255">
        <ele>36.1868</ele>
        <time>2014-04-03T19:09:40Z</time>
      </trkpt>
      <trkpt lat="59.9867907" lon="17.7343793">
        <ele>37.6287</ele>
        <time>2014-04-03T19:09:41Z</time>
      </trkpt>
      <trkpt lat="59.9867842" lon="17.7344263">
        <ele>38.1094</ele>
        <time>2014-04-03T19:09:42Z</time>
      </trkpt>
      <trkpt lat="59.9867791" lon="17.7344739">
        <ele>38.5901</ele>
        <time>2014-04-03T19:09:43Z</time>
      </trkpt>
      <trkpt lat="59.9867687" lon="17.7345147">
        <ele>38.1094</ele>
        <time>2014-04-03T19:09:44Z</time>
      </trkpt>
      <trkpt lat="59.9867585" lon="17.7345534">
        <ele>37.6287</ele>
        <time>2014-04-03T19:09:45Z</time>
      </trkpt>
      <trkpt lat="59.9867498" lon="17.7345979">
        <ele>38.1094</ele>
        <time>2014-04-03T19:09:46Z</time>
      </trkpt>
      <trkpt lat="59.9867398" lon="17.7346499">
        <ele>39.0707</ele>
        <time>2014-04-03T19:09:47Z</time>
      </trkpt>
      <trkpt lat="59.9867295" lon="17.7346999">
        <ele>39.5513</ele>
        <time>2014-04-03T19:09:48Z</time>
      </trkpt>
      <trkpt lat="59.9867227" lon="17.7347455">
        <ele>40.5128</ele>
        <time>2014-04-03T19:09:49Z</time>
      </trkpt>
      <trkpt lat="59.9867176" lon="17.7347885">
        <ele>40.5128</ele>
        <time>2014-04-03T19:09:50Z</time>
      </trkpt>
      <trkpt lat="59.986715" lon="17.734831">
        <ele>41.474</ele>
        <time>2014-04-03T19:09:51Z</time>
      </trkpt>
      <trkpt lat="59.9867083" lon="17.7348746">
        <ele>40.9934</ele>
        <time>2014-04-03T19:09:52Z</time>
      </trkpt>
      <trkpt lat="59.9867003" lon="17.7349226">
        <ele>41.474</ele>
        <time>2014-04-03T19:09:53Z</time>
      </trkpt>
      <trkpt lat="59.9866897" lon="17.7349663">
        <ele>41.474</ele>
        <time>2014-04-03T19:09:54Z</time>
      </trkpt>
      <trkpt lat="59.9866762" lon="17.7350134">
        <ele>41.474</ele>
        <time>2014-04-03T19:09:55Z</time>
      </trkpt>
      <trkpt lat="59.9866653" lon="17.7350601">
        <ele>41.9547</ele>
        <time>2014-04-03T19:09:56Z</time>
      </trkpt>
      <trkpt lat="59.9866605" lon="17.7351005">
        <ele>42.4354</ele>
        <time>2014-04-03T19:09:57Z</time>
      </trkpt>
      <trkpt lat="59.986653" lon="17.7351476">
        <ele>41.9547</ele>
        <time>2014-04-03T19:09:58Z</time>
      </trkpt>
      <trkpt lat="59.9866404" lon="17.7351999">
        <ele>41.474</ele>
        <time>2014-04-03T19:09:59Z</time>
      </trkpt>
      <trkpt lat="59.9866254" lon="17.7352544">
        <ele>40.9934</ele>
        <time>2014-04-03T19:10:00Z</time>
      </trkpt>
      <trkpt lat="59.986614" lon="17.7353106">
        <ele>41.474</ele>
        <time>2014-04-03T19:10:01Z</time>
      </trkpt>
      <trkpt lat="59.9866035" lon="17.735358">
        <ele>40.9934</ele>
        <time>2014-04-03T19:10:02Z</time>
      </trkpt>
      <trkpt lat="59.986588" lon="17.7354032">
        <ele>40.9934</ele>
        <time>2014-04-03T19:10:03Z</time>
      </trkpt>
      <trkpt lat="59.9865753" lon="17.7354523">
        <ele>40.0321</ele>
        <time>2014-04-03T19:10:04Z</time>
      </trkpt>
      <trkpt lat="59.9865652" lon="17.7354978">
        <ele>39.0707</ele>
        <time>2014-04-03T19:10:05Z</time>
      </trkpt>
      <trkpt lat="59.98656" lon="17.735546">
        <ele>39.0707</ele>
        <time>2014-04-03T19:10:06Z</time>
      </trkpt>
      <trkpt lat="59.9865595" lon="17.7355945">
        <ele>39.0707</ele>
        <time>2014-04-03T19:10:07Z</time>
      </trkpt>
      <trkpt lat="59.9865519" lon="17.7356441">
        <ele>38.5901</ele>
        <time>2014-04-03T19:10:08Z</time>
      </trkpt>
      <trkpt lat="59.9865425" lon="17.7356985">
        <ele>39.0707</ele>
        <time>2014-04-03T19:10:09Z</time>
      </trkpt>
      <trkpt lat="59.9865292" lon="17.7357493">
        <ele>39.0707</ele>
        <time>2014-04-03T19:10:10Z</time>
      </trkpt>
      <trkpt lat="59.986518" lon="17.7358013">
        <ele>40.0321</ele>
        <time>2014-04-03T19:10:11Z</time>
      </trkpt>
      <trkpt lat="59.9865052" lon="17.7358426">
        <ele>39.5513</ele>
        <time>2014-04-03T19:10:12Z</time>
      </trkpt>
      <trkpt lat="59.9864907" lon="17.7358891">
        <ele>39.5513</ele>
        <time>2014-04-03T19:10:13Z</time>
      </trkpt>
      <trkpt lat="59.9864796" lon="17.7359452">
        <ele>40.9934</ele>
        <time>2014-04-03T19:10:14Z</time>
      </trkpt>
      <trkpt lat="59.9864644" lon="17.7359827">
        <ele>40.5128</ele>
        <time>2014-04-03T19:10:15Z</time>
      </trkpt>
      <trkpt lat="59.9864501" lon="17.7360348">
        <ele>40.9934</ele>
        <time>2014-04-03T19:10:16Z</time>
      </trkpt>
      <trkpt lat="59.9864312" lon="17.73608">
        <ele>40.9934</ele>
        <time>2014-04-03T19:10:17Z</time>
      </trkpt>
      <trkpt lat="59.9864115" lon="17.7361257">
        <ele>41.474</ele>
        <time>2014-04-03T19:10:18Z</time>
      </trkpt>
      <trkpt lat="59.9863923" lon="17.7361652">
        <ele>41.474</ele>
        <time>2014-04-03T19:10:19Z</time>
      </trkpt>
      <trkpt lat="59.9863737" lon="17.7362064">
        <ele>41.474</ele>
        <time>2014-04-03T19:10:20Z</time>
      </trkpt>
      <trkpt lat="59.9863541" lon="17.7362488">
        <ele>41.9547</ele>
        <time>2014-04-03T19:10:21Z</time>
      </trkpt>
      <trkpt lat="59.9863322" lon="17.7362794">
        <ele>41.9547</ele>
        <time>2014-04-03T19:10:22Z</time>
      </trkpt>
      <trkpt lat="59.9863203" lon="17.736318">
        <ele>44.8386</ele>
        <time>2014-04-03T19:10:23Z</time>
      </trkpt>
      <trkpt lat="59.9863069" lon="17.7363605">
        <ele>46.7612</ele>
        <time>2014-04-03T19:10:24Z</time>
      </trkpt>
      <trkpt lat="59.9862932" lon="17.7364044">
        <ele>49.1646</ele>
        <time>2014-04-03T19:10:25Z</time>
      </trkpt>
      <trkpt lat="59.9862712" lon="17.7364306">
        <ele>48.684</ele>
        <time>2014-04-03T19:10:26Z</time>
      </trkpt>
      <trkpt lat="59.9862482" lon="17.7364689">
        <ele>49.1646</ele>
        <time>2014-04-03T19:10:27Z</time>
      </trkpt>
      <trkpt lat="59.9862259" lon="17.7365031">
        <ele>50.126</ele>
        <time>2014-04-03T19:10:28Z</time>
      </trkpt>
      <trkpt lat="59.9862022" lon="17.7365281">
        <ele>50.126</ele>
        <time>2014-04-03T19:10:29Z</time>
      </trkpt>
      <trkpt lat="59.9861771" lon="17.7365503">
        <ele>50.126</ele>
        <time>2014-04-03T19:10:30Z</time>
      </trkpt>
      <trkpt lat="59.9861499" lon="17.736581">
        <ele>49.6453</ele>
        <time>2014-04-03T19:10:31Z</time>
      </trkpt>
      <trkpt lat="59.986127" lon="17.7366249">
        <ele>50.6066</ele>
        <time>2014-04-03T19:10:32Z</time>
      </trkpt>
      <trkpt lat="59.9861044" lon="17.7366632">
        <ele>51.0872</ele>
        <time>2014-04-03T19:10:33Z</time>
      </trkpt>
      <trkpt lat="59.9860819" lon="17.736706">
        <ele>50.6066</ele>
        <time>2014-04-03T19:10:34Z</time>
      </trkpt>
      <trkpt lat="59.9860581" lon="17.7367415">
        <ele>50.6066</ele>
        <time>2014-04-03T19:10:35Z</time>
      </trkpt>
      <trkpt lat="59.9860339" lon="17.7367825">
        <ele>50.6066</ele>
        <time>2014-04-03T19:10:36Z</time>
      </trkpt>
      <trkpt lat="59.9860073" lon="17.7368161">
        <ele>50.6066</ele>
        <time>2014-04-03T19:10:37Z</time>
      </trkpt>
      <trkpt lat="59.9859832" lon="17.736858">
        <ele>52.0486</ele>
        <time>2014-04-03T19:10:38Z</time>
      </trkpt>
      <trkpt lat="59.9859559" lon="17.7368921">
        <ele>51.0872</ele>
        <time>2014-04-03T19:10:39Z</time>
      </trkpt>
      <trkpt lat="59.9859313" lon="17.7369149">
        <ele>51.0872</ele>
        <time>2014-04-03T19:10:40Z</time>
      </trkpt>
      <trkpt lat="59.9859072" lon="17.7369528">
        <ele>51.5679</ele>
        <time>2014-04-03T19:10:41Z</time>
      </trkpt>
      <trkpt lat="59.9858836" lon="17.7370077">
        <ele>52.0486</ele>
        <time>2014-04-03T19:10:42Z</time>
      </trkpt>
      <trkpt lat="59.9858624" lon="17.7370475">
        <ele>52.0486</ele>
        <time>2014-04-03T19:10:43Z</time>
      </trkpt>
      <trkpt lat="59.9858406" lon="17.7370883">
        <ele>52.5292</ele>
        <time>2014-04-03T19:10:44Z</time>
      </trkpt>
      <trkpt lat="59.9858178" lon="17.737123">
        <ele>52.0486</ele>
        <time>2014-04-03T19:10:45Z</time>
      </trkpt>
      <trkpt lat="59.9857949" lon="17.7371398">
        <ele>50.6066</ele>
        <time>2014-04-03T19:10:46Z</time>
      </trkpt>
      <trkpt lat="59.9857759" lon="17.7371642">
        <ele>50.6066</ele>
        <time>2014-04-03T19:10:47Z</time>
      </trkpt>
      <trkpt lat="59.9857562" lon="17.7371928">
        <ele>50.6066</ele>
        <time>2014-04-03T19:10:48Z</time>
      </trkpt>
      <trkpt lat="59.9857391" lon="17.7372036">
        <ele>49.6453</ele>
        <time>2014-04-03T19:10:49Z</time>
      </trkpt>
      <trkpt lat="59.9857299" lon="17.7372439">
        <ele>51.5679</ele>
        <time>2014-04-03T19:10:50Z</time>
      </trkpt>
      <trkpt lat="59.9857137" lon="17.7372719">
        <ele>52.0486</ele>
        <time>2014-04-03T19:10:51Z</time>
      </trkpt>
      <trkpt lat="59.9856957" lon="17.7373035">
        <ele>53.0098</ele>
        <time>2014-04-03T19:10:52Z</time>
      </trkpt>
      <trkpt lat="59.9856769" lon="17.7373206">
        <ele>52.0486</ele>
        <time>2014-04-03T19:10:53Z</time>
      </trkpt>
      <trkpt lat="59.9856609" lon="17.7373423">
        <ele>50.6066</ele>
        <time>2014-04-03T19:10:54Z</time>
      </trkpt>
      <trkpt lat="59.9856408" lon="17.737374">
        <ele>51.0872</ele>
        <time>2014-04-03T19:10:55Z</time>
      </trkpt>
      <trkpt lat="59.985625" lon="17.7374076">
        <ele>52.0486</ele>
        <time>2014-04-03T19:10:56Z</time>
      </trkpt>
      <trkpt lat="59.9856153" lon="17.7374404">
        <ele>51.5679</ele>
        <time>2014-04-03T19:10:57Z</time>
      </trkpt>
      <trkpt lat="59.9856058" lon="17.7374796">
        <ele>51.5679</ele>
        <time>2014-04-03T19:10:58Z</time>
      </trkpt>
      <trkpt lat="59.9855956" lon="17.7375282">
        <ele>52.0486</ele>
        <time>2014-04-03T19:10:59Z</time>
      </trkpt>
      <trkpt lat="59.9855873" lon="17.7375843">
        <ele>51.5679</ele>
        <time>2014-04-03T19:11:00Z</time>
      </trkpt>
      <trkpt lat="59.9855796" lon="17.7376426">
        <ele>51.0872</ele>
        <time>2014-04-03T19:11:01Z</time>
      </trkpt>
      <trkpt lat="59.9855719" lon="17.7376991">
        <ele>50.6066</ele>
        <time>2014-04-03T19:11:02Z</time>
      </trkpt>
      <trkpt lat="59.9855677" lon="17.7377641">
        <ele>50.6066</ele>
        <time>2014-04-03T19:11:03Z</time>
      </trkpt>
      <trkpt lat="59.9855641" lon="17.7378241">
        <ele>50.6066</ele>
        <time>2014-04-03T19:11:04Z</time>
      </trkpt>
      <trkpt lat="59.9855614" lon="17.7378776">
        <ele>52.0486</ele>
        <time>2014-04-03T19:11:05Z</time>
      </trkpt>
      <trkpt lat="59.9855592" lon="17.7379257">
        <ele>52.0486</ele>
        <time>2014-04-03T19:11:06Z</time>
      </trkpt>
      <trkpt lat="59.985554" lon="17.7379707">
        <ele>51.5679</ele>
        <time>2014-04-03T19:11:07Z</time>
      </trkpt>
      <trkpt lat="59.9855437" lon="17.7380193">
        <ele>50.6066</ele>
        <time>2014-04-03T19:11:08Z</time>
      </trkpt>
      <trkpt lat="59.9855334" lon="17.7380705">
        <ele>50.126</ele>
        <time>2014-04-03T19:11:09Z</time>
      </trkpt>
      <trkpt lat="59.9855241" lon="17.7381225">
        <ele>50.6066</ele>
        <time>2014-04-03T19:11:10Z</time>
      </trkpt>
      <trkpt lat="59.9855095" lon="17.7381795">
        <ele>50.6066</ele>
        <time>2014-04-03T19:11:11Z</time>
      </trkpt>
      <trkpt lat="59.9854925" lon="17.7382276">
        <ele>49.6453</ele>
        <time>2014-04-03T19:11:12Z</time>
      </trkpt>
      <trkpt lat="59.9854712" lon="17.7382794">
        <ele>49.6453</ele>
        <time>2014-04-03T19:11:13Z</time>
      </trkpt>
      <trkpt lat="59.9854516" lon="17.738315">
        <ele>50.6066</ele>
        <time>2014-04-03T19:11:14Z</time>
      </trkpt>
      <trkpt lat="59.9854327" lon="17.7383502">
        <ele>52.5292</ele>
        <time>2014-04-03T19:11:15Z</time>
      </trkpt>
      <trkpt lat="59.9852663" lon="17.7382417">
        <ele>53.0098</ele>
        <time>2014-04-03T19:11:59Z</time>
      </trkpt>
      <trkpt lat="59.9852624" lon="17.738253">
        <ele>53.9712</ele>
        <time>2014-04-03T19:12:00Z</time>
      </trkpt>
      <trkpt lat="59.9852544" lon="17.7382629">
        <ele>54.4518</ele>
        <time>2014-04-03T19:12:01Z</time>
      </trkpt>
      <trkpt lat="59.9852429" lon="17.7382642">
        <ele>54.4518</ele>
        <time>2014-04-03T19:12:02Z</time>
      </trkpt>
      <trkpt lat="59.9852221" lon="17.7382521">
        <ele>54.4518</ele>
        <time>2014-04-03T19:12:03Z</time>
      </trkpt>
      <trkpt lat="59.9852003" lon="17.7382524">
        <ele>53.9712</ele>
        <time>2014-04-03T19:12:04Z</time>
      </trkpt>
      <trkpt lat="59.9851729" lon="17.7382541">
        <ele>53.0098</ele>
        <time>2014-04-03T19:12:05Z</time>
      </trkpt>
      <trkpt lat="59.9851366" lon="17.7382476">
        <ele>52.5292</ele>
        <time>2014-04-03T19:12:06Z</time>
      </trkpt>
      <trkpt lat="59.9851008" lon="17.7382471">
        <ele>53.0098</ele>
        <time>2014-04-03T19:12:07Z</time>
      </trkpt>
      <trkpt lat="59.9850626" lon="17.7382374">
        <ele>52.5292</ele>
        <time>2014-04-03T19:12:08Z</time>
      </trkpt>
      <trkpt lat="59.9850309" lon="17.7382363">
        <ele>53.4905</ele>
        <time>2014-04-03T19:12:09Z</time>
      </trkpt>
      <trkpt lat="59.9849969" lon="17.7382328">
        <ele>53.9712</ele>
        <time>2014-04-03T19:12:10Z</time>
      </trkpt>
      <trkpt lat="59.9849663" lon="17.7382272">
        <ele>55.4131</ele>
        <time>2014-04-03T19:12:11Z</time>
      </trkpt>
      <trkpt lat="59.9849351" lon="17.7382078">
        <ele>56.3745</ele>
        <time>2014-04-03T19:12:12Z</time>
      </trkpt>
      <trkpt lat="59.9849056" lon="17.7381966">
        <ele>56.8551</ele>
        <time>2014-04-03T19:12:13Z</time>
      </trkpt>
      <trkpt lat="59.9848756" lon="17.7381878">
        <ele>56.8551</ele>
        <time>2014-04-03T19:12:14Z</time>
      </trkpt>
      <trkpt lat="59.9848506" lon="17.7381788">
        <ele>56.3745</ele>
        <time>2014-04-03T19:12:15Z</time>
      </trkpt>
      <trkpt lat="59.9848253" lon="17.7381795">
        <ele>56.8551</ele>
        <time>2014-04-03T19:12:16Z</time>
      </trkpt>
      <trkpt lat="59.9847932" lon="17.7381725">
        <ele>57.8165</ele>
        <time>2014-04-03T19:12:17Z</time>
      </trkpt>
      <trkpt lat="59.9847581" lon="17.7381675">
        <ele>58.7777</ele>
        <time>2014-04-03T19:12:18Z</time>
      </trkpt>
      <trkpt lat="59.9847175" lon="17.7381743">
        <ele>58.7777</ele>
        <time>2014-04-03T19:12:19Z</time>
      </trkpt>
      <trkpt lat="59.9846819" lon="17.738185">
        <ele>60.2197</ele>
        <time>2014-04-03T19:12:20Z</time>
      </trkpt>
      <trkpt lat="59.9846455" lon="17.7381945">
        <ele>59.7391</ele>
        <time>2014-04-03T19:12:21Z</time>
      </trkpt>
      <trkpt lat="59.9846046" lon="17.7381878">
        <ele>59.2584</ele>
        <time>2014-04-03T19:12:22Z</time>
      </trkpt>
      <trkpt lat="59.9845735" lon="17.73818">
        <ele>60.2197</ele>
        <time>2014-04-03T19:12:23Z</time>
      </trkpt>
      <trkpt lat="59.9845438" lon="17.7381816">
        <ele>61.181</ele>
        <time>2014-04-03T19:12:24Z</time>
      </trkpt>
      <trkpt lat="59.9845078" lon="17.7381927">
        <ele>62.1423</ele>
        <time>2014-04-03T19:12:25Z</time>
      </trkpt>
      <trkpt lat="59.9844755" lon="17.7381953">
        <ele>62.1423</ele>
        <time>2014-04-03T19:12:26Z</time>
      </trkpt>
      <trkpt lat="59.9844431" lon="17.738187">
        <ele>62.6229</ele>
        <time>2014-04-03T19:12:27Z</time>
      </trkpt>
      <trkpt lat="59.9844151" lon="17.7381805">
        <ele>64.0651</ele>
        <time>2014-04-03T19:12:28Z</time>
      </trkpt>
      <trkpt lat="59.9843798" lon="17.7381618">
        <ele>63.5844</ele>
        <time>2014-04-03T19:12:29Z</time>
      </trkpt>
      <trkpt lat="59.9843406" lon="17.7381503">
        <ele>63.5844</ele>
        <time>2014-04-03T19:12:30Z</time>
      </trkpt>
      <trkpt lat="59.9843071" lon="17.7381386">
        <ele>63.5844</ele>
        <time>2014-04-03T19:12:31Z</time>
      </trkpt>
      <trkpt lat="59.9842736" lon="17.738137">
        <ele>64.0651</ele>
        <time>2014-04-03T19:12:32Z</time>
      </trkpt>
      <trkpt lat="59.984241" lon="17.7381464">
        <ele>65.0264</ele>
        <time>2014-04-03T19:12:33Z</time>
      </trkpt>
      <trkpt lat="59.9842042" lon="17.7381442">
        <ele>65.0264</ele>
        <time>2014-04-03T19:12:34Z</time>
      </trkpt>
      <trkpt lat="59.9841741" lon="17.7381417">
        <ele>65.0264</ele>
        <time>2014-04-03T19:12:35Z</time>
      </trkpt>
      <trkpt lat="59.9841492" lon="17.7381391">
        <ele>66.4683</ele>
        <time>2014-04-03T19:12:36Z</time>
      </trkpt>
      <trkpt lat="59.9841213" lon="17.738127">
        <ele>65.9877</ele>
        <time>2014-04-03T19:12:37Z</time>
      </trkpt>
      <trkpt lat="59.9840932" lon="17.7381265">
        <ele>66.4683</ele>
        <time>2014-04-03T19:12:38Z</time>
      </trkpt>
      <trkpt lat="59.9840621" lon="17.7381448">
        <ele>68.3909</ele>
        <time>2014-04-03T19:12:39Z</time>
      </trkpt>
      <trkpt lat="59.9840306" lon="17.7381593">
        <ele>70.3135</ele>
        <time>2014-04-03T19:12:40Z</time>
      </trkpt>
      <trkpt lat="59.9840004" lon="17.7381888">
        <ele>72.2362</ele>
        <time>2014-04-03T19:12:41Z</time>
      </trkpt>
      <trkpt lat="59.9839718" lon="17.7382177">
        <ele>74.1588</ele>
        <time>2014-04-03T19:12:42Z</time>
      </trkpt>
      <trkpt lat="59.9839494" lon="17.7382189">
        <ele>74.1588</ele>
        <time>2014-04-03T19:12:43Z</time>
      </trkpt>
      <trkpt lat="59.9839344" lon="17.7382213">
        <ele>75.1202</ele>
        <time>2014-04-03T19:12:44Z</time>
      </trkpt>
      <trkpt lat="59.9839167" lon="17.7382308">
        <ele>75.1202</ele>
        <time>2014-04-03T19:12:45Z</time>
      </trkpt>
      <trkpt lat="59.9838977" lon="17.7382472">
        <ele>75.6008</ele>
        <time>2014-04-03T19:12:46Z</time>
      </trkpt>
      <trkpt lat="59.9838686" lon="17.7382542">
        <ele>74.6395</ele>
        <time>2014-04-03T19:12:47Z</time>
      </trkpt>
      <trkpt lat="59.9838357" lon="17.7382504">
        <ele>73.6782</ele>
        <time>2014-04-03T19:12:48Z</time>
      </trkpt>
      <trkpt lat="59.9838038" lon="17.7382337">
        <ele>72.7169</ele>
        <time>2014-04-03T19:12:49Z</time>
      </trkpt>
      <trkpt lat="59.9837731" lon="17.7382328">
        <ele>72.2362</ele>
        <time>2014-04-03T19:12:50Z</time>
      </trkpt>
      <trkpt lat="59.9837437" lon="17.738238">
        <ele>73.1976</ele>
        <time>2014-04-03T19:12:51Z</time>
      </trkpt>
      <trkpt lat="59.9837152" lon="17.7382359">
        <ele>73.1976</ele>
        <time>2014-04-03T19:12:52Z</time>
      </trkpt>
      <trkpt lat="59.983686" lon="17.7382432">
        <ele>73.1976</ele>
        <time>2014-04-03T19:12:53Z</time>
      </trkpt>
      <trkpt lat="59.9836501" lon="17.7382567">
        <ele>73.1976</ele>
        <time>2014-04-03T19:12:54Z</time>
      </trkpt>
      <trkpt lat="59.9836136" lon="17.7382645">
        <ele>73.1976</ele>
        <time>2014-04-03T19:12:55Z</time>
      </trkpt>
      <trkpt lat="59.983582" lon="17.7382727">
        <ele>73.6782</ele>
        <time>2014-04-03T19:12:56Z</time>
      </trkpt>
      <trkpt lat="59.9835547" lon="17.7382752">
        <ele>74.1588</ele>
        <time>2014-04-03T19:12:57Z</time>
      </trkpt>
      <trkpt lat="59.9835277" lon="17.7382789">
        <ele>73.6782</ele>
        <time>2014-04-03T19:12:58Z</time>
      </trkpt>
      <trkpt lat="59.9834982" lon="17.738281">
        <ele>73.1976</ele>
        <time>2014-04-03T19:12:59Z</time>
      </trkpt>
      <trkpt lat="59.9834681" lon="17.7382959">
        <ele>73.6782</ele>
        <time>2014-04-03T19:13:00Z</time>
      </trkpt>
      <trkpt lat="59.9834324" lon="17.7383069">
        <ele>73.6782</ele>
        <time>2014-04-03T19:13:01Z</time>
      </trkpt>
      <trkpt lat="59.9833961" lon="17.7383241">
        <ele>74.1588</ele>
        <time>2014-04-03T19:13:02Z</time>
      </trkpt>
      <trkpt lat="59.983364" lon="17.7383376">
        <ele>75.1202</ele>
        <time>2014-04-03T19:13:03Z</time>
      </trkpt>
      <trkpt lat="59.9833345" lon="17.7383474">
        <ele>75.1202</ele>
        <time>2014-04-03T19:13:04Z</time>
      </trkpt>
      <trkpt lat="59.9833089" lon="17.738353">
        <ele>75.6008</ele>
        <time>2014-04-03T19:13:05Z</time>
      </trkpt>
      <trkpt lat="59.9832815" lon="17.7383603">
        <ele>75.6008</ele>
        <time>2014-04-03T19:13:06Z</time>
      </trkpt>
      <trkpt lat="59.9832519" lon="17.7383795">
        <ele>77.0428</ele>
        <time>2014-04-03T19:13:07Z</time>
      </trkpt>
      <trkpt lat="59.9832196" lon="17.7383997">
        <ele>78.004</ele>
        <time>2014-04-03T19:13:08Z</time>
      </trkpt>
      <trkpt lat="59.9831904" lon="17.738411">
        <ele>78.9655</ele>
        <time>2014-04-03T19:13:09Z</time>
      </trkpt>
      <trkpt lat="59.9831646" lon="17.7383934">
        <ele>77.0428</ele>
        <time>2014-04-03T19:13:10Z</time>
      </trkpt>
      <trkpt lat="59.9831378" lon="17.738366">
        <ele>75.1202</ele>
        <time>2014-04-03T19:13:11Z</time>
      </trkpt>
      <trkpt lat="59.9831096" lon="17.7383502">
        <ele>74.1588</ele>
        <time>2014-04-03T19:13:12Z</time>
      </trkpt>
      <trkpt lat="59.9830776" lon="17.7383344">
        <ele>72.7169</ele>
        <time>2014-04-03T19:13:13Z</time>
      </trkpt>
      <trkpt lat="59.9830449" lon="17.738326">
        <ele>72.2362</ele>
        <time>2014-04-03T19:13:14Z</time>
      </trkpt>
      <trkpt lat="59.9830113" lon="17.7383223">
        <ele>71.7555</ele>
        <time>2014-04-03T19:13:15Z</time>
      </trkpt>
      <trkpt lat="59.982981" lon="17.7383317">
        <ele>72.7169</ele>
        <time>2014-04-03T19:13:16Z</time>
      </trkpt>
      <trkpt lat="59.9829463" lon="17.7383404">
        <ele>72.7169</ele>
        <time>2014-04-03T19:13:17Z</time>
      </trkpt>
      <trkpt lat="59.9829082" lon="17.7383298">
        <ele>71.2749</ele>
        <time>2014-04-03T19:13:18Z</time>
      </trkpt>
      <trkpt lat="59.982871" lon="17.7383163">
        <ele>69.8329</ele>
        <time>2014-04-03T19:13:19Z</time>
      </trkpt>
      <trkpt lat="59.9828372" lon="17.7383026">
        <ele>67.9103</ele>
        <time>2014-04-03T19:13:20Z</time>
      </trkpt>
      <trkpt lat="59.9828066" lon="17.7382903">
        <ele>66.949</ele>
        <time>2014-04-03T19:13:21Z</time>
      </trkpt>
      <trkpt lat="59.9827777" lon="17.7382725">
        <ele>66.4683</ele>
        <time>2014-04-03T19:13:22Z</time>
      </trkpt>
      <trkpt lat="59.9827471" lon="17.7382567">
        <ele>65.0264</ele>
        <time>2014-04-03T19:13:23Z</time>
      </trkpt>
      <trkpt lat="59.9827175" lon="17.738251">
        <ele>65.0264</ele>
        <time>2014-04-03T19:13:24Z</time>
      </trkpt>
      <trkpt lat="59.9826921" lon="17.7382438">
        <ele>65.0264</ele>
        <time>2014-04-03T19:13:25Z</time>
      </trkpt>
      <trkpt lat="59.9826641" lon="17.7382235">
        <ele>63.5844</ele>
        <time>2014-04-03T19:13:26Z</time>
      </trkpt>
      <trkpt lat="59.9826412" lon="17.7381967">
        <ele>63.1036</ele>
        <time>2014-04-03T19:13:27Z</time>
      </trkpt>
      <trkpt lat="59.9826196" lon="17.7381914">
        <ele>63.5844</ele>
        <time>2014-04-03T19:13:28Z</time>
      </trkpt>
      <trkpt lat="59.9825989" lon="17.7381883">
        <ele>64.0651</ele>
        <time>2014-04-03T19:13:29Z</time>
      </trkpt>
      <trkpt lat="59.9825738" lon="17.7381826">
        <ele>64.0651</ele>
        <time>2014-04-03T19:13:30Z</time>
      </trkpt>
      <trkpt lat="59.982544" lon="17.7381827">
        <ele>64.0651</ele>
        <time>2014-04-03T19:13:31Z</time>
      </trkpt>
      <trkpt lat="59.9825125" lon="17.7381904">
        <ele>64.0651</ele>
        <time>2014-04-03T19:13:32Z</time>
      </trkpt>
      <trkpt lat="59.982475" lon="17.7382064">
        <ele>63.5844</ele>
        <time>2014-04-03T19:13:33Z</time>
      </trkpt>
      <trkpt lat="59.9824368" lon="17.7382291">
        <ele>64.0651</ele>
        <time>2014-04-03T19:13:34Z</time>
      </trkpt>
      <trkpt lat="59.9824039" lon="17.7382575">
        <ele>65.0264</ele>
        <time>2014-04-03T19:13:35Z</time>
      </trkpt>
      <trkpt lat="59.9823782" lon="17.7382769">
        <ele>65.9877</ele>
        <time>2014-04-03T19:13:36Z</time>
      </trkpt>
      <trkpt lat="59.9823514" lon="17.7382965">
        <ele>67.4297</ele>
        <time>2014-04-03T19:13:37Z</time>
      </trkpt>
      <trkpt lat="59.9823244" lon="17.7383074">
        <ele>67.4297</ele>
        <time>2014-04-03T19:13:38Z</time>
      </trkpt>
      <trkpt lat="59.9822968" lon="17.7383297">
        <ele>68.3909</ele>
        <time>2014-04-03T19:13:39Z</time>
      </trkpt>
      <trkpt lat="59.982267" lon="17.738354">
        <ele>68.8716</ele>
        <time>2014-04-03T19:13:40Z</time>
      </trkpt>
      <trkpt lat="59.9822328" lon="17.7383818">
        <ele>69.3523</ele>
        <time>2014-04-03T19:13:41Z</time>
      </trkpt>
      <trkpt lat="59.9822011" lon="17.7384062">
        <ele>70.3135</ele>
        <time>2014-04-03T19:13:42Z</time>
      </trkpt>
      <trkpt lat="59.982175" lon="17.7384233">
        <ele>71.2749</ele>
        <time>2014-04-03T19:13:43Z</time>
      </trkpt>
      <trkpt lat="59.9821524" lon="17.7384447">
        <ele>72.2362</ele>
        <time>2014-04-03T19:13:44Z</time>
      </trkpt>
      <trkpt lat="59.9821248" lon="17.7384576">
        <ele>71.7555</ele>
        <time>2014-04-03T19:13:45Z</time>
      </trkpt>
      <trkpt lat="59.9820989" lon="17.7384866">
        <ele>73.1976</ele>
        <time>2014-04-03T19:13:46Z</time>
      </trkpt>
      <trkpt lat="59.9820665" lon="17.7385079">
        <ele>73.1976</ele>
        <time>2014-04-03T19:13:47Z</time>
      </trkpt>
      <trkpt lat="59.98204" lon="17.738532">
        <ele>74.1588</ele>
        <time>2014-04-03T19:13:48Z</time>
      </trkpt>
      <trkpt lat="59.9820123" lon="17.7385445">
        <ele>74.1588</ele>
        <time>2014-04-03T19:13:49Z</time>
      </trkpt>
      <trkpt lat="59.9819851" lon="17.7385601">
        <ele>74.1588</ele>
        <time>2014-04-03T19:13:50Z</time>
      </trkpt>
      <trkpt lat="59.9819561" lon="17.7385691">
        <ele>73.6782</ele>
        <time>2014-04-03T19:13:51Z</time>
      </trkpt>
      <trkpt lat="59.9819244" lon="17.738569">
        <ele>72.7169</ele>
        <time>2014-04-03T19:13:52Z</time>
      </trkpt>
      <trkpt lat="59.9818982" lon="17.7385717">
        <ele>71.7555</ele>
        <time>2014-04-03T19:13:53Z</time>
      </trkpt>
      <trkpt lat="59.9818738" lon="17.7385716">
        <ele>70.7942</ele>
        <time>2014-04-03T19:13:54Z</time>
      </trkpt>
      <trkpt lat="59.9818441" lon="17.7385825">
        <ele>69.8329</ele>
        <time>2014-04-03T19:13:55Z</time>
      </trkpt>
      <trkpt lat="59.9818147" lon="17.738585">
        <ele>68.3909</ele>
        <time>2014-04-03T19:13:56Z</time>
      </trkpt>
      <trkpt lat="59.9817881" lon="17.7385903">
        <ele>67.9103</ele>
        <time>2014-04-03T19:13:57Z</time>
      </trkpt>
      <trkpt lat="59.9817571" lon="17.7386004">
        <ele>67.9103</ele>
        <time>2014-04-03T19:13:58Z</time>
      </trkpt>
      <trkpt lat="59.9817293" lon="17.738597">
        <ele>67.4297</ele>
        <time>2014-04-03T19:13:59Z</time>
      </trkpt>
      <trkpt lat="59.9817069" lon="17.7385979">
        <ele>66.949</ele>
        <time>2014-04-03T19:14:00Z</time>
      </trkpt>
      <trkpt lat="59.9816827" lon="17.7386077">
        <ele>67.4297</ele>
        <time>2014-04-03T19:14:01Z</time>
      </trkpt>
      <trkpt lat="59.9816536" lon="17.7386061">
        <ele>66.949</ele>
        <time>2014-04-03T19:14:02Z</time>
      </trkpt>
      <trkpt lat="59.9816251" lon="17.7386173">
        <ele>66.949</ele>
        <time>2014-04-03T19:14:03Z</time>
      </trkpt>
      <trkpt lat="59.9816003" lon="17.7386282">
        <ele>66.4683</ele>
        <time>2014-04-03T19:14:04Z</time>
      </trkpt>
      <trkpt lat="59.9815774" lon="17.738642">
        <ele>66.949</ele>
        <time>2014-04-03T19:14:05Z</time>
      </trkpt>
      <trkpt lat="59.9815525" lon="17.7386441">
        <ele>66.4683</ele>
        <time>2014-04-03T19:14:06Z</time>
      </trkpt>
      <trkpt lat="59.9815235" lon="17.7386489">
        <ele>65.0264</ele>
        <time>2014-04-03T19:14:07Z</time>
      </trkpt>
      <trkpt lat="59.9814981" lon="17.7386593">
        <ele>65.5071</ele>
        <time>2014-04-03T19:14:08Z</time>
      </trkpt>
      <trkpt lat="59.9814743" lon="17.7386658">
        <ele>65.5071</ele>
        <time>2014-04-03T19:14:09Z</time>
      </trkpt>
      <trkpt lat="59.98145" lon="17.7386762">
        <ele>65.0264</ele>
        <time>2014-04-03T19:14:10Z</time>
      </trkpt>
      <trkpt lat="59.9814221" lon="17.7386798">
        <ele>64.5457</ele>
        <time>2014-04-03T19:14:11Z</time>
      </trkpt>
      <trkpt lat="59.9813957" lon="17.7386905">
        <ele>64.5457</ele>
        <time>2014-04-03T19:14:12Z</time>
      </trkpt>
      <trkpt lat="59.9813741" lon="17.7387066">
        <ele>65.5071</ele>
        <time>2014-04-03T19:14:13Z</time>
      </trkpt>
      <trkpt lat="59.9813474" lon="17.7387104">
        <ele>65.5071</ele>
        <time>2014-04-03T19:14:14Z</time>
      </trkpt>
      <trkpt lat="59.9813143" lon="17.7387249">
        <ele>65.5071</ele>
        <time>2014-04-03T19:14:15Z</time>
      </trkpt>
      <trkpt lat="59.9812867" lon="17.7387347">
        <ele>65.5071</ele>
        <time>2014-04-03T19:14:16Z</time>
      </trkpt>
      <trkpt lat="59.9812531" lon="17.7387539">
        <ele>65.5071</ele>
        <time>2014-04-03T19:14:17Z</time>
      </trkpt>
      <trkpt lat="59.9812231" lon="17.7387612">
        <ele>65.0264</ele>
        <time>2014-04-03T19:14:18Z</time>
      </trkpt>
      <trkpt lat="59.9811931" lon="17.7387843">
        <ele>65.5071</ele>
        <time>2014-04-03T19:14:19Z</time>
      </trkpt>
      <trkpt lat="59.9811603" lon="17.7387954">
        <ele>65.0264</ele>
        <time>2014-04-03T19:14:20Z</time>
      </trkpt>
      <trkpt lat="59.9811303" lon="17.738815">
        <ele>65.5071</ele>
        <time>2014-04-03T19:14:21Z</time>
      </trkpt>
      <trkpt lat="59.9811058" lon="17.7388369">
        <ele>65.9877</ele>
        <time>2014-04-03T19:14:22Z</time>
      </trkpt>
      <trkpt lat="59.9810784" lon="17.7388408">
        <ele>65.0264</ele>
        <time>2014-04-03T19:14:23Z</time>
      </trkpt>
      <trkpt lat="59.9810537" lon="17.7388349">
        <ele>63.5844</ele>
        <time>2014-04-03T19:14:24Z</time>
      </trkpt>
      <trkpt lat="59.9810257" lon="17.7388216">
        <ele>62.1423</ele>
        <time>2014-04-03T19:14:25Z</time>
      </trkpt>
      <trkpt lat="59.9809921" lon="17.7388195">
        <ele>61.6617</ele>
        <time>2014-04-03T19:14:26Z</time>
      </trkpt>
      <trkpt lat="59.9809632" lon="17.7388169">
        <ele>60.7003</ele>
        <time>2014-04-03T19:14:27Z</time>
      </trkpt>
      <trkpt lat="59.9809308" lon="17.7388145">
        <ele>59.7391</ele>
        <time>2014-04-03T19:14:28Z</time>
      </trkpt>
      <trkpt lat="59.9808967" lon="17.7388216">
        <ele>59.7391</ele>
        <time>2014-04-03T19:14:29Z</time>
      </trkpt>
      <trkpt lat="59.9808623" lon="17.7388486">
        <ele>60.2197</ele>
        <time>2014-04-03T19:14:30Z</time>
      </trkpt>
      <trkpt lat="59.9808273" lon="17.738871">
        <ele>60.2197</ele>
        <time>2014-04-03T19:14:31Z</time>
      </trkpt>
      <trkpt lat="59.9807947" lon="17.7388969">
        <ele>60.7003</ele>
        <time>2014-04-03T19:14:32Z</time>
      </trkpt>
      <trkpt lat="59.9807629" lon="17.738913">
        <ele>61.181</ele>
        <time>2014-04-03T19:14:33Z</time>
      </trkpt>
      <trkpt lat="59.980733" lon="17.7389181">
        <ele>60.7003</ele>
        <time>2014-04-03T19:14:34Z</time>
      </trkpt>
      <trkpt lat="59.9807028" lon="17.7389223">
        <ele>60.2197</ele>
        <time>2014-04-03T19:14:35Z</time>
      </trkpt>
      <trkpt lat="59.9806725" lon="17.7389299">
        <ele>60.2197</ele>
        <time>2014-04-03T19:14:36Z</time>
      </trkpt>
      <trkpt lat="59.9806427" lon="17.7389342">
        <ele>60.2197</ele>
        <time>2014-04-03T19:14:37Z</time>
      </trkpt>
      <trkpt lat="59.9806165" lon="17.7389445">
        <ele>60.7003</ele>
        <time>2014-04-03T19:14:38Z</time>
      </trkpt>
      <trkpt lat="59.9805915" lon="17.7389692">
        <ele>61.6617</ele>
        <time>2014-04-03T19:14:39Z</time>
      </trkpt>
      <trkpt lat="59.9805633" lon="17.7389636">
        <ele>60.7003</ele>
        <time>2014-04-03T19:14:40Z</time>
      </trkpt>
      <trkpt lat="59.9805398" lon="17.7389622">
        <ele>60.7003</ele>
        <time>2014-04-03T19:14:41Z</time>
      </trkpt>
      <trkpt lat="59.9805145" lon="17.7389628">
        <ele>60.7003</ele>
        <time>2014-04-03T19:14:42Z</time>
      </trkpt>
      <trkpt lat="59.9804819" lon="17.7389664">
        <ele>61.181</ele>
        <time>2014-04-03T19:14:43Z</time>
      </trkpt>
      <trkpt lat="59.9804497" lon="17.7389747">
        <ele>62.1423</ele>
        <time>2014-04-03T19:14:44Z</time>
      </trkpt>
      <trkpt lat="59.9804191" lon="17.7389689">
        <ele>61.6617</ele>
        <time>2014-04-03T19:14:45Z</time>
      </trkpt>
      <trkpt lat="59.9803902" lon="17.7389701">
        <ele>61.6617</ele>
        <time>2014-04-03T19:14:46Z</time>
      </trkpt>
      <trkpt lat="59.9803632" lon="17.7389592">
        <ele>60.7003</ele>
        <time>2014-04-03T19:14:47Z</time>
      </trkpt>
      <trkpt lat="59.9803342" lon="17.7389574">
        <ele>60.7003</ele>
        <time>2014-04-03T19:14:48Z</time>
      </trkpt>
      <trkpt lat="59.9802982" lon="17.7389516">
        <ele>59.2584</ele>
        <time>2014-04-03T19:14:49Z</time>
      </trkpt>
      <trkpt lat="59.9802609" lon="17.7389464">
        <ele>57.8165</ele>
        <time>2014-04-03T19:14:50Z</time>
      </trkpt>
      <trkpt lat="59.9802269" lon="17.7389423">
        <ele>56.8551</ele>
        <time>2014-04-03T19:14:51Z</time>
      </trkpt>
      <trkpt lat="59.9801943" lon="17.7389369">
        <ele>55.8938</ele>
        <time>2014-04-03T19:14:52Z</time>
      </trkpt>
      <trkpt lat="59.9801613" lon="17.7389265">
        <ele>55.4131</ele>
        <time>2014-04-03T19:14:53Z</time>
      </trkpt>
      <trkpt lat="59.9801281" lon="17.7389125">
        <ele>53.9712</ele>
        <time>2014-04-03T19:14:54Z</time>
      </trkpt>
      <trkpt lat="59.9801009" lon="17.738917">
        <ele>53.4905</ele>
        <time>2014-04-03T19:14:55Z</time>
      </trkpt>
      <trkpt lat="59.9800716" lon="17.7389185">
        <ele>53.0098</ele>
        <time>2014-04-03T19:14:56Z</time>
      </trkpt>
      <trkpt lat="59.980039" lon="17.7389166">
        <ele>51.5679</ele>
        <time>2014-04-03T19:14:57Z</time>
      </trkpt>
      <trkpt lat="59.9800066" lon="17.7389125">
        <ele>51.0872</ele>
        <time>2014-04-03T19:14:58Z</time>
      </trkpt>
      <trkpt lat="59.9799727" lon="17.7389034">
        <ele>50.126</ele>
        <time>2014-04-03T19:14:59Z</time>
      </trkpt>
      <trkpt lat="59.97994" lon="17.7389036">
        <ele>49.1646</ele>
        <time>2014-04-03T19:15:00Z</time>
      </trkpt>
      <trkpt lat="59.979908" lon="17.7389135">
        <ele>49.6453</ele>
        <time>2014-04-03T19:15:01Z</time>
      </trkpt>
      <trkpt lat="59.9798777" lon="17.7389249">
        <ele>50.126</ele>
        <time>2014-04-03T19:15:02Z</time>
      </trkpt>
      <trkpt lat="59.9798455" lon="17.7389223">
        <ele>49.1646</ele>
        <time>2014-04-03T19:15:03Z</time>
      </trkpt>
      <trkpt lat="59.9798201" lon="17.7389213">
        <ele>48.684</ele>
        <time>2014-04-03T19:15:04Z</time>
      </trkpt>
      <trkpt lat="59.9797924" lon="17.7389346">
        <ele>49.6453</ele>
        <time>2014-04-03T19:15:05Z</time>
      </trkpt>
      <trkpt lat="59.9797541" lon="17.7389456">
        <ele>48.684</ele>
        <time>2014-04-03T19:15:06Z</time>
      </trkpt>
      <trkpt lat="59.979721" lon="17.7389742">
        <ele>49.1646</ele>
        <time>2014-04-03T19:15:07Z</time>
      </trkpt>
      <trkpt lat="59.9796878" lon="17.738987">
        <ele>48.684</ele>
        <time>2014-04-03T19:15:08Z</time>
      </trkpt>
      <trkpt lat="59.9796561" lon="17.7390042">
        <ele>49.6453</ele>
        <time>2014-04-03T19:15:09Z</time>
      </trkpt>
      <trkpt lat="59.9796251" lon="17.7390179">
        <ele>50.6066</ele>
        <time>2014-04-03T19:15:10Z</time>
      </trkpt>
      <trkpt lat="59.979595" lon="17.7390254">
        <ele>50.126</ele>
        <time>2014-04-03T19:15:11Z</time>
      </trkpt>
      <trkpt lat="59.9795663" lon="17.7390347">
        <ele>49.6453</ele>
        <time>2014-04-03T19:15:12Z</time>
      </trkpt>
      <trkpt lat="59.9795373" lon="17.7390395">
        <ele>49.1646</ele>
        <time>2014-04-03T19:15:13Z</time>
      </trkpt>
      <trkpt lat="59.9795107" lon="17.7390407">
        <ele>48.684</ele>
        <time>2014-04-03T19:15:14Z</time>
      </trkpt>
      <trkpt lat="59.9794835" lon="17.7390533">
        <ele>48.2034</ele>
        <time>2014-04-03T19:15:15Z</time>
      </trkpt>
      <trkpt lat="59.9794552" lon="17.7390649">
        <ele>48.2034</ele>
        <time>2014-04-03T19:15:16Z</time>
      </trkpt>
      <trkpt lat="59.9794283" lon="17.739071">
        <ele>47.7225</ele>
        <time>2014-04-03T19:15:17Z</time>
      </trkpt>
      <trkpt lat="59.9794003" lon="17.7390901">
        <ele>47.2418</ele>
        <time>2014-04-03T19:15:18Z</time>
      </trkpt>
      <trkpt lat="59.9793728" lon="17.7391101">
        <ele>47.2418</ele>
        <time>2014-04-03T19:15:19Z</time>
      </trkpt>
      <trkpt lat="59.9793474" lon="17.739133">
        <ele>46.7612</ele>
        <time>2014-04-03T19:15:20Z</time>
      </trkpt>
      <trkpt lat="59.9793202" lon="17.7391632">
        <ele>46.7612</ele>
        <time>2014-04-03T19:15:21Z</time>
      </trkpt>
      <trkpt lat="59.9792897" lon="17.7391858">
        <ele>46.2806</ele>
        <time>2014-04-03T19:15:22Z</time>
      </trkpt>
      <trkpt lat="59.9792573" lon="17.7392081">
        <ele>45.7999</ele>
        <time>2014-04-03T19:15:23Z</time>
      </trkpt>
      <trkpt lat="59.9792262" lon="17.7392315">
        <ele>45.7999</ele>
        <time>2014-04-03T19:15:24Z</time>
      </trkpt>
      <trkpt lat="59.9791954" lon="17.7392614">
        <ele>45.7999</ele>
        <time>2014-04-03T19:15:25Z</time>
      </trkpt>
      <trkpt lat="59.9791619" lon="17.7392902">
        <ele>45.3192</ele>
        <time>2014-04-03T19:15:26Z</time>
      </trkpt>
      <trkpt lat="59.9791312" lon="17.739315">
        <ele>44.8386</ele>
        <time>2014-04-03T19:15:27Z</time>
      </trkpt>
      <trkpt lat="59.9790997" lon="17.7393337">
        <ele>44.8386</ele>
        <time>2014-04-03T19:15:28Z</time>
      </trkpt>
      <trkpt lat="59.9790696" lon="17.7393398">
        <ele>43.8773</ele>
        <time>2014-04-03T19:15:29Z</time>
      </trkpt>
      <trkpt lat="59.9790386" lon="17.7393564">
        <ele>43.8773</ele>
        <time>2014-04-03T19:15:30Z</time>
      </trkpt>
      <trkpt lat="59.9790064" lon="17.7393714">
        <ele>43.3966</ele>
        <time>2014-04-03T19:15:31Z</time>
      </trkpt>
      <trkpt lat="59.9789742" lon="17.7393924">
        <ele>43.8773</ele>
        <time>2014-04-03T19:15:32Z</time>
      </trkpt>
      <trkpt lat="59.9789431" lon="17.7394253">
        <ele>44.8386</ele>
        <time>2014-04-03T19:15:33Z</time>
      </trkpt>
      <trkpt lat="59.978925" lon="17.7394677">
        <ele>45.7999</ele>
        <time>2014-04-03T19:15:34Z</time>
      </trkpt>
      <trkpt lat="59.9788692" lon="17.7393994">
        <ele>37.6287</ele>
        <time>2014-04-03T19:16:48Z</time>
      </trkpt>
      <trkpt lat="59.9788572" lon="17.7393876">
        <ele>37.1481</ele>
        <time>2014-04-03T19:16:49Z</time>
      </trkpt>
      <trkpt lat="59.9788402" lon="17.7393787">
        <ele>36.1868</ele>
        <time>2014-04-03T19:16:50Z</time>
      </trkpt>
      <trkpt lat="59.9788225" lon="17.7393779">
        <ele>36.1868</ele>
        <time>2014-04-03T19:16:51Z</time>
      </trkpt>
      <trkpt lat="59.9788003" lon="17.7393729">
        <ele>35.7061</ele>
        <time>2014-04-03T19:16:52Z</time>
      </trkpt>
      <trkpt lat="59.9787801" lon="17.7393687">
        <ele>36.1868</ele>
        <time>2014-04-03T19:16:53Z</time>
      </trkpt>
      <trkpt lat="59.9787563" lon="17.7393585">
        <ele>36.1868</ele>
        <time>2014-04-03T19:16:54Z</time>
      </trkpt>
      <trkpt lat="59.9787321" lon="17.7393533">
        <ele>36.6675</ele>
        <time>2014-04-03T19:16:55Z</time>
      </trkpt>
      <trkpt lat="59.9787076" lon="17.7393534">
        <ele>38.1094</ele>
        <time>2014-04-03T19:16:56Z</time>
      </trkpt>
      <trkpt lat="59.9786806" lon="17.7393531">
        <ele>38.5901</ele>
        <time>2014-04-03T19:16:57Z</time>
      </trkpt>
      <trkpt lat="59.9786494" lon="17.7393577">
        <ele>39.0707</ele>
        <time>2014-04-03T19:16:58Z</time>
      </trkpt>
      <trkpt lat="59.9786149" lon="17.7393641">
        <ele>39.5513</ele>
        <time>2014-04-03T19:16:59Z</time>
      </trkpt>
      <trkpt lat="59.9785869" lon="17.7393714">
        <ele>40.5128</ele>
        <time>2014-04-03T19:17:00Z</time>
      </trkpt>
      <trkpt lat="59.9785582" lon="17.7393791">
        <ele>41.474</ele>
        <time>2014-04-03T19:17:01Z</time>
      </trkpt>
      <trkpt lat="59.9785254" lon="17.7393769">
        <ele>41.474</ele>
        <time>2014-04-03T19:17:02Z</time>
      </trkpt>
      <trkpt lat="59.9784924" lon="17.7393782">
        <ele>41.9547</ele>
        <time>2014-04-03T19:17:03Z</time>
      </trkpt>
      <trkpt lat="59.97846" lon="17.739372">
        <ele>41.9547</ele>
        <time>2014-04-03T19:17:04Z</time>
      </trkpt>
      <trkpt lat="59.9784289" lon="17.7393697">
        <ele>42.916</ele>
        <time>2014-04-03T19:17:05Z</time>
      </trkpt>
      <trkpt lat="59.9784016" lon="17.7393681">
        <ele>44.358</ele>
        <time>2014-04-03T19:17:06Z</time>
      </trkpt>
      <trkpt lat="59.978372" lon="17.7393491">
        <ele>43.8773</ele>
        <time>2014-04-03T19:17:07Z</time>
      </trkpt>
      <trkpt lat="59.9783424" lon="17.7393397">
        <ele>44.8386</ele>
        <time>2014-04-03T19:17:08Z</time>
      </trkpt>
      <trkpt lat="59.9783114" lon="17.7393357">
        <ele>45.7999</ele>
        <time>2014-04-03T19:17:09Z</time>
      </trkpt>
      <trkpt lat="59.9782792" lon="17.7393304">
        <ele>46.2806</ele>
        <time>2014-04-03T19:17:10Z</time>
      </trkpt>
      <trkpt lat="59.9782474" lon="17.7393237">
        <ele>45.3192</ele>
        <time>2014-04-03T19:17:11Z</time>
      </trkpt>
      <trkpt lat="59.9782164" lon="17.7393215">
        <ele>45.3192</ele>
        <time>2014-04-03T19:17:12Z</time>
      </trkpt>
      <trkpt lat="59.9781876" lon="17.7393166">
        <ele>45.3192</ele>
        <time>2014-04-03T19:17:13Z</time>
      </trkpt>
      <trkpt lat="59.9781566" lon="17.7393186">
        <ele>45.7999</ele>
        <time>2014-04-03T19:17:14Z</time>
      </trkpt>
      <trkpt lat="59.9781259" lon="17.7393237">
        <ele>46.7612</ele>
        <time>2014-04-03T19:17:15Z</time>
      </trkpt>
      <trkpt lat="59.9780942" lon="17.7393261">
        <ele>47.7225</ele>
        <time>2014-04-03T19:17:16Z</time>
      </trkpt>
      <trkpt lat="59.9780625" lon="17.7393201">
        <ele>48.2034</ele>
        <time>2014-04-03T19:17:17Z</time>
      </trkpt>
      <trkpt lat="59.9780311" lon="17.7392938">
        <ele>47.2418</ele>
        <time>2014-04-03T19:17:18Z</time>
      </trkpt>
      <trkpt lat="59.9780031" lon="17.7392751">
        <ele>47.2418</ele>
        <time>2014-04-03T19:17:19Z</time>
      </trkpt>
      <trkpt lat="59.9779726" lon="17.7392562">
        <ele>46.7612</ele>
        <time>2014-04-03T19:17:20Z</time>
      </trkpt>
      <trkpt lat="59.9779481" lon="17.739249">
        <ele>46.2806</ele>
        <time>2014-04-03T19:17:21Z</time>
      </trkpt>
      <trkpt lat="59.9779237" lon="17.7392377">
        <ele>46.7612</ele>
        <time>2014-04-03T19:17:22Z</time>
      </trkpt>
      <trkpt lat="59.9778908" lon="17.7392118">
        <ele>46.2806</ele>
        <time>2014-04-03T19:17:23Z</time>
      </trkpt>
      <trkpt lat="59.9778617" lon="17.7391865">
        <ele>45.7999</ele>
        <time>2014-04-03T19:17:24Z</time>
      </trkpt>
      <trkpt lat="59.9778331" lon="17.7391666">
        <ele>45.7999</ele>
        <time>2014-04-03T19:17:25Z</time>
      </trkpt>
      <trkpt lat="59.9778032" lon="17.7391521">
        <ele>45.3192</ele>
        <time>2014-04-03T19:17:26Z</time>
      </trkpt>
      <trkpt lat="59.9777747" lon="17.7391471">
        <ele>44.358</ele>
        <time>2014-04-03T19:17:27Z</time>
      </trkpt>
      <trkpt lat="59.9777413" lon="17.7391487">
        <ele>44.358</ele>
        <time>2014-04-03T19:17:28Z</time>
      </trkpt>
      <trkpt lat="59.9777088" lon="17.7391454">
        <ele>43.8773</ele>
        <time>2014-04-03T19:17:29Z</time>
      </trkpt>
      <trkpt lat="59.9776804" lon="17.7391384">
        <ele>43.3966</ele>
        <time>2014-04-03T19:17:30Z</time>
      </trkpt>
      <trkpt lat="59.9776499" lon="17.7391283">
        <ele>43.3966</ele>
        <time>2014-04-03T19:17:31Z</time>
      </trkpt>
      <trkpt lat="59.9776202" lon="17.7391197">
        <ele>42.4354</ele>
        <time>2014-04-03T19:17:32Z</time>
      </trkpt>
      <trkpt lat="59.9775897" lon="17.7391077">
        <ele>41.9547</ele>
        <time>2014-04-03T19:17:33Z</time>
      </trkpt>
      <trkpt lat="59.9775571" lon="17.7390993">
        <ele>41.9547</ele>
        <time>2014-04-03T19:17:34Z</time>
      </trkpt>
      <trkpt lat="59.977528" lon="17.739103">
        <ele>41.9547</ele>
        <time>2014-04-03T19:17:35Z</time>
      </trkpt>
      <trkpt lat="59.9775006" lon="17.7391081">
        <ele>42.4354</ele>
        <time>2014-04-03T19:17:36Z</time>
      </trkpt>
      <trkpt lat="59.9774711" lon="17.7391084">
        <ele>42.4354</ele>
        <time>2014-04-03T19:17:37Z</time>
      </trkpt>
      <trkpt lat="59.977441" lon="17.7391099">
        <ele>41.9547</ele>
        <time>2014-04-03T19:17:38Z</time>
      </trkpt>
      <trkpt lat="59.9774126" lon="17.7391182">
        <ele>41.9547</ele>
        <time>2014-04-03T19:17:39Z</time>
      </trkpt>
      <trkpt lat="59.9773827" lon="17.7391393">
        <ele>42.916</ele>
        <time>2014-04-03T19:17:40Z</time>
      </trkpt>
      <trkpt lat="59.9773545" lon="17.7391559">
        <ele>43.3966</ele>
        <time>2014-04-03T19:17:41Z</time>
      </trkpt>
      <trkpt lat="59.9773271" lon="17.7391723">
        <ele>43.8773</ele>
        <time>2014-04-03T19:17:42Z</time>
      </trkpt>
      <trkpt lat="59.9772984" lon="17.7391839">
        <ele>44.358</ele>
        <time>2014-04-03T19:17:43Z</time>
      </trkpt>
      <trkpt lat="59.9772715" lon="17.739206">
        <ele>45.3192</ele>
        <time>2014-04-03T19:17:44Z</time>
      </trkpt>
      <trkpt lat="59.9772461" lon="17.7392186">
        <ele>45.3192</ele>
        <time>2014-04-03T19:17:45Z</time>
      </trkpt>
      <trkpt lat="59.9772199" lon="17.7392246">
        <ele>45.3192</ele>
        <time>2014-04-03T19:17:46Z</time>
      </trkpt>
      <trkpt lat="59.9771971" lon="17.7392179">
        <ele>44.8386</ele>
        <time>2014-04-03T19:17:47Z</time>
      </trkpt>
      <trkpt lat="59.9771743" lon="17.7392099">
        <ele>43.8773</ele>
        <time>2014-04-03T19:17:48Z</time>
      </trkpt>
      <trkpt lat="59.9771463" lon="17.7392108">
        <ele>43.3966</ele>
        <time>2014-04-03T19:17:49Z</time>
      </trkpt>
      <trkpt lat="59.9771189" lon="17.7392252">
        <ele>42.916</ele>
        <time>2014-04-03T19:17:50Z</time>
      </trkpt>
      <trkpt lat="59.9770882" lon="17.739248">
        <ele>42.4354</ele>
        <time>2014-04-03T19:17:51Z</time>
      </trkpt>
      <trkpt lat="59.9770578" lon="17.7392709">
        <ele>41.474</ele>
        <time>2014-04-03T19:17:52Z</time>
      </trkpt>
      <trkpt lat="59.9770286" lon="17.7392844">
        <ele>41.474</ele>
        <time>2014-04-03T19:17:53Z</time>
      </trkpt>
      <trkpt lat="59.9769976" lon="17.7393031">
        <ele>40.9934</ele>
        <time>2014-04-03T19:17:54Z</time>
      </trkpt>
      <trkpt lat="59.9769676" lon="17.7393205">
        <ele>40.5128</ele>
        <time>2014-04-03T19:17:55Z</time>
      </trkpt>
      <trkpt lat="59.9769417" lon="17.7393293">
        <ele>40.5128</ele>
        <time>2014-04-03T19:17:56Z</time>
      </trkpt>
      <trkpt lat="59.9769117" lon="17.7393344">
        <ele>40.9934</ele>
        <time>2014-04-03T19:17:57Z</time>
      </trkpt>
      <trkpt lat="59.9768849" lon="17.7393337">
        <ele>40.5128</ele>
        <time>2014-04-03T19:17:58Z</time>
      </trkpt>
      <trkpt lat="59.9768608" lon="17.7393458">
        <ele>39.5513</ele>
        <time>2014-04-03T19:17:59Z</time>
      </trkpt>
      <trkpt lat="59.9768324" lon="17.7393647">
        <ele>38.5901</ele>
        <time>2014-04-03T19:18:00Z</time>
      </trkpt>
      <trkpt lat="59.9768051" lon="17.7393818">
        <ele>38.1094</ele>
        <time>2014-04-03T19:18:01Z</time>
      </trkpt>
      <trkpt lat="59.9767729" lon="17.7393871">
        <ele>36.6675</ele>
        <time>2014-04-03T19:18:02Z</time>
      </trkpt>
      <trkpt lat="59.9767395" lon="17.7393981">
        <ele>36.1868</ele>
        <time>2014-04-03T19:18:03Z</time>
      </trkpt>
      <trkpt lat="59.9767049" lon="17.7394123">
        <ele>35.2255</ele>
        <time>2014-04-03T19:18:04Z</time>
      </trkpt>
      <trkpt lat="59.9766724" lon="17.7394253">
        <ele>34.7449</ele>
        <time>2014-04-03T19:18:05Z</time>
      </trkpt>
      <trkpt lat="59.9766455" lon="17.7394397">
        <ele>34.2642</ele>
        <time>2014-04-03T19:18:06Z</time>
      </trkpt>
      <trkpt lat="59.9766186" lon="17.7394593">
        <ele>34.2642</ele>
        <time>2014-04-03T19:18:07Z</time>
      </trkpt>
      <trkpt lat="59.9765884" lon="17.739478">
        <ele>33.3029</ele>
        <time>2014-04-03T19:18:08Z</time>
      </trkpt>
      <trkpt lat="59.9765627" lon="17.7394962">
        <ele>32.3416</ele>
        <time>2014-04-03T19:18:09Z</time>
      </trkpt>
      <trkpt lat="59.9765382" lon="17.7395159">
        <ele>31.8607</ele>
        <time>2014-04-03T19:18:10Z</time>
      </trkpt>
      <trkpt lat="59.9765147" lon="17.7395351">
        <ele>31.3801</ele>
        <time>2014-04-03T19:18:11Z</time>
      </trkpt>
      <trkpt lat="59.9764929" lon="17.7395573">
        <ele>31.3801</ele>
        <time>2014-04-03T19:18:12Z</time>
      </trkpt>
      <trkpt lat="59.9764719" lon="17.7395782">
        <ele>30.8995</ele>
        <time>2014-04-03T19:18:13Z</time>
      </trkpt>
      <trkpt lat="59.9764464" lon="17.7395989">
        <ele>30.4188</ele>
        <time>2014-04-03T19:18:14Z</time>
      </trkpt>
      <trkpt lat="59.9764212" lon="17.739629">
        <ele>30.4188</ele>
        <time>2014-04-03T19:18:15Z</time>
      </trkpt>
      <trkpt lat="59.9763983" lon="17.7396505">
        <ele>30.4188</ele>
        <time>2014-04-03T19:18:16Z</time>
      </trkpt>
      <trkpt lat="59.976374" lon="17.7396725">
        <ele>31.3801</ele>
        <time>2014-04-03T19:18:17Z</time>
      </trkpt>
      <trkpt lat="59.9763469" lon="17.7396947">
        <ele>32.8223</ele>
        <time>2014-04-03T19:18:18Z</time>
      </trkpt>
      <trkpt lat="59.9763191" lon="17.7397134">
        <ele>33.3029</ele>
        <time>2014-04-03T19:18:19Z</time>
      </trkpt>
      <trkpt lat="59.9762912" lon="17.7397291">
        <ele>33.3029</ele>
        <time>2014-04-03T19:18:20Z</time>
      </trkpt>
      <trkpt lat="59.9762626" lon="17.7397403">
        <ele>34.2642</ele>
        <time>2014-04-03T19:18:21Z</time>
      </trkpt>
      <trkpt lat="59.9762352" lon="17.7397464">
        <ele>34.7449</ele>
        <time>2014-04-03T19:18:22Z</time>
      </trkpt>
      <trkpt lat="59.9762062" lon="17.7397578">
        <ele>35.7061</ele>
        <time>2014-04-03T19:18:23Z</time>
      </trkpt>
      <trkpt lat="59.9761775" lon="17.7397541">
        <ele>35.7061</ele>
        <time>2014-04-03T19:18:24Z</time>
      </trkpt>
      <trkpt lat="59.9761513" lon="17.7397525">
        <ele>36.6675</ele>
        <time>2014-04-03T19:18:25Z</time>
      </trkpt>
      <trkpt lat="59.9761239" lon="17.7397372">
        <ele>36.6675</ele>
        <time>2014-04-03T19:18:26Z</time>
      </trkpt>
      <trkpt lat="59.9760967" lon="17.7397149">
        <ele>36.6675</ele>
        <time>2014-04-03T19:18:27Z</time>
      </trkpt>
      <trkpt lat="59.9760728" lon="17.7396968">
        <ele>37.1481</ele>
        <time>2014-04-03T19:18:28Z</time>
      </trkpt>
      <trkpt lat="59.976048" lon="17.7396744">
        <ele>36.6675</ele>
        <time>2014-04-03T19:18:29Z</time>
      </trkpt>
      <trkpt lat="59.9760197" lon="17.7396465">
        <ele>36.6675</ele>
        <time>2014-04-03T19:18:30Z</time>
      </trkpt>
      <trkpt lat="59.975997" lon="17.7396145">
        <ele>36.1868</ele>
        <time>2014-04-03T19:18:31Z</time>
      </trkpt>
      <trkpt lat="59.975974" lon="17.739582">
        <ele>35.7061</ele>
        <time>2014-04-03T19:18:32Z</time>
      </trkpt>
      <trkpt lat="59.9759486" lon="17.7395461">
        <ele>36.1868</ele>
        <time>2014-04-03T19:18:33Z</time>
      </trkpt>
      <trkpt lat="59.9759297" lon="17.7395077">
        <ele>36.1868</ele>
        <time>2014-04-03T19:18:34Z</time>
      </trkpt>
      <trkpt lat="59.9759112" lon="17.7394651">
        <ele>36.1868</ele>
        <time>2014-04-03T19:18:35Z</time>
      </trkpt>
      <trkpt lat="59.9758892" lon="17.7394113">
        <ele>35.7061</ele>
        <time>2014-04-03T19:18:36Z</time>
      </trkpt>
      <trkpt lat="59.975869" lon="17.7393678">
        <ele>35.2255</ele>
        <time>2014-04-03T19:18:37Z</time>
      </trkpt>
      <trkpt lat="59.9758518" lon="17.7393248">
        <ele>35.7061</ele>
        <time>2014-04-03T19:18:38Z</time>
      </trkpt>
      <trkpt lat="59.975833" lon="17.7392802">
        <ele>35.2255</ele>
        <time>2014-04-03T19:18:39Z</time>
      </trkpt>
      <trkpt lat="59.9758171" lon="17.7392378">
        <ele>35.2255</ele>
        <time>2014-04-03T19:18:40Z</time>
      </trkpt>
      <trkpt lat="59.9757965" lon="17.7391978">
        <ele>35.2255</ele>
        <time>2014-04-03T19:18:41Z</time>
      </trkpt>
      <trkpt lat="59.9757722" lon="17.7391642">
        <ele>35.2255</ele>
        <time>2014-04-03T19:18:42Z</time>
      </trkpt>
      <trkpt lat="59.9757476" lon="17.7391311">
        <ele>34.7449</ele>
        <time>2014-04-03T19:18:43Z</time>
      </trkpt>
      <trkpt lat="59.9757223" lon="17.7390932">
        <ele>34.2642</ele>
        <time>2014-04-03T19:18:44Z</time>
      </trkpt>
      <trkpt lat="59.9757026" lon="17.7390491">
        <ele>34.2642</ele>
        <time>2014-04-03T19:18:45Z</time>
      </trkpt>
      <trkpt lat="59.9756838" lon="17.739007">
        <ele>34.2642</ele>
        <time>2014-04-03T19:18:46Z</time>
      </trkpt>
      <trkpt lat="59.9756648" lon="17.7389586">
        <ele>34.2642</ele>
        <time>2014-04-03T19:18:47Z</time>
      </trkpt>
      <trkpt lat="59.9756484" lon="17.7389134">
        <ele>34.2642</ele>
        <time>2014-04-03T19:18:48Z</time>
      </trkpt>
      <trkpt lat="59.9756292" lon="17.7388761">
        <ele>34.2642</ele>
        <time>2014-04-03T19:18:49Z</time>
      </trkpt>
      <trkpt lat="59.9756085" lon="17.7388415">
        <ele>34.2642</ele>
        <time>2014-04-03T19:18:50Z</time>
      </trkpt>
      <trkpt lat="59.9755897" lon="17.7388128">
        <ele>34.7449</ele>
        <time>2014-04-03T19:18:51Z</time>
      </trkpt>
      <trkpt lat="59.9755673" lon="17.7387751">
        <ele>34.7449</ele>
        <time>2014-04-03T19:18:52Z</time>
      </trkpt>
      <trkpt lat="59.9755443" lon="17.738742">
        <ele>35.7061</ele>
        <time>2014-04-03T19:18:53Z</time>
      </trkpt>
      <trkpt lat="59.9755213" lon="17.7387144">
        <ele>36.1868</ele>
        <time>2014-04-03T19:18:54Z</time>
      </trkpt>
      <trkpt lat="59.9755006" lon="17.7386844">
        <ele>36.1868</ele>
        <time>2014-04-03T19:18:55Z</time>
      </trkpt>
      <trkpt lat="59.975482" lon="17.7386576">
        <ele>36.6675</ele>
        <time>2014-04-03T19:18:56Z</time>
      </trkpt>
      <trkpt lat="59.9754596" lon="17.7386225">
        <ele>36.6675</ele>
        <time>2014-04-03T19:18:57Z</time>
      </trkpt>
      <trkpt lat="59.9754384" lon="17.7385885">
        <ele>37.1481</ele>
        <time>2014-04-03T19:18:58Z</time>
      </trkpt>
      <trkpt lat="59.9754168" lon="17.7385591">
        <ele>37.6287</ele>
        <time>2014-04-03T19:18:59Z</time>
      </trkpt>
      <trkpt lat="59.9753945" lon="17.7385286">
        <ele>38.1094</ele>
        <time>2014-04-03T19:19:00Z</time>
      </trkpt>
      <trkpt lat="59.9753748" lon="17.7384943">
        <ele>38.1094</ele>
        <time>2014-04-03T19:19:01Z</time>
      </trkpt>
      <trkpt lat="59.9753552" lon="17.7384576">
        <ele>38.5901</ele>
        <time>2014-04-03T19:19:02Z</time>
      </trkpt>
      <trkpt lat="59.9753375" lon="17.738426">
        <ele>39.0707</ele>
        <time>2014-04-03T19:19:03Z</time>
      </trkpt>
      <trkpt lat="59.9753207" lon="17.7383976">
        <ele>39.5513</ele>
        <time>2014-04-03T19:19:04Z</time>
      </trkpt>
      <trkpt lat="59.9753026" lon="17.7383655">
        <ele>39.5513</ele>
        <time>2014-04-03T19:19:05Z</time>
      </trkpt>
      <trkpt lat="59.9752841" lon="17.7383345">
        <ele>39.5513</ele>
        <time>2014-04-03T19:19:06Z</time>
      </trkpt>
      <trkpt lat="59.9752635" lon="17.7383006">
        <ele>40.0321</ele>
        <time>2014-04-03T19:19:07Z</time>
      </trkpt>
      <trkpt lat="59.975241" lon="17.738269">
        <ele>40.5128</ele>
        <time>2014-04-03T19:19:08Z</time>
      </trkpt>
      <trkpt lat="59.9752163" lon="17.7382393">
        <ele>40.9934</ele>
        <time>2014-04-03T19:19:09Z</time>
      </trkpt>
      <trkpt lat="59.9751955" lon="17.7382052">
        <ele>41.474</ele>
        <time>2014-04-03T19:19:10Z</time>
      </trkpt>
      <trkpt lat="59.9751737" lon="17.738171">
        <ele>41.9547</ele>
        <time>2014-04-03T19:19:11Z</time>
      </trkpt>
      <trkpt lat="59.975151" lon="17.7381366">
        <ele>41.9547</ele>
        <time>2014-04-03T19:19:12Z</time>
      </trkpt>
      <trkpt lat="59.9751339" lon="17.7381084">
        <ele>41.9547</ele>
        <time>2014-04-03T19:19:13Z</time>
      </trkpt>
      <trkpt lat="59.9751148" lon="17.7380746">
        <ele>41.9547</ele>
        <time>2014-04-03T19:19:14Z</time>
      </trkpt>
      <trkpt lat="59.9750959" lon="17.7380355">
        <ele>42.4354</ele>
        <time>2014-04-03T19:19:15Z</time>
      </trkpt>
      <trkpt lat="59.9750774" lon="17.7379978">
        <ele>42.4354</ele>
        <time>2014-04-03T19:19:16Z</time>
      </trkpt>
      <trkpt lat="59.975058" lon="17.737961">
        <ele>42.4354</ele>
        <time>2014-04-03T19:19:17Z</time>
      </trkpt>
      <trkpt lat="59.9750416" lon="17.7379247">
        <ele>42.916</ele>
        <time>2014-04-03T19:19:18Z</time>
      </trkpt>
      <trkpt lat="59.9750215" lon="17.7378855">
        <ele>42.916</ele>
        <time>2014-04-03T19:19:19Z</time>
      </trkpt>
      <trkpt lat="59.9750003" lon="17.7378433">
        <ele>42.916</ele>
        <time>2014-04-03T19:19:20Z</time>
      </trkpt>
      <trkpt lat="59.9749799" lon="17.7378028">
        <ele>42.916</ele>
        <time>2014-04-03T19:19:21Z</time>
      </trkpt>
      <trkpt lat="59.9749587" lon="17.7377564">
        <ele>42.916</ele>
        <time>2014-04-03T19:19:22Z</time>
      </trkpt>
      <trkpt lat="59.9749373" lon="17.7377075">
        <ele>42.916</ele>
        <time>2014-04-03T19:19:23Z</time>
      </trkpt>
      <trkpt lat="59.9749171" lon="17.7376584">
        <ele>43.3966</ele>
        <time>2014-04-03T19:19:24Z</time>
      </trkpt>
      <trkpt lat="59.9748986" lon="17.7376122">
        <ele>43.3966</ele>
        <time>2014-04-03T19:19:25Z</time>
      </trkpt>
      <trkpt lat="59.9748769" lon="17.7375701">
        <ele>43.8773</ele>
        <time>2014-04-03T19:19:26Z</time>
      </trkpt>
      <trkpt lat="59.9748547" lon="17.7375262">
        <ele>43.8773</ele>
        <time>2014-04-03T19:19:27Z</time>
      </trkpt>
      <trkpt lat="59.9748376" lon="17.7374859">
        <ele>43.8773</ele>
        <time>2014-04-03T19:19:28Z</time>
      </trkpt>
      <trkpt lat="59.9748257" lon="17.7374506">
        <ele>43.8773</ele>
        <time>2014-04-03T19:19:29Z</time>
      </trkpt>
      <trkpt lat="59.9748132" lon="17.7374196">
        <ele>44.358</ele>
        <time>2014-04-03T19:19:30Z</time>
      </trkpt>
      <trkpt lat="59.974795" lon="17.7373824">
        <ele>44.358</ele>
        <time>2014-04-03T19:19:31Z</time>
      </trkpt>
      <trkpt lat="59.9747705" lon="17.7373355">
        <ele>44.358</ele>
        <time>2014-04-03T19:19:32Z</time>
      </trkpt>
      <trkpt lat="59.9747462" lon="17.7372863">
        <ele>44.358</ele>
        <time>2014-04-03T19:19:33Z</time>
      </trkpt>
      <trkpt lat="59.9747291" lon="17.7372415">
        <ele>44.358</ele>
        <time>2014-04-03T19:19:34Z</time>
      </trkpt>
      <trkpt lat="59.9747152" lon="17.7372009">
        <ele>43.8773</ele>
        <time>2014-04-03T19:19:35Z</time>
      </trkpt>
      <trkpt lat="59.9747007" lon="17.7371612">
        <ele>43.8773</ele>
        <time>2014-04-03T19:19:36Z</time>
      </trkpt>
      <trkpt lat="59.9746848" lon="17.7371212">
        <ele>43.8773</ele>
        <time>2014-04-03T19:19:37Z</time>
      </trkpt>
      <trkpt lat="59.9746651" lon="17.7370787">
        <ele>43.8773</ele>
        <time>2014-04-03T19:19:38Z</time>
      </trkpt>
      <trkpt lat="59.9746443" lon="17.7370267">
        <ele>43.3966</ele>
        <time>2014-04-03T19:19:39Z</time>
      </trkpt>
      <trkpt lat="59.9746261" lon="17.7369768">
        <ele>43.3966</ele>
        <time>2014-04-03T19:19:40Z</time>
      </trkpt>
      <trkpt lat="59.9746094" lon="17.7369294">
        <ele>43.3966</ele>
        <time>2014-04-03T19:19:41Z</time>
      </trkpt>
      <trkpt lat="59.9745936" lon="17.7368813">
        <ele>42.916</ele>
        <time>2014-04-03T19:19:42Z</time>
      </trkpt>
      <trkpt lat="59.9745782" lon="17.7368347">
        <ele>42.4354</ele>
        <time>2014-04-03T19:19:43Z</time>
      </trkpt>
      <trkpt lat="59.9745634" lon="17.7367881">
        <ele>42.4354</ele>
        <time>2014-04-03T19:19:44Z</time>
      </trkpt>
      <trkpt lat="59.9745491" lon="17.7367404">
        <ele>41.9547</ele>
        <time>2014-04-03T19:19:45Z</time>
      </trkpt>
      <trkpt lat="59.9745374" lon="17.7366869">
        <ele>41.474</ele>
        <time>2014-04-03T19:19:46Z</time>
      </trkpt>
      <trkpt lat="59.9745253" lon="17.7366349">
        <ele>40.9934</ele>
        <time>2014-04-03T19:19:47Z</time>
      </trkpt>
      <trkpt lat="59.9745106" lon="17.7365835">
        <ele>40.5128</ele>
        <time>2014-04-03T19:19:48Z</time>
      </trkpt>
      <trkpt lat="59.974494" lon="17.7365248">
        <ele>39.5513</ele>
        <time>2014-04-03T19:19:49Z</time>
      </trkpt>
      <trkpt lat="59.9744792" lon="17.7364705">
        <ele>39.5513</ele>
        <time>2014-04-03T19:19:50Z</time>
      </trkpt>
      <trkpt lat="59.9744665" lon="17.7364163">
        <ele>38.5901</ele>
        <time>2014-04-03T19:19:51Z</time>
      </trkpt>
      <trkpt lat="59.9744522" lon="17.7363663">
        <ele>38.5901</ele>
        <time>2014-04-03T19:19:52Z</time>
      </trkpt>
      <trkpt lat="59.9744382" lon="17.7363156">
        <ele>38.1094</ele>
        <time>2014-04-03T19:19:53Z</time>
      </trkpt>
      <trkpt lat="59.9744231" lon="17.7362639">
        <ele>37.6287</ele>
        <time>2014-04-03T19:19:54Z</time>
      </trkpt>
      <trkpt lat="59.9744081" lon="17.7362116">
        <ele>38.1094</ele>
        <time>2014-04-03T19:19:55Z</time>
      </trkpt>
      <trkpt lat="59.9743963" lon="17.7361551">
        <ele>38.1094</ele>
        <time>2014-04-03T19:19:56Z</time>
      </trkpt>
      <trkpt lat="59.9743843" lon="17.736098">
        <ele>37.6287</ele>
        <time>2014-04-03T19:19:57Z</time>
      </trkpt>
      <trkpt lat="59.9743719" lon="17.736038">
        <ele>37.1481</ele>
        <time>2014-04-03T19:19:58Z</time>
      </trkpt>
      <trkpt lat="59.9743593" lon="17.7359774">
        <ele>37.1481</ele>
        <time>2014-04-03T19:19:59Z</time>
      </trkpt>
      <trkpt lat="59.9743463" lon="17.7359138">
        <ele>36.1868</ele>
        <time>2014-04-03T19:20:00Z</time>
      </trkpt>
      <trkpt lat="59.9743357" lon="17.7358553">
        <ele>36.1868</ele>
        <time>2014-04-03T19:20:01Z</time>
      </trkpt>
      <trkpt lat="59.9743264" lon="17.7357945">
        <ele>35.7061</ele>
        <time>2014-04-03T19:20:02Z</time>
      </trkpt>
      <trkpt lat="59.9743168" lon="17.7357332">
        <ele>35.2255</ele>
        <time>2014-04-03T19:20:03Z</time>
      </trkpt>
      <trkpt lat="59.9743104" lon="17.7356804">
        <ele>35.2255</ele>
        <time>2014-04-03T19:20:04Z</time>
      </trkpt>
      <trkpt lat="59.9743055" lon="17.7356279">
        <ele>34.7449</ele>
        <time>2014-04-03T19:20:05Z</time>
      </trkpt>
      <trkpt lat="59.9742976" lon="17.7355743">
        <ele>34.2642</ele>
        <time>2014-04-03T19:20:06Z</time>
      </trkpt>
      <trkpt lat="59.97429" lon="17.7355194">
        <ele>34.2642</ele>
        <time>2014-04-03T19:20:07Z</time>
      </trkpt>
      <trkpt lat="59.9742843" lon="17.7354687">
        <ele>33.7834</ele>
        <time>2014-04-03T19:20:08Z</time>
      </trkpt>
      <trkpt lat="59.9742776" lon="17.7354143">
        <ele>33.7834</ele>
        <time>2014-04-03T19:20:09Z</time>
      </trkpt>
      <trkpt lat="59.9742697" lon="17.7353577">
        <ele>33.3029</ele>
        <time>2014-04-03T19:20:10Z</time>
      </trkpt>
      <trkpt lat="59.9742619" lon="17.7352967">
        <ele>32.8223</ele>
        <time>2014-04-03T19:20:11Z</time>
      </trkpt>
      <trkpt lat="59.9742527" lon="17.7352349">
        <ele>32.3416</ele>
        <time>2014-04-03T19:20:12Z</time>
      </trkpt>
      <trkpt lat="59.974246" lon="17.7351806">
        <ele>31.8607</ele>
        <time>2014-04-03T19:20:13Z</time>
      </trkpt>
      <trkpt lat="59.9742402" lon="17.7351225">
        <ele>31.3801</ele>
        <time>2014-04-03T19:20:14Z</time>
      </trkpt>
      <trkpt lat="59.9742445" lon="17.7350744">
        <ele>31.3801</ele>
        <time>2014-04-03T19:20:15Z</time>
      </trkpt>
      <trkpt lat="59.9742481" lon="17.7350248">
        <ele>31.3801</ele>
        <time>2014-04-03T19:20:16Z</time>
      </trkpt>
      <trkpt lat="59.9742465" lon="17.7349704">
        <ele>30.8995</ele>
        <time>2014-04-03T19:20:17Z</time>
      </trkpt>
      <trkpt lat="59.9742448" lon="17.734916">
        <ele>31.3801</ele>
        <time>2014-04-03T19:20:18Z</time>
      </trkpt>
      <trkpt lat="59.9742423" lon="17.7348636">
        <ele>30.8995</ele>
        <time>2014-04-03T19:20:19Z</time>
      </trkpt>
      <trkpt lat="59.9742401" lon="17.7348119">
        <ele>30.8995</ele>
        <time>2014-04-03T19:20:20Z</time>
      </trkpt>
      <trkpt lat="59.9742376" lon="17.7347539">
        <ele>30.8995</ele>
        <time>2014-04-03T19:20:21Z</time>
      </trkpt>
      <trkpt lat="59.9742352" lon="17.7346993">
        <ele>30.8995</ele>
        <time>2014-04-03T19:20:22Z</time>
      </trkpt>
      <trkpt lat="59.9742339" lon="17.7346446">
        <ele>31.3801</ele>
        <time>2014-04-03T19:20:23Z</time>
      </trkpt>
      <trkpt lat="59.9742308" lon="17.7345871">
        <ele>31.8607</ele>
        <time>2014-04-03T19:20:24Z</time>
      </trkpt>
      <trkpt lat="59.9742275" lon="17.7345286">
        <ele>31.8607</ele>
        <time>2014-04-03T19:20:25Z</time>
      </trkpt>
      <trkpt lat="59.974228" lon="17.7344731">
        <ele>31.8607</ele>
        <time>2014-04-03T19:20:26Z</time>
      </trkpt>
      <trkpt lat="59.9742303" lon="17.7344207">
        <ele>31.8607</ele>
        <time>2014-04-03T19:20:27Z</time>
      </trkpt>
      <trkpt lat="59.974233" lon="17.7343675">
        <ele>32.3416</ele>
        <time>2014-04-03T19:20:28Z</time>
      </trkpt>
      <trkpt lat="59.9742363" lon="17.7343199">
        <ele>32.3416</ele>
        <time>2014-04-03T19:20:29Z</time>
      </trkpt>
      <trkpt lat="59.9742456" lon="17.7342717">
        <ele>32.8223</ele>
        <time>2014-04-03T19:20:30Z</time>
      </trkpt>
      <trkpt lat="59.974256" lon="17.7342212">
        <ele>32.3416</ele>
        <time>2014-04-03T19:20:31Z</time>
      </trkpt>
      <trkpt lat="59.9742598" lon="17.7341683">
        <ele>32.3416</ele>
        <time>2014-04-03T19:20:32Z</time>
      </trkpt>
      <trkpt lat="59.9742655" lon="17.7341148">
        <ele>32.3416</ele>
        <time>2014-04-03T19:20:33Z</time>
      </trkpt>
      <trkpt lat="59.9742684" lon="17.7340613">
        <ele>32.3416</ele>
        <time>2014-04-03T19:20:34Z</time>
      </trkpt>
      <trkpt lat="59.9742755" lon="17.7340095">
        <ele>31.8607</ele>
        <time>2014-04-03T19:20:35Z</time>
      </trkpt>
      <trkpt lat="59.9742812" lon="17.7339566">
        <ele>32.3416</ele>
        <time>2014-04-03T19:20:36Z</time>
      </trkpt>
      <trkpt lat="59.9742802" lon="17.7338959">
        <ele>31.8607</ele>
        <time>2014-04-03T19:20:37Z</time>
      </trkpt>
      <trkpt lat="59.9742832" lon="17.7338371">
        <ele>31.8607</ele>
        <time>2014-04-03T19:20:38Z</time>
      </trkpt>
      <trkpt lat="59.9742891" lon="17.7337826">
        <ele>31.8607</ele>
        <time>2014-04-03T19:20:39Z</time>
      </trkpt>
      <trkpt lat="59.9742947" lon="17.7337259">
        <ele>31.3801</ele>
        <time>2014-04-03T19:20:40Z</time>
      </trkpt>
      <trkpt lat="59.9742938" lon="17.7336635">
        <ele>31.3801</ele>
        <time>2014-04-03T19:20:41Z</time>
      </trkpt>
      <trkpt lat="59.9742933" lon="17.7336032">
        <ele>31.3801</ele>
        <time>2014-04-03T19:20:42Z</time>
      </trkpt>
      <trkpt lat="59.9742992" lon="17.7335536">
        <ele>30.8995</ele>
        <time>2014-04-03T19:20:43Z</time>
      </trkpt>
      <trkpt lat="59.9743055" lon="17.733505">
        <ele>30.8995</ele>
        <time>2014-04-03T19:20:44Z</time>
      </trkpt>
      <trkpt lat="59.9743124" lon="17.7334581">
        <ele>30.4188</ele>
        <time>2014-04-03T19:20:45Z</time>
      </trkpt>
      <trkpt lat="59.9743168" lon="17.7334084">
        <ele>30.4188</ele>
        <time>2014-04-03T19:20:46Z</time>
      </trkpt>
      <trkpt lat="59.9743242" lon="17.7333573">
        <ele>29.9381</ele>
        <time>2014-04-03T19:20:47Z</time>
      </trkpt>
      <trkpt lat="59.9743295" lon="17.7333056">
        <ele>29.4575</ele>
        <time>2014-04-03T19:20:48Z</time>
      </trkpt>
      <trkpt lat="59.9743284" lon="17.7332469">
        <ele>29.4575</ele>
        <time>2014-04-03T19:20:49Z</time>
      </trkpt>
      <trkpt lat="59.9743311" lon="17.7331937">
        <ele>28.9769</ele>
        <time>2014-04-03T19:20:50Z</time>
      </trkpt>
      <trkpt lat="59.9743324" lon="17.7331356">
        <ele>28.9769</ele>
        <time>2014-04-03T19:20:51Z</time>
      </trkpt>
      <trkpt lat="59.9743342" lon="17.7330756">
        <ele>28.9769</ele>
        <time>2014-04-03T19:20:52Z</time>
      </trkpt>
      <trkpt lat="59.974335" lon="17.7330113">
        <ele>28.9769</ele>
        <time>2014-04-03T19:20:53Z</time>
      </trkpt>
      <trkpt lat="59.9743411" lon="17.7329583">
        <ele>28.4962</ele>
        <time>2014-04-03T19:20:54Z</time>
      </trkpt>
      <trkpt lat="59.9743523" lon="17.7329176">
        <ele>28.0155</ele>
        <time>2014-04-03T19:20:55Z</time>
      </trkpt>
      <trkpt lat="59.9743621" lon="17.732871">
        <ele>27.5349</ele>
        <time>2014-04-03T19:20:56Z</time>
      </trkpt>
      <trkpt lat="59.9743691" lon="17.7328234">
        <ele>27.0543</ele>
        <time>2014-04-03T19:20:57Z</time>
      </trkpt>
      <trkpt lat="59.9743777" lon="17.7327766">
        <ele>27.0543</ele>
        <time>2014-04-03T19:20:58Z</time>
      </trkpt>
      <trkpt lat="59.9743848" lon="17.7327262">
        <ele>27.0543</ele>
        <time>2014-04-03T19:20:59Z</time>
      </trkpt>
      <trkpt lat="59.974388" lon="17.7326687">
        <ele>27.5349</ele>
        <time>2014-04-03T19:21:00Z</time>
      </trkpt>
      <trkpt lat="59.9743916" lon="17.7326107">
        <ele>27.5349</ele>
        <time>2014-04-03T19:21:01Z</time>
      </trkpt>
      <trkpt lat="59.9743931" lon="17.7325534">
        <ele>27.5349</ele>
        <time>2014-04-03T19:21:02Z</time>
      </trkpt>
      <trkpt lat="59.974392" lon="17.7324978">
        <ele>27.0543</ele>
        <time>2014-04-03T19:21:03Z</time>
      </trkpt>
      <trkpt lat="59.9743881" lon="17.7324456">
        <ele>28.0155</ele>
        <time>2014-04-03T19:21:04Z</time>
      </trkpt>
      <trkpt lat="59.9743895" lon="17.7323919">
        <ele>28.0155</ele>
        <time>2014-04-03T19:21:05Z</time>
      </trkpt>
      <trkpt lat="59.9743874" lon="17.7323326">
        <ele>28.0155</ele>
        <time>2014-04-03T19:21:06Z</time>
      </trkpt>
      <trkpt lat="59.9743838" lon="17.7322731">
        <ele>28.0155</ele>
        <time>2014-04-03T19:21:07Z</time>
      </trkpt>
      <trkpt lat="59.9743875" lon="17.7322264">
        <ele>28.9769</ele>
        <time>2014-04-03T19:21:08Z</time>
      </trkpt>
      <trkpt lat="59.9743914" lon="17.7321758">
        <ele>28.9769</ele>
        <time>2014-04-03T19:21:09Z</time>
      </trkpt>
      <trkpt lat="59.974391" lon="17.7321196">
        <ele>29.4575</ele>
        <time>2014-04-03T19:21:10Z</time>
      </trkpt>
      <trkpt lat="59.9743865" lon="17.7320598">
        <ele>29.4575</ele>
        <time>2014-04-03T19:21:11Z</time>
      </trkpt>
      <trkpt lat="59.9743822" lon="17.7319954">
        <ele>30.4188</ele>
        <time>2014-04-03T19:21:12Z</time>
      </trkpt>
      <trkpt lat="59.9743801" lon="17.7319365">
        <ele>30.8995</ele>
        <time>2014-04-03T19:21:13Z</time>
      </trkpt>
      <trkpt lat="59.9743758" lon="17.7318763">
        <ele>31.8607</ele>
        <time>2014-04-03T19:21:14Z</time>
      </trkpt>
      <trkpt lat="59.9743681" lon="17.7318109">
        <ele>32.3416</ele>
        <time>2014-04-03T19:21:15Z</time>
      </trkpt>
      <trkpt lat="59.9743645" lon="17.731748">
        <ele>32.8223</ele>
        <time>2014-04-03T19:21:16Z</time>
      </trkpt>
      <trkpt lat="59.9743673" lon="17.7316967">
        <ele>32.3416</ele>
        <time>2014-04-03T19:21:17Z</time>
      </trkpt>
      <trkpt lat="59.974372" lon="17.7316497">
        <ele>31.8607</ele>
        <time>2014-04-03T19:21:18Z</time>
      </trkpt>
      <trkpt lat="59.9743781" lon="17.7315981">
        <ele>31.8607</ele>
        <time>2014-04-03T19:21:19Z</time>
      </trkpt>
      <trkpt lat="59.9743802" lon="17.7315401">
        <ele>31.8607</ele>
        <time>2014-04-03T19:21:20Z</time>
      </trkpt>
      <trkpt lat="59.9743806" lon="17.73148">
        <ele>31.8607</ele>
        <time>2014-04-03T19:21:21Z</time>
      </trkpt>
      <trkpt lat="59.9743885" lon="17.7314308">
        <ele>31.8607</ele>
        <time>2014-04-03T19:21:22Z</time>
      </trkpt>
      <trkpt lat="59.9743947" lon="17.7313788">
        <ele>30.8995</ele>
        <time>2014-04-03T19:21:23Z</time>
      </trkpt>
      <trkpt lat="59.9743948" lon="17.7313165">
        <ele>30.8995</ele>
        <time>2014-04-03T19:21:24Z</time>
      </trkpt>
      <trkpt lat="59.9743938" lon="17.7312626">
        <ele>31.3801</ele>
        <time>2014-04-03T19:21:25Z</time>
      </trkpt>
      <trkpt lat="59.9743962" lon="17.7312162">
        <ele>31.8607</ele>
        <time>2014-04-03T19:21:26Z</time>
      </trkpt>
      <trkpt lat="59.9743945" lon="17.7311562">
        <ele>30.8995</ele>
        <time>2014-04-03T19:21:27Z</time>
      </trkpt>
      <trkpt lat="59.9743912" lon="17.731094">
        <ele>30.4188</ele>
        <time>2014-04-03T19:21:28Z</time>
      </trkpt>
      <trkpt lat="59.9743925" lon="17.731036">
        <ele>29.9381</ele>
        <time>2014-04-03T19:21:29Z</time>
      </trkpt>
      <trkpt lat="59.9744" lon="17.7309869">
        <ele>28.9769</ele>
        <time>2014-04-03T19:21:30Z</time>
      </trkpt>
      <trkpt lat="59.9744061" lon="17.7309411">
        <ele>29.4575</ele>
        <time>2014-04-03T19:21:31Z</time>
      </trkpt>
      <trkpt lat="59.9744111" lon="17.7308943">
        <ele>29.9381</ele>
        <time>2014-04-03T19:21:32Z</time>
      </trkpt>
      <trkpt lat="59.97442" lon="17.7308439">
        <ele>29.9381</ele>
        <time>2014-04-03T19:21:33Z</time>
      </trkpt>
      <trkpt lat="59.9744299" lon="17.7307953">
        <ele>30.4188</ele>
        <time>2014-04-03T19:21:34Z</time>
      </trkpt>
      <trkpt lat="59.9744338" lon="17.7307459">
        <ele>30.4188</ele>
        <time>2014-04-03T19:21:35Z</time>
      </trkpt>
      <trkpt lat="59.9744351" lon="17.7306895">
        <ele>30.8995</ele>
        <time>2014-04-03T19:21:36Z</time>
      </trkpt>
      <trkpt lat="59.9744365" lon="17.7306317">
        <ele>30.8995</ele>
        <time>2014-04-03T19:21:37Z</time>
      </trkpt>
      <trkpt lat="59.9744421" lon="17.7305759">
        <ele>30.8995</ele>
        <time>2014-04-03T19:21:38Z</time>
      </trkpt>
      <trkpt lat="59.9744474" lon="17.7305213">
        <ele>30.8995</ele>
        <time>2014-04-03T19:21:39Z</time>
      </trkpt>
      <trkpt lat="59.9744548" lon="17.7304689">
        <ele>30.8995</ele>
        <time>2014-04-03T19:21:40Z</time>
      </trkpt>
      <trkpt lat="59.9744629" lon="17.7304203">
        <ele>30.8995</ele>
        <time>2014-04-03T19:21:41Z</time>
      </trkpt>
      <trkpt lat="59.9744634" lon="17.7303679">
        <ele>30.4188</ele>
        <time>2014-04-03T19:21:42Z</time>
      </trkpt>
      <trkpt lat="59.9744647" lon="17.7303157">
        <ele>30.8995</ele>
        <time>2014-04-03T19:21:43Z</time>
      </trkpt>
      <trkpt lat="59.9744656" lon="17.7302627">
        <ele>30.4188</ele>
        <time>2014-04-03T19:21:44Z</time>
      </trkpt>
      <trkpt lat="59.9744668" lon="17.7302078">
        <ele>30.4188</ele>
        <time>2014-04-03T19:21:45Z</time>
      </trkpt>
      <trkpt lat="59.9744683" lon="17.7301546">
        <ele>29.9381</ele>
        <time>2014-04-03T19:21:46Z</time>
      </trkpt>
      <trkpt lat="59.9744708" lon="17.7300979">
        <ele>30.4188</ele>
        <time>2014-04-03T19:21:47Z</time>
      </trkpt>
      <trkpt lat="59.9744755" lon="17.7300434">
        <ele>29.9381</ele>
        <time>2014-04-03T19:21:48Z</time>
      </trkpt>
      <trkpt lat="59.9744765" lon="17.7299891">
        <ele>29.9381</ele>
        <time>2014-04-03T19:21:49Z</time>
      </trkpt>
      <trkpt lat="59.9744759" lon="17.7299338">
        <ele>29.4575</ele>
        <time>2014-04-03T19:21:50Z</time>
      </trkpt>
      <trkpt lat="59.9744838" lon="17.7298876">
        <ele>29.9381</ele>
        <time>2014-04-03T19:21:51Z</time>
      </trkpt>
      <trkpt lat="59.9744967" lon="17.7298426">
        <ele>29.9381</ele>
        <time>2014-04-03T19:21:52Z</time>
      </trkpt>
      <trkpt lat="59.9745061" lon="17.729795">
        <ele>29.9381</ele>
        <time>2014-04-03T19:21:53Z</time>
      </trkpt>
      <trkpt lat="59.9745117" lon="17.7297415">
        <ele>29.9381</ele>
        <time>2014-04-03T19:21:54Z</time>
      </trkpt>
      <trkpt lat="59.9745174" lon="17.7296846">
        <ele>29.9381</ele>
        <time>2014-04-03T19:21:55Z</time>
      </trkpt>
      <trkpt lat="59.9745226" lon="17.7296307">
        <ele>30.4188</ele>
        <time>2014-04-03T19:21:56Z</time>
      </trkpt>
      <trkpt lat="59.9745277" lon="17.7295782">
        <ele>30.4188</ele>
        <time>2014-04-03T19:21:57Z</time>
      </trkpt>
      <trkpt lat="59.9745298" lon="17.7295241">
        <ele>30.4188</ele>
        <time>2014-04-03T19:21:58Z</time>
      </trkpt>
      <trkpt lat="59.974532" lon="17.7294663">
        <ele>30.4188</ele>
        <time>2014-04-03T19:21:59Z</time>
      </trkpt>
      <trkpt lat="59.9745338" lon="17.7294085">
        <ele>30.4188</ele>
        <time>2014-04-03T19:22:00Z</time>
      </trkpt>
      <trkpt lat="59.9745309" lon="17.7293478">
        <ele>30.8995</ele>
        <time>2014-04-03T19:22:01Z</time>
      </trkpt>
      <trkpt lat="59.9745286" lon="17.7292861">
        <ele>30.4188</ele>
        <time>2014-04-03T19:22:02Z</time>
      </trkpt>
      <trkpt lat="59.9745258" lon="17.7292241">
        <ele>29.9381</ele>
        <time>2014-04-03T19:22:03Z</time>
      </trkpt>
      <trkpt lat="59.9745286" lon="17.72917">
        <ele>30.4188</ele>
        <time>2014-04-03T19:22:04Z</time>
      </trkpt>
      <trkpt lat="59.9745323" lon="17.7291195">
        <ele>30.4188</ele>
        <time>2014-04-03T19:22:05Z</time>
      </trkpt>
      <trkpt lat="59.9745278" lon="17.7290556">
        <ele>30.4188</ele>
        <time>2014-04-03T19:22:06Z</time>
      </trkpt>
      <trkpt lat="59.9745313" lon="17.7290032">
        <ele>30.4188</ele>
        <time>2014-04-03T19:22:07Z</time>
      </trkpt>
      <trkpt lat="59.9745279" lon="17.728948">
        <ele>30.4188</ele>
        <time>2014-04-03T19:22:08Z</time>
      </trkpt>
      <trkpt lat="59.9745309" lon="17.7288984">
        <ele>30.4188</ele>
        <time>2014-04-03T19:22:09Z</time>
      </trkpt>
      <trkpt lat="59.9745361" lon="17.7288494">
        <ele>30.8995</ele>
        <time>2014-04-03T19:22:10Z</time>
      </trkpt>
      <trkpt lat="59.9745438" lon="17.7288015">
        <ele>31.3801</ele>
        <time>2014-04-03T19:22:11Z</time>
      </trkpt>
      <trkpt lat="59.9745458" lon="17.7287502">
        <ele>31.3801</ele>
        <time>2014-04-03T19:22:12Z</time>
      </trkpt>
      <trkpt lat="59.9745444" lon="17.7286974">
        <ele>31.8607</ele>
        <time>2014-04-03T19:22:13Z</time>
      </trkpt>
      <trkpt lat="59.9745424" lon="17.7286434">
        <ele>31.3801</ele>
        <time>2014-04-03T19:22:14Z</time>
      </trkpt>
      <trkpt lat="59.9745392" lon="17.7285904">
        <ele>31.3801</ele>
        <time>2014-04-03T19:22:15Z</time>
      </trkpt>
      <trkpt lat="59.9745401" lon="17.7285353">
        <ele>30.8995</ele>
        <time>2014-04-03T19:22:16Z</time>
      </trkpt>
      <trkpt lat="59.9745413" lon="17.7284816">
        <ele>30.8995</ele>
        <time>2014-04-03T19:22:17Z</time>
      </trkpt>
      <trkpt lat="59.9745382" lon="17.7284243">
        <ele>31.3801</ele>
        <time>2014-04-03T19:22:18Z</time>
      </trkpt>
      <trkpt lat="59.9745359" lon="17.7283668">
        <ele>31.3801</ele>
        <time>2014-04-03T19:22:19Z</time>
      </trkpt>
      <trkpt lat="59.9745283" lon="17.7283">
        <ele>31.3801</ele>
        <time>2014-04-03T19:22:20Z</time>
      </trkpt>
      <trkpt lat="59.9745204" lon="17.7282379">
        <ele>31.3801</ele>
        <time>2014-04-03T19:22:21Z</time>
      </trkpt>
      <trkpt lat="59.9745133" lon="17.7281801">
        <ele>31.3801</ele>
        <time>2014-04-03T19:22:22Z</time>
      </trkpt>
      <trkpt lat="59.9745107" lon="17.7281244">
        <ele>30.8995</ele>
        <time>2014-04-03T19:22:23Z</time>
      </trkpt>
      <trkpt lat="59.974508" lon="17.7280736">
        <ele>30.4188</ele>
        <time>2014-04-03T19:22:24Z</time>
      </trkpt>
      <trkpt lat="59.9744999" lon="17.7280116">
        <ele>30.4188</ele>
        <time>2014-04-03T19:22:25Z</time>
      </trkpt>
      <trkpt lat="59.9744877" lon="17.7279414">
        <ele>29.9381</ele>
        <time>2014-04-03T19:22:26Z</time>
      </trkpt>
      <trkpt lat="59.9744805" lon="17.7278786">
        <ele>30.4188</ele>
        <time>2014-04-03T19:22:27Z</time>
      </trkpt>
      <trkpt lat="59.9744776" lon="17.7278177">
        <ele>30.8995</ele>
        <time>2014-04-03T19:22:28Z</time>
      </trkpt>
      <trkpt lat="59.9744735" lon="17.7277551">
        <ele>31.3801</ele>
        <time>2014-04-03T19:22:29Z</time>
      </trkpt>
      <trkpt lat="59.9744711" lon="17.7276944">
        <ele>30.8995</ele>
        <time>2014-04-03T19:22:30Z</time>
      </trkpt>
      <trkpt lat="59.9744662" lon="17.7276334">
        <ele>31.3801</ele>
        <time>2014-04-03T19:22:31Z</time>
      </trkpt>
      <trkpt lat="59.9744605" lon="17.7275695">
        <ele>31.3801</ele>
        <time>2014-04-03T19:22:32Z</time>
      </trkpt>
      <trkpt lat="59.9744589" lon="17.7275117">
        <ele>31.3801</ele>
        <time>2014-04-03T19:22:33Z</time>
      </trkpt>
      <trkpt lat="59.9744557" lon="17.727454">
        <ele>30.8995</ele>
        <time>2014-04-03T19:22:34Z</time>
      </trkpt>
      <trkpt lat="59.9744527" lon="17.7273905">
        <ele>30.8995</ele>
        <time>2014-04-03T19:22:35Z</time>
      </trkpt>
      <trkpt lat="59.9744516" lon="17.7273306">
        <ele>30.8995</ele>
        <time>2014-04-03T19:22:36Z</time>
      </trkpt>
      <trkpt lat="59.9744517" lon="17.7272751">
        <ele>30.8995</ele>
        <time>2014-04-03T19:22:37Z</time>
      </trkpt>
      <trkpt lat="59.9744501" lon="17.7272172">
        <ele>30.8995</ele>
        <time>2014-04-03T19:22:38Z</time>
      </trkpt>
      <trkpt lat="59.974448" lon="17.7271577">
        <ele>30.8995</ele>
        <time>2014-04-03T19:22:39Z</time>
      </trkpt>
      <trkpt lat="59.9744459" lon="17.7271014">
        <ele>30.4188</ele>
        <time>2014-04-03T19:22:40Z</time>
      </trkpt>
      <trkpt lat="59.9744517" lon="17.7270557">
        <ele>30.8995</ele>
        <time>2014-04-03T19:22:41Z</time>
      </trkpt>
      <trkpt lat="59.9744577" lon="17.7270096">
        <ele>30.8995</ele>
        <time>2014-04-03T19:22:42Z</time>
      </trkpt>
      <trkpt lat="59.9744552" lon="17.7269542">
        <ele>30.8995</ele>
        <time>2014-04-03T19:22:43Z</time>
      </trkpt>
      <trkpt lat="59.9744506" lon="17.7268972">
        <ele>30.4188</ele>
        <time>2014-04-03T19:22:44Z</time>
      </trkpt>
      <trkpt lat="59.9744489" lon="17.7268439">
        <ele>30.4188</ele>
        <time>2014-04-03T19:22:45Z</time>
      </trkpt>
      <trkpt lat="59.9744475" lon="17.7267908">
        <ele>29.4575</ele>
        <time>2014-04-03T19:22:46Z</time>
      </trkpt>
      <trkpt lat="59.9744447" lon="17.7267352">
        <ele>29.4575</ele>
        <time>2014-04-03T19:22:47Z</time>
      </trkpt>
      <trkpt lat="59.9744494" lon="17.7266874">
        <ele>28.9769</ele>
        <time>2014-04-03T19:22:48Z</time>
      </trkpt>
      <trkpt lat="59.974454" lon="17.726643">
        <ele>28.4962</ele>
        <time>2014-04-03T19:22:49Z</time>
      </trkpt>
      <trkpt lat="59.9744566" lon="17.7265972">
        <ele>27.5349</ele>
        <time>2014-04-03T19:22:50Z</time>
      </trkpt>
      <trkpt lat="59.9744618" lon="17.7265523">
        <ele>27.5349</ele>
        <time>2014-04-03T19:22:51Z</time>
      </trkpt>
      <trkpt lat="59.9744657" lon="17.7265081">
        <ele>26.5736</ele>
        <time>2014-04-03T19:22:52Z</time>
      </trkpt>
      <trkpt lat="59.9744693" lon="17.7264677">
        <ele>26.0929</ele>
        <time>2014-04-03T19:22:53Z</time>
      </trkpt>
      <trkpt lat="59.9744662" lon="17.7264139">
        <ele>25.6123</ele>
        <time>2014-04-03T19:22:54Z</time>
      </trkpt>
      <trkpt lat="59.974467" lon="17.726361">
        <ele>24.651</ele>
        <time>2014-04-03T19:22:55Z</time>
      </trkpt>
      <trkpt lat="59.9744675" lon="17.7263103">
        <ele>24.1703</ele>
        <time>2014-04-03T19:22:56Z</time>
      </trkpt>
      <trkpt lat="59.974462" lon="17.7262513">
        <ele>24.1703</ele>
        <time>2014-04-03T19:22:57Z</time>
      </trkpt>
      <trkpt lat="59.9744573" lon="17.7261959">
        <ele>24.1703</ele>
        <time>2014-04-03T19:22:58Z</time>
      </trkpt>
      <trkpt lat="59.9744553" lon="17.7261434">
        <ele>24.651</ele>
        <time>2014-04-03T19:22:59Z</time>
      </trkpt>
      <trkpt lat="59.9744527" lon="17.7260891">
        <ele>24.1703</ele>
        <time>2014-04-03T19:23:00Z</time>
      </trkpt>
      <trkpt lat="59.9744506" lon="17.7260414">
        <ele>24.1703</ele>
        <time>2014-04-03T19:23:01Z</time>
      </trkpt>
      <trkpt lat="59.9744525" lon="17.7259949">
        <ele>24.1703</ele>
        <time>2014-04-03T19:23:02Z</time>
      </trkpt>
      <trkpt lat="59.9744525" lon="17.7259434">
        <ele>24.1703</ele>
        <time>2014-04-03T19:23:03Z</time>
      </trkpt>
      <trkpt lat="59.9744455" lon="17.7258854">
        <ele>24.651</ele>
        <time>2014-04-03T19:23:04Z</time>
      </trkpt>
      <trkpt lat="59.9744406" lon="17.7258309">
        <ele>24.651</ele>
        <time>2014-04-03T19:23:05Z</time>
      </trkpt>
      <trkpt lat="59.9744387" lon="17.725784">
        <ele>24.651</ele>
        <time>2014-04-03T19:23:06Z</time>
      </trkpt>
      <trkpt lat="59.9744372" lon="17.7257356">
        <ele>24.651</ele>
        <time>2014-04-03T19:23:07Z</time>
      </trkpt>
      <trkpt lat="59.9744334" lon="17.7256854">
        <ele>25.1317</ele>
        <time>2014-04-03T19:23:08Z</time>
      </trkpt>
      <trkpt lat="59.9744264" lon="17.7256339">
        <ele>25.1317</ele>
        <time>2014-04-03T19:23:09Z</time>
      </trkpt>
      <trkpt lat="59.9744279" lon="17.7255912">
        <ele>25.6123</ele>
        <time>2014-04-03T19:23:10Z</time>
      </trkpt>
      <trkpt lat="59.9744329" lon="17.7255543">
        <ele>25.6123</ele>
        <time>2014-04-03T19:23:11Z</time>
      </trkpt>
      <trkpt lat="59.9744298" lon="17.7255048">
        <ele>26.5736</ele>
        <time>2014-04-03T19:23:12Z</time>
      </trkpt>
      <trkpt lat="59.9744238" lon="17.7254489">
        <ele>26.5736</ele>
        <time>2014-04-03T19:23:13Z</time>
      </trkpt>
      <trkpt lat="59.9744155" lon="17.7253906">
        <ele>27.0543</ele>
        <time>2014-04-03T19:23:14Z</time>
      </trkpt>
      <trkpt lat="59.9744088" lon="17.7253357">
        <ele>27.0543</ele>
        <time>2014-04-03T19:23:15Z</time>
      </trkpt>
      <trkpt lat="59.9744013" lon="17.7252844">
        <ele>27.0543</ele>
        <time>2014-04-03T19:23:16Z</time>
      </trkpt>
      <trkpt lat="59.9743865" lon="17.7252205">
        <ele>27.0543</ele>
        <time>2014-04-03T19:23:17Z</time>
      </trkpt>
      <trkpt lat="59.9743707" lon="17.7251557">
        <ele>27.0543</ele>
        <time>2014-04-03T19:23:18Z</time>
      </trkpt>
      <trkpt lat="59.9743574" lon="17.725096">
        <ele>27.5349</ele>
        <time>2014-04-03T19:23:19Z</time>
      </trkpt>
      <trkpt lat="59.9743433" lon="17.7250324">
        <ele>27.5349</ele>
        <time>2014-04-03T19:23:20Z</time>
      </trkpt>
      <trkpt lat="59.9743328" lon="17.7249759">
        <ele>27.0543</ele>
        <time>2014-04-03T19:23:21Z</time>
      </trkpt>
      <trkpt lat="59.9743233" lon="17.7249192">
        <ele>26.5736</ele>
        <time>2014-04-03T19:23:22Z</time>
      </trkpt>
      <trkpt lat="59.9743116" lon="17.724863">
        <ele>26.5736</ele>
        <time>2014-04-03T19:23:23Z</time>
      </trkpt>
      <trkpt lat="59.9742982" lon="17.7248032">
        <ele>26.5736</ele>
        <time>2014-04-03T19:23:24Z</time>
      </trkpt>
      <trkpt lat="59.97428" lon="17.7247324">
        <ele>26.0929</ele>
        <time>2014-04-03T19:23:25Z</time>
      </trkpt>
      <trkpt lat="59.974265" lon="17.7246687">
        <ele>26.5736</ele>
        <time>2014-04-03T19:23:26Z</time>
      </trkpt>
      <trkpt lat="59.9742586" lon="17.7246112">
        <ele>25.6123</ele>
        <time>2014-04-03T19:23:27Z</time>
      </trkpt>
      <trkpt lat="59.9742536" lon="17.7245547">
        <ele>25.6123</ele>
        <time>2014-04-03T19:23:28Z</time>
      </trkpt>
      <trkpt lat="59.9742439" lon="17.724496">
        <ele>26.0929</ele>
        <time>2014-04-03T19:23:29Z</time>
      </trkpt>
      <trkpt lat="59.9742373" lon="17.7244406">
        <ele>25.6123</ele>
        <time>2014-04-03T19:23:30Z</time>
      </trkpt>
      <trkpt lat="59.9742339" lon="17.724387">
        <ele>25.6123</ele>
        <time>2014-04-03T19:23:31Z</time>
      </trkpt>
      <trkpt lat="59.9742288" lon="17.7243279">
        <ele>25.1317</ele>
        <time>2014-04-03T19:23:32Z</time>
      </trkpt>
      <trkpt lat="59.9742186" lon="17.7242683">
        <ele>25.1317</ele>
        <time>2014-04-03T19:23:33Z</time>
      </trkpt>
      <trkpt lat="59.9742099" lon="17.7242093">
        <ele>24.651</ele>
        <time>2014-04-03T19:23:34Z</time>
      </trkpt>
      <trkpt lat="59.974201" lon="17.7241543">
        <ele>24.651</ele>
        <time>2014-04-03T19:23:35Z</time>
      </trkpt>
      <trkpt lat="59.9741915" lon="17.724098">
        <ele>24.1703</ele>
        <time>2014-04-03T19:23:36Z</time>
      </trkpt>
      <trkpt lat="59.9741808" lon="17.7240443">
        <ele>24.1703</ele>
        <time>2014-04-03T19:23:37Z</time>
      </trkpt>
      <trkpt lat="59.9741645" lon="17.7239853">
        <ele>23.6896</ele>
        <time>2014-04-03T19:23:38Z</time>
      </trkpt>
      <trkpt lat="59.9741523" lon="17.7239259">
        <ele>23.209</ele>
        <time>2014-04-03T19:23:39Z</time>
      </trkpt>
      <trkpt lat="59.9741466" lon="17.7238776">
        <ele>22.7283</ele>
        <time>2014-04-03T19:23:40Z</time>
      </trkpt>
      <trkpt lat="59.9741413" lon="17.7238244">
        <ele>22.7283</ele>
        <time>2014-04-03T19:23:41Z</time>
      </trkpt>
      <trkpt lat="59.9741344" lon="17.7237734">
        <ele>22.7283</ele>
        <time>2014-04-03T19:23:42Z</time>
      </trkpt>
      <trkpt lat="59.9741272" lon="17.7237258">
        <ele>23.6896</ele>
        <time>2014-04-03T19:23:43Z</time>
      </trkpt>
      <trkpt lat="59.9741191" lon="17.7236679">
        <ele>23.209</ele>
        <time>2014-04-03T19:23:44Z</time>
      </trkpt>
      <trkpt lat="59.9741129" lon="17.7236167">
        <ele>22.7283</ele>
        <time>2014-04-03T19:23:45Z</time>
      </trkpt>
      <trkpt lat="59.9741072" lon="17.7235642">
        <ele>22.2476</ele>
        <time>2014-04-03T19:23:46Z</time>
      </trkpt>
      <trkpt lat="59.9741005" lon="17.7235167">
        <ele>22.2476</ele>
        <time>2014-04-03T19:23:47Z</time>
      </trkpt>
      <trkpt lat="59.9740883" lon="17.7234592">
        <ele>22.2476</ele>
        <time>2014-04-03T19:23:48Z</time>
      </trkpt>
      <trkpt lat="59.9740657" lon="17.7233862">
        <ele>21.767</ele>
        <time>2014-04-03T19:23:49Z</time>
      </trkpt>
      <trkpt lat="59.974046" lon="17.7233196">
        <ele>21.767</ele>
        <time>2014-04-03T19:23:50Z</time>
      </trkpt>
      <trkpt lat="59.97403" lon="17.7232566">
        <ele>21.767</ele>
        <time>2014-04-03T19:23:51Z</time>
      </trkpt>
      <trkpt lat="59.9740228" lon="17.7232041">
        <ele>22.2476</ele>
        <time>2014-04-03T19:23:52Z</time>
      </trkpt>
      <trkpt lat="59.9740207" lon="17.723156">
        <ele>22.7283</ele>
        <time>2014-04-03T19:23:53Z</time>
      </trkpt>
      <trkpt lat="59.9740176" lon="17.7231067">
        <ele>22.2476</ele>
        <time>2014-04-03T19:23:54Z</time>
      </trkpt>
      <trkpt lat="59.9740081" lon="17.7230573">
        <ele>22.7283</ele>
        <time>2014-04-03T19:23:55Z</time>
      </trkpt>
      <trkpt lat="59.9739988" lon="17.7230039">
        <ele>22.2476</ele>
        <time>2014-04-03T19:23:56Z</time>
      </trkpt>
      <trkpt lat="59.973986" lon="17.7229532">
        <ele>23.209</ele>
        <time>2014-04-03T19:23:57Z</time>
      </trkpt>
      <trkpt lat="59.9739756" lon="17.7229001">
        <ele>23.209</ele>
        <time>2014-04-03T19:23:58Z</time>
      </trkpt>
      <trkpt lat="59.9739648" lon="17.7228454">
        <ele>23.6896</ele>
        <time>2014-04-03T19:23:59Z</time>
      </trkpt>
      <trkpt lat="59.9739518" lon="17.722796">
        <ele>24.1703</ele>
        <time>2014-04-03T19:24:00Z</time>
      </trkpt>
      <trkpt lat="59.9739364" lon="17.7227532">
        <ele>24.1703</ele>
        <time>2014-04-03T19:24:01Z</time>
      </trkpt>
      <trkpt lat="59.9739267" lon="17.7227131">
        <ele>24.651</ele>
        <time>2014-04-03T19:24:02Z</time>
      </trkpt>
      <trkpt lat="59.9739174" lon="17.72267">
        <ele>24.651</ele>
        <time>2014-04-03T19:24:03Z</time>
      </trkpt>
      <trkpt lat="59.9739044" lon="17.7226243">
        <ele>24.651</ele>
        <time>2014-04-03T19:24:04Z</time>
      </trkpt>
      <trkpt lat="59.9738889" lon="17.7225758">
        <ele>24.651</ele>
        <time>2014-04-03T19:24:05Z</time>
      </trkpt>
      <trkpt lat="59.9738716" lon="17.7225231">
        <ele>24.651</ele>
        <time>2014-04-03T19:24:06Z</time>
      </trkpt>
      <trkpt lat="59.9738537" lon="17.7224672">
        <ele>24.1703</ele>
        <time>2014-04-03T19:24:07Z</time>
      </trkpt>
      <trkpt lat="59.9738347" lon="17.7224149">
        <ele>24.1703</ele>
        <time>2014-04-03T19:24:08Z</time>
      </trkpt>
      <trkpt lat="59.9738165" lon="17.7223728">
        <ele>24.1703</ele>
        <time>2014-04-03T19:24:09Z</time>
      </trkpt>
      <trkpt lat="59.9737995" lon="17.7223354">
        <ele>24.1703</ele>
        <time>2014-04-03T19:24:10Z</time>
      </trkpt>
      <trkpt lat="59.973785" lon="17.7222952">
        <ele>24.1703</ele>
        <time>2014-04-03T19:24:11Z</time>
      </trkpt>
      <trkpt lat="59.9737731" lon="17.7222523">
        <ele>24.651</ele>
        <time>2014-04-03T19:24:12Z</time>
      </trkpt>
      <trkpt lat="59.9737561" lon="17.722203">
        <ele>24.651</ele>
        <time>2014-04-03T19:24:13Z</time>
      </trkpt>
      <trkpt lat="59.9737377" lon="17.7221564">
        <ele>25.1317</ele>
        <time>2014-04-03T19:24:14Z</time>
      </trkpt>
      <trkpt lat="59.9737211" lon="17.7221071">
        <ele>25.1317</ele>
        <time>2014-04-03T19:24:15Z</time>
      </trkpt>
      <trkpt lat="59.9737014" lon="17.7220609">
        <ele>25.1317</ele>
        <time>2014-04-03T19:24:16Z</time>
      </trkpt>
      <trkpt lat="59.9736805" lon="17.7220158">
        <ele>25.6123</ele>
        <time>2014-04-03T19:24:17Z</time>
      </trkpt>
      <trkpt lat="59.9736634" lon="17.721974">
        <ele>25.6123</ele>
        <time>2014-04-03T19:24:18Z</time>
      </trkpt>
      <trkpt lat="59.9736466" lon="17.7219298">
        <ele>25.6123</ele>
        <time>2014-04-03T19:24:19Z</time>
      </trkpt>
      <trkpt lat="59.9736384" lon="17.7218926">
        <ele>26.0929</ele>
        <time>2014-04-03T19:24:20Z</time>
      </trkpt>
      <trkpt lat="59.9736322" lon="17.7218614">
        <ele>26.5736</ele>
        <time>2014-04-03T19:24:21Z</time>
      </trkpt>
      <trkpt lat="59.9736191" lon="17.7218229">
        <ele>26.5736</ele>
        <time>2014-04-03T19:24:22Z</time>
      </trkpt>
      <trkpt lat="59.9736009" lon="17.7217829">
        <ele>27.0543</ele>
        <time>2014-04-03T19:24:23Z</time>
      </trkpt>
      <trkpt lat="59.9735819" lon="17.7217408">
        <ele>27.0543</ele>
        <time>2014-04-03T19:24:24Z</time>
      </trkpt>
      <trkpt lat="59.9735605" lon="17.7216989">
        <ele>27.0543</ele>
        <time>2014-04-03T19:24:25Z</time>
      </trkpt>
      <trkpt lat="59.9735388" lon="17.7216559">
        <ele>27.5349</ele>
        <time>2014-04-03T19:24:26Z</time>
      </trkpt>
      <trkpt lat="59.9735221" lon="17.7216162">
        <ele>28.0155</ele>
        <time>2014-04-03T19:24:27Z</time>
      </trkpt>
      <trkpt lat="59.9735051" lon="17.7215794">
        <ele>28.0155</ele>
        <time>2014-04-03T19:24:28Z</time>
      </trkpt>
      <trkpt lat="59.973484" lon="17.7215353">
        <ele>28.0155</ele>
        <time>2014-04-03T19:24:29Z</time>
      </trkpt>
      <trkpt lat="59.9734631" lon="17.7214933">
        <ele>28.0155</ele>
        <time>2014-04-03T19:24:30Z</time>
      </trkpt>
      <trkpt lat="59.9734437" lon="17.7214503">
        <ele>28.0155</ele>
        <time>2014-04-03T19:24:31Z</time>
      </trkpt>
      <trkpt lat="59.9734239" lon="17.7214103">
        <ele>27.5349</ele>
        <time>2014-04-03T19:24:32Z</time>
      </trkpt>
      <trkpt lat="59.973403" lon="17.7213731">
        <ele>28.0155</ele>
        <time>2014-04-03T19:24:33Z</time>
      </trkpt>
      <trkpt lat="59.973382" lon="17.7213359">
        <ele>27.5349</ele>
        <time>2014-04-03T19:24:34Z</time>
      </trkpt>
      <trkpt lat="59.9733605" lon="17.7212985">
        <ele>28.0155</ele>
        <time>2014-04-03T19:24:35Z</time>
      </trkpt>
      <trkpt lat="59.9733442" lon="17.7212642">
        <ele>28.4962</ele>
        <time>2014-04-03T19:24:36Z</time>
      </trkpt>
      <trkpt lat="59.9733343" lon="17.7212367">
        <ele>28.9769</ele>
        <time>2014-04-03T19:24:37Z</time>
      </trkpt>
      <trkpt lat="59.9733202" lon="17.7212038">
        <ele>28.9769</ele>
        <time>2014-04-03T19:24:38Z</time>
      </trkpt>
      <trkpt lat="59.9732987" lon="17.72117">
        <ele>29.4575</ele>
        <time>2014-04-03T19:24:39Z</time>
      </trkpt>
      <trkpt lat="59.9732748" lon="17.7211336">
        <ele>29.4575</ele>
        <time>2014-04-03T19:24:40Z</time>
      </trkpt>
      <trkpt lat="59.9732521" lon="17.7211002">
        <ele>29.4575</ele>
        <time>2014-04-03T19:24:41Z</time>
      </trkpt>
      <trkpt lat="59.9732276" lon="17.7210691">
        <ele>29.4575</ele>
        <time>2014-04-03T19:24:42Z</time>
      </trkpt>
      <trkpt lat="59.9732038" lon="17.7210339">
        <ele>29.4575</ele>
        <time>2014-04-03T19:24:43Z</time>
      </trkpt>
      <trkpt lat="59.9731815" lon="17.7209976">
        <ele>29.9381</ele>
        <time>2014-04-03T19:24:44Z</time>
      </trkpt>
      <trkpt lat="59.9731612" lon="17.7209638">
        <ele>29.9381</ele>
        <time>2014-04-03T19:24:45Z</time>
      </trkpt>
      <trkpt lat="59.9731417" lon="17.7209349">
        <ele>30.4188</ele>
        <time>2014-04-03T19:24:46Z</time>
      </trkpt>
      <trkpt lat="59.9731192" lon="17.7209053">
        <ele>30.8995</ele>
        <time>2014-04-03T19:24:47Z</time>
      </trkpt>
      <trkpt lat="59.9730953" lon="17.7208778">
        <ele>31.3801</ele>
        <time>2014-04-03T19:24:48Z</time>
      </trkpt>
      <trkpt lat="59.9730707" lon="17.720854">
        <ele>32.3416</ele>
        <time>2014-04-03T19:24:49Z</time>
      </trkpt>
      <trkpt lat="59.9730478" lon="17.7208239">
        <ele>32.3416</ele>
        <time>2014-04-03T19:24:50Z</time>
      </trkpt>
      <trkpt lat="59.973024" lon="17.7207962">
        <ele>32.3416</ele>
        <time>2014-04-03T19:24:51Z</time>
      </trkpt>
      <trkpt lat="59.973" lon="17.7207676">
        <ele>32.8223</ele>
        <time>2014-04-03T19:24:52Z</time>
      </trkpt>
      <trkpt lat="59.9729775" lon="17.7207397">
        <ele>32.8223</ele>
        <time>2014-04-03T19:24:53Z</time>
      </trkpt>
      <trkpt lat="59.9729536" lon="17.720714">
        <ele>33.3029</ele>
        <time>2014-04-03T19:24:54Z</time>
      </trkpt>
      <trkpt lat="59.9729296" lon="17.720693">
        <ele>33.7834</ele>
        <time>2014-04-03T19:24:55Z</time>
      </trkpt>
      <trkpt lat="59.9729064" lon="17.72067">
        <ele>33.7834</ele>
        <time>2014-04-03T19:24:56Z</time>
      </trkpt>
      <trkpt lat="59.9728857" lon="17.7206411">
        <ele>34.2642</ele>
        <time>2014-04-03T19:24:57Z</time>
      </trkpt>
      <trkpt lat="59.9728655" lon="17.7206179">
        <ele>34.7449</ele>
        <time>2014-04-03T19:24:58Z</time>
      </trkpt>
      <trkpt lat="59.9728399" lon="17.7205955">
        <ele>34.7449</ele>
        <time>2014-04-03T19:24:59Z</time>
      </trkpt>
      <trkpt lat="59.9728125" lon="17.7205693">
        <ele>34.7449</ele>
        <time>2014-04-03T19:25:00Z</time>
      </trkpt>
      <trkpt lat="59.9727853" lon="17.7205438">
        <ele>35.2255</ele>
        <time>2014-04-03T19:25:01Z</time>
      </trkpt>
      <trkpt lat="59.9727592" lon="17.7205215">
        <ele>35.2255</ele>
        <time>2014-04-03T19:25:02Z</time>
      </trkpt>
      <trkpt lat="59.972735" lon="17.7205033">
        <ele>35.2255</ele>
        <time>2014-04-03T19:25:03Z</time>
      </trkpt>
      <trkpt lat="59.9727111" lon="17.7204812">
        <ele>35.7061</ele>
        <time>2014-04-03T19:25:04Z</time>
      </trkpt>
      <trkpt lat="59.9726889" lon="17.7204578">
        <ele>36.1868</ele>
        <time>2014-04-03T19:25:05Z</time>
      </trkpt>
      <trkpt lat="59.9726652" lon="17.720432">
        <ele>36.1868</ele>
        <time>2014-04-03T19:25:06Z</time>
      </trkpt>
      <trkpt lat="59.9726412" lon="17.7204076">
        <ele>36.1868</ele>
        <time>2014-04-03T19:25:07Z</time>
      </trkpt>
      <trkpt lat="59.9726168" lon="17.7203817">
        <ele>36.6675</ele>
        <time>2014-04-03T19:25:08Z</time>
      </trkpt>
      <trkpt lat="59.9725929" lon="17.7203547">
        <ele>36.6675</ele>
        <time>2014-04-03T19:25:09Z</time>
      </trkpt>
      <trkpt lat="59.9725701" lon="17.720332">
        <ele>37.1481</ele>
        <time>2014-04-03T19:25:10Z</time>
      </trkpt>
      <trkpt lat="59.9725464" lon="17.7203065">
        <ele>37.6287</ele>
        <time>2014-04-03T19:25:11Z</time>
      </trkpt>
      <trkpt lat="59.972521" lon="17.7202898">
        <ele>38.1094</ele>
        <time>2014-04-03T19:25:12Z</time>
      </trkpt>
      <trkpt lat="59.9724935" lon="17.7202722">
        <ele>39.0707</ele>
        <time>2014-04-03T19:25:13Z</time>
      </trkpt>
      <trkpt lat="59.972469" lon="17.720254">
        <ele>39.5513</ele>
        <time>2014-04-03T19:25:14Z</time>
      </trkpt>
      <trkpt lat="59.9724432" lon="17.7202401">
        <ele>40.0321</ele>
        <time>2014-04-03T19:25:15Z</time>
      </trkpt>
      <trkpt lat="59.9724159" lon="17.7202263">
        <ele>40.9934</ele>
        <time>2014-04-03T19:25:16Z</time>
      </trkpt>
      <trkpt lat="59.9723911" lon="17.7202116">
        <ele>41.474</ele>
        <time>2014-04-03T19:25:17Z</time>
      </trkpt>
      <trkpt lat="59.9723651" lon="17.7201941">
        <ele>42.4354</ele>
        <time>2014-04-03T19:25:18Z</time>
      </trkpt>
      <trkpt lat="59.9723391" lon="17.7201763">
        <ele>42.916</ele>
        <time>2014-04-03T19:25:19Z</time>
      </trkpt>
      <trkpt lat="59.9723128" lon="17.7201568">
        <ele>42.916</ele>
        <time>2014-04-03T19:25:20Z</time>
      </trkpt>
      <trkpt lat="59.9722877" lon="17.7201373">
        <ele>43.3966</ele>
        <time>2014-04-03T19:25:21Z</time>
      </trkpt>
      <trkpt lat="59.9722646" lon="17.7201132">
        <ele>43.3966</ele>
        <time>2014-04-03T19:25:22Z</time>
      </trkpt>
      <trkpt lat="59.9722401" lon="17.72009">
        <ele>43.8773</ele>
        <time>2014-04-03T19:25:23Z</time>
      </trkpt>
      <trkpt lat="59.9722162" lon="17.7200687">
        <ele>44.358</ele>
        <time>2014-04-03T19:25:24Z</time>
      </trkpt>
      <trkpt lat="59.9721903" lon="17.7200486">
        <ele>44.358</ele>
        <time>2014-04-03T19:25:25Z</time>
      </trkpt>
      <trkpt lat="59.9721652" lon="17.7200258">
        <ele>44.8386</ele>
        <time>2014-04-03T19:25:26Z</time>
      </trkpt>
      <trkpt lat="59.9721408" lon="17.7200002">
        <ele>44.358</ele>
        <time>2014-04-03T19:25:27Z</time>
      </trkpt>
      <trkpt lat="59.9721154" lon="17.7199787">
        <ele>44.8386</ele>
        <time>2014-04-03T19:25:28Z</time>
      </trkpt>
      <trkpt lat="59.9720906" lon="17.7199609">
        <ele>44.8386</ele>
        <time>2014-04-03T19:25:29Z</time>
      </trkpt>
      <trkpt lat="59.9720658" lon="17.7199372">
        <ele>44.8386</ele>
        <time>2014-04-03T19:25:30Z</time>
      </trkpt>
      <trkpt lat="59.9720424" lon="17.7199134">
        <ele>45.3192</ele>
        <time>2014-04-03T19:25:31Z</time>
      </trkpt>
      <trkpt lat="59.9720156" lon="17.7198891">
        <ele>45.3192</ele>
        <time>2014-04-03T19:25:32Z</time>
      </trkpt>
      <trkpt lat="59.97199" lon="17.7198692">
        <ele>45.7999</ele>
        <time>2014-04-03T19:25:33Z</time>
      </trkpt>
      <trkpt lat="59.971965" lon="17.719848">
        <ele>45.7999</ele>
        <time>2014-04-03T19:25:34Z</time>
      </trkpt>
      <trkpt lat="59.9719367" lon="17.7198279">
        <ele>46.2806</ele>
        <time>2014-04-03T19:25:35Z</time>
      </trkpt>
      <trkpt lat="59.9719083" lon="17.7198113">
        <ele>46.2806</ele>
        <time>2014-04-03T19:25:36Z</time>
      </trkpt>
      <trkpt lat="59.9718785" lon="17.7197935">
        <ele>46.2806</ele>
        <time>2014-04-03T19:25:37Z</time>
      </trkpt>
      <trkpt lat="59.9718516" lon="17.7197704">
        <ele>46.2806</ele>
        <time>2014-04-03T19:25:38Z</time>
      </trkpt>
      <trkpt lat="59.9718238" lon="17.7197507">
        <ele>46.2806</ele>
        <time>2014-04-03T19:25:39Z</time>
      </trkpt>
      <trkpt lat="59.9717953" lon="17.719733">
        <ele>46.2806</ele>
        <time>2014-04-03T19:25:40Z</time>
      </trkpt>
      <trkpt lat="59.9717699" lon="17.7197094">
        <ele>46.2806</ele>
        <time>2014-04-03T19:25:41Z</time>
      </trkpt>
      <trkpt lat="59.9717435" lon="17.7196855">
        <ele>46.7612</ele>
        <time>2014-04-03T19:25:42Z</time>
      </trkpt>
      <trkpt lat="59.9717196" lon="17.7196558">
        <ele>46.7612</ele>
        <time>2014-04-03T19:25:43Z</time>
      </trkpt>
      <trkpt lat="59.9716932" lon="17.719629">
        <ele>46.7612</ele>
        <time>2014-04-03T19:25:44Z</time>
      </trkpt>
      <trkpt lat="59.971668" lon="17.7196067">
        <ele>46.7612</ele>
        <time>2014-04-03T19:25:45Z</time>
      </trkpt>
      <trkpt lat="59.9716429" lon="17.7195823">
        <ele>46.7612</ele>
        <time>2014-04-03T19:25:46Z</time>
      </trkpt>
      <trkpt lat="59.9716155" lon="17.7195586">
        <ele>46.7612</ele>
        <time>2014-04-03T19:25:47Z</time>
      </trkpt>
      <trkpt lat="59.9715902" lon="17.719532">
        <ele>47.2418</ele>
        <time>2014-04-03T19:25:48Z</time>
      </trkpt>
      <trkpt lat="59.9715651" lon="17.7195009">
        <ele>47.2418</ele>
        <time>2014-04-03T19:25:49Z</time>
      </trkpt>
      <trkpt lat="59.9715405" lon="17.7194745">
        <ele>47.2418</ele>
        <time>2014-04-03T19:25:50Z</time>
      </trkpt>
      <trkpt lat="59.9715164" lon="17.7194534">
        <ele>47.2418</ele>
        <time>2014-04-03T19:25:51Z</time>
      </trkpt>
      <trkpt lat="59.9714907" lon="17.7194305">
        <ele>47.7225</ele>
        <time>2014-04-03T19:25:52Z</time>
      </trkpt>
      <trkpt lat="59.9714663" lon="17.7194097">
        <ele>47.7225</ele>
        <time>2014-04-03T19:25:53Z</time>
      </trkpt>
      <trkpt lat="59.9714405" lon="17.7193902">
        <ele>47.7225</ele>
        <time>2014-04-03T19:25:54Z</time>
      </trkpt>
      <trkpt lat="59.9714151" lon="17.7193699">
        <ele>48.2034</ele>
        <time>2014-04-03T19:25:55Z</time>
      </trkpt>
      <trkpt lat="59.9713911" lon="17.7193499">
        <ele>48.2034</ele>
        <time>2014-04-03T19:25:56Z</time>
      </trkpt>
      <trkpt lat="59.9713665" lon="17.7193218">
        <ele>48.684</ele>
        <time>2014-04-03T19:25:57Z</time>
      </trkpt>
      <trkpt lat="59.9713452" lon="17.7192943">
        <ele>49.1646</ele>
        <time>2014-04-03T19:25:58Z</time>
      </trkpt>
      <trkpt lat="59.9713225" lon="17.7192628">
        <ele>49.6453</ele>
        <time>2014-04-03T19:25:59Z</time>
      </trkpt>
      <trkpt lat="59.9713009" lon="17.7192301">
        <ele>50.126</ele>
        <time>2014-04-03T19:26:00Z</time>
      </trkpt>
      <trkpt lat="59.9712794" lon="17.7192042">
        <ele>51.0872</ele>
        <time>2014-04-03T19:26:01Z</time>
      </trkpt>
      <trkpt lat="59.9712539" lon="17.7191772">
        <ele>51.5679</ele>
        <time>2014-04-03T19:26:02Z</time>
      </trkpt>
      <trkpt lat="59.97123" lon="17.7191585">
        <ele>52.0486</ele>
        <time>2014-04-03T19:26:03Z</time>
      </trkpt>
      <trkpt lat="59.9712049" lon="17.7191414">
        <ele>52.0486</ele>
        <time>2014-04-03T19:26:04Z</time>
      </trkpt>
      <trkpt lat="59.9711794" lon="17.7191292">
        <ele>52.0486</ele>
        <time>2014-04-03T19:26:05Z</time>
      </trkpt>
      <trkpt lat="59.9711551" lon="17.7191135">
        <ele>52.5292</ele>
        <time>2014-04-03T19:26:06Z</time>
      </trkpt>
      <trkpt lat="59.9711311" lon="17.7190888">
        <ele>53.4905</ele>
        <time>2014-04-03T19:26:07Z</time>
      </trkpt>
      <trkpt lat="59.9711098" lon="17.7190633">
        <ele>53.9712</ele>
        <time>2014-04-03T19:26:08Z</time>
      </trkpt>
      <trkpt lat="59.9710846" lon="17.7190376">
        <ele>53.9712</ele>
        <time>2014-04-03T19:26:09Z</time>
      </trkpt>
      <trkpt lat="59.9710581" lon="17.7190094">
        <ele>54.4518</ele>
        <time>2014-04-03T19:26:10Z</time>
      </trkpt>
      <trkpt lat="59.9710385" lon="17.7189794">
        <ele>53.9712</ele>
        <time>2014-04-03T19:26:11Z</time>
      </trkpt>
      <trkpt lat="59.9710177" lon="17.7189564">
        <ele>53.4905</ele>
        <time>2014-04-03T19:26:12Z</time>
      </trkpt>
      <trkpt lat="59.970995" lon="17.7189339">
        <ele>53.0098</ele>
        <time>2014-04-03T19:26:13Z</time>
      </trkpt>
      <trkpt lat="59.9709736" lon="17.7189112">
        <ele>52.5292</ele>
        <time>2014-04-03T19:26:14Z</time>
      </trkpt>
      <trkpt lat="59.9709513" lon="17.7188906">
        <ele>52.0486</ele>
        <time>2014-04-03T19:26:15Z</time>
      </trkpt>
      <trkpt lat="59.970926" lon="17.718867">
        <ele>51.5679</ele>
        <time>2014-04-03T19:26:16Z</time>
      </trkpt>
      <trkpt lat="59.9708991" lon="17.7188396">
        <ele>51.0872</ele>
        <time>2014-04-03T19:26:17Z</time>
      </trkpt>
      <trkpt lat="59.9708696" lon="17.7188176">
        <ele>50.6066</ele>
        <time>2014-04-03T19:26:18Z</time>
      </trkpt>
      <trkpt lat="59.9708395" lon="17.718799">
        <ele>50.126</ele>
        <time>2014-04-03T19:26:19Z</time>
      </trkpt>
      <trkpt lat="59.9708106" lon="17.7187762">
        <ele>49.6453</ele>
        <time>2014-04-03T19:26:20Z</time>
      </trkpt>
      <trkpt lat="59.9707825" lon="17.7187492">
        <ele>49.1646</ele>
        <time>2014-04-03T19:26:21Z</time>
      </trkpt>
      <trkpt lat="59.9707556" lon="17.7187223">
        <ele>48.684</ele>
        <time>2014-04-03T19:26:22Z</time>
      </trkpt>
      <trkpt lat="59.9707302" lon="17.7186945">
        <ele>48.2034</ele>
        <time>2014-04-03T19:26:23Z</time>
      </trkpt>
      <trkpt lat="59.970705" lon="17.718669">
        <ele>47.7225</ele>
        <time>2014-04-03T19:26:24Z</time>
      </trkpt>
      <trkpt lat="59.9706775" lon="17.7186518">
        <ele>47.2418</ele>
        <time>2014-04-03T19:26:25Z</time>
      </trkpt>
      <trkpt lat="59.9706485" lon="17.7186358">
        <ele>46.7612</ele>
        <time>2014-04-03T19:26:26Z</time>
      </trkpt>
      <trkpt lat="59.9706194" lon="17.7186164">
        <ele>46.7612</ele>
        <time>2014-04-03T19:26:27Z</time>
      </trkpt>
      <trkpt lat="59.9705897" lon="17.7185919">
        <ele>46.2806</ele>
        <time>2014-04-03T19:26:28Z</time>
      </trkpt>
      <trkpt lat="59.9705584" lon="17.7185655">
        <ele>46.2806</ele>
        <time>2014-04-03T19:26:29Z</time>
      </trkpt>
      <trkpt lat="59.970526" lon="17.7185425">
        <ele>45.7999</ele>
        <time>2014-04-03T19:26:30Z</time>
      </trkpt>
      <trkpt lat="59.9704952" lon="17.7185201">
        <ele>45.7999</ele>
        <time>2014-04-03T19:26:31Z</time>
      </trkpt>
      <trkpt lat="59.970468" lon="17.7185012">
        <ele>45.7999</ele>
        <time>2014-04-03T19:26:32Z</time>
      </trkpt>
      <trkpt lat="59.97044" lon="17.7184856">
        <ele>45.7999</ele>
        <time>2014-04-03T19:26:33Z</time>
      </trkpt>
      <trkpt lat="59.9704123" lon="17.718467">
        <ele>46.2806</ele>
        <time>2014-04-03T19:26:34Z</time>
      </trkpt>
      <trkpt lat="59.9703866" lon="17.7184426">
        <ele>46.2806</ele>
        <time>2014-04-03T19:26:35Z</time>
      </trkpt>
      <trkpt lat="59.9703607" lon="17.718421">
        <ele>46.2806</ele>
        <time>2014-04-03T19:26:36Z</time>
      </trkpt>
      <trkpt lat="59.9703343" lon="17.7183991">
        <ele>46.2806</ele>
        <time>2014-04-03T19:26:37Z</time>
      </trkpt>
      <trkpt lat="59.9703086" lon="17.7183778">
        <ele>46.2806</ele>
        <time>2014-04-03T19:26:38Z</time>
      </trkpt>
      <trkpt lat="59.9702823" lon="17.7183586">
        <ele>46.2806</ele>
        <time>2014-04-03T19:26:39Z</time>
      </trkpt>
      <trkpt lat="59.9702547" lon="17.7183364">
        <ele>46.2806</ele>
        <time>2014-04-03T19:26:40Z</time>
      </trkpt>
      <trkpt lat="59.9702271" lon="17.7183167">
        <ele>46.2806</ele>
        <time>2014-04-03T19:26:41Z</time>
      </trkpt>
      <trkpt lat="59.9702003" lon="17.7182936">
        <ele>46.7612</ele>
        <time>2014-04-03T19:26:42Z</time>
      </trkpt>
      <trkpt lat="59.9701742" lon="17.7182666">
        <ele>46.7612</ele>
        <time>2014-04-03T19:26:43Z</time>
      </trkpt>
      <trkpt lat="59.970148" lon="17.7182369">
        <ele>47.2418</ele>
        <time>2014-04-03T19:26:44Z</time>
      </trkpt>
      <trkpt lat="59.9701217" lon="17.7182105">
        <ele>46.7612</ele>
        <time>2014-04-03T19:26:45Z</time>
      </trkpt>
      <trkpt lat="59.9700943" lon="17.7181849">
        <ele>47.2418</ele>
        <time>2014-04-03T19:26:46Z</time>
      </trkpt>
      <trkpt lat="59.9700686" lon="17.7181618">
        <ele>47.2418</ele>
        <time>2014-04-03T19:26:47Z</time>
      </trkpt>
      <trkpt lat="59.9700425" lon="17.7181416">
        <ele>47.2418</ele>
        <time>2014-04-03T19:26:48Z</time>
      </trkpt>
      <trkpt lat="59.9700152" lon="17.7181194">
        <ele>47.7225</ele>
        <time>2014-04-03T19:26:49Z</time>
      </trkpt>
      <trkpt lat="59.969989" lon="17.7180935">
        <ele>47.7225</ele>
        <time>2014-04-03T19:26:50Z</time>
      </trkpt>
      <trkpt lat="59.969963" lon="17.7180693">
        <ele>47.7225</ele>
        <time>2014-04-03T19:26:51Z</time>
      </trkpt>
      <trkpt lat="59.9699375" lon="17.7180527">
        <ele>47.7225</ele>
        <time>2014-04-03T19:26:52Z</time>
      </trkpt>
      <trkpt lat="59.9699108" lon="17.7180333">
        <ele>48.2034</ele>
        <time>2014-04-03T19:26:53Z</time>
      </trkpt>
      <trkpt lat="59.9698864" lon="17.7180096">
        <ele>48.2034</ele>
        <time>2014-04-03T19:26:54Z</time>
      </trkpt>
      <trkpt lat="59.969862" lon="17.7179879">
        <ele>48.684</ele>
        <time>2014-04-03T19:26:55Z</time>
      </trkpt>
      <trkpt lat="59.9698371" lon="17.7179655">
        <ele>48.684</ele>
        <time>2014-04-03T19:26:56Z</time>
      </trkpt>
      <trkpt lat="59.9698113" lon="17.7179428">
        <ele>48.684</ele>
        <time>2014-04-03T19:26:57Z</time>
      </trkpt>
      <trkpt lat="59.9697863" lon="17.7179226">
        <ele>49.1646</ele>
        <time>2014-04-03T19:26:58Z</time>
      </trkpt>
      <trkpt lat="59.9697604" lon="17.7178995">
        <ele>49.1646</ele>
        <time>2014-04-03T19:26:59Z</time>
      </trkpt>
      <trkpt lat="59.9697347" lon="17.717877">
        <ele>49.6453</ele>
        <time>2014-04-03T19:27:00Z</time>
      </trkpt>
      <trkpt lat="59.9697106" lon="17.7178543">
        <ele>50.126</ele>
        <time>2014-04-03T19:27:01Z</time>
      </trkpt>
      <trkpt lat="59.9696834" lon="17.7178341">
        <ele>50.6066</ele>
        <time>2014-04-03T19:27:02Z</time>
      </trkpt>
      <trkpt lat="59.9696559" lon="17.7178168">
        <ele>50.6066</ele>
        <time>2014-04-03T19:27:03Z</time>
      </trkpt>
      <trkpt lat="59.9696291" lon="17.7178003">
        <ele>51.5679</ele>
        <time>2014-04-03T19:27:04Z</time>
      </trkpt>
      <trkpt lat="59.9696022" lon="17.7177813">
        <ele>51.5679</ele>
        <time>2014-04-03T19:27:05Z</time>
      </trkpt>
      <trkpt lat="59.9695734" lon="17.7177636">
        <ele>51.5679</ele>
        <time>2014-04-03T19:27:06Z</time>
      </trkpt>
      <trkpt lat="59.969545" lon="17.7177444">
        <ele>52.0486</ele>
        <time>2014-04-03T19:27:07Z</time>
      </trkpt>
      <trkpt lat="59.9695175" lon="17.7177257">
        <ele>51.5679</ele>
        <time>2014-04-03T19:27:08Z</time>
      </trkpt>
      <trkpt lat="59.9694912" lon="17.7177091">
        <ele>52.0486</ele>
        <time>2014-04-03T19:27:09Z</time>
      </trkpt>
      <trkpt lat="59.9694673" lon="17.7176866">
        <ele>52.0486</ele>
        <time>2014-04-03T19:27:10Z</time>
      </trkpt>
      <trkpt lat="59.9694435" lon="17.7176622">
        <ele>52.5292</ele>
        <time>2014-04-03T19:27:11Z</time>
      </trkpt>
      <trkpt lat="59.9694187" lon="17.7176457">
        <ele>52.0486</ele>
        <time>2014-04-03T19:27:12Z</time>
      </trkpt>
      <trkpt lat="59.9693912" lon="17.7176356">
        <ele>52.5292</ele>
        <time>2014-04-03T19:27:13Z</time>
      </trkpt>
      <trkpt lat="59.9693648" lon="17.7176238">
        <ele>52.5292</ele>
        <time>2014-04-03T19:27:14Z</time>
      </trkpt>
      <trkpt lat="59.9693384" lon="17.7176103">
        <ele>52.5292</ele>
        <time>2014-04-03T19:27:15Z</time>
      </trkpt>
      <trkpt lat="59.9693129" lon="17.7175933">
        <ele>52.5292</ele>
        <time>2014-04-03T19:27:16Z</time>
      </trkpt>
      <trkpt lat="59.969288" lon="17.7175767">
        <ele>52.5292</ele>
        <time>2014-04-03T19:27:17Z</time>
      </trkpt>
      <trkpt lat="59.9692622" lon="17.7175646">
        <ele>52.5292</ele>
        <time>2014-04-03T19:27:18Z</time>
      </trkpt>
      <trkpt lat="59.9692383" lon="17.7175568">
        <ele>52.5292</ele>
        <time>2014-04-03T19:27:19Z</time>
      </trkpt>
      <trkpt lat="59.9692128" lon="17.7175462">
        <ele>52.5292</ele>
        <time>2014-04-03T19:27:20Z</time>
      </trkpt>
      <trkpt lat="59.9691871" lon="17.7175281">
        <ele>53.0098</ele>
        <time>2014-04-03T19:27:21Z</time>
      </trkpt>
      <trkpt lat="59.9691612" lon="17.7175118">
        <ele>52.5292</ele>
        <time>2014-04-03T19:27:22Z</time>
      </trkpt>
      <trkpt lat="59.9691337" lon="17.7175022">
        <ele>53.0098</ele>
        <time>2014-04-03T19:27:23Z</time>
      </trkpt>
      <trkpt lat="59.9691074" lon="17.7174942">
        <ele>53.0098</ele>
        <time>2014-04-03T19:27:24Z</time>
      </trkpt>
      <trkpt lat="59.9690783" lon="17.7174851">
        <ele>53.4905</ele>
        <time>2014-04-03T19:27:25Z</time>
      </trkpt>
      <trkpt lat="59.9690502" lon="17.7174772">
        <ele>53.9712</ele>
        <time>2014-04-03T19:27:26Z</time>
      </trkpt>
      <trkpt lat="59.9690223" lon="17.7174684">
        <ele>53.4905</ele>
        <time>2014-04-03T19:27:27Z</time>
      </trkpt>
      <trkpt lat="59.968994" lon="17.7174632">
        <ele>53.4905</ele>
        <time>2014-04-03T19:27:28Z</time>
      </trkpt>
      <trkpt lat="59.968967" lon="17.7174585">
        <ele>53.4905</ele>
        <time>2014-04-03T19:27:29Z</time>
      </trkpt>
      <trkpt lat="59.9689385" lon="17.7174549">
        <ele>53.4905</ele>
        <time>2014-04-03T19:27:30Z</time>
      </trkpt>
      <trkpt lat="59.9689136" lon="17.7174503">
        <ele>53.9712</ele>
        <time>2014-04-03T19:27:31Z</time>
      </trkpt>
      <trkpt lat="59.9688858" lon="17.7174482">
        <ele>53.4905</ele>
        <time>2014-04-03T19:27:32Z</time>
      </trkpt>
      <trkpt lat="59.968856" lon="17.7174547">
        <ele>53.4905</ele>
        <time>2014-04-03T19:27:33Z</time>
      </trkpt>
      <trkpt lat="59.9688287" lon="17.7174616">
        <ele>53.4905</ele>
        <time>2014-04-03T19:27:34Z</time>
      </trkpt>
      <trkpt lat="59.9688002" lon="17.7174699">
        <ele>53.0098</ele>
        <time>2014-04-03T19:27:35Z</time>
      </trkpt>
      <trkpt lat="59.9687722" lon="17.7174819">
        <ele>52.5292</ele>
        <time>2014-04-03T19:27:36Z</time>
      </trkpt>
      <trkpt lat="59.9687428" lon="17.7174864">
        <ele>52.5292</ele>
        <time>2014-04-03T19:27:37Z</time>
      </trkpt>
      <trkpt lat="59.9687111" lon="17.7174912">
        <ele>52.0486</ele>
        <time>2014-04-03T19:27:38Z</time>
      </trkpt>
      <trkpt lat="59.9686816" lon="17.7174886">
        <ele>51.5679</ele>
        <time>2014-04-03T19:27:39Z</time>
      </trkpt>
      <trkpt lat="59.9686537" lon="17.717475">
        <ele>50.6066</ele>
        <time>2014-04-03T19:27:40Z</time>
      </trkpt>
      <trkpt lat="59.9686266" lon="17.7174644">
        <ele>50.6066</ele>
        <time>2014-04-03T19:27:41Z</time>
      </trkpt>
      <trkpt lat="59.968599" lon="17.7174602">
        <ele>50.126</ele>
        <time>2014-04-03T19:27:42Z</time>
      </trkpt>
      <trkpt lat="59.9685716" lon="17.7174554">
        <ele>49.6453</ele>
        <time>2014-04-03T19:27:43Z</time>
      </trkpt>
      <trkpt lat="59.9685443" lon="17.7174518">
        <ele>49.6453</ele>
        <time>2014-04-03T19:27:44Z</time>
      </trkpt>
      <trkpt lat="59.9685158" lon="17.7174462">
        <ele>49.1646</ele>
        <time>2014-04-03T19:27:45Z</time>
      </trkpt>
      <trkpt lat="59.9684894" lon="17.7174393">
        <ele>48.684</ele>
        <time>2014-04-03T19:27:46Z</time>
      </trkpt>
      <trkpt lat="59.9684627" lon="17.7174213">
        <ele>47.7225</ele>
        <time>2014-04-03T19:27:47Z</time>
      </trkpt>
      <trkpt lat="59.9684334" lon="17.7174029">
        <ele>46.2806</ele>
        <time>2014-04-03T19:27:48Z</time>
      </trkpt>
      <trkpt lat="59.9684026" lon="17.7173792">
        <ele>45.3192</ele>
        <time>2014-04-03T19:27:49Z</time>
      </trkpt>
      <trkpt lat="59.9683729" lon="17.7173503">
        <ele>44.358</ele>
        <time>2014-04-03T19:27:50Z</time>
      </trkpt>
      <trkpt lat="59.9683465" lon="17.7173262">
        <ele>43.8773</ele>
        <time>2014-04-03T19:27:51Z</time>
      </trkpt>
      <trkpt lat="59.9683177" lon="17.7173056">
        <ele>42.4354</ele>
        <time>2014-04-03T19:27:52Z</time>
      </trkpt>
      <trkpt lat="59.9682889" lon="17.7172828">
        <ele>41.474</ele>
        <time>2014-04-03T19:27:53Z</time>
      </trkpt>
      <trkpt lat="59.9682656" lon="17.7172558">
        <ele>40.9934</ele>
        <time>2014-04-03T19:27:54Z</time>
      </trkpt>
      <trkpt lat="59.9682437" lon="17.717239">
        <ele>40.9934</ele>
        <time>2014-04-03T19:27:55Z</time>
      </trkpt>
      <trkpt lat="59.96822" lon="17.717233">
        <ele>40.5128</ele>
        <time>2014-04-03T19:27:56Z</time>
      </trkpt>
      <trkpt lat="59.9681976" lon="17.7172336">
        <ele>40.5128</ele>
        <time>2014-04-03T19:27:57Z</time>
      </trkpt>
      <trkpt lat="59.9681724" lon="17.7172192">
        <ele>39.5513</ele>
        <time>2014-04-03T19:27:58Z</time>
      </trkpt>
      <trkpt lat="59.9681485" lon="17.7172047">
        <ele>39.0707</ele>
        <time>2014-04-03T19:27:59Z</time>
      </trkpt>
      <trkpt lat="59.9681252" lon="17.7171853">
        <ele>39.0707</ele>
        <time>2014-04-03T19:28:00Z</time>
      </trkpt>
      <trkpt lat="59.9681004" lon="17.7171507">
        <ele>38.1094</ele>
        <time>2014-04-03T19:28:01Z</time>
      </trkpt>
      <trkpt lat="59.9680781" lon="17.7171256">
        <ele>38.1094</ele>
        <time>2014-04-03T19:28:02Z</time>
      </trkpt>
      <trkpt lat="59.9680542" lon="17.717098">
        <ele>38.1094</ele>
        <time>2014-04-03T19:28:03Z</time>
      </trkpt>
      <trkpt lat="59.9680304" lon="17.7170699">
        <ele>37.6287</ele>
        <time>2014-04-03T19:28:04Z</time>
      </trkpt>
      <trkpt lat="59.9680046" lon="17.7170364">
        <ele>37.1481</ele>
        <time>2014-04-03T19:28:05Z</time>
      </trkpt>
      <trkpt lat="59.9679818" lon="17.7170053">
        <ele>37.1481</ele>
        <time>2014-04-03T19:28:06Z</time>
      </trkpt>
      <trkpt lat="59.9679603" lon="17.7169794">
        <ele>36.6675</ele>
        <time>2014-04-03T19:28:07Z</time>
      </trkpt>
      <trkpt lat="59.9679443" lon="17.7169502">
        <ele>36.6675</ele>
        <time>2014-04-03T19:28:08Z</time>
      </trkpt>
      <trkpt lat="59.9679246" lon="17.7169136">
        <ele>36.1868</ele>
        <time>2014-04-03T19:28:09Z</time>
      </trkpt>
      <trkpt lat="59.9679014" lon="17.7168758">
        <ele>36.1868</ele>
        <time>2014-04-03T19:28:10Z</time>
      </trkpt>
      <trkpt lat="59.9678816" lon="17.7168393">
        <ele>35.7061</ele>
        <time>2014-04-03T19:28:11Z</time>
      </trkpt>
      <trkpt lat="59.9678611" lon="17.7168069">
        <ele>35.7061</ele>
        <time>2014-04-03T19:28:12Z</time>
      </trkpt>
      <trkpt lat="59.9678389" lon="17.7167712">
        <ele>35.7061</ele>
        <time>2014-04-03T19:28:13Z</time>
      </trkpt>
      <trkpt lat="59.9678153" lon="17.716737">
        <ele>35.2255</ele>
        <time>2014-04-03T19:28:14Z</time>
      </trkpt>
      <trkpt lat="59.9677914" lon="17.7166997">
        <ele>34.7449</ele>
        <time>2014-04-03T19:28:15Z</time>
      </trkpt>
      <trkpt lat="59.9677691" lon="17.7166587">
        <ele>34.2642</ele>
        <time>2014-04-03T19:28:16Z</time>
      </trkpt>
      <trkpt lat="59.9677453" lon="17.7166143">
        <ele>33.3029</ele>
        <time>2014-04-03T19:28:17Z</time>
      </trkpt>
      <trkpt lat="59.9677223" lon="17.7165676">
        <ele>32.8223</ele>
        <time>2014-04-03T19:28:18Z</time>
      </trkpt>
      <trkpt lat="59.9677051" lon="17.7165116">
        <ele>32.3416</ele>
        <time>2014-04-03T19:28:19Z</time>
      </trkpt>
      <trkpt lat="59.9676894" lon="17.716453">
        <ele>31.8607</ele>
        <time>2014-04-03T19:28:20Z</time>
      </trkpt>
      <trkpt lat="59.9676719" lon="17.7163997">
        <ele>31.8607</ele>
        <time>2014-04-03T19:28:21Z</time>
      </trkpt>
      <trkpt lat="59.9676538" lon="17.7163522">
        <ele>30.8995</ele>
        <time>2014-04-03T19:28:22Z</time>
      </trkpt>
      <trkpt lat="59.9676381" lon="17.7163115">
        <ele>30.4188</ele>
        <time>2014-04-03T19:28:23Z</time>
      </trkpt>
      <trkpt lat="59.9676305" lon="17.7162706">
        <ele>30.4188</ele>
        <time>2014-04-03T19:28:24Z</time>
      </trkpt>
      <trkpt lat="59.9676185" lon="17.7162267">
        <ele>30.4188</ele>
        <time>2014-04-03T19:28:25Z</time>
      </trkpt>
      <trkpt lat="59.9675997" lon="17.7161764">
        <ele>29.9381</ele>
        <time>2014-04-03T19:28:26Z</time>
      </trkpt>
      <trkpt lat="59.9675782" lon="17.7161235">
        <ele>29.4575</ele>
        <time>2014-04-03T19:28:27Z</time>
      </trkpt>
      <trkpt lat="59.9675526" lon="17.7160791">
        <ele>28.9769</ele>
        <time>2014-04-03T19:28:28Z</time>
      </trkpt>
      <trkpt lat="59.967534" lon="17.7160357">
        <ele>28.4962</ele>
        <time>2014-04-03T19:28:29Z</time>
      </trkpt>
      <trkpt lat="59.9675218" lon="17.7159858">
        <ele>28.0155</ele>
        <time>2014-04-03T19:28:30Z</time>
      </trkpt>
      <trkpt lat="59.9675148" lon="17.7159378">
        <ele>28.0155</ele>
        <time>2014-04-03T19:28:31Z</time>
      </trkpt>
      <trkpt lat="59.9675083" lon="17.7159019">
        <ele>27.5349</ele>
        <time>2014-04-03T19:28:32Z</time>
      </trkpt>
      <trkpt lat="59.967501" lon="17.7158609">
        <ele>27.5349</ele>
        <time>2014-04-03T19:28:33Z</time>
      </trkpt>
      <trkpt lat="59.967486" lon="17.715806">
        <ele>27.0543</ele>
        <time>2014-04-03T19:28:34Z</time>
      </trkpt>
      <trkpt lat="59.967468" lon="17.7157532">
        <ele>27.0543</ele>
        <time>2014-04-03T19:28:35Z</time>
      </trkpt>
      <trkpt lat="59.9674514" lon="17.7157049">
        <ele>27.0543</ele>
        <time>2014-04-03T19:28:36Z</time>
      </trkpt>
      <trkpt lat="59.9674399" lon="17.7156471">
        <ele>26.5736</ele>
        <time>2014-04-03T19:28:37Z</time>
      </trkpt>
      <trkpt lat="59.967434" lon="17.7155905">
        <ele>26.5736</ele>
        <time>2014-04-03T19:28:38Z</time>
      </trkpt>
      <trkpt lat="59.9674276" lon="17.7155408">
        <ele>26.0929</ele>
        <time>2014-04-03T19:28:39Z</time>
      </trkpt>
      <trkpt lat="59.9674161" lon="17.7154771">
        <ele>26.0929</ele>
        <time>2014-04-03T19:28:40Z</time>
      </trkpt>
      <trkpt lat="59.9674047" lon="17.7154109">
        <ele>26.0929</ele>
        <time>2014-04-03T19:28:41Z</time>
      </trkpt>
      <trkpt lat="59.9673979" lon="17.7153561">
        <ele>26.0929</ele>
        <time>2014-04-03T19:28:42Z</time>
      </trkpt>
      <trkpt lat="59.967392" lon="17.7153029">
        <ele>26.0929</ele>
        <time>2014-04-03T19:28:43Z</time>
      </trkpt>
      <trkpt lat="59.9673824" lon="17.7152492">
        <ele>25.6123</ele>
        <time>2014-04-03T19:28:44Z</time>
      </trkpt>
      <trkpt lat="59.9673687" lon="17.7152007">
        <ele>25.6123</ele>
        <time>2014-04-03T19:28:45Z</time>
      </trkpt>
      <trkpt lat="59.9673547" lon="17.7151518">
        <ele>25.1317</ele>
        <time>2014-04-03T19:28:46Z</time>
      </trkpt>
      <trkpt lat="59.9673381" lon="17.7150945">
        <ele>25.1317</ele>
        <time>2014-04-03T19:28:47Z</time>
      </trkpt>
      <trkpt lat="59.967329" lon="17.7150405">
        <ele>24.651</ele>
        <time>2014-04-03T19:28:48Z</time>
      </trkpt>
      <trkpt lat="59.9673196" lon="17.7149831">
        <ele>25.1317</ele>
        <time>2014-04-03T19:28:49Z</time>
      </trkpt>
      <trkpt lat="59.967313" lon="17.714925">
        <ele>25.6123</ele>
        <time>2014-04-03T19:28:50Z</time>
      </trkpt>
      <trkpt lat="59.9673038" lon="17.714866">
        <ele>26.0929</ele>
        <time>2014-04-03T19:28:51Z</time>
      </trkpt>
      <trkpt lat="59.9673074" lon="17.7148172">
        <ele>25.1317</ele>
        <time>2014-04-03T19:28:52Z</time>
      </trkpt>
      <trkpt lat="59.9673119" lon="17.7147519">
        <ele>24.651</ele>
        <time>2014-04-03T19:28:53Z</time>
      </trkpt>
      <trkpt lat="59.9673192" lon="17.7146798">
        <ele>24.1703</ele>
        <time>2014-04-03T19:28:54Z</time>
      </trkpt>
      <trkpt lat="59.9673141" lon="17.7146141">
        <ele>23.209</ele>
        <time>2014-04-03T19:28:55Z</time>
      </trkpt>
      <trkpt lat="59.9673091" lon="17.7145568">
        <ele>22.7283</ele>
        <time>2014-04-03T19:28:56Z</time>
      </trkpt>
      <trkpt lat="59.9673011" lon="17.7144946">
        <ele>22.7283</ele>
        <time>2014-04-03T19:28:57Z</time>
      </trkpt>
      <trkpt lat="59.9672874" lon="17.7144297">
        <ele>21.767</ele>
        <time>2014-04-03T19:28:58Z</time>
      </trkpt>
      <trkpt lat="59.9672767" lon="17.7143748">
        <ele>21.2864</ele>
        <time>2014-04-03T19:28:59Z</time>
      </trkpt>
      <trkpt lat="59.967272" lon="17.7143283">
        <ele>20.8057</ele>
        <time>2014-04-03T19:29:00Z</time>
      </trkpt>
      <trkpt lat="59.9672651" lon="17.714281">
        <ele>20.8057</ele>
        <time>2014-04-03T19:29:01Z</time>
      </trkpt>
      <trkpt lat="59.967253" lon="17.7142204">
        <ele>20.325</ele>
        <time>2014-04-03T19:29:02Z</time>
      </trkpt>
      <trkpt lat="59.9672439" lon="17.7141503">
        <ele>19.8444</ele>
        <time>2014-04-03T19:29:03Z</time>
      </trkpt>
      <trkpt lat="59.9672389" lon="17.7140882">
        <ele>19.8444</ele>
        <time>2014-04-03T19:29:04Z</time>
      </trkpt>
      <trkpt lat="59.9672333" lon="17.7140247">
        <ele>19.3638</ele>
        <time>2014-04-03T19:29:05Z</time>
      </trkpt>
      <trkpt lat="59.9672265" lon="17.7139747">
        <ele>19.3638</ele>
        <time>2014-04-03T19:29:06Z</time>
      </trkpt>
      <trkpt lat="59.967218" lon="17.7139282">
        <ele>19.8444</ele>
        <time>2014-04-03T19:29:07Z</time>
      </trkpt>
      <trkpt lat="59.9672071" lon="17.7138668">
        <ele>19.3638</ele>
        <time>2014-04-03T19:29:08Z</time>
      </trkpt>
      <trkpt lat="59.9671996" lon="17.7138048">
        <ele>18.8831</ele>
        <time>2014-04-03T19:29:09Z</time>
      </trkpt>
      <trkpt lat="59.9671922" lon="17.713748">
        <ele>18.8831</ele>
        <time>2014-04-03T19:29:10Z</time>
      </trkpt>
      <trkpt lat="59.9671828" lon="17.7136937">
        <ele>17.9218</ele>
        <time>2014-04-03T19:29:11Z</time>
      </trkpt>
      <trkpt lat="59.9671748" lon="17.7136406">
        <ele>18.4023</ele>
        <time>2014-04-03T19:29:12Z</time>
      </trkpt>
      <trkpt lat="59.9671659" lon="17.7135838">
        <ele>17.9218</ele>
        <time>2014-04-03T19:29:13Z</time>
      </trkpt>
      <trkpt lat="59.9671576" lon="17.7135253">
        <ele>17.4412</ele>
        <time>2014-04-03T19:29:14Z</time>
      </trkpt>
      <trkpt lat="59.9671509" lon="17.7134667">
        <ele>16.9604</ele>
        <time>2014-04-03T19:29:15Z</time>
      </trkpt>
      <trkpt lat="59.967144" lon="17.7134099">
        <ele>16.4797</ele>
        <time>2014-04-03T19:29:16Z</time>
      </trkpt>
      <trkpt lat="59.9671379" lon="17.7133539">
        <ele>16.4797</ele>
        <time>2014-04-03T19:29:17Z</time>
      </trkpt>
      <trkpt lat="59.9671342" lon="17.7132944">
        <ele>15.999</ele>
        <time>2014-04-03T19:29:18Z</time>
      </trkpt>
      <trkpt lat="59.9671213" lon="17.7132397">
        <ele>15.5184</ele>
        <time>2014-04-03T19:29:19Z</time>
      </trkpt>
      <trkpt lat="59.9671076" lon="17.7131903">
        <ele>15.5184</ele>
        <time>2014-04-03T19:29:20Z</time>
      </trkpt>
      <trkpt lat="59.9670963" lon="17.7131413">
        <ele>15.5184</ele>
        <time>2014-04-03T19:29:21Z</time>
      </trkpt>
      <trkpt lat="59.9670911" lon="17.7130985">
        <ele>15.0377</ele>
        <time>2014-04-03T19:29:22Z</time>
      </trkpt>
      <trkpt lat="59.9670912" lon="17.7130617">
        <ele>15.5184</ele>
        <time>2014-04-03T19:29:23Z</time>
      </trkpt>
      <trkpt lat="59.9670851" lon="17.7130188">
        <ele>15.5184</ele>
        <time>2014-04-03T19:29:24Z</time>
      </trkpt>
      <trkpt lat="59.9670804" lon="17.7129682">
        <ele>15.999</ele>
        <time>2014-04-03T19:29:25Z</time>
      </trkpt>
      <trkpt lat="59.9670726" lon="17.7129196">
        <ele>16.4797</ele>
        <time>2014-04-03T19:29:26Z</time>
      </trkpt>
      <trkpt lat="59.9670627" lon="17.7128731">
        <ele>17.4412</ele>
        <time>2014-04-03T19:29:27Z</time>
      </trkpt>
      <trkpt lat="59.9670484" lon="17.7128239">
        <ele>18.4023</ele>
        <time>2014-04-03T19:29:28Z</time>
      </trkpt>
      <trkpt lat="59.9670338" lon="17.7127733">
        <ele>18.8831</ele>
        <time>2014-04-03T19:29:29Z</time>
      </trkpt>
      <trkpt lat="59.9670208" lon="17.7127158">
        <ele>18.8831</ele>
        <time>2014-04-03T19:29:30Z</time>
      </trkpt>
      <trkpt lat="59.9670054" lon="17.7126557">
        <ele>19.3638</ele>
        <time>2014-04-03T19:29:31Z</time>
      </trkpt>
      <trkpt lat="59.9669934" lon="17.7126007">
        <ele>19.3638</ele>
        <time>2014-04-03T19:29:32Z</time>
      </trkpt>
      <trkpt lat="59.9669757" lon="17.7125391">
        <ele>19.8444</ele>
        <time>2014-04-03T19:29:33Z</time>
      </trkpt>
      <trkpt lat="59.9669641" lon="17.7124892">
        <ele>19.8444</ele>
        <time>2014-04-03T19:29:34Z</time>
      </trkpt>
      <trkpt lat="59.9669545" lon="17.7124457">
        <ele>19.8444</ele>
        <time>2014-04-03T19:29:35Z</time>
      </trkpt>
      <trkpt lat="59.966943" lon="17.7124007">
        <ele>19.8444</ele>
        <time>2014-04-03T19:29:36Z</time>
      </trkpt>
      <trkpt lat="59.9669325" lon="17.7123523">
        <ele>20.8057</ele>
        <time>2014-04-03T19:29:37Z</time>
      </trkpt>
      <trkpt lat="59.9669318" lon="17.7123145">
        <ele>21.767</ele>
        <time>2014-04-03T19:29:38Z</time>
      </trkpt>
      <trkpt lat="59.9669277" lon="17.7122769">
        <ele>22.7283</ele>
        <time>2014-04-03T19:29:39Z</time>
      </trkpt>
      <trkpt lat="59.9669089" lon="17.7122235">
        <ele>22.2476</ele>
        <time>2014-04-03T19:29:40Z</time>
      </trkpt>
      <trkpt lat="59.9668861" lon="17.7121779">
        <ele>22.7283</ele>
        <time>2014-04-03T19:29:41Z</time>
      </trkpt>
      <trkpt lat="59.9668644" lon="17.7121465">
        <ele>23.209</ele>
        <time>2014-04-03T19:29:42Z</time>
      </trkpt>
      <trkpt lat="59.9668369" lon="17.712104">
        <ele>23.209</ele>
        <time>2014-04-03T19:29:43Z</time>
      </trkpt>
      <trkpt lat="59.9668155" lon="17.7120602">
        <ele>23.209</ele>
        <time>2014-04-03T19:29:44Z</time>
      </trkpt>
      <trkpt lat="59.9667965" lon="17.7120182">
        <ele>23.209</ele>
        <time>2014-04-03T19:29:45Z</time>
      </trkpt>
      <trkpt lat="59.9667773" lon="17.7119769">
        <ele>23.6896</ele>
        <time>2014-04-03T19:29:46Z</time>
      </trkpt>
      <trkpt lat="59.9667629" lon="17.7119345">
        <ele>23.6896</ele>
        <time>2014-04-03T19:29:47Z</time>
      </trkpt>
      <trkpt lat="59.9667473" lon="17.7118911">
        <ele>24.1703</ele>
        <time>2014-04-03T19:29:48Z</time>
      </trkpt>
      <trkpt lat="59.9667336" lon="17.7118567">
        <ele>24.651</ele>
        <time>2014-04-03T19:29:49Z</time>
      </trkpt>
      <trkpt lat="59.9667231" lon="17.7118226">
        <ele>24.651</ele>
        <time>2014-04-03T19:29:50Z</time>
      </trkpt>
      <trkpt lat="59.9667037" lon="17.7117911">
        <ele>25.1317</ele>
        <time>2014-04-03T19:29:51Z</time>
      </trkpt>
      <trkpt lat="59.966677" lon="17.7117711">
        <ele>25.1317</ele>
        <time>2014-04-03T19:29:52Z</time>
      </trkpt>
      <trkpt lat="59.9666468" lon="17.7117642">
        <ele>26.0929</ele>
        <time>2014-04-03T19:29:53Z</time>
      </trkpt>
      <trkpt lat="59.9666178" lon="17.7117682">
        <ele>26.0929</ele>
        <time>2014-04-03T19:29:54Z</time>
      </trkpt>
      <trkpt lat="59.9665956" lon="17.7117878">
        <ele>26.0929</ele>
        <time>2014-04-03T19:29:55Z</time>
      </trkpt>
      <trkpt lat="59.9665697" lon="17.7118221">
        <ele>26.0929</ele>
        <time>2014-04-03T19:29:56Z</time>
      </trkpt>
      <trkpt lat="59.9665405" lon="17.7118597">
        <ele>26.5736</ele>
        <time>2014-04-03T19:29:57Z</time>
      </trkpt>
      <trkpt lat="59.9665199" lon="17.7118804">
        <ele>27.5349</ele>
        <time>2014-04-03T19:29:58Z</time>
      </trkpt>
      <trkpt lat="59.9665028" lon="17.7119096">
        <ele>28.4962</ele>
        <time>2014-04-03T19:29:59Z</time>
      </trkpt>
      <trkpt lat="59.96648" lon="17.7119493">
        <ele>28.9769</ele>
        <time>2014-04-03T19:30:00Z</time>
      </trkpt>
      <trkpt lat="59.9664547" lon="17.7119827">
        <ele>29.9381</ele>
        <time>2014-04-03T19:30:01Z</time>
      </trkpt>
      <trkpt lat="59.966434" lon="17.7120174">
        <ele>30.8995</ele>
        <time>2014-04-03T19:30:02Z</time>
      </trkpt>
      <trkpt lat="59.966412" lon="17.7120552">
        <ele>31.3801</ele>
        <time>2014-04-03T19:30:03Z</time>
      </trkpt>
      <trkpt lat="59.9663902" lon="17.7120867">
        <ele>31.8607</ele>
        <time>2014-04-03T19:30:04Z</time>
      </trkpt>
      <trkpt lat="59.9663707" lon="17.7121245">
        <ele>32.3416</ele>
        <time>2014-04-03T19:30:05Z</time>
      </trkpt>
      <trkpt lat="59.966348" lon="17.7121684">
        <ele>32.8223</ele>
        <time>2014-04-03T19:30:06Z</time>
      </trkpt>
      <trkpt lat="59.966322" lon="17.7122208">
        <ele>32.3416</ele>
        <time>2014-04-03T19:30:07Z</time>
      </trkpt>
      <trkpt lat="59.966297" lon="17.7122681">
        <ele>32.3416</ele>
        <time>2014-04-03T19:30:08Z</time>
      </trkpt>
      <trkpt lat="59.9662764" lon="17.7123012">
        <ele>32.8223</ele>
        <time>2014-04-03T19:30:09Z</time>
      </trkpt>
      <trkpt lat="59.9662571" lon="17.7123293">
        <ele>31.8607</ele>
        <time>2014-04-03T19:30:10Z</time>
      </trkpt>
      <trkpt lat="59.9662334" lon="17.7123715">
        <ele>32.3416</ele>
        <time>2014-04-03T19:30:11Z</time>
      </trkpt>
      <trkpt lat="59.9662069" lon="17.712407">
        <ele>32.8223</ele>
        <time>2014-04-03T19:30:12Z</time>
      </trkpt>
      <trkpt lat="59.9661815" lon="17.7124421">
        <ele>33.3029</ele>
        <time>2014-04-03T19:30:13Z</time>
      </trkpt>
      <trkpt lat="59.9661594" lon="17.7124696">
        <ele>33.7834</ele>
        <time>2014-04-03T19:30:14Z</time>
      </trkpt>
      <trkpt lat="59.9661395" lon="17.712495">
        <ele>33.7834</ele>
        <time>2014-04-03T19:30:15Z</time>
      </trkpt>
      <trkpt lat="59.9661191" lon="17.7125276">
        <ele>35.7061</ele>
        <time>2014-04-03T19:30:16Z</time>
      </trkpt>
      <trkpt lat="59.9660982" lon="17.7125609">
        <ele>36.6675</ele>
        <time>2014-04-03T19:30:17Z</time>
      </trkpt>
      <trkpt lat="59.9660759" lon="17.7125834">
        <ele>36.6675</ele>
        <time>2014-04-03T19:30:18Z</time>
      </trkpt>
      <trkpt lat="59.9660521" lon="17.7126046">
        <ele>37.6287</ele>
        <time>2014-04-03T19:30:19Z</time>
      </trkpt>
      <trkpt lat="59.9660291" lon="17.7126229">
        <ele>38.1094</ele>
        <time>2014-04-03T19:30:20Z</time>
      </trkpt>
      <trkpt lat="59.966004" lon="17.7126347">
        <ele>38.5901</ele>
        <time>2014-04-03T19:30:21Z</time>
      </trkpt>
      <trkpt lat="59.9659774" lon="17.7126461">
        <ele>39.5513</ele>
        <time>2014-04-03T19:30:22Z</time>
      </trkpt>
      <trkpt lat="59.965949" lon="17.7126482">
        <ele>40.0321</ele>
        <time>2014-04-03T19:30:23Z</time>
      </trkpt>
      <trkpt lat="59.9659174" lon="17.7126469">
        <ele>40.9934</ele>
        <time>2014-04-03T19:30:24Z</time>
      </trkpt>
      <trkpt lat="59.9658887" lon="17.7126465">
        <ele>41.474</ele>
        <time>2014-04-03T19:30:25Z</time>
      </trkpt>
      <trkpt lat="59.9658589" lon="17.712641">
        <ele>41.9547</ele>
        <time>2014-04-03T19:30:26Z</time>
      </trkpt>
      <trkpt lat="59.9658287" lon="17.712631">
        <ele>41.9547</ele>
        <time>2014-04-03T19:30:27Z</time>
      </trkpt>
      <trkpt lat="59.9658007" lon="17.7126245">
        <ele>42.4354</ele>
        <time>2014-04-03T19:30:28Z</time>
      </trkpt>
      <trkpt lat="59.9657739" lon="17.7126088">
        <ele>42.4354</ele>
        <time>2014-04-03T19:30:29Z</time>
      </trkpt>
      <trkpt lat="59.9657492" lon="17.7125992">
        <ele>42.916</ele>
        <time>2014-04-03T19:30:30Z</time>
      </trkpt>
      <trkpt lat="59.9657241" lon="17.7125867">
        <ele>42.916</ele>
        <time>2014-04-03T19:30:31Z</time>
      </trkpt>
      <trkpt lat="59.9656973" lon="17.7125663">
        <ele>43.3966</ele>
        <time>2014-04-03T19:30:32Z</time>
      </trkpt>
      <trkpt lat="59.9656709" lon="17.7125469">
        <ele>42.916</ele>
        <time>2014-04-03T19:30:33Z</time>
      </trkpt>
      <trkpt lat="59.9656446" lon="17.7125297">
        <ele>43.3966</ele>
        <time>2014-04-03T19:30:34Z</time>
      </trkpt>
      <trkpt lat="59.9656186" lon="17.712511">
        <ele>43.3966</ele>
        <time>2014-04-03T19:30:35Z</time>
      </trkpt>
      <trkpt lat="59.9655884" lon="17.7124939">
        <ele>42.916</ele>
        <time>2014-04-03T19:30:36Z</time>
      </trkpt>
      <trkpt lat="59.9655585" lon="17.7124749">
        <ele>42.916</ele>
        <time>2014-04-03T19:30:37Z</time>
      </trkpt>
      <trkpt lat="59.9655357" lon="17.7124546">
        <ele>42.916</ele>
        <time>2014-04-03T19:30:38Z</time>
      </trkpt>
      <trkpt lat="59.9655144" lon="17.7124324">
        <ele>42.916</ele>
        <time>2014-04-03T19:30:39Z</time>
      </trkpt>
      <trkpt lat="59.9654911" lon="17.7124143">
        <ele>42.916</ele>
        <time>2014-04-03T19:30:40Z</time>
      </trkpt>
      <trkpt lat="59.9654667" lon="17.7123909">
        <ele>42.4354</ele>
        <time>2014-04-03T19:30:41Z</time>
      </trkpt>
      <trkpt lat="59.965443" lon="17.7123541">
        <ele>42.4354</ele>
        <time>2014-04-03T19:30:42Z</time>
      </trkpt>
      <trkpt lat="59.9654191" lon="17.712323">
        <ele>42.4354</ele>
        <time>2014-04-03T19:30:43Z</time>
      </trkpt>
      <trkpt lat="59.965393" lon="17.7123007">
        <ele>42.916</ele>
        <time>2014-04-03T19:30:44Z</time>
      </trkpt>
      <trkpt lat="59.9653652" lon="17.712281">
        <ele>42.916</ele>
        <time>2014-04-03T19:30:45Z</time>
      </trkpt>
      <trkpt lat="59.9653387" lon="17.7122633">
        <ele>42.916</ele>
        <time>2014-04-03T19:30:46Z</time>
      </trkpt>
      <trkpt lat="59.9653093" lon="17.7122334">
        <ele>42.4354</ele>
        <time>2014-04-03T19:30:47Z</time>
      </trkpt>
      <trkpt lat="59.9652787" lon="17.7122127">
        <ele>42.4354</ele>
        <time>2014-04-03T19:30:48Z</time>
      </trkpt>
      <trkpt lat="59.9652497" lon="17.712197">
        <ele>42.4354</ele>
        <time>2014-04-03T19:30:49Z</time>
      </trkpt>
      <trkpt lat="59.9652184" lon="17.71218">
        <ele>42.4354</ele>
        <time>2014-04-03T19:30:50Z</time>
      </trkpt>
      <trkpt lat="59.9651903" lon="17.7121598">
        <ele>41.9547</ele>
        <time>2014-04-03T19:30:51Z</time>
      </trkpt>
      <trkpt lat="59.9651641" lon="17.7121355">
        <ele>41.9547</ele>
        <time>2014-04-03T19:30:52Z</time>
      </trkpt>
      <trkpt lat="59.9651366" lon="17.7121135">
        <ele>41.9547</ele>
        <time>2014-04-03T19:30:53Z</time>
      </trkpt>
      <trkpt lat="59.9651109" lon="17.7120903">
        <ele>41.474</ele>
        <time>2014-04-03T19:30:54Z</time>
      </trkpt>
      <trkpt lat="59.9650832" lon="17.7120697">
        <ele>40.9934</ele>
        <time>2014-04-03T19:30:55Z</time>
      </trkpt>
      <trkpt lat="59.9650534" lon="17.7120434">
        <ele>40.5128</ele>
        <time>2014-04-03T19:30:56Z</time>
      </trkpt>
      <trkpt lat="59.9650299" lon="17.7120135">
        <ele>40.0321</ele>
        <time>2014-04-03T19:30:57Z</time>
      </trkpt>
      <trkpt lat="59.9650114" lon="17.711985">
        <ele>39.5513</ele>
        <time>2014-04-03T19:30:58Z</time>
      </trkpt>
      <trkpt lat="59.9649926" lon="17.7119553">
        <ele>39.0707</ele>
        <time>2014-04-03T19:30:59Z</time>
      </trkpt>
      <trkpt lat="59.9649696" lon="17.7119312">
        <ele>38.5901</ele>
        <time>2014-04-03T19:31:00Z</time>
      </trkpt>
      <trkpt lat="59.9649444" lon="17.7119069">
        <ele>37.6287</ele>
        <time>2014-04-03T19:31:01Z</time>
      </trkpt>
      <trkpt lat="59.9649229" lon="17.7118799">
        <ele>37.1481</ele>
        <time>2014-04-03T19:31:02Z</time>
      </trkpt>
      <trkpt lat="59.9648994" lon="17.7118568">
        <ele>36.1868</ele>
        <time>2014-04-03T19:31:03Z</time>
      </trkpt>
      <trkpt lat="59.9648747" lon="17.711835">
        <ele>35.2255</ele>
        <time>2014-04-03T19:31:04Z</time>
      </trkpt>
      <trkpt lat="59.9648499" lon="17.7118148">
        <ele>35.2255</ele>
        <time>2014-04-03T19:31:05Z</time>
      </trkpt>
      <trkpt lat="59.964825" lon="17.7117977">
        <ele>35.2255</ele>
        <time>2014-04-03T19:31:06Z</time>
      </trkpt>
      <trkpt lat="59.9648033" lon="17.711773">
        <ele>35.2255</ele>
        <time>2014-04-03T19:31:07Z</time>
      </trkpt>
      <trkpt lat="59.9647813" lon="17.711748">
        <ele>35.7061</ele>
        <time>2014-04-03T19:31:08Z</time>
      </trkpt>
      <trkpt lat="59.9647569" lon="17.7117338">
        <ele>35.7061</ele>
        <time>2014-04-03T19:31:09Z</time>
      </trkpt>
      <trkpt lat="59.9647327" lon="17.7117237">
        <ele>35.7061</ele>
        <time>2014-04-03T19:31:10Z</time>
      </trkpt>
      <trkpt lat="59.9647067" lon="17.7117118">
        <ele>35.7061</ele>
        <time>2014-04-03T19:31:11Z</time>
      </trkpt>
      <trkpt lat="59.9646778" lon="17.7116984">
        <ele>35.7061</ele>
        <time>2014-04-03T19:31:12Z</time>
      </trkpt>
      <trkpt lat="59.9646491" lon="17.7116795">
        <ele>36.1868</ele>
        <time>2014-04-03T19:31:13Z</time>
      </trkpt>
      <trkpt lat="59.9646229" lon="17.7116582">
        <ele>36.1868</ele>
        <time>2014-04-03T19:31:14Z</time>
      </trkpt>
      <trkpt lat="59.9645977" lon="17.7116397">
        <ele>36.1868</ele>
        <time>2014-04-03T19:31:15Z</time>
      </trkpt>
      <trkpt lat="59.964571" lon="17.7116195">
        <ele>36.1868</ele>
        <time>2014-04-03T19:31:16Z</time>
      </trkpt>
      <trkpt lat="59.9645447" lon="17.7115979">
        <ele>36.1868</ele>
        <time>2014-04-03T19:31:17Z</time>
      </trkpt>
      <trkpt lat="59.9645197" lon="17.7115766">
        <ele>36.1868</ele>
        <time>2014-04-03T19:31:18Z</time>
      </trkpt>
      <trkpt lat="59.9644933" lon="17.7115531">
        <ele>36.1868</ele>
        <time>2014-04-03T19:31:19Z</time>
      </trkpt>
      <trkpt lat="59.9644697" lon="17.7115314">
        <ele>36.1868</ele>
        <time>2014-04-03T19:31:20Z</time>
      </trkpt>
      <trkpt lat="59.9644468" lon="17.7115138">
        <ele>36.6675</ele>
        <time>2014-04-03T19:31:21Z</time>
      </trkpt>
      <trkpt lat="59.9644235" lon="17.7114942">
        <ele>36.6675</ele>
        <time>2014-04-03T19:31:22Z</time>
      </trkpt>
      <trkpt lat="59.9643986" lon="17.7114696">
        <ele>36.6675</ele>
        <time>2014-04-03T19:31:23Z</time>
      </trkpt>
      <trkpt lat="59.964371" lon="17.7114429">
        <ele>36.6675</ele>
        <time>2014-04-03T19:31:24Z</time>
      </trkpt>
      <trkpt lat="59.9643422" lon="17.7114223">
        <ele>36.6675</ele>
        <time>2014-04-03T19:31:25Z</time>
      </trkpt>
      <trkpt lat="59.964314" lon="17.7114004">
        <ele>36.1868</ele>
        <time>2014-04-03T19:31:26Z</time>
      </trkpt>
      <trkpt lat="59.9642866" lon="17.7113713">
        <ele>35.7061</ele>
        <time>2014-04-03T19:31:27Z</time>
      </trkpt>
      <trkpt lat="59.9642614" lon="17.7113394">
        <ele>35.2255</ele>
        <time>2014-04-03T19:31:28Z</time>
      </trkpt>
      <trkpt lat="59.9642361" lon="17.7113097">
        <ele>35.2255</ele>
        <time>2014-04-03T19:31:29Z</time>
      </trkpt>
      <trkpt lat="59.9642078" lon="17.7112775">
        <ele>34.7449</ele>
        <time>2014-04-03T19:31:30Z</time>
      </trkpt>
      <trkpt lat="59.9641807" lon="17.7112418">
        <ele>34.7449</ele>
        <time>2014-04-03T19:31:31Z</time>
      </trkpt>
      <trkpt lat="59.9641567" lon="17.7112073">
        <ele>34.7449</ele>
        <time>2014-04-03T19:31:32Z</time>
      </trkpt>
      <trkpt lat="59.9641332" lon="17.7111676">
        <ele>33.7834</ele>
        <time>2014-04-03T19:31:33Z</time>
      </trkpt>
      <trkpt lat="59.9641099" lon="17.7111296">
        <ele>33.3029</ele>
        <time>2014-04-03T19:31:34Z</time>
      </trkpt>
      <trkpt lat="59.9640848" lon="17.7110886">
        <ele>33.3029</ele>
        <time>2014-04-03T19:31:35Z</time>
      </trkpt>
      <trkpt lat="59.9640619" lon="17.7110477">
        <ele>33.3029</ele>
        <time>2014-04-03T19:31:36Z</time>
      </trkpt>
      <trkpt lat="59.9640395" lon="17.7110098">
        <ele>33.3029</ele>
        <time>2014-04-03T19:31:37Z</time>
      </trkpt>
      <trkpt lat="59.9640163" lon="17.7109679">
        <ele>33.7834</ele>
        <time>2014-04-03T19:31:38Z</time>
      </trkpt>
      <trkpt lat="59.9639949" lon="17.7109285">
        <ele>33.7834</ele>
        <time>2014-04-03T19:31:39Z</time>
      </trkpt>
      <trkpt lat="59.9639761" lon="17.710886">
        <ele>33.3029</ele>
        <time>2014-04-03T19:31:40Z</time>
      </trkpt>
      <trkpt lat="59.9639582" lon="17.7108398">
        <ele>33.3029</ele>
        <time>2014-04-03T19:31:41Z</time>
      </trkpt>
      <trkpt lat="59.9639407" lon="17.7107907">
        <ele>33.3029</ele>
        <time>2014-04-03T19:31:42Z</time>
      </trkpt>
      <trkpt lat="59.963922" lon="17.7107472">
        <ele>33.3029</ele>
        <time>2014-04-03T19:31:43Z</time>
      </trkpt>
      <trkpt lat="59.9638972" lon="17.7107012">
        <ele>33.3029</ele>
        <time>2014-04-03T19:31:44Z</time>
      </trkpt>
      <trkpt lat="59.9638718" lon="17.7106431">
        <ele>33.3029</ele>
        <time>2014-04-03T19:31:45Z</time>
      </trkpt>
      <trkpt lat="59.9638511" lon="17.7105944">
        <ele>32.8223</ele>
        <time>2014-04-03T19:31:46Z</time>
      </trkpt>
      <trkpt lat="59.9638277" lon="17.7105478">
        <ele>32.8223</ele>
        <time>2014-04-03T19:31:47Z</time>
      </trkpt>
      <trkpt lat="59.9638034" lon="17.7105075">
        <ele>32.8223</ele>
        <time>2014-04-03T19:31:48Z</time>
      </trkpt>
      <trkpt lat="59.9637822" lon="17.7104748">
        <ele>32.8223</ele>
        <time>2014-04-03T19:31:49Z</time>
      </trkpt>
      <trkpt lat="59.9637649" lon="17.7104394">
        <ele>32.3416</ele>
        <time>2014-04-03T19:31:50Z</time>
      </trkpt>
      <trkpt lat="59.9637495" lon="17.710395">
        <ele>32.3416</ele>
        <time>2014-04-03T19:31:51Z</time>
      </trkpt>
      <trkpt lat="59.9637323" lon="17.710353">
        <ele>31.8607</ele>
        <time>2014-04-03T19:31:52Z</time>
      </trkpt>
      <trkpt lat="59.9637134" lon="17.710311">
        <ele>31.8607</ele>
        <time>2014-04-03T19:31:53Z</time>
      </trkpt>
      <trkpt lat="59.9636962" lon="17.7102608">
        <ele>31.8607</ele>
        <time>2014-04-03T19:31:54Z</time>
      </trkpt>
      <trkpt lat="59.9636833" lon="17.7102155">
        <ele>31.3801</ele>
        <time>2014-04-03T19:31:55Z</time>
      </trkpt>
      <trkpt lat="59.9636735" lon="17.7101847">
        <ele>31.3801</ele>
        <time>2014-04-03T19:31:56Z</time>
      </trkpt>
      <trkpt lat="59.9636574" lon="17.7101765">
        <ele>31.3801</ele>
        <time>2014-04-03T19:31:57Z</time>
      </trkpt>
      <trkpt lat="59.963632" lon="17.7101892">
        <ele>30.8995</ele>
        <time>2014-04-03T19:31:58Z</time>
      </trkpt>
      <trkpt lat="59.9636076" lon="17.7102052">
        <ele>30.8995</ele>
        <time>2014-04-03T19:31:59Z</time>
      </trkpt>
      <trkpt lat="59.9635911" lon="17.7102168">
        <ele>30.8995</ele>
        <time>2014-04-03T19:32:00Z</time>
      </trkpt>
      <trkpt lat="59.963573" lon="17.7102397">
        <ele>30.8995</ele>
        <time>2014-04-03T19:32:01Z</time>
      </trkpt>
      <trkpt lat="59.9635511" lon="17.7102746">
        <ele>30.8995</ele>
        <time>2014-04-03T19:32:02Z</time>
      </trkpt>
      <trkpt lat="59.9635324" lon="17.7103141">
        <ele>30.8995</ele>
        <time>2014-04-03T19:32:03Z</time>
      </trkpt>
      <trkpt lat="59.9635161" lon="17.7103552">
        <ele>30.4188</ele>
        <time>2014-04-03T19:32:04Z</time>
      </trkpt>
      <trkpt lat="59.9634997" lon="17.7104006">
        <ele>30.4188</ele>
        <time>2014-04-03T19:32:05Z</time>
      </trkpt>
      <trkpt lat="59.9634796" lon="17.710445">
        <ele>30.4188</ele>
        <time>2014-04-03T19:32:06Z</time>
      </trkpt>
      <trkpt lat="59.9634586" lon="17.7104949">
        <ele>30.4188</ele>
        <time>2014-04-03T19:32:07Z</time>
      </trkpt>
      <trkpt lat="59.9634391" lon="17.7105513">
        <ele>30.4188</ele>
        <time>2014-04-03T19:32:08Z</time>
      </trkpt>
      <trkpt lat="59.9634178" lon="17.7106083">
        <ele>30.4188</ele>
        <time>2014-04-03T19:32:09Z</time>
      </trkpt>
      <trkpt lat="59.9633963" lon="17.7106714">
        <ele>29.9381</ele>
        <time>2014-04-03T19:32:10Z</time>
      </trkpt>
      <trkpt lat="59.9633783" lon="17.7107373">
        <ele>29.9381</ele>
        <time>2014-04-03T19:32:11Z</time>
      </trkpt>
      <trkpt lat="59.9633653" lon="17.7107936">
        <ele>29.4575</ele>
        <time>2014-04-03T19:32:12Z</time>
      </trkpt>
      <trkpt lat="59.963358" lon="17.7108451">
        <ele>29.9381</ele>
        <time>2014-04-03T19:32:13Z</time>
      </trkpt>
      <trkpt lat="59.9633539" lon="17.710899">
        <ele>29.4575</ele>
        <time>2014-04-03T19:32:14Z</time>
      </trkpt>
      <trkpt lat="59.9633505" lon="17.7109579">
        <ele>28.9769</ele>
        <time>2014-04-03T19:32:15Z</time>
      </trkpt>
      <trkpt lat="59.9633564" lon="17.7110176">
        <ele>29.4575</ele>
        <time>2014-04-03T19:32:16Z</time>
      </trkpt>
      <trkpt lat="59.9633776" lon="17.7110678">
        <ele>29.9381</ele>
        <time>2014-04-03T19:32:17Z</time>
      </trkpt>
      <trkpt lat="59.9633997" lon="17.7111171">
        <ele>29.9381</ele>
        <time>2014-04-03T19:32:18Z</time>
      </trkpt>
      <trkpt lat="59.9634164" lon="17.7111602">
        <ele>29.9381</ele>
        <time>2014-04-03T19:32:19Z</time>
      </trkpt>
      <trkpt lat="59.9634342" lon="17.711194">
        <ele>29.9381</ele>
        <time>2014-04-03T19:32:20Z</time>
      </trkpt>
      <trkpt lat="59.9634558" lon="17.71123">
        <ele>30.4188</ele>
        <time>2014-04-03T19:32:21Z</time>
      </trkpt>
      <trkpt lat="59.9634795" lon="17.7112664">
        <ele>30.4188</ele>
        <time>2014-04-03T19:32:22Z</time>
      </trkpt>
      <trkpt lat="59.9635056" lon="17.7113018">
        <ele>30.4188</ele>
        <time>2014-04-03T19:32:23Z</time>
      </trkpt>
      <trkpt lat="59.9635268" lon="17.7113412">
        <ele>30.4188</ele>
        <time>2014-04-03T19:32:24Z</time>
      </trkpt>
      <trkpt lat="59.963551" lon="17.7113862">
        <ele>30.4188</ele>
        <time>2014-04-03T19:32:25Z</time>
      </trkpt>
      <trkpt lat="59.9635729" lon="17.7114319">
        <ele>30.4188</ele>
        <time>2014-04-03T19:32:26Z</time>
      </trkpt>
      <trkpt lat="59.9635906" lon="17.7114813">
        <ele>30.8995</ele>
        <time>2014-04-03T19:32:27Z</time>
      </trkpt>
      <trkpt lat="59.9636019" lon="17.7115333">
        <ele>30.4188</ele>
        <time>2014-04-03T19:32:28Z</time>
      </trkpt>
      <trkpt lat="59.9636109" lon="17.7115838">
        <ele>30.8995</ele>
        <time>2014-04-03T19:32:29Z</time>
      </trkpt>
      <trkpt lat="59.9636144" lon="17.7116325">
        <ele>30.8995</ele>
        <time>2014-04-03T19:32:30Z</time>
      </trkpt>
      <trkpt lat="59.9636223" lon="17.7116843">
        <ele>31.3801</ele>
        <time>2014-04-03T19:32:31Z</time>
      </trkpt>
      <trkpt lat="59.9636212" lon="17.7117519">
        <ele>31.8607</ele>
        <time>2014-04-03T19:32:32Z</time>
      </trkpt>
      <trkpt lat="59.9636138" lon="17.7118193">
        <ele>31.3801</ele>
        <time>2014-04-03T19:32:33Z</time>
      </trkpt>
      <trkpt lat="59.9636081" lon="17.7118661">
        <ele>31.8607</ele>
        <time>2014-04-03T19:32:34Z</time>
      </trkpt>
      <trkpt lat="59.9636052" lon="17.7119143">
        <ele>31.8607</ele>
        <time>2014-04-03T19:32:35Z</time>
      </trkpt>
      <trkpt lat="59.9636051" lon="17.7119654">
        <ele>31.8607</ele>
        <time>2014-04-03T19:32:36Z</time>
      </trkpt>
      <trkpt lat="59.9636101" lon="17.71202">
        <ele>32.3416</ele>
        <time>2014-04-03T19:32:37Z</time>
      </trkpt>
      <trkpt lat="59.9636124" lon="17.7120682">
        <ele>32.8223</ele>
        <time>2014-04-03T19:32:38Z</time>
      </trkpt>
      <trkpt lat="59.9636147" lon="17.7121256">
        <ele>32.8223</ele>
        <time>2014-04-03T19:32:39Z</time>
      </trkpt>
      <trkpt lat="59.9636138" lon="17.7121791">
        <ele>32.8223</ele>
        <time>2014-04-03T19:32:40Z</time>
      </trkpt>
      <trkpt lat="59.9636154" lon="17.712229">
        <ele>32.3416</ele>
        <time>2014-04-03T19:32:41Z</time>
      </trkpt>
      <trkpt lat="59.9636176" lon="17.7122835">
        <ele>32.3416</ele>
        <time>2014-04-03T19:32:42Z</time>
      </trkpt>
      <trkpt lat="59.9636153" lon="17.7123337">
        <ele>31.3801</ele>
        <time>2014-04-03T19:32:43Z</time>
      </trkpt>
      <trkpt lat="59.963619" lon="17.7123857">
        <ele>31.8607</ele>
        <time>2014-04-03T19:32:44Z</time>
      </trkpt>
      <trkpt lat="59.9636305" lon="17.7124264">
        <ele>31.3801</ele>
        <time>2014-04-03T19:32:45Z</time>
      </trkpt>
      <trkpt lat="59.9636475" lon="17.7124648">
        <ele>31.3801</ele>
        <time>2014-04-03T19:32:46Z</time>
      </trkpt>
      <trkpt lat="59.9636642" lon="17.7125058">
        <ele>31.8607</ele>
        <time>2014-04-03T19:32:47Z</time>
      </trkpt>
      <trkpt lat="59.9636775" lon="17.7125431">
        <ele>31.3801</ele>
        <time>2014-04-03T19:32:48Z</time>
      </trkpt>
      <trkpt lat="59.9636908" lon="17.712582">
        <ele>31.8607</ele>
        <time>2014-04-03T19:32:49Z</time>
      </trkpt>
      <trkpt lat="59.9637008" lon="17.7126271">
        <ele>31.8607</ele>
        <time>2014-04-03T19:32:50Z</time>
      </trkpt>
      <trkpt lat="59.963705" lon="17.7126704">
        <ele>31.3801</ele>
        <time>2014-04-03T19:32:51Z</time>
      </trkpt>
      <trkpt lat="59.9637009" lon="17.7127025">
        <ele>31.3801</ele>
        <time>2014-04-03T19:32:52Z</time>
      </trkpt>
      <trkpt lat="59.9636905" lon="17.7127318">
        <ele>30.8995</ele>
        <time>2014-04-03T19:32:53Z</time>
      </trkpt>
      <trkpt lat="59.9636734" lon="17.7127446">
        <ele>30.4188</ele>
        <time>2014-04-03T19:32:54Z</time>
      </trkpt>
      <trkpt lat="59.9636517" lon="17.7127471">
        <ele>29.9381</ele>
        <time>2014-04-03T19:32:55Z</time>
      </trkpt>
      <trkpt lat="59.9636223" lon="17.7127377">
        <ele>30.4188</ele>
        <time>2014-04-03T19:32:56Z</time>
      </trkpt>
      <trkpt lat="59.9635924" lon="17.712723">
        <ele>30.4188</ele>
        <time>2014-04-03T19:32:57Z</time>
      </trkpt>
      <trkpt lat="59.9635589" lon="17.7126885">
        <ele>29.9381</ele>
        <time>2014-04-03T19:32:58Z</time>
      </trkpt>
      <trkpt lat="59.96353" lon="17.7126555">
        <ele>30.4188</ele>
        <time>2014-04-03T19:32:59Z</time>
      </trkpt>
      <trkpt lat="59.9634992" lon="17.712617">
        <ele>29.9381</ele>
        <time>2014-04-03T19:33:00Z</time>
      </trkpt>
      <trkpt lat="59.9634769" lon="17.7125933">
        <ele>29.4575</ele>
        <time>2014-04-03T19:33:01Z</time>
      </trkpt>
      <trkpt lat="59.9634546" lon="17.712564">
        <ele>29.4575</ele>
        <time>2014-04-03T19:33:02Z</time>
      </trkpt>
      <trkpt lat="59.9634269" lon="17.7125367">
        <ele>29.4575</ele>
        <time>2014-04-03T19:33:03Z</time>
      </trkpt>
      <trkpt lat="59.9633999" lon="17.7125182">
        <ele>30.4188</ele>
        <time>2014-04-03T19:33:04Z</time>
      </trkpt>
      <trkpt lat="59.9633746" lon="17.7125145">
        <ele>30.8995</ele>
        <time>2014-04-03T19:33:05Z</time>
      </trkpt>
      <trkpt lat="59.9633511" lon="17.7125142">
        <ele>31.8607</ele>
        <time>2014-04-03T19:33:06Z</time>
      </trkpt>
      <trkpt lat="59.9633254" lon="17.7125151">
        <ele>32.8223</ele>
        <time>2014-04-03T19:33:07Z</time>
      </trkpt>
      <trkpt lat="59.9633003" lon="17.7125219">
        <ele>33.7834</ele>
        <time>2014-04-03T19:33:08Z</time>
      </trkpt>
      <trkpt lat="59.963273" lon="17.7125398">
        <ele>35.2255</ele>
        <time>2014-04-03T19:33:09Z</time>
      </trkpt>
      <trkpt lat="59.9632483" lon="17.7125772">
        <ele>37.1481</ele>
        <time>2014-04-03T19:33:10Z</time>
      </trkpt>
      <trkpt lat="59.9632236" lon="17.7126103">
        <ele>38.5901</ele>
        <time>2014-04-03T19:33:11Z</time>
      </trkpt>
      <trkpt lat="59.9631995" lon="17.7126379">
        <ele>40.5128</ele>
        <time>2014-04-03T19:33:12Z</time>
      </trkpt>
      <trkpt lat="59.963175" lon="17.7126587">
        <ele>41.9547</ele>
        <time>2014-04-03T19:33:13Z</time>
      </trkpt>
      <trkpt lat="59.9631519" lon="17.7126841">
        <ele>43.8773</ele>
        <time>2014-04-03T19:33:14Z</time>
      </trkpt>
      <trkpt lat="59.9631326" lon="17.7127011">
        <ele>45.3192</ele>
        <time>2014-04-03T19:33:15Z</time>
      </trkpt>
      <trkpt lat="59.9631096" lon="17.7127088">
        <ele>45.7999</ele>
        <time>2014-04-03T19:33:16Z</time>
      </trkpt>
      <trkpt lat="59.9630843" lon="17.7127212">
        <ele>46.2806</ele>
        <time>2014-04-03T19:33:17Z</time>
      </trkpt>
      <trkpt lat="59.96306" lon="17.7127384">
        <ele>46.2806</ele>
        <time>2014-04-03T19:33:18Z</time>
      </trkpt>
      <trkpt lat="59.9630394" lon="17.7127554">
        <ele>46.2806</ele>
        <time>2014-04-03T19:33:19Z</time>
      </trkpt>
      <trkpt lat="59.9630202" lon="17.7127628">
        <ele>45.7999</ele>
        <time>2014-04-03T19:33:20Z</time>
      </trkpt>
      <trkpt lat="59.9630009" lon="17.7127727">
        <ele>46.2806</ele>
        <time>2014-04-03T19:33:21Z</time>
      </trkpt>
      <trkpt lat="59.9629838" lon="17.7127855">
        <ele>46.2806</ele>
        <time>2014-04-03T19:33:22Z</time>
      </trkpt>
      <trkpt lat="59.9629654" lon="17.7127961">
        <ele>46.2806</ele>
        <time>2014-04-03T19:33:23Z</time>
      </trkpt>
      <trkpt lat="59.9629471" lon="17.712811">
        <ele>46.2806</ele>
        <time>2014-04-03T19:33:24Z</time>
      </trkpt>
      <trkpt lat="59.9629299" lon="17.7128235">
        <ele>45.7999</ele>
        <time>2014-04-03T19:33:25Z</time>
      </trkpt>
      <trkpt lat="59.962911" lon="17.7128377">
        <ele>44.8386</ele>
        <time>2014-04-03T19:33:26Z</time>
      </trkpt>
      <trkpt lat="59.9628901" lon="17.7128554">
        <ele>43.3966</ele>
        <time>2014-04-03T19:33:27Z</time>
      </trkpt>
      <trkpt lat="59.9628688" lon="17.7128679">
        <ele>42.4354</ele>
        <time>2014-04-03T19:33:28Z</time>
      </trkpt>
      <trkpt lat="59.9628478" lon="17.7128856">
        <ele>41.9547</ele>
        <time>2014-04-03T19:33:29Z</time>
      </trkpt>
      <trkpt lat="59.9628316" lon="17.7129109">
        <ele>41.9547</ele>
        <time>2014-04-03T19:33:30Z</time>
      </trkpt>
      <trkpt lat="59.9628135" lon="17.7129394">
        <ele>41.9547</ele>
        <time>2014-04-03T19:33:31Z</time>
      </trkpt>
      <trkpt lat="59.9627893" lon="17.7129888">
        <ele>41.474</ele>
        <time>2014-04-03T19:33:32Z</time>
      </trkpt>
      <trkpt lat="59.9627624" lon="17.7130383">
        <ele>40.9934</ele>
        <time>2014-04-03T19:33:33Z</time>
      </trkpt>
      <trkpt lat="59.962737" lon="17.7130675">
        <ele>40.0321</ele>
        <time>2014-04-03T19:33:34Z</time>
      </trkpt>
      <trkpt lat="59.9627141" lon="17.7130908">
        <ele>39.0707</ele>
        <time>2014-04-03T19:33:35Z</time>
      </trkpt>
      <trkpt lat="59.9626945" lon="17.7131154">
        <ele>38.5901</ele>
        <time>2014-04-03T19:33:36Z</time>
      </trkpt>
      <trkpt lat="59.9626737" lon="17.7131415">
        <ele>37.6287</ele>
        <time>2014-04-03T19:33:37Z</time>
      </trkpt>
      <trkpt lat="59.9626504" lon="17.7131788">
        <ele>37.6287</ele>
        <time>2014-04-03T19:33:38Z</time>
      </trkpt>
      <trkpt lat="59.9626285" lon="17.7132008">
        <ele>37.1481</ele>
        <time>2014-04-03T19:33:39Z</time>
      </trkpt>
      <trkpt lat="59.9626082" lon="17.7132238">
        <ele>37.1481</ele>
        <time>2014-04-03T19:33:40Z</time>
      </trkpt>
      <trkpt lat="59.9625907" lon="17.7132386">
        <ele>37.1481</ele>
        <time>2014-04-03T19:33:41Z</time>
      </trkpt>
      <trkpt lat="59.9625737" lon="17.7132529">
        <ele>37.1481</ele>
        <time>2014-04-03T19:33:42Z</time>
      </trkpt>
      <trkpt lat="59.9625528" lon="17.7132653">
        <ele>36.6675</ele>
        <time>2014-04-03T19:33:43Z</time>
      </trkpt>
      <trkpt lat="59.9625358" lon="17.7132823">
        <ele>36.6675</ele>
        <time>2014-04-03T19:33:44Z</time>
      </trkpt>
      <trkpt lat="59.9625113" lon="17.7133174">
        <ele>37.1481</ele>
        <time>2014-04-03T19:33:45Z</time>
      </trkpt>
      <trkpt lat="59.9624851" lon="17.7133508">
        <ele>37.6287</ele>
        <time>2014-04-03T19:33:46Z</time>
      </trkpt>
      <trkpt lat="59.9624607" lon="17.7133695">
        <ele>37.1481</ele>
        <time>2014-04-03T19:33:47Z</time>
      </trkpt>
      <trkpt lat="59.9624321" lon="17.7133865">
        <ele>36.6675</ele>
        <time>2014-04-03T19:33:48Z</time>
      </trkpt>
      <trkpt lat="59.9624034" lon="17.7134158">
        <ele>37.6287</ele>
        <time>2014-04-03T19:33:49Z</time>
      </trkpt>
      <trkpt lat="59.9623795" lon="17.7134348">
        <ele>37.6287</ele>
        <time>2014-04-03T19:33:50Z</time>
      </trkpt>
      <trkpt lat="59.9623582" lon="17.713458">
        <ele>37.6287</ele>
        <time>2014-04-03T19:33:51Z</time>
      </trkpt>
      <trkpt lat="59.9623388" lon="17.7134778">
        <ele>37.6287</ele>
        <time>2014-04-03T19:33:52Z</time>
      </trkpt>
      <trkpt lat="59.9623155" lon="17.7134947">
        <ele>38.5901</ele>
        <time>2014-04-03T19:33:53Z</time>
      </trkpt>
      <trkpt lat="59.9622882" lon="17.7134956">
        <ele>38.1094</ele>
        <time>2014-04-03T19:33:54Z</time>
      </trkpt>
      <trkpt lat="59.9622642" lon="17.7135011">
        <ele>39.0707</ele>
        <time>2014-04-03T19:33:55Z</time>
      </trkpt>
      <trkpt lat="59.962241" lon="17.7134916">
        <ele>39.0707</ele>
        <time>2014-04-03T19:33:56Z</time>
      </trkpt>
      <trkpt lat="59.9622213" lon="17.713473">
        <ele>38.5901</ele>
        <time>2014-04-03T19:33:57Z</time>
      </trkpt>
      <trkpt lat="59.9622019" lon="17.7134555">
        <ele>38.5901</ele>
        <time>2014-04-03T19:33:58Z</time>
      </trkpt>
      <trkpt lat="59.9621824" lon="17.713433">
        <ele>37.6287</ele>
        <time>2014-04-03T19:33:59Z</time>
      </trkpt>
      <trkpt lat="59.9621696" lon="17.7134171">
        <ele>37.6287</ele>
        <time>2014-04-03T19:34:00Z</time>
      </trkpt>
      <trkpt lat="59.9621544" lon="17.713398">
        <ele>37.1481</ele>
        <time>2014-04-03T19:34:01Z</time>
      </trkpt>
      <trkpt lat="59.9621385" lon="17.7133796">
        <ele>37.1481</ele>
        <time>2014-04-03T19:34:02Z</time>
      </trkpt>
      <trkpt lat="59.9621195" lon="17.7133663">
        <ele>37.6287</ele>
        <time>2014-04-03T19:34:03Z</time>
      </trkpt>
      <trkpt lat="59.9621023" lon="17.7133533">
        <ele>38.1094</ele>
        <time>2014-04-03T19:34:04Z</time>
      </trkpt>
      <trkpt lat="59.9620889" lon="17.7133301">
        <ele>37.6287</ele>
        <time>2014-04-03T19:34:05Z</time>
      </trkpt>
      <trkpt lat="59.9620738" lon="17.7133053">
        <ele>37.1481</ele>
        <time>2014-04-03T19:34:06Z</time>
      </trkpt>
      <trkpt lat="59.9620592" lon="17.7132865">
        <ele>37.1481</ele>
        <time>2014-04-03T19:34:07Z</time>
      </trkpt>
      <trkpt lat="59.9620479" lon="17.7132733">
        <ele>37.1481</ele>
        <time>2014-04-03T19:34:08Z</time>
      </trkpt>
      <trkpt lat="59.9620342" lon="17.7132554">
        <ele>36.6675</ele>
        <time>2014-04-03T19:34:09Z</time>
      </trkpt>
      <trkpt lat="59.9620168" lon="17.713229">
        <ele>36.1868</ele>
        <time>2014-04-03T19:34:10Z</time>
      </trkpt>
      <trkpt lat="59.9619904" lon="17.7131894">
        <ele>36.1868</ele>
        <time>2014-04-03T19:34:11Z</time>
      </trkpt>
      <trkpt lat="59.9619643" lon="17.7131486">
        <ele>36.1868</ele>
        <time>2014-04-03T19:34:12Z</time>
      </trkpt>
      <trkpt lat="59.9619339" lon="17.7131192">
        <ele>36.6675</ele>
        <time>2014-04-03T19:34:13Z</time>
      </trkpt>
      <trkpt lat="59.9619029" lon="17.7130886">
        <ele>37.1481</ele>
        <time>2014-04-03T19:34:14Z</time>
      </trkpt>
      <trkpt lat="59.9618718" lon="17.7130534">
        <ele>37.6287</ele>
        <time>2014-04-03T19:34:15Z</time>
      </trkpt>
      <trkpt lat="59.9618391" lon="17.7130224">
        <ele>38.5901</ele>
        <time>2014-04-03T19:34:16Z</time>
      </trkpt>
      <trkpt lat="59.9618116" lon="17.7129918">
        <ele>38.5901</ele>
        <time>2014-04-03T19:34:17Z</time>
      </trkpt>
      <trkpt lat="59.9617885" lon="17.7129607">
        <ele>38.5901</ele>
        <time>2014-04-03T19:34:18Z</time>
      </trkpt>
      <trkpt lat="59.9617635" lon="17.7129305">
        <ele>39.0707</ele>
        <time>2014-04-03T19:34:19Z</time>
      </trkpt>
      <trkpt lat="59.9617406" lon="17.7129042">
        <ele>39.5513</ele>
        <time>2014-04-03T19:34:20Z</time>
      </trkpt>
      <trkpt lat="59.9617182" lon="17.7128905">
        <ele>40.0321</ele>
        <time>2014-04-03T19:34:21Z</time>
      </trkpt>
      <trkpt lat="59.9616946" lon="17.7128669">
        <ele>39.5513</ele>
        <time>2014-04-03T19:34:22Z</time>
      </trkpt>
      <trkpt lat="59.9616677" lon="17.7128344">
        <ele>39.5513</ele>
        <time>2014-04-03T19:34:23Z</time>
      </trkpt>
      <trkpt lat="59.9616321" lon="17.7127985">
        <ele>39.5513</ele>
        <time>2014-04-03T19:34:24Z</time>
      </trkpt>
      <trkpt lat="59.9615983" lon="17.7127623">
        <ele>40.0321</ele>
        <time>2014-04-03T19:34:25Z</time>
      </trkpt>
      <trkpt lat="59.9615652" lon="17.7127196">
        <ele>40.0321</ele>
        <time>2014-04-03T19:34:26Z</time>
      </trkpt>
      <trkpt lat="59.9615413" lon="17.712673">
        <ele>40.0321</ele>
        <time>2014-04-03T19:34:27Z</time>
      </trkpt>
      <trkpt lat="59.9615207" lon="17.7126359">
        <ele>39.5513</ele>
        <time>2014-04-03T19:34:28Z</time>
      </trkpt>
      <trkpt lat="59.9614998" lon="17.7126064">
        <ele>39.5513</ele>
        <time>2014-04-03T19:34:29Z</time>
      </trkpt>
      <trkpt lat="59.9614838" lon="17.7125841">
        <ele>40.0321</ele>
        <time>2014-04-03T19:34:30Z</time>
      </trkpt>
      <trkpt lat="59.9614686" lon="17.7125618">
        <ele>40.5128</ele>
        <time>2014-04-03T19:34:31Z</time>
      </trkpt>
      <trkpt lat="59.9614518" lon="17.7125354">
        <ele>40.5128</ele>
        <time>2014-04-03T19:34:32Z</time>
      </trkpt>
      <trkpt lat="59.9614349" lon="17.7125043">
        <ele>40.0321</ele>
        <time>2014-04-03T19:34:33Z</time>
      </trkpt>
      <trkpt lat="59.9614127" lon="17.7124664">
        <ele>40.0321</ele>
        <time>2014-04-03T19:34:34Z</time>
      </trkpt>
      <trkpt lat="59.9613837" lon="17.7124298">
        <ele>40.9934</ele>
        <time>2014-04-03T19:34:35Z</time>
      </trkpt>
      <trkpt lat="59.9613588" lon="17.7123984">
        <ele>41.474</ele>
        <time>2014-04-03T19:34:36Z</time>
      </trkpt>
      <trkpt lat="59.9613371" lon="17.7123681">
        <ele>40.9934</ele>
        <time>2014-04-03T19:34:37Z</time>
      </trkpt>
      <trkpt lat="59.9613181" lon="17.7123348">
        <ele>40.9934</ele>
        <time>2014-04-03T19:34:38Z</time>
      </trkpt>
      <trkpt lat="59.9613108" lon="17.7123205">
        <ele>40.5128</ele>
        <time>2014-04-03T19:34:39Z</time>
      </trkpt>
      <trkpt lat="59.9612952" lon="17.7122966">
        <ele>40.5128</ele>
        <time>2014-04-03T19:34:40Z</time>
      </trkpt>
      <trkpt lat="59.9612797" lon="17.7122685">
        <ele>40.0321</ele>
        <time>2014-04-03T19:34:41Z</time>
      </trkpt>
      <trkpt lat="59.9612736" lon="17.7122596">
        <ele>40.0321</ele>
        <time>2014-04-03T19:34:42Z</time>
      </trkpt>
      <trkpt lat="59.9612569" lon="17.7122458">
        <ele>40.0321</ele>
        <time>2014-04-03T19:34:43Z</time>
      </trkpt>
      <trkpt lat="59.9612412" lon="17.7122166">
        <ele>39.0707</ele>
        <time>2014-04-03T19:34:44Z</time>
      </trkpt>
      <trkpt lat="59.9612097" lon="17.7121752">
        <ele>40.0321</ele>
        <time>2014-04-03T19:34:45Z</time>
      </trkpt>
      <trkpt lat="59.9611811" lon="17.7121312">
        <ele>39.0707</ele>
        <time>2014-04-03T19:34:46Z</time>
      </trkpt>
      <trkpt lat="59.9611449" lon="17.7120841">
        <ele>40.0321</ele>
        <time>2014-04-03T19:34:47Z</time>
      </trkpt>
      <trkpt lat="59.961129" lon="17.7120614">
        <ele>39.5513</ele>
        <time>2014-04-03T19:34:48Z</time>
      </trkpt>
      <trkpt lat="59.9611073" lon="17.7120339">
        <ele>39.5513</ele>
        <time>2014-04-03T19:34:49Z</time>
      </trkpt>
      <trkpt lat="59.9610731" lon="17.7119843">
        <ele>40.0321</ele>
        <time>2014-04-03T19:34:50Z</time>
      </trkpt>
      <trkpt lat="59.9610422" lon="17.7119434">
        <ele>40.0321</ele>
        <time>2014-04-03T19:34:51Z</time>
      </trkpt>
      <trkpt lat="59.9610138" lon="17.7119086">
        <ele>40.0321</ele>
        <time>2014-04-03T19:34:52Z</time>
      </trkpt>
      <trkpt lat="59.9609824" lon="17.7118695">
        <ele>40.0321</ele>
        <time>2014-04-03T19:34:53Z</time>
      </trkpt>
      <trkpt lat="59.96095" lon="17.7118328">
        <ele>39.5513</ele>
        <time>2014-04-03T19:34:54Z</time>
      </trkpt>
      <trkpt lat="59.9609187" lon="17.7118152">
        <ele>39.5513</ele>
        <time>2014-04-03T19:34:55Z</time>
      </trkpt>
      <trkpt lat="59.96089" lon="17.7117941">
        <ele>39.5513</ele>
        <time>2014-04-03T19:34:56Z</time>
      </trkpt>
      <trkpt lat="59.9608558" lon="17.7117621">
        <ele>39.5513</ele>
        <time>2014-04-03T19:34:57Z</time>
      </trkpt>
      <trkpt lat="59.9608223" lon="17.711731">
        <ele>39.5513</ele>
        <time>2014-04-03T19:34:58Z</time>
      </trkpt>
      <trkpt lat="59.9607876" lon="17.7117055">
        <ele>40.0321</ele>
        <time>2014-04-03T19:34:59Z</time>
      </trkpt>
      <trkpt lat="59.9607519" lon="17.711677">
        <ele>39.0707</ele>
        <time>2014-04-03T19:35:00Z</time>
      </trkpt>
      <trkpt lat="59.9607193" lon="17.7116561">
        <ele>39.0707</ele>
        <time>2014-04-03T19:35:01Z</time>
      </trkpt>
      <trkpt lat="59.9606845" lon="17.7116385">
        <ele>38.5901</ele>
        <time>2014-04-03T19:35:02Z</time>
      </trkpt>
      <trkpt lat="59.9606467" lon="17.7116315">
        <ele>38.1094</ele>
        <time>2014-04-03T19:35:03Z</time>
      </trkpt>
      <trkpt lat="59.960613" lon="17.7116235">
        <ele>38.1094</ele>
        <time>2014-04-03T19:35:04Z</time>
      </trkpt>
      <trkpt lat="59.9605793" lon="17.711607">
        <ele>37.6287</ele>
        <time>2014-04-03T19:35:05Z</time>
      </trkpt>
      <trkpt lat="59.9605481" lon="17.7115989">
        <ele>37.1481</ele>
        <time>2014-04-03T19:35:06Z</time>
      </trkpt>
      <trkpt lat="59.9605211" lon="17.7116033">
        <ele>37.6287</ele>
        <time>2014-04-03T19:35:07Z</time>
      </trkpt>
      <trkpt lat="59.9604943" lon="17.7116185">
        <ele>37.1481</ele>
        <time>2014-04-03T19:35:08Z</time>
      </trkpt>
      <trkpt lat="59.960471" lon="17.7116507">
        <ele>36.6675</ele>
        <time>2014-04-03T19:35:09Z</time>
      </trkpt>
      <trkpt lat="59.9604546" lon="17.7116889">
        <ele>36.6675</ele>
        <time>2014-04-03T19:35:10Z</time>
      </trkpt>
      <trkpt lat="59.9604461" lon="17.7117424">
        <ele>36.6675</ele>
        <time>2014-04-03T19:35:11Z</time>
      </trkpt>
      <trkpt lat="59.9604437" lon="17.7118009">
        <ele>36.1868</ele>
        <time>2014-04-03T19:35:12Z</time>
      </trkpt>
      <trkpt lat="59.9604442" lon="17.7118557">
        <ele>35.7061</ele>
        <time>2014-04-03T19:35:13Z</time>
      </trkpt>
      <trkpt lat="59.9604473" lon="17.7119141">
        <ele>35.7061</ele>
        <time>2014-04-03T19:35:14Z</time>
      </trkpt>
      <trkpt lat="59.9604498" lon="17.7119716">
        <ele>35.7061</ele>
        <time>2014-04-03T19:35:15Z</time>
      </trkpt>
      <trkpt lat="59.9604484" lon="17.7120267">
        <ele>35.7061</ele>
        <time>2014-04-03T19:35:16Z</time>
      </trkpt>
      <trkpt lat="59.9604489" lon="17.7120861">
        <ele>35.7061</ele>
        <time>2014-04-03T19:35:17Z</time>
      </trkpt>
      <trkpt lat="59.9604483" lon="17.712148">
        <ele>36.1868</ele>
        <time>2014-04-03T19:35:18Z</time>
      </trkpt>
      <trkpt lat="59.9604436" lon="17.7122078">
        <ele>36.1868</ele>
        <time>2014-04-03T19:35:19Z</time>
      </trkpt>
      <trkpt lat="59.9604432" lon="17.7122614">
        <ele>36.6675</ele>
        <time>2014-04-03T19:35:20Z</time>
      </trkpt>
      <trkpt lat="59.9604446" lon="17.7123145">
        <ele>36.6675</ele>
        <time>2014-04-03T19:35:21Z</time>
      </trkpt>
      <trkpt lat="59.9604456" lon="17.7123712">
        <ele>37.1481</ele>
        <time>2014-04-03T19:35:22Z</time>
      </trkpt>
      <trkpt lat="59.9604494" lon="17.7124248">
        <ele>37.1481</ele>
        <time>2014-04-03T19:35:23Z</time>
      </trkpt>
      <trkpt lat="59.960446" lon="17.7124795">
        <ele>37.6287</ele>
        <time>2014-04-03T19:35:24Z</time>
      </trkpt>
      <trkpt lat="59.9604372" lon="17.7125354">
        <ele>38.1094</ele>
        <time>2014-04-03T19:35:25Z</time>
      </trkpt>
      <trkpt lat="59.9604302" lon="17.7125875">
        <ele>37.6287</ele>
        <time>2014-04-03T19:35:26Z</time>
      </trkpt>
      <trkpt lat="59.9604243" lon="17.712639">
        <ele>37.6287</ele>
        <time>2014-04-03T19:35:27Z</time>
      </trkpt>
      <trkpt lat="59.9604203" lon="17.7126929">
        <ele>37.6287</ele>
        <time>2014-04-03T19:35:28Z</time>
      </trkpt>
      <trkpt lat="59.9604208" lon="17.7127489">
        <ele>38.1094</ele>
        <time>2014-04-03T19:35:29Z</time>
      </trkpt>
      <trkpt lat="59.9604214" lon="17.7128042">
        <ele>38.1094</ele>
        <time>2014-04-03T19:35:30Z</time>
      </trkpt>
      <trkpt lat="59.9604248" lon="17.7128565">
        <ele>38.1094</ele>
        <time>2014-04-03T19:35:31Z</time>
      </trkpt>
      <trkpt lat="59.9604255" lon="17.7129125">
        <ele>37.6287</ele>
        <time>2014-04-03T19:35:32Z</time>
      </trkpt>
      <trkpt lat="59.9604274" lon="17.7129716">
        <ele>37.6287</ele>
        <time>2014-04-03T19:35:33Z</time>
      </trkpt>
      <trkpt lat="59.9604317" lon="17.7130258">
        <ele>37.1481</ele>
        <time>2014-04-03T19:35:34Z</time>
      </trkpt>
      <trkpt lat="59.9604362" lon="17.7130771">
        <ele>36.6675</ele>
        <time>2014-04-03T19:35:35Z</time>
      </trkpt>
      <trkpt lat="59.9604422" lon="17.7131187">
        <ele>36.6675</ele>
        <time>2014-04-03T19:35:36Z</time>
      </trkpt>
      <trkpt lat="59.9604531" lon="17.7131611">
        <ele>36.6675</ele>
        <time>2014-04-03T19:35:37Z</time>
      </trkpt>
      <trkpt lat="59.960469" lon="17.7132015">
        <ele>36.6675</ele>
        <time>2014-04-03T19:35:38Z</time>
      </trkpt>
      <trkpt lat="59.9604876" lon="17.7132379">
        <ele>36.6675</ele>
        <time>2014-04-03T19:35:39Z</time>
      </trkpt>
      <trkpt lat="59.9605052" lon="17.7132793">
        <ele>36.6675</ele>
        <time>2014-04-03T19:35:40Z</time>
      </trkpt>
      <trkpt lat="59.9605206" lon="17.7133268">
        <ele>37.1481</ele>
        <time>2014-04-03T19:35:41Z</time>
      </trkpt>
      <trkpt lat="59.9605405" lon="17.7133683">
        <ele>37.6287</ele>
        <time>2014-04-03T19:35:42Z</time>
      </trkpt>
      <trkpt lat="59.9605555" lon="17.7134137">
        <ele>38.1094</ele>
        <time>2014-04-03T19:35:43Z</time>
      </trkpt>
      <trkpt lat="59.9605683" lon="17.7134669">
        <ele>39.0707</ele>
        <time>2014-04-03T19:35:44Z</time>
      </trkpt>
      <trkpt lat="59.9605741" lon="17.7135279">
        <ele>39.0707</ele>
        <time>2014-04-03T19:35:45Z</time>
      </trkpt>
      <trkpt lat="59.9605726" lon="17.7135901">
        <ele>39.0707</ele>
        <time>2014-04-03T19:35:46Z</time>
      </trkpt>
      <trkpt lat="59.9605691" lon="17.7136487">
        <ele>38.5901</ele>
        <time>2014-04-03T19:35:47Z</time>
      </trkpt>
      <trkpt lat="59.9605675" lon="17.7137109">
        <ele>38.5901</ele>
        <time>2014-04-03T19:35:48Z</time>
      </trkpt>
      <trkpt lat="59.9605691" lon="17.7137616">
        <ele>38.1094</ele>
        <time>2014-04-03T19:35:49Z</time>
      </trkpt>
      <trkpt lat="59.9605735" lon="17.7138048">
        <ele>38.1094</ele>
        <time>2014-04-03T19:35:50Z</time>
      </trkpt>
      <trkpt lat="59.9605679" lon="17.7138499">
        <ele>37.6287</ele>
        <time>2014-04-03T19:35:51Z</time>
      </trkpt>
      <trkpt lat="59.9605576" lon="17.713887">
        <ele>37.1481</ele>
        <time>2014-04-03T19:35:52Z</time>
      </trkpt>
      <trkpt lat="59.9605541" lon="17.7139511">
        <ele>39.0707</ele>
        <time>2014-04-03T19:35:53Z</time>
      </trkpt>
      <trkpt lat="59.9605421" lon="17.713996">
        <ele>38.5901</ele>
        <time>2014-04-03T19:35:54Z</time>
      </trkpt>
      <trkpt lat="59.9605273" lon="17.7140392">
        <ele>39.5513</ele>
        <time>2014-04-03T19:35:55Z</time>
      </trkpt>
      <trkpt lat="59.9605145" lon="17.7141065">
        <ele>41.474</ele>
        <time>2014-04-03T19:35:56Z</time>
      </trkpt>
      <trkpt lat="59.9605001" lon="17.7141548">
        <ele>42.916</ele>
        <time>2014-04-03T19:35:57Z</time>
      </trkpt>
      <trkpt lat="59.9604814" lon="17.7141763">
        <ele>42.916</ele>
        <time>2014-04-03T19:35:58Z</time>
      </trkpt>
      <trkpt lat="59.9604611" lon="17.714189">
        <ele>43.3966</ele>
        <time>2014-04-03T19:35:59Z</time>
      </trkpt>
      <trkpt lat="59.9604399" lon="17.7142063">
        <ele>43.8773</ele>
        <time>2014-04-03T19:36:00Z</time>
      </trkpt>
      <trkpt lat="59.9604183" lon="17.7142329">
        <ele>44.358</ele>
        <time>2014-04-03T19:36:01Z</time>
      </trkpt>
      <trkpt lat="59.9603944" lon="17.7142608">
        <ele>44.8386</ele>
        <time>2014-04-03T19:36:02Z</time>
      </trkpt>
      <trkpt lat="59.960372" lon="17.7142904">
        <ele>45.7999</ele>
        <time>2014-04-03T19:36:03Z</time>
      </trkpt>
      <trkpt lat="59.9603499" lon="17.7143208">
        <ele>46.2806</ele>
        <time>2014-04-03T19:36:04Z</time>
      </trkpt>
      <trkpt lat="59.9603281" lon="17.7143467">
        <ele>46.2806</ele>
        <time>2014-04-03T19:36:05Z</time>
      </trkpt>
      <trkpt lat="59.9603078" lon="17.7143687">
        <ele>46.2806</ele>
        <time>2014-04-03T19:36:06Z</time>
      </trkpt>
      <trkpt lat="59.9602896" lon="17.7143888">
        <ele>47.2418</ele>
        <time>2014-04-03T19:36:07Z</time>
      </trkpt>
      <trkpt lat="59.9602694" lon="17.7144111">
        <ele>47.2418</ele>
        <time>2014-04-03T19:36:08Z</time>
      </trkpt>
      <trkpt lat="59.9602484" lon="17.7144354">
        <ele>47.2418</ele>
        <time>2014-04-03T19:36:09Z</time>
      </trkpt>
      <trkpt lat="59.960228" lon="17.7144551">
        <ele>47.2418</ele>
        <time>2014-04-03T19:36:10Z</time>
      </trkpt>
      <trkpt lat="59.9602111" lon="17.714468">
        <ele>47.2418</ele>
        <time>2014-04-03T19:36:11Z</time>
      </trkpt>
      <trkpt lat="59.9601984" lon="17.7144903">
        <ele>47.7225</ele>
        <time>2014-04-03T19:36:12Z</time>
      </trkpt>
      <trkpt lat="59.9601842" lon="17.7145194">
        <ele>47.7225</ele>
        <time>2014-04-03T19:36:13Z</time>
      </trkpt>
      <trkpt lat="59.9601685" lon="17.7145511">
        <ele>48.2034</ele>
        <time>2014-04-03T19:36:14Z</time>
      </trkpt>
      <trkpt lat="59.9601494" lon="17.714583">
        <ele>48.2034</ele>
        <time>2014-04-03T19:36:15Z</time>
      </trkpt>
      <trkpt lat="59.960128" lon="17.71461">
        <ele>48.2034</ele>
        <time>2014-04-03T19:36:16Z</time>
      </trkpt>
      <trkpt lat="59.9601072" lon="17.7146334">
        <ele>48.684</ele>
        <time>2014-04-03T19:36:17Z</time>
      </trkpt>
      <trkpt lat="59.9600846" lon="17.7146621">
        <ele>48.2034</ele>
        <time>2014-04-03T19:36:18Z</time>
      </trkpt>
      <trkpt lat="59.9600603" lon="17.7146953">
        <ele>48.2034</ele>
        <time>2014-04-03T19:36:19Z</time>
      </trkpt>
      <trkpt lat="59.9600363" lon="17.7147301">
        <ele>48.2034</ele>
        <time>2014-04-03T19:36:20Z</time>
      </trkpt>
      <trkpt lat="59.9600136" lon="17.7147633">
        <ele>48.2034</ele>
        <time>2014-04-03T19:36:21Z</time>
      </trkpt>
      <trkpt lat="59.9599893" lon="17.7147911">
        <ele>47.7225</ele>
        <time>2014-04-03T19:36:22Z</time>
      </trkpt>
      <trkpt lat="59.9599653" lon="17.7148177">
        <ele>48.2034</ele>
        <time>2014-04-03T19:36:23Z</time>
      </trkpt>
      <trkpt lat="59.9599407" lon="17.7148498">
        <ele>47.7225</ele>
        <time>2014-04-03T19:36:24Z</time>
      </trkpt>
      <trkpt lat="59.9599178" lon="17.7148836">
        <ele>47.2418</ele>
        <time>2014-04-03T19:36:25Z</time>
      </trkpt>
      <trkpt lat="59.9598983" lon="17.7149125">
        <ele>46.7612</ele>
        <time>2014-04-03T19:36:26Z</time>
      </trkpt>
      <trkpt lat="59.9598764" lon="17.7149437">
        <ele>46.7612</ele>
        <time>2014-04-03T19:36:27Z</time>
      </trkpt>
      <trkpt lat="59.9598536" lon="17.7149748">
        <ele>46.7612</ele>
        <time>2014-04-03T19:36:28Z</time>
      </trkpt>
      <trkpt lat="59.959832" lon="17.7150102">
        <ele>46.7612</ele>
        <time>2014-04-03T19:36:29Z</time>
      </trkpt>
      <trkpt lat="59.9598064" lon="17.7150533">
        <ele>46.2806</ele>
        <time>2014-04-03T19:36:30Z</time>
      </trkpt>
      <trkpt lat="59.9597801" lon="17.7150949">
        <ele>46.2806</ele>
        <time>2014-04-03T19:36:31Z</time>
      </trkpt>
      <trkpt lat="59.959755" lon="17.715129">
        <ele>45.7999</ele>
        <time>2014-04-03T19:36:32Z</time>
      </trkpt>
      <trkpt lat="59.9597304" lon="17.7151658">
        <ele>47.2418</ele>
        <time>2014-04-03T19:36:33Z</time>
      </trkpt>
      <trkpt lat="59.9597086" lon="17.7152041">
        <ele>48.2034</ele>
        <time>2014-04-03T19:36:34Z</time>
      </trkpt>
      <trkpt lat="59.9596874" lon="17.7152411">
        <ele>48.684</ele>
        <time>2014-04-03T19:36:35Z</time>
      </trkpt>
      <trkpt lat="59.9596625" lon="17.715284">
        <ele>48.684</ele>
        <time>2014-04-03T19:36:36Z</time>
      </trkpt>
      <trkpt lat="59.9596402" lon="17.7153253">
        <ele>48.2034</ele>
        <time>2014-04-03T19:36:37Z</time>
      </trkpt>
      <trkpt lat="59.9596229" lon="17.7153658">
        <ele>48.2034</ele>
        <time>2014-04-03T19:36:38Z</time>
      </trkpt>
      <trkpt lat="59.9596072" lon="17.715415">
        <ele>48.684</ele>
        <time>2014-04-03T19:36:39Z</time>
      </trkpt>
      <trkpt lat="59.9595986" lon="17.7154605">
        <ele>48.684</ele>
        <time>2014-04-03T19:36:40Z</time>
      </trkpt>
      <trkpt lat="59.9595973" lon="17.7155196">
        <ele>49.1646</ele>
        <time>2014-04-03T19:36:41Z</time>
      </trkpt>
      <trkpt lat="59.9595996" lon="17.7155788">
        <ele>49.1646</ele>
        <time>2014-04-03T19:36:42Z</time>
      </trkpt>
      <trkpt lat="59.9596076" lon="17.7156318">
        <ele>48.684</ele>
        <time>2014-04-03T19:36:43Z</time>
      </trkpt>
      <trkpt lat="59.9596201" lon="17.7156673">
        <ele>47.7225</ele>
        <time>2014-04-03T19:36:44Z</time>
      </trkpt>
      <trkpt lat="59.9596371" lon="17.7157093">
        <ele>47.2418</ele>
        <time>2014-04-03T19:36:45Z</time>
      </trkpt>
      <trkpt lat="59.9596597" lon="17.7157489">
        <ele>46.7612</ele>
        <time>2014-04-03T19:36:46Z</time>
      </trkpt>
      <trkpt lat="59.9596853" lon="17.7157876">
        <ele>46.7612</ele>
        <time>2014-04-03T19:36:47Z</time>
      </trkpt>
      <trkpt lat="59.9597065" lon="17.7158298">
        <ele>46.7612</ele>
        <time>2014-04-03T19:36:48Z</time>
      </trkpt>
      <trkpt lat="59.9597328" lon="17.7158548">
        <ele>46.2806</ele>
        <time>2014-04-03T19:36:49Z</time>
      </trkpt>
      <trkpt lat="59.9597588" lon="17.7158844">
        <ele>46.2806</ele>
        <time>2014-04-03T19:36:50Z</time>
      </trkpt>
      <trkpt lat="59.9597816" lon="17.7159207">
        <ele>46.2806</ele>
        <time>2014-04-03T19:36:51Z</time>
      </trkpt>
      <trkpt lat="59.9598009" lon="17.7159584">
        <ele>45.7999</ele>
        <time>2014-04-03T19:36:52Z</time>
      </trkpt>
      <trkpt lat="59.9598241" lon="17.7159944">
        <ele>45.3192</ele>
        <time>2014-04-03T19:36:53Z</time>
      </trkpt>
      <trkpt lat="59.9598458" lon="17.7160352">
        <ele>45.3192</ele>
        <time>2014-04-03T19:36:54Z</time>
      </trkpt>
      <trkpt lat="59.9598723" lon="17.7160719">
        <ele>45.7999</ele>
        <time>2014-04-03T19:36:55Z</time>
      </trkpt>
      <trkpt lat="59.9598974" lon="17.7161091">
        <ele>45.7999</ele>
        <time>2014-04-03T19:36:56Z</time>
      </trkpt>
      <trkpt lat="59.9599236" lon="17.7161453">
        <ele>45.7999</ele>
        <time>2014-04-03T19:36:57Z</time>
      </trkpt>
      <trkpt lat="59.9599504" lon="17.7161775">
        <ele>45.7999</ele>
        <time>2014-04-03T19:36:58Z</time>
      </trkpt>
      <trkpt lat="59.9599805" lon="17.7162045">
        <ele>45.7999</ele>
        <time>2014-04-03T19:36:59Z</time>
      </trkpt>
      <trkpt lat="59.9600122" lon="17.7162369">
        <ele>45.7999</ele>
        <time>2014-04-03T19:37:00Z</time>
      </trkpt>
      <trkpt lat="59.9600401" lon="17.7162833">
        <ele>46.2806</ele>
        <time>2014-04-03T19:37:01Z</time>
      </trkpt>
      <trkpt lat="59.9600618" lon="17.7163349">
        <ele>46.2806</ele>
        <time>2014-04-03T19:37:02Z</time>
      </trkpt>
      <trkpt lat="59.960083" lon="17.7163775">
        <ele>46.2806</ele>
        <time>2014-04-03T19:37:03Z</time>
      </trkpt>
      <trkpt lat="59.9601058" lon="17.7164168">
        <ele>46.2806</ele>
        <time>2014-04-03T19:37:04Z</time>
      </trkpt>
      <trkpt lat="59.9601309" lon="17.7164604">
        <ele>46.2806</ele>
        <time>2014-04-03T19:37:05Z</time>
      </trkpt>
      <trkpt lat="59.9601541" lon="17.7165059">
        <ele>46.7612</ele>
        <time>2014-04-03T19:37:06Z</time>
      </trkpt>
      <trkpt lat="59.9601743" lon="17.7165557">
        <ele>47.2418</ele>
        <time>2014-04-03T19:37:07Z</time>
      </trkpt>
      <trkpt lat="59.9601934" lon="17.7166038">
        <ele>47.2418</ele>
        <time>2014-04-03T19:37:08Z</time>
      </trkpt>
      <trkpt lat="59.9602178" lon="17.7166625">
        <ele>47.7225</ele>
        <time>2014-04-03T19:37:09Z</time>
      </trkpt>
      <trkpt lat="59.9602405" lon="17.7167193">
        <ele>47.7225</ele>
        <time>2014-04-03T19:37:10Z</time>
      </trkpt>
      <trkpt lat="59.9602591" lon="17.7167701">
        <ele>47.2418</ele>
        <time>2014-04-03T19:37:11Z</time>
      </trkpt>
      <trkpt lat="59.9602779" lon="17.7168178">
        <ele>47.2418</ele>
        <time>2014-04-03T19:37:12Z</time>
      </trkpt>
      <trkpt lat="59.9602909" lon="17.7168609">
        <ele>46.7612</ele>
        <time>2014-04-03T19:37:13Z</time>
      </trkpt>
      <trkpt lat="59.9603048" lon="17.7169015">
        <ele>46.2806</ele>
        <time>2014-04-03T19:37:14Z</time>
      </trkpt>
      <trkpt lat="59.9603232" lon="17.7169466">
        <ele>46.2806</ele>
        <time>2014-04-03T19:37:15Z</time>
      </trkpt>
      <trkpt lat="59.9603369" lon="17.7169929">
        <ele>46.2806</ele>
        <time>2014-04-03T19:37:16Z</time>
      </trkpt>
    </trkseg>
  </trk>
</gpx>